Station De Corny-Sur-Moselle
Donnes mto: Actuelle dimanche, 20/08/2017 11:37
Date Horaire Temp. E. Temp.feuil. Temp. -10cm Temp. -30cm Temp. - 50cm Temp.-100cm Hum. E. Hum.feuil. 1 Hum. -10cm Hum.-20cm Hum. -50cm Hum.-100cm P.atmo. Pluie Vent Direction Direction Ensoleilleme Ev.Tr. UV Solaire P. de rose Temp au vent Rafales
20/08/2017 11:37 16,8 C 20,0 C 20,0 C 17,8 C 18,9 C 18,9 C 67 % 0 lf 13 cb 30 cb 87 cb 43 cb 1025,0 hPa 0,0 l/m 6,4 km/h (2 Bft) S 180 1 min 0 mm 4 UV-I 752 W/m 10,6 C 16,8 C 11,3 km/h (2 Bft)
20/08/2017 11:36 16,8 C 19,4 C 19,4 C 17,8 C 18,9 C 18,9 C 67 % 0 lf 13 cb 30 cb 87 cb 43 cb 1025,0 hPa 0,0 l/m 1,6 km/h (1 Bft) S-SO 202 1 min 0 mm 4 UV-I 752 W/m 10,6 C 16,8 C 3,2 km/h (1 Bft)
20/08/2017 11:35 16,8 C 19,4 C 19,4 C 17,8 C 18,9 C 18,9 C 67 % 0 lf 13 cb 30 cb 87 cb 43 cb 1024,9 hPa 0,0 l/m 4,8 km/h (1 Bft) S 180 1 min 0 mm 3 UV-I 752 W/m 10,6 C 16,8 C 8,0 km/h (2 Bft)
20/08/2017 11:34 16,7 C 18,3 C 18,3 C 17,8 C 18,9 C 18,9 C 66 % 0 lf 13 cb 30 cb 87 cb 43 cb 1025,0 hPa 0,0 l/m 8,0 km/h (2 Bft) S 180 1 min 0 mm 4 UV-I 752 W/m 10,3 C 15,9 C 11,3 km/h (2 Bft)
20/08/2017 11:33 16,7 C 18,3 C 18,3 C 17,8 C 18,9 C 18,9 C 65 % 0 lf 13 cb 30 cb 87 cb 43 cb 1025,0 hPa 0,0 l/m 9,7 km/h (2 Bft) S 180 0 min 0 mm 3 UV-I 255 W/m 10,1 C 15,1 C 11,3 km/h (2 Bft)
20/08/2017 11:32 16,8 C 18,3 C 18,3 C 17,8 C 18,9 C 18,9 C 65 % 0 lf 13 cb 30 cb 87 cb 43 cb 1025,0 hPa 0,0 l/m 9,7 km/h (2 Bft) S 180 0 min 0 mm 2 UV-I 255 W/m 10,2 C 15,2 C 11,3 km/h (2 Bft)
20/08/2017 11:31 16,8 C 18,9 C 18,3 C 17,8 C 18,9 C 18,9 C 65 % 0 lf 13 cb 30 cb 87 cb 43 cb 1025,0 hPa 0,0 l/m 8,0 km/h (2 Bft) S 180 0 min 0 mm 2 UV-I 197 W/m 10,2 C 16,0 C 11,3 km/h (2 Bft)
20/08/2017 11:30 16,7 C 18,9 C 18,9 C 17,8 C 18,9 C 18,9 C 66 % 0 lf 13 cb 30 cb 87 cb 43 cb 1025,0 hPa 0,0 l/m 3,2 km/h (1 Bft) SO 225 0 min 0 mm 2 UV-I 193 W/m 10,3 C 16,7 C 6,4 km/h (2 Bft)
20/08/2017 11:29 16,7 C 18,9 C 18,9 C 17,8 C 18,9 C 18,9 C 67 % 0 lf 13 cb 30 cb 87 cb 43 cb 1025,1 hPa 0,0 l/m 1,6 km/h (1 Bft) SO 225 0 min 0 mm 2 UV-I 178 W/m 10,5 C 16,7 C 3,2 km/h (1 Bft)
20/08/2017 11:28 16,7 C 19,4 C 19,4 C 17,8 C 18,9 C 18,9 C 67 % 0 lf 13 cb 30 cb 87 cb 43 cb 1025,1 hPa 0,0 l/m 4,8 km/h (1 Bft) SO 225 0 min 0 mm 2 UV-I 178 W/m 10,5 C 16,7 C 8,0 km/h (2 Bft)
20/08/2017 11:27 16,7 C 19,4 C 19,4 C 17,8 C 18,9 C 18,9 C 68 % 0 lf 13 cb 30 cb 87 cb 43 cb 1025,1 hPa 0,0 l/m 8,0 km/h (2 Bft) S-SO 202 0 min 0 mm 2 UV-I 178 W/m 10,8 C 15,9 C 9,7 km/h (2 Bft)
20/08/2017 11:26 16,7 C 18,9 C 18,9 C 17,8 C 18,9 C 18,9 C 68 % 0 lf 13 cb 30 cb 87 cb 43 cb 1025,2 hPa 0,0 l/m 4,8 km/h (1 Bft) S-SE 157 1 min 0 mm 4 UV-I 561 W/m 10,8 C 16,7 C 8,0 km/h (2 Bft)
20/08/2017 11:25 16,7 C 18,3 C 18,3 C 17,8 C 18,9 C 18,9 C 68 % 0 lf 13 cb 30 cb 87 cb 43 cb 1025,2 hPa 0,0 l/m 4,8 km/h (1 Bft) O 270 1 min 0 mm 4 UV-I 561 W/m 10,8 C 16,7 C 8,0 km/h (2 Bft)
20/08/2017 11:24 16,7 C 18,3 C 18,3 C 17,8 C 18,9 C 18,9 C 68 % 0 lf 13 cb 30 cb 87 cb 43 cb 1025,1 hPa 0,0 l/m 8,0 km/h (2 Bft) O 270 1 min 0 mm 3 UV-I 561 W/m 10,8 C 15,9 C 11,3 km/h (2 Bft)
20/08/2017 11:23 16,7 C 18,3 C 18,3 C 17,8 C 18,9 C 18,9 C 69 % 0 lf 13 cb 30 cb 87 cb 43 cb 1025,2 hPa 0,0 l/m 4,8 km/h (1 Bft) O 270 0 min 0 mm 2 UV-I 167 W/m 11,0 C 16,7 C 9,7 km/h (2 Bft)
20/08/2017 11:22 16,8 C 18,3 C 18,3 C 17,8 C 18,9 C 18,9 C 69 % 0 lf 13 cb 30 cb 87 cb 43 cb 1025,2 hPa 0,0 l/m 9,7 km/h (2 Bft) S-SO 202 0 min 0 mm 2 UV-I 167 W/m 11,1 C 15,2 C 12,9 km/h (3 Bft)
20/08/2017 11:21 16,8 C 18,9 C 18,9 C 17,8 C 18,9 C 18,9 C 69 % 0 lf 13 cb 30 cb 87 cb 43 cb 1025,1 hPa 0,0 l/m 8,0 km/h (2 Bft) O 270 0 min 0 mm 2 UV-I 162 W/m 11,1 C 16,0 C 11,3 km/h (2 Bft)
20/08/2017 11:20 16,8 C 19,4 C 19,4 C 17,8 C 18,9 C 18,9 C 69 % 0 lf 13 cb 30 cb 87 cb 43 cb 1025,1 hPa 0,0 l/m 8,0 km/h (2 Bft) O 270 0 min 0 mm 2 UV-I 158 W/m 11,1 C 16,0 C 11,3 km/h (2 Bft)
20/08/2017 11:19 16,9 C 20,0 C 20,0 C 17,8 C 18,9 C 18,9 C 69 % 0 lf 13 cb 30 cb 87 cb 43 cb 1025,1 hPa 0,0 l/m 14,5 km/h (3 Bft) O-NO 292 0 min 0 mm 2 UV-I 149 W/m 11,2 C 13,6 C 16,1 km/h (3 Bft)
20/08/2017 11:18 16,9 C 20,6 C 20,6 C 17,8 C 18,9 C 18,9 C 69 % 0 lf 14 cb 30 cb 87 cb 43 cb 1025,1 hPa 0,0 l/m 11,3 km/h (2 Bft) O-SO 247 0 min 0 mm 2 UV-I 142 W/m 11,2 C 14,7 C 14,5 km/h (3 Bft)
20/08/2017 11:17 16,9 C 21,7 C 21,7 C 17,8 C 18,9 C 18,9 C 68 % 0 lf 14 cb 30 cb 87 cb 43 cb 1025,1 hPa 0,0 l/m 9,7 km/h (2 Bft) S-SO 202 0 min 0 mm 2 UV-I 146 W/m 11,0 C 15,3 C 12,9 km/h (3 Bft)
20/08/2017 11:16 17,0 C 22,8 C 22,8 C 17,8 C 18,9 C 18,9 C 69 % 0 lf 14 cb 30 cb 87 cb 43 cb 1025,1 hPa 0,0 l/m 14,5 km/h (3 Bft) O 270 1 min 0 mm 2 UV-I 689 W/m 11,3 C 13,8 C 17,7 km/h (3 Bft)
20/08/2017 11:15 17,0 C 22,2 C 22,2 C 17,8 C 18,9 C 18,9 C 70 % 0 lf 14 cb 30 cb 87 cb 43 cb 1025,1 hPa 0,0 l/m 3,2 km/h (1 Bft) O-NO 292 1 min 0 mm 3 UV-I 705 W/m 11,5 C 17,0 C 4,8 km/h (1 Bft)
20/08/2017 11:14 17,0 C 22,2 C 22,2 C 17,8 C 18,9 C 18,9 C 70 % 0 lf 14 cb 30 cb 87 cb 43 cb 1025,1 hPa 0,0 l/m 3,2 km/h (1 Bft) N-NO 337 1 min 0 mm 3 UV-I 733 W/m 11,5 C 17,0 C 6,4 km/h (2 Bft)
20/08/2017 11:13 16,9 C 22,2 C 22,2 C 17,8 C 18,9 C 18,9 C 69 % 0 lf 14 cb 30 cb 87 cb 43 cb 1025,1 hPa 0,0 l/m 4,8 km/h (1 Bft) N-NO 337 1 min 0 mm 3 UV-I 742 W/m 11,2 C 16,9 C 8,0 km/h (2 Bft)
20/08/2017 11:12 16,9 C 21,7 C 21,7 C 17,8 C 18,9 C 18,9 C 69 % 0 lf 14 cb 30 cb 87 cb 43 cb 1025,1 hPa 0,0 l/m 8,0 km/h (2 Bft) O-NO 292 1 min 0 mm 3 UV-I 744 W/m 11,2 C 16,1 C 14,5 km/h (3 Bft)
20/08/2017 11:11 16,9 C 21,7 C 21,7 C 17,8 C 18,9 C 18,9 C 69 % 0 lf 14 cb 30 cb 87 cb 43 cb 1025,1 hPa 0,0 l/m 9,7 km/h (2 Bft) O-NO 292 1 min 0 mm 3 UV-I 737 W/m 11,2 C 15,3 C 11,3 km/h (2 Bft)
20/08/2017 11:10 16,9 C 21,1 C 21,7 C 17,8 C 18,9 C 18,9 C 69 % 0 lf 14 cb 30 cb 87 cb 43 cb 1025,1 hPa 0,0 l/m 8,0 km/h (2 Bft) O-NO 292 1 min 0 mm 2 UV-I 729 W/m 11,2 C 16,1 C 9,7 km/h (2 Bft)
20/08/2017 11:09 16,9 C 21,1 C 21,1 C 17,8 C 18,9 C 18,9 C 69 % 0 lf 14 cb 30 cb 87 cb 43 cb 1025,1 hPa 0,0 l/m 6,4 km/h (2 Bft) O-SO 247 1 min 0 mm 2 UV-I 726 W/m 11,2 C 16,9 C 11,3 km/h (2 Bft)
20/08/2017 11:08 16,8 C 21,1 C 21,1 C 17,8 C 18,9 C 18,9 C 69 % 0 lf 14 cb 30 cb 87 cb 43 cb 1025,1 hPa 0,0 l/m 1,6 km/h (1 Bft) O-SO 247 1 min 0 mm 2 UV-I 708 W/m 11,1 C 16,8 C 6,4 km/h (2 Bft)
20/08/2017 11:07 16,8 C 20,6 C 20,6 C 17,8 C 18,9 C 18,9 C 68 % 0 lf 14 cb 30 cb 87 cb 43 cb 1025,1 hPa 0,0 l/m 1,6 km/h (1 Bft) SO 225 1 min 0 mm 2 UV-I 687 W/m 10,9 C 16,8 C 6,4 km/h (2 Bft)
20/08/2017 11:06 16,7 C 20,6 C 20,6 C 17,8 C 18,9 C 18,9 C 68 % 0 lf 14 cb 30 cb 87 cb 43 cb 1025,1 hPa 0,0 l/m 6,4 km/h (2 Bft) SO 225 1 min 0 mm 2 UV-I 677 W/m 10,8 C 16,7 C 9,7 km/h (2 Bft)
20/08/2017 11:05 16,7 C 20,0 C 20,0 C 17,8 C 18,9 C 18,9 C 69 % 0 lf 14 cb 30 cb 87 cb 43 cb 1025,2 hPa 0,0 l/m 9,7 km/h (2 Bft) O 270 1 min 0 mm 3 UV-I 636 W/m 11,0 C 15,1 C 14,5 km/h (3 Bft)
20/08/2017 11:04 16,6 C 19,4 C 19,4 C 17,8 C 18,9 C 18,9 C 71 % 0 lf 13 cb 30 cb 87 cb 43 cb 1025,2 hPa 0,0 l/m 9,7 km/h (2 Bft) O-SO 247 1 min 0 mm 3 UV-I 675 W/m 11,3 C 15,0 C 14,5 km/h (3 Bft)
20/08/2017 11:03 16,6 C 19,4 C 19,4 C 17,8 C 18,9 C 18,9 C 71 % 0 lf 13 cb 30 cb 87 cb 43 cb 1025,1 hPa 0,0 l/m 8,0 km/h (2 Bft) N-NE 22 1 min 0 mm 3 UV-I 448 W/m 11,3 C 15,8 C 14,5 km/h (3 Bft)
20/08/2017 11:02 16,5 C 18,9 C 18,9 C 17,8 C 18,9 C 18,9 C 71 % 0 lf 13 cb 30 cb 87 cb 43 cb 1025,2 hPa 0,0 l/m 6,4 km/h (2 Bft) O-NO 292 0 min 0 mm 3 UV-I 265 W/m 11,2 C 16,5 C 8,0 km/h (2 Bft)
20/08/2017 11:01 16,4 C 18,9 C 18,9 C 17,8 C 18,9 C 18,9 C 71 % 0 lf 13 cb 30 cb 87 cb 43 cb 1025,2 hPa 0,0 l/m 4,8 km/h (1 Bft) S-SO 202 0 min 0 mm 3 UV-I 265 W/m 11,1 C 16,4 C 9,7 km/h (2 Bft)
20/08/2017 11:00 16,4 C 18,3 C 18,3 C 17,8 C 18,9 C 18,9 C 73 % 0 lf 13 cb 30 cb 87 cb 43 cb 1025,2 hPa 0,0 l/m 8,0 km/h (2 Bft) SO 225 0 min 0 mm 3 UV-I 230 W/m 11,5 C 15,6 C 11,3 km/h (2 Bft)
20/08/2017 10:59 16,4 C 18,3 C 18,3 C 17,8 C 18,9 C 18,9 C 73 % 0 lf 13 cb 30 cb 87 cb 43 cb 1025,1 hPa 0,0 l/m 9,7 km/h (2 Bft) SO 225 0 min 0 mm 3 UV-I 232 W/m 11,5 C 14,8 C 12,9 km/h (3 Bft)
20/08/2017 10:58 16,3 C 18,3 C 18,3 C 17,8 C 18,9 C 18,9 C 73 % 0 lf 13 cb 30 cb 87 cb 43 cb 1025,1 hPa 0,0 l/m 8,0 km/h (2 Bft) S 180 0 min 0 mm 3 UV-I 214 W/m 11,4 C 15,5 C 11,3 km/h (2 Bft)
20/08/2017 10:57 16,3 C 18,9 C 18,9 C 17,8 C 18,9 C 18,9 C 73 % 0 lf 13 cb 30 cb 87 cb 43 cb 1025,2 hPa 0,0 l/m 14,5 km/h (3 Bft) O 270 0 min 0 mm 2 UV-I 200 W/m 11,4 C 12,9 C 19,3 km/h (3 Bft)
20/08/2017 10:56 16,3 C 18,3 C 18,3 C 17,8 C 18,9 C 18,9 C 74 % 0 lf 13 cb 30 cb 87 cb 43 cb 1025,2 hPa 0,0 l/m 11,3 km/h (2 Bft) SO 225 1 min 0 mm 3 UV-I 666 W/m 11,7 C 14,0 C 16,1 km/h (3 Bft)
20/08/2017 10:55 16,2 C 18,3 C 18,3 C 17,8 C 18,9 C 18,9 C 74 % 0 lf 13 cb 30 cb 87 cb 43 cb 1025,1 hPa 0,0 l/m 8,0 km/h (2 Bft) SO 225 1 min 0 mm 3 UV-I 666 W/m 11,6 C 15,4 C 9,7 km/h (2 Bft)
20/08/2017 10:54 16,2 C 18,3 C 18,3 C 17,8 C 18,9 C 18,9 C 74 % 0 lf 13 cb 30 cb 87 cb 43 cb 1025,1 hPa 0,0 l/m 3,2 km/h (1 Bft) S-SO 202 1 min 0 mm 3 UV-I 673 W/m 11,6 C 16,2 C 6,4 km/h (2 Bft)
20/08/2017 10:53 16,2 C 17,8 C 17,8 C 17,8 C 18,9 C 18,9 C 74 % 0 lf 13 cb 30 cb 87 cb 43 cb 1025,1 hPa 0,0 l/m 6,4 km/h (2 Bft) S 180 1 min 0 mm 3 UV-I 668 W/m 11,6 C 16,2 C 9,7 km/h (2 Bft)
20/08/2017 10:52 16,2 C 17,8 C 17,8 C 17,8 C 18,9 C 18,9 C 75 % 0 lf 13 cb 30 cb 87 cb 43 cb 1025,1 hPa 0,0 l/m 8,0 km/h (2 Bft) S-SO 202 0 min 0 mm 3 UV-I 213 W/m 11,8 C 15,4 C 11,3 km/h (2 Bft)
20/08/2017 10:51 16,1 C 17,8 C 17,8 C 17,8 C 18,9 C 18,9 C 75 % 0 lf 13 cb 30 cb 87 cb 43 cb 1025,1 hPa 0,0 l/m 6,4 km/h (2 Bft) S-SO 202 0 min 0 mm 2 UV-I 213 W/m 11,7 C 16,1 C 8,0 km/h (2 Bft)
20/08/2017 10:50 16,1 C 17,2 C 17,8 C 17,8 C 18,9 C 18,9 C 75 % 0 lf 13 cb 30 cb 87 cb 43 cb 1025,1 hPa 0,0 l/m 4,8 km/h (1 Bft) O 270 1 min 0 mm 3 UV-I 613 W/m 11,7 C 16,1 C 9,7 km/h (2 Bft)
20/08/2017 10:49 16,1 C 16,7 C 17,2 C 17,8 C 18,9 C 18,9 C 75 % 0 lf 13 cb 30 cb 87 cb 43 cb 1025,1 hPa 0,0 l/m 6,4 km/h (2 Bft) S-SO 202 1 min 0 mm 3 UV-I 608 W/m 11,7 C 16,1 C 11,3 km/h (2 Bft)
20/08/2017 10:48 16,1 C 16,7 C 16,7 C 17,8 C 18,9 C 18,9 C 75 % 0 lf 13 cb 30 cb 87 cb 43 cb 1025,2 hPa 0,0 l/m 8,0 km/h (2 Bft) S-SO 202 1 min 0 mm 3 UV-I 519 W/m 11,7 C 15,3 C 9,7 km/h (2 Bft)
20/08/2017 10:47 16,1 C 16,7 C 16,7 C 17,8 C 18,9 C 18,9 C 77 % 0 lf 13 cb 30 cb 87 cb 43 cb 1025,1 hPa 0,0 l/m 11,3 km/h (2 Bft) SO 225 0 min 0 mm 3 UV-I 176 W/m 12,1 C 13,8 C 12,9 km/h (3 Bft)
20/08/2017 10:46 16,1 C 16,7 C 16,7 C 17,8 C 18,9 C 18,9 C 76 % 0 lf 13 cb 30 cb 87 cb 43 cb 1025,1 hPa 0,0 l/m 4,8 km/h (1 Bft) O-NO 292 0 min 0 mm 2 UV-I 176 W/m 11,9 C 16,1 C 11,3 km/h (2 Bft)
20/08/2017 10:45 16,1 C 17,2 C 17,2 C 17,8 C 18,9 C 18,9 C 76 % 0 lf 13 cb 30 cb 87 cb 43 cb 1025,2 hPa 0,0 l/m 3,2 km/h (1 Bft) O-NO 292 0 min 0 mm 2 UV-I 153 W/m 11,9 C 16,1 C 6,4 km/h (2 Bft)
20/08/2017 10:44 16,2 C 17,2 C 17,2 C 17,8 C 18,9 C 18,9 C 75 % 0 lf 13 cb 30 cb 87 cb 43 cb 1025,1 hPa 0,0 l/m 6,4 km/h (2 Bft) O 270 0 min 0 mm 2 UV-I 127 W/m 11,8 C 16,2 C 9,7 km/h (2 Bft)
20/08/2017 10:43 16,2 C 17,8 C 17,8 C 17,8 C 18,9 C 18,9 C 75 % 0 lf 13 cb 30 cb 87 cb 43 cb 1025,1 hPa 0,0 l/m 4,8 km/h (1 Bft) O-NO 292 0 min 0 mm 2 UV-I 121 W/m 11,8 C 16,2 C 6,4 km/h (2 Bft)
20/08/2017 10:42 16,2 C 18,3 C 18,3 C 17,8 C 18,9 C 18,9 C 75 % 0 lf 13 cb 30 cb 87 cb 43 cb 1025,2 hPa 0,0 l/m 6,4 km/h (2 Bft) O 270 0 min 0 mm 2 UV-I 120 W/m 11,8 C 16,2 C 12,9 km/h (3 Bft)
20/08/2017 10:41 16,2 C 18,9 C 18,9 C 17,8 C 18,9 C 18,9 C 76 % 0 lf 13 cb 30 cb 87 cb 43 cb 1025,3 hPa 0,0 l/m 12,9 km/h (3 Bft) O-NO 292 0 min 0 mm 2 UV-I 125 W/m 12,0 C 13,3 C 20,9 km/h (4 Bft)
20/08/2017 10:40 16,2 C 18,9 C 18,9 C 17,8 C 18,9 C 18,9 C 77 % 0 lf 13 cb 30 cb 87 cb 43 cb 1025,2 hPa 0,0 l/m 9,7 km/h (2 Bft) O 270 0 min 0 mm 2 UV-I 132 W/m 12,2 C 14,6 C 14,5 km/h (3 Bft)
20/08/2017 10:39 16,2 C 19,4 C 19,4 C 17,8 C 18,9 C 18,9 C 77 % 0 lf 14 cb 30 cb 87 cb 43 cb 1025,1 hPa 0,0 l/m 4,8 km/h (1 Bft) O-NO 292 1 min 0 mm 2 UV-I 506 W/m 12,2 C 16,2 C 11,3 km/h (2 Bft)
20/08/2017 10:38 16,1 C 18,9 C 18,9 C 17,8 C 18,9 C 18,9 C 77 % 0 lf 13 cb 30 cb 87 cb 43 cb 1025,2 hPa 0,0 l/m 6,4 km/h (2 Bft) O-NO 292 1 min 0 mm 2 UV-I 578 W/m 12,1 C 16,1 C 9,7 km/h (2 Bft)
20/08/2017 10:37 16,1 C 18,9 C 18,9 C 17,8 C 18,9 C 18,9 C 78 % 0 lf 13 cb 30 cb 87 cb 43 cb 1025,2 hPa 0,0 l/m 3,2 km/h (1 Bft) SO 225 1 min 0 mm 2 UV-I 666 W/m 12,3 C 16,1 C 8,0 km/h (2 Bft)
20/08/2017 10:36 16,0 C 18,9 C 18,9 C 17,8 C 18,9 C 18,9 C 77 % 0 lf 13 cb 30 cb 87 cb 43 cb 1025,2 hPa 0,0 l/m 9,7 km/h (2 Bft) O-SO 247 1 min 0 mm 3 UV-I 700 W/m 12,0 C 14,4 C 16,1 km/h (3 Bft)
20/08/2017 10:35 16,0 C 18,3 C 18,3 C 17,8 C 18,9 C 18,9 C 77 % 0 lf 13 cb 30 cb 87 cb 43 cb 1025,2 hPa 0,0 l/m 14,5 km/h (3 Bft) O 270 1 min 0 mm 3 UV-I 693 W/m 12,0 C 12,6 C 19,3 km/h (3 Bft)
20/08/2017 10:34 15,9 C 18,3 C 18,3 C 17,8 C 18,9 C 18,9 C 77 % 0 lf 13 cb 30 cb 87 cb 43 cb 1025,2 hPa 0,0 l/m 8,0 km/h (2 Bft) NO 315 1 min 0 mm 3 UV-I 671 W/m 11,9 C 15,0 C 11,3 km/h (2 Bft)
20/08/2017 10:33 15,9 C 17,8 C 17,8 C 17,8 C 18,9 C 18,9 C 78 % 0 lf 13 cb 30 cb 87 cb 43 cb 1025,1 hPa 0,0 l/m 9,7 km/h (2 Bft) O-NO 292 1 min 0 mm 3 UV-I 635 W/m 12,1 C 14,2 C 16,1 km/h (3 Bft)
20/08/2017 10:32 15,9 C 17,8 C 17,8 C 17,8 C 18,9 C 18,9 C 78 % 0 lf 13 cb 30 cb 87 cb 43 cb 1025,1 hPa 0,0 l/m 11,3 km/h (2 Bft) O-NO 292 1 min 0 mm 3 UV-I 619 W/m 12,1 C 13,6 C 14,5 km/h (3 Bft)
20/08/2017 10:31 15,9 C 17,8 C 17,8 C 17,8 C 18,9 C 18,9 C 78 % 0 lf 13 cb 30 cb 87 cb 43 cb 1025,1 hPa 0,0 l/m 9,7 km/h (2 Bft) S-SO 202 1 min 0 mm 2 UV-I 596 W/m 12,1 C 14,2 C 14,5 km/h (3 Bft)
20/08/2017 10:30 15,8 C 17,2 C 17,2 C 17,8 C 18,9 C 18,9 C 79 % 0 lf 13 cb 30 cb 87 cb 43 cb 1025,1 hPa 0,0 l/m 6,4 km/h (2 Bft) O 270 1 min 0 mm 2 UV-I 575 W/m 12,2 C 15,8 C 9,7 km/h (2 Bft)
20/08/2017 10:29 15,8 C 17,2 C 17,2 C 17,8 C 18,9 C 18,9 C 78 % 0 lf 13 cb 30 cb 87 cb 43 cb 1025,1 hPa 0,0 l/m 6,4 km/h (2 Bft) O-NO 292 1 min 0 mm 2 UV-I 564 W/m 12,0 C 15,8 C 8,0 km/h (2 Bft)
20/08/2017 10:28 15,8 C 16,7 C 17,2 C 17,8 C 18,9 C 18,9 C 78 % 0 lf 13 cb 30 cb 87 cb 43 cb 1025,1 hPa 0,0 l/m 8,0 km/h (2 Bft) O-NO 292 1 min 0 mm 2 UV-I 557 W/m 12,0 C 14,9 C 11,3 km/h (2 Bft)
20/08/2017 10:27 15,7 C 16,7 C 16,7 C 17,8 C 18,9 C 18,9 C 78 % 0 lf 13 cb 30 cb 87 cb 43 cb 1025,1 hPa 0,0 l/m 9,7 km/h (2 Bft) O 270 1 min 0 mm 2 UV-I 559 W/m 11,9 C 14,0 C 12,9 km/h (3 Bft)
20/08/2017 10:26 15,7 C 16,7 C 16,7 C 17,8 C 18,9 C 18,9 C 78 % 0 lf 13 cb 30 cb 87 cb 43 cb 1025,1 hPa 0,0 l/m 8,0 km/h (2 Bft) O-NO 292 1 min 0 mm 2 UV-I 554 W/m 11,9 C 14,8 C 12,9 km/h (3 Bft)
20/08/2017 10:25 15,7 C 16,1 C 16,1 C 17,8 C 18,9 C 18,9 C 78 % 0 lf 13 cb 30 cb 87 cb 43 cb 1025,1 hPa 0,0 l/m 6,4 km/h (2 Bft) O 270 0 min 0 mm 2 UV-I 230 W/m 11,9 C 15,7 C 9,7 km/h (2 Bft)
20/08/2017 10:24 15,6 C 16,1 C 16,1 C 17,8 C 18,9 C 18,9 C 78 % 0 lf 13 cb 30 cb 87 cb 43 cb 1025,0 hPa 0,0 l/m 8,0 km/h (2 Bft) O 270 0 min 0 mm 2 UV-I 230 W/m 11,8 C 14,7 C 9,7 km/h (2 Bft)
20/08/2017 10:23 15,6 C 16,1 C 16,1 C 17,8 C 18,9 C 18,9 C 78 % 0 lf 13 cb 30 cb 87 cb 43 cb 1025,1 hPa 0,0 l/m 4,8 km/h (1 Bft) O-SO 247 0 min 0 mm 2 UV-I 230 W/m 11,8 C 15,6 C 8,0 km/h (2 Bft)
20/08/2017 10:22 15,6 C 16,1 C 16,1 C 17,8 C 18,9 C 18,9 C 78 % 0 lf 13 cb 30 cb 87 cb 43 cb 1025,1 hPa 0,0 l/m 4,8 km/h (1 Bft) O 270 0 min 0 mm 2 UV-I 230 W/m 11,8 C 15,6 C 8,0 km/h (2 Bft)
20/08/2017 10:21 15,6 C 16,1 C 16,1 C 17,8 C 18,9 C 18,9 C 78 % 0 lf 13 cb 30 cb 87 cb 43 cb 1025,1 hPa 0,0 l/m 11,3 km/h (2 Bft) SO 225 0 min 0 mm 2 UV-I 186 W/m 11,8 C 13,2 C 17,7 km/h (3 Bft)
20/08/2017 10:20 15,6 C 16,1 C 16,1 C 17,8 C 18,9 C 18,9 C 78 % 0 lf 13 cb 30 cb 87 cb 43 cb 1025,1 hPa 0,0 l/m 12,9 km/h (3 Bft) SO 225 0 min 0 mm 1 UV-I 169 W/m 11,8 C 12,6 C 17,7 km/h (3 Bft)
20/08/2017 10:19 15,7 C 16,7 C 16,7 C 17,8 C 18,9 C 18,9 C 78 % 0 lf 13 cb 30 cb 87 cb 43 cb 1025,1 hPa 0,0 l/m 8,0 km/h (2 Bft) O 270 0 min 0 mm 1 UV-I 165 W/m 11,9 C 14,8 C 11,3 km/h (2 Bft)
20/08/2017 10:18 15,7 C 16,7 C 16,7 C 17,8 C 18,9 C 18,9 C 78 % 0 lf 13 cb 30 cb 87 cb 43 cb 1025,1 hPa 0,0 l/m 9,7 km/h (2 Bft) O 270 0 min 0 mm 1 UV-I 172 W/m 11,9 C 14,0 C 12,9 km/h (3 Bft)
20/08/2017 10:17 15,7 C 16,7 C 16,7 C 17,8 C 18,9 C 18,9 C 79 % 0 lf 13 cb 30 cb 87 cb 43 cb 1025,1 hPa 0,0 l/m 12,9 km/h (3 Bft) O 270 0 min 0 mm 1 UV-I 179 W/m 12,1 C 12,7 C 16,1 km/h (3 Bft)
20/08/2017 10:16 15,7 C 16,7 C 16,7 C 17,8 C 18,9 C 18,9 C 79 % 0 lf 13 cb 30 cb 87 cb 43 cb 1025,1 hPa 0,0 l/m 9,7 km/h (2 Bft) O 270 0 min 0 mm 1 UV-I 193 W/m 12,1 C 14,0 C 12,9 km/h (3 Bft)
20/08/2017 10:15 15,7 C 16,7 C 16,7 C 17,8 C 18,9 C 18,9 C 80 % 0 lf 13 cb 30 cb 87 cb 43 cb 1025,0 hPa 0,0 l/m 12,9 km/h (3 Bft) O-SO 247 0 min 0 mm 1 UV-I 207 W/m 12,3 C 12,7 C 17,7 km/h (3 Bft)
20/08/2017 10:14 15,6 C 16,7 C 16,7 C 17,8 C 18,9 C 18,9 C 81 % 0 lf 13 cb 30 cb 87 cb 43 cb 1025,0 hPa 0,0 l/m 8,0 km/h (2 Bft) SO 225 1 min 0 mm 1 UV-I 554 W/m 12,3 C 14,7 C 14,5 km/h (3 Bft)
20/08/2017 10:13 15,6 C 16,1 C 16,1 C 17,8 C 18,9 C 18,9 C 80 % 0 lf 13 cb 30 cb 87 cb 43 cb 1024,9 hPa 0,0 l/m 8,0 km/h (2 Bft) O 270 1 min 0 mm 2 UV-I 554 W/m 12,2 C 14,7 C 11,3 km/h (2 Bft)
20/08/2017 10:12 15,6 C 16,1 C 16,1 C 17,8 C 18,9 C 18,9 C 80 % 0 lf 13 cb 30 cb 87 cb 43 cb 1025,0 hPa 0,0 l/m 8,0 km/h (2 Bft) SO 225 1 min 0 mm 2 UV-I 545 W/m 12,2 C 14,7 C 12,9 km/h (3 Bft)
20/08/2017 10:11 15,5 C 16,7 C 16,7 C 17,8 C 18,9 C 18,9 C 80 % 0 lf 13 cb 30 cb 87 cb 43 cb 1025,0 hPa 0,0 l/m 11,3 km/h (2 Bft) NO 315 1 min 0 mm 2 UV-I 510 W/m 12,1 C 13,1 C 12,9 km/h (3 Bft)
20/08/2017 10:10 15,6 C 16,1 C 16,1 C 17,8 C 18,9 C 18,9 C 83 % 0 lf 13 cb 30 cb 87 cb 43 cb 1025,0 hPa 0,0 l/m 12,9 km/h (3 Bft) O-NO 292 1 min 0 mm 2 UV-I 510 W/m 12,7 C 12,6 C 16,1 km/h (3 Bft)
20/08/2017 10:09 15,5 C 16,1 C 16,1 C 17,8 C 18,9 C 18,9 C 81 % 0 lf 13 cb 30 cb 87 cb 43 cb 1024,9 hPa 0,0 l/m 9,7 km/h (2 Bft) O-NO 292 1 min 0 mm 2 UV-I 510 W/m 12,3 C 13,8 C 12,9 km/h (3 Bft)
20/08/2017 10:08 15,4 C 16,1 C 16,1 C 17,8 C 18,9 C 18,9 C 81 % 0 lf 13 cb 30 cb 87 cb 43 cb 1025,0 hPa 0,0 l/m 11,3 km/h (2 Bft) O-NO 292 1 min 0 mm 2 UV-I 504 W/m 12,2 C 13,0 C 12,9 km/h (3 Bft)
20/08/2017 10:07 15,4 C 16,1 C 16,1 C 17,8 C 18,9 C 18,9 C 81 % 0 lf 13 cb 30 cb 87 cb 43 cb 1024,9 hPa 0,0 l/m 8,0 km/h (2 Bft) SO 225 1 min 0 mm 2 UV-I 497 W/m 12,2 C 14,5 C 12,9 km/h (3 Bft)
20/08/2017 10:06 15,4 C 16,1 C 16,1 C 17,8 C 18,9 C 18,9 C 81 % 0 lf 13 cb 30 cb 87 cb 43 cb 1024,9 hPa 0,0 l/m 8,0 km/h (2 Bft) SO 225 1 min 0 mm 2 UV-I 489 W/m 12,2 C 14,5 C 11,3 km/h (2 Bft)
20/08/2017 10:05 15,4 C 16,1 C 16,1 C 17,8 C 18,9 C 18,9 C 81 % 0 lf 13 cb 30 cb 87 cb 43 cb 1024,9 hPa 0,0 l/m 8,0 km/h (2 Bft) SO 225 1 min 0 mm 2 UV-I 478 W/m 12,2 C 14,5 C 12,9 km/h (3 Bft)
20/08/2017 10:04 15,3 C 16,1 C 16,1 C 17,8 C 18,9 C 18,9 C 81 % 0 lf 13 cb 30 cb 87 cb 43 cb 1024,9 hPa 0,0 l/m 11,3 km/h (2 Bft) SO 225 1 min 0 mm 2 UV-I 476 W/m 12,1 C 12,9 C 12,9 km/h (3 Bft)
20/08/2017 10:03 15,3 C 15,6 C 15,6 C 17,8 C 18,9 C 18,9 C 82 % 0 lf 13 cb 30 cb 87 cb 43 cb 1025,0 hPa 0,0 l/m 9,7 km/h (2 Bft) SO 225 1 min 0 mm 2 UV-I 459 W/m 12,2 C 13,6 C 12,9 km/h (3 Bft)
20/08/2017 10:02 15,3 C 15,6 C 15,6 C 17,8 C 18,9 C 18,9 C 82 % 0 lf 13 cb 30 cb 87 cb 43 cb 1024,9 hPa 0,0 l/m 9,7 km/h (2 Bft) SO 225 1 min 0 mm 2 UV-I 448 W/m 12,2 C 13,6 C 12,9 km/h (3 Bft)
20/08/2017 10:01 15,3 C 15,6 C 15,6 C 17,8 C 18,9 C 18,9 C 82 % 0 lf 13 cb 30 cb 87 cb 43 cb 1024,9 hPa 0,0 l/m 6,4 km/h (2 Bft) S 180 1 min 0 mm 2 UV-I 446 W/m 12,2 C 15,3 C 8,0 km/h (2 Bft)
20/08/2017 10:00 15,3 C 15,6 C 15,6 C 17,8 C 18,9 C 18,9 C 82 % 0 lf 13 cb 30 cb 87 cb 43 cb 1024,9 hPa 0,0 l/m 12,9 km/h (3 Bft) SO 225 0 min 0 mm 2 UV-I 121 W/m 12,2 C 12,3 C 16,1 km/h (3 Bft)
20/08/2017 09:59 15,3 C 15,6 C 15,6 C 17,8 C 18,9 C 18,9 C 83 % 0 lf 13 cb 30 cb 87 cb 43 cb 1024,9 hPa 0,0 l/m 12,9 km/h (3 Bft) SO 225 0 min 0 mm 1 UV-I 163 W/m 12,4 C 12,3 C 16,1 km/h (3 Bft)
20/08/2017 09:58 15,3 C 16,1 C 16,1 C 17,8 C 18,9 C 18,9 C 83 % 0 lf 13 cb 30 cb 87 cb 43 cb 1024,9 hPa 0,0 l/m 6,4 km/h (2 Bft) O 270 0 min 0 mm 1 UV-I 144 W/m 12,4 C 15,3 C 11,3 km/h (2 Bft)
20/08/2017 09:57 15,3 C 16,1 C 16,1 C 17,8 C 18,9 C 18,9 C 83 % 0 lf 13 cb 30 cb 87 cb 43 cb 1024,9 hPa 0,0 l/m 8,0 km/h (2 Bft) SO 225 0 min 0 mm 1 UV-I 155 W/m 12,4 C 14,4 C 11,3 km/h (2 Bft)
20/08/2017 09:56 15,2 C 16,1 C 16,1 C 17,8 C 18,9 C 18,9 C 82 % 0 lf 13 cb 30 cb 87 cb 43 cb 1025,0 hPa 0,0 l/m 8,0 km/h (2 Bft) O-NO 292 1 min 0 mm 1 UV-I 476 W/m 12,1 C 14,3 C 11,3 km/h (2 Bft)
20/08/2017 09:55 15,2 C 15,6 C 15,6 C 17,8 C 18,9 C 18,9 C 82 % 0 lf 13 cb 30 cb 87 cb 43 cb 1024,9 hPa 0,0 l/m 9,7 km/h (2 Bft) NO 315 1 min 0 mm 2 UV-I 476 W/m 12,1 C 13,5 C 20,9 km/h (4 Bft)
20/08/2017 09:54 15,2 C 16,1 C 16,1 C 17,8 C 18,9 C 18,9 C 83 % 0 lf 13 cb 30 cb 87 cb 43 cb 1024,9 hPa 0,0 l/m 12,9 km/h (3 Bft) O-NO 292 1 min 0 mm 2 UV-I 439 W/m 12,3 C 12,2 C 14,5 km/h (3 Bft)
20/08/2017 09:53 15,2 C 15,6 C 15,6 C 17,8 C 18,9 C 18,9 C 83 % 0 lf 13 cb 30 cb 87 cb 43 cb 1024,9 hPa 0,0 l/m 9,7 km/h (2 Bft) O-NO 292 1 min 0 mm 2 UV-I 443 W/m 12,3 C 13,5 C 20,9 km/h (4 Bft)
20/08/2017 09:52 15,1 C 15,6 C 15,6 C 17,8 C 18,9 C 18,9 C 83 % 0 lf 13 cb 30 cb 87 cb 43 cb 1024,9 hPa 0,0 l/m 8,0 km/h (2 Bft) N-NO 337 1 min 0 mm 2 UV-I 448 W/m 12,2 C 14,2 C 14,5 km/h (3 Bft)
20/08/2017 09:51 15,1 C 15,6 C 15,6 C 17,8 C 18,9 C 18,9 C 83 % 0 lf 13 cb 30 cb 87 cb 43 cb 1024,9 hPa 0,0 l/m 9,7 km/h (2 Bft) NO 315 1 min 0 mm 2 UV-I 343 W/m 12,2 C 13,4 C 12,9 km/h (3 Bft)
20/08/2017 09:50 15,1 C 15,6 C 15,6 C 17,8 C 18,9 C 18,9 C 84 % 0 lf 13 cb 30 cb 87 cb 43 cb 1024,9 hPa 0,0 l/m 11,3 km/h (2 Bft) O-NO 292 1 min 0 mm 2 UV-I 343 W/m 12,4 C 12,7 C 14,5 km/h (3 Bft)
20/08/2017 09:49 15,1 C 15,6 C 15,6 C 17,8 C 18,9 C 18,9 C 85 % 0 lf 13 cb 30 cb 87 cb 43 cb 1024,9 hPa 0,0 l/m 6,4 km/h (2 Bft) O 270 0 min 0 mm 1 UV-I 148 W/m 12,6 C 15,1 C 11,3 km/h (2 Bft)
20/08/2017 09:48 15,1 C 15,6 C 15,6 C 17,8 C 18,9 C 18,9 C 85 % 0 lf 13 cb 30 cb 87 cb 43 cb 1024,9 hPa 0,0 l/m 8,0 km/h (2 Bft) O 270 0 min 0 mm 2 UV-I 148 W/m 12,6 C 14,2 C 11,3 km/h (2 Bft)
20/08/2017 09:47 15,1 C 15,6 C 15,6 C 17,8 C 18,9 C 18,9 C 85 % 0 lf 13 cb 30 cb 87 cb 43 cb 1024,8 hPa 0,0 l/m 8,0 km/h (2 Bft) O 270 0 min 0 mm 1 UV-I 183 W/m 12,6 C 14,2 C 12,9 km/h (3 Bft)
20/08/2017 09:46 15,0 C 15,6 C 15,6 C 17,8 C 18,9 C 18,9 C 85 % 0 lf 13 cb 30 cb 87 cb 43 cb 1024,8 hPa 0,0 l/m 8,0 km/h (2 Bft) O 270 1 min 0 mm 1 UV-I 348 W/m 12,5 C 14,1 C 9,7 km/h (2 Bft)
20/08/2017 09:45 15,0 C 15,0 C 15,6 C 17,8 C 18,9 C 18,9 C 85 % 0 lf 13 cb 30 cb 87 cb 43 cb 1024,8 hPa 0,0 l/m 9,7 km/h (2 Bft) O-NO 292 0 min 0 mm 1 UV-I 139 W/m 12,5 C 13,3 C 11,3 km/h (2 Bft)
20/08/2017 09:44 14,9 C 15,0 C 15,0 C 17,8 C 18,9 C 18,9 C 86 % 0 lf 13 cb 30 cb 87 cb 43 cb 1024,8 hPa 0,0 l/m 8,0 km/h (2 Bft) O-NO 292 0 min 0 mm 1 UV-I 139 W/m 12,6 C 14,0 C 11,3 km/h (2 Bft)
20/08/2017 09:43 14,9 C 15,0 C 15,0 C 17,8 C 18,9 C 18,9 C 85 % 0 lf 13 cb 30 cb 87 cb 43 cb 1024,8 hPa 0,0 l/m 4,8 km/h (1 Bft) O 270 0 min 0 mm 1 UV-I 139 W/m 12,4 C 14,9 C 8,0 km/h (2 Bft)
20/08/2017 09:42 14,9 C 15,6 C 15,6 C 17,8 C 18,9 C 18,9 C 86 % 0 lf 13 cb 30 cb 87 cb 43 cb 1024,8 hPa 0,0 l/m 4,8 km/h (1 Bft) S-SO 202 0 min 0 mm 1 UV-I 146 W/m 12,6 C 14,9 C 9,7 km/h (2 Bft)
20/08/2017 09:41 14,9 C 15,6 C 15,6 C 17,8 C 18,9 C 18,9 C 86 % 0 lf 13 cb 30 cb 87 cb 43 cb 1024,8 hPa 0,0 l/m 3,2 km/h (1 Bft) S 180 0 min 0 mm 1 UV-I 156 W/m 12,6 C 14,9 C 6,4 km/h (2 Bft)
20/08/2017 09:40 14,9 C 15,0 C 15,0 C 17,8 C 18,9 C 18,9 C 86 % 0 lf 13 cb 30 cb 87 cb 43 cb 1024,8 hPa 0,0 l/m 6,4 km/h (2 Bft) SO 225 0 min 0 mm 1 UV-I 151 W/m 12,6 C 14,9 C 9,7 km/h (2 Bft)
20/08/2017 09:39 14,8 C 15,0 C 15,0 C 17,8 C 18,9 C 18,9 C 86 % 0 lf 13 cb 30 cb 87 cb 43 cb 1024,8 hPa 0,0 l/m 9,7 km/h (2 Bft) O-SO 247 0 min 0 mm 1 UV-I 151 W/m 12,5 C 13,0 C 11,3 km/h (2 Bft)
20/08/2017 09:38 14,8 C 15,0 C 15,0 C 17,8 C 18,9 C 18,9 C 87 % 0 lf 13 cb 30 cb 87 cb 43 cb 1024,8 hPa 0,0 l/m 9,7 km/h (2 Bft) O-NO 292 0 min 0 mm 1 UV-I 151 W/m 12,7 C 13,0 C 14,5 km/h (3 Bft)
20/08/2017 09:37 14,7 C 15,0 C 15,0 C 17,8 C 18,9 C 18,9 C 87 % 0 lf 13 cb 30 cb 87 cb 43 cb 1024,8 hPa 0,0 l/m 9,7 km/h (2 Bft) O-NO 292 1 min 0 mm 1 UV-I 399 W/m 12,6 C 12,9 C 14,5 km/h (3 Bft)
20/08/2017 09:36 14,7 C 15,0 C 15,0 C 17,8 C 18,9 C 18,9 C 88 % 0 lf 13 cb 30 cb 87 cb 43 cb 1024,7 hPa 0,0 l/m 3,2 km/h (1 Bft) O-NO 292 1 min 0 mm 1 UV-I 399 W/m 12,7 C 14,7 C 8,0 km/h (2 Bft)
20/08/2017 09:35 14,7 C 15,0 C 15,0 C 17,8 C 18,9 C 18,9 C 89 % 0 lf 13 cb 30 cb 87 cb 43 cb 1024,7 hPa 0,0 l/m 8,0 km/h (2 Bft) O-NO 292 1 min 0 mm 1 UV-I 378 W/m 12,9 C 13,8 C 11,3 km/h (2 Bft)
20/08/2017 09:34 14,6 C 15,0 C 15,0 C 17,8 C 18,9 C 18,9 C 89 % 0 lf 13 cb 30 cb 87 cb 43 cb 1024,7 hPa 0,0 l/m 11,3 km/h (2 Bft) O-NO 292 1 min 0 mm 1 UV-I 374 W/m 12,8 C 12,1 C 12,9 km/h (3 Bft)
20/08/2017 09:33 14,6 C 15,0 C 15,0 C 17,8 C 18,9 C 18,9 C 90 % 0 lf 13 cb 30 cb 87 cb 43 cb 1024,7 hPa 0,0 l/m 6,4 km/h (2 Bft) SO 225 1 min 0 mm 1 UV-I 339 W/m 13,0 C 14,6 C 8,0 km/h (2 Bft)
20/08/2017 09:32 14,4 C 15,0 C 15,0 C 17,8 C 18,9 C 18,9 C 90 % 0 lf 13 cb 30 cb 87 cb 43 cb 1024,7 hPa 0,0 l/m 1,6 km/h (1 Bft) NO 315 1 min 0 mm 1 UV-I 339 W/m 12,8 C 14,4 C 4,8 km/h (1 Bft)
20/08/2017 09:31 14,4 C 15,0 C 15,0 C 17,8 C 18,9 C 18,9 C 91 % 0 lf 13 cb 30 cb 87 cb 43 cb 1024,7 hPa 0,0 l/m 3,2 km/h (1 Bft) NO 315 1 min 0 mm 1 UV-I 339 W/m 12,9 C 14,4 C 6,4 km/h (2 Bft)
20/08/2017 09:30 14,3 C 15,0 C 15,0 C 17,8 C 18,9 C 18,9 C 91 % 0 lf 13 cb 30 cb 87 cb 43 cb 1024,7 hPa 0,0 l/m 6,4 km/h (2 Bft) O-NO 292 1 min 0 mm 1 UV-I 355 W/m 12,8 C 14,3 C 8,0 km/h (2 Bft)
20/08/2017 09:29 14,2 C 15,0 C 15,0 C 17,8 C 18,9 C 18,9 C 91 % 2 lf 13 cb 30 cb 87 cb 43 cb 1024,7 hPa 0,0 l/m 6,4 km/h (2 Bft) O 270 1 min 0 mm 1 UV-I 350 W/m 12,8 C 14,2 C 9,7 km/h (2 Bft)
20/08/2017 09:28 14,2 C 15,0 C 15,0 C 17,8 C 18,9 C 18,9 C 92 % 3 lf 13 cb 30 cb 87 cb 43 cb 1024,6 hPa 0,0 l/m 11,3 km/h (2 Bft) S-SO 202 1 min 0 mm 1 UV-I 355 W/m 12,9 C 11,6 C 12,9 km/h (3 Bft)
20/08/2017 09:27 14,2 C 14,4 C 14,4 C 17,8 C 18,9 C 18,9 C 93 % 10 lf 13 cb 30 cb 87 cb 43 cb 1024,6 hPa 0,0 l/m 9,7 km/h (2 Bft) S-SO 202 1 min 0 mm 1 UV-I 345 W/m 13,1 C 12,4 C 12,9 km/h (3 Bft)
20/08/2017 09:26 14,1 C 14,4 C 14,4 C 17,8 C 18,9 C 18,9 C 94 % 13 lf 13 cb 30 cb 87 cb 43 cb 1024,6 hPa 0,0 l/m 9,7 km/h (2 Bft) S-SO 202 1 min 0 mm 1 UV-I 343 W/m 13,1 C 12,3 C 12,9 km/h (3 Bft)
20/08/2017 09:25 14,1 C 14,4 C 14,4 C 17,8 C 18,9 C 18,9 C 94 % 14 lf 13 cb 30 cb 87 cb 43 cb 1024,6 hPa 0,0 l/m 8,0 km/h (2 Bft) S-SO 202 1 min 0 mm 1 UV-I 338 W/m 13,1 C 13,2 C 11,3 km/h (2 Bft)
20/08/2017 09:24 14,0 C 14,4 C 14,4 C 17,8 C 18,9 C 18,9 C 95 % 15 lf 13 cb 30 cb 87 cb 43 cb 1024,6 hPa 0,0 l/m 4,8 km/h (1 Bft) SO 225 1 min 0 mm 1 UV-I 334 W/m 13,2 C 14,0 C 8,0 km/h (2 Bft)
20/08/2017 09:23 13,9 C 14,4 C 14,4 C 17,8 C 18,9 C 18,9 C 95 % 15 lf 13 cb 30 cb 87 cb 43 cb 1024,5 hPa 0,0 l/m 6,4 km/h (2 Bft) S-SO 202 1 min 0 mm 1 UV-I 329 W/m 13,1 C 13,9 C 9,7 km/h (2 Bft)
20/08/2017 09:22 13,9 C 14,4 C 14,4 C 17,8 C 18,9 C 18,9 C 95 % 15 lf 13 cb 30 cb 87 cb 43 cb 1024,6 hPa 0,0 l/m 4,8 km/h (1 Bft) S-SE 157 1 min 0 mm 1 UV-I 325 W/m 13,1 C 13,9 C 6,4 km/h (2 Bft)
20/08/2017 09:21 13,8 C 14,4 C 14,4 C 17,8 C 18,9 C 18,9 C 95 % 15 lf 13 cb 30 cb 87 cb 43 cb 1024,6 hPa 0,0 l/m 3,2 km/h (1 Bft) S-SE 157 1 min 0 mm 1 UV-I 325 W/m 13,0 C 13,8 C 4,8 km/h (1 Bft)
20/08/2017 09:20 13,7 C 14,4 C 14,4 C 17,8 C 18,9 C 18,9 C 95 % 15 lf 13 cb 30 cb 87 cb 43 cb 1024,5 hPa 0,0 l/m 3,2 km/h (1 Bft) SE 135 1 min 0 mm 1 UV-I 301 W/m 12,9 C 13,7 C 6,4 km/h (2 Bft)
20/08/2017 09:19 13,7 C 14,4 C 14,4 C 17,8 C 18,9 C 18,9 C 96 % 15 lf 13 cb 30 cb 87 cb 43 cb 1024,5 hPa 0,0 l/m 6,4 km/h (2 Bft) SE 135 1 min 0 mm 1 UV-I 313 W/m 13,1 C 13,7 C 8,0 km/h (2 Bft)
20/08/2017 09:18 13,6 C 14,4 C 14,4 C 17,8 C 18,9 C 18,9 C 96 % 15 lf 13 cb 30 cb 87 cb 43 cb 1024,5 hPa 0,0 l/m 6,4 km/h (2 Bft) SE 135 1 min 0 mm 1 UV-I 294 W/m 13,0 C 13,6 C 9,7 km/h (2 Bft)
20/08/2017 09:17 13,5 C 14,4 C 14,4 C 17,8 C 18,9 C 18,9 C 96 % 15 lf 13 cb 30 cb 87 cb 43 cb 1024,4 hPa 0,0 l/m 6,4 km/h (2 Bft) E-SE 112 1 min 0 mm 1 UV-I 304 W/m 12,9 C 13,5 C 8,0 km/h (2 Bft)
20/08/2017 09:16 13,4 C 14,4 C 14,4 C 17,8 C 18,9 C 18,9 C 96 % 15 lf 13 cb 30 cb 87 cb 43 cb 1024,5 hPa 0,0 l/m 4,8 km/h (1 Bft) S-SO 202 1 min 0 mm 1 UV-I 309 W/m 12,8 C 13,4 C 6,4 km/h (2 Bft)
20/08/2017 09:15 13,4 C 14,4 C 14,4 C 17,8 C 18,9 C 18,9 C 97 % 15 lf 13 cb 30 cb 87 cb 43 cb 1024,5 hPa 0,0 l/m 1,6 km/h (1 Bft) S 180 1 min 0 mm 1 UV-I 311 W/m 12,9 C 13,4 C 8,0 km/h (2 Bft)
20/08/2017 09:14 13,3 C 14,4 C 14,4 C 17,8 C 18,9 C 18,9 C 97 % 15 lf 13 cb 30 cb 87 cb 43 cb 1024,5 hPa 0,0 l/m 0,0 km/h (0 Bft) S 180 1 min 0 mm 1 UV-I 311 W/m 12,8 C 13,3 C 3,2 km/h (1 Bft)
20/08/2017 09:13 13,2 C 14,4 C 14,4 C 17,8 C 18,9 C 18,9 C 97 % 15 lf 13 cb 30 cb 87 cb 43 cb 1024,5 hPa 0,0 l/m 3,2 km/h (1 Bft) S 180 1 min 0 mm 1 UV-I 313 W/m 12,7 C 13,2 C 6,4 km/h (2 Bft)
20/08/2017 09:12 13,2 C 14,4 C 14,4 C 17,8 C 18,9 C 18,9 C 97 % 15 lf 13 cb 30 cb 87 cb 43 cb 1024,5 hPa 0,0 l/m 1,6 km/h (1 Bft) S 180 1 min 0 mm 1 UV-I 318 W/m 12,7 C 13,2 C 3,2 km/h (1 Bft)
20/08/2017 09:11 13,1 C 14,4 C 14,4 C 17,8 C 18,9 C 18,9 C 97 % 15 lf 13 cb 30 cb 87 cb 43 cb 1024,5 hPa 0,0 l/m 1,6 km/h (1 Bft) S 180 1 min 0 mm 1 UV-I 318 W/m 12,6 C 13,1 C 6,4 km/h (2 Bft)
20/08/2017 09:10 13,1 C 14,4 C 14,4 C 17,8 C 18,9 C 18,9 C 97 % 15 lf 13 cb 30 cb 87 cb 43 cb 1024,5 hPa 0,0 l/m 4,8 km/h (1 Bft) S 180 1 min 0 mm 1 UV-I 318 W/m 12,6 C 13,1 C 8,0 km/h (2 Bft)
20/08/2017 09:09 13,1 C 14,4 C 14,4 C 17,8 C 18,9 C 18,9 C 97 % 15 lf 13 cb 30 cb 87 cb 43 cb 1024,5 hPa 0,0 l/m 4,8 km/h (1 Bft) S-SE 157 1 min 0 mm 1 UV-I 316 W/m 12,6 C 13,1 C 8,0 km/h (2 Bft)
20/08/2017 09:08 13,1 C 14,4 C 14,4 C 17,8 C 18,9 C 18,9 C 97 % 15 lf 13 cb 30 cb 87 cb 43 cb 1024,5 hPa 0,0 l/m 4,8 km/h (1 Bft) SE 135 1 min 0 mm 1 UV-I 313 W/m 12,6 C 13,1 C 9,7 km/h (2 Bft)
20/08/2017 09:07 13,0 C 13,9 C 13,9 C 17,8 C 18,9 C 18,9 C 97 % 15 lf 13 cb 30 cb 87 cb 43 cb 1024,4 hPa 0,0 l/m 4,8 km/h (1 Bft) S-SE 157 1 min 0 mm 1 UV-I 304 W/m 12,5 C 13,0 C 6,4 km/h (2 Bft)
20/08/2017 09:06 12,9 C 13,9 C 13,9 C 17,8 C 18,9 C 18,9 C 97 % 15 lf 13 cb 30 cb 87 cb 43 cb 1024,5 hPa 0,0 l/m 4,8 km/h (1 Bft) S-SE 157 1 min 0 mm 1 UV-I 297 W/m 12,4 C 12,9 C 8,0 km/h (2 Bft)
20/08/2017 09:05 12,9 C 13,9 C 13,9 C 17,8 C 18,9 C 18,9 C 97 % 15 lf 13 cb 30 cb 87 cb 43 cb 1024,5 hPa 0,0 l/m 3,2 km/h (1 Bft) S-SE 157 1 min 0 mm 1 UV-I 279 W/m 12,4 C 12,9 C 8,0 km/h (2 Bft)
20/08/2017 09:04 12,9 C 13,9 C 13,9 C 17,8 C 18,9 C 18,9 C 97 % 15 lf 13 cb 30 cb 87 cb 43 cb 1024,4 hPa 0,0 l/m 1,6 km/h (1 Bft) S-SE 157 1 min 0 mm 1 UV-I 276 W/m 12,4 C 12,9 C 6,4 km/h (2 Bft)
20/08/2017 09:03 12,8 C 13,9 C 13,9 C 17,8 C 18,9 C 18,9 C 97 % 15 lf 13 cb 30 cb 87 cb 43 cb 1024,4 hPa 0,0 l/m 3,2 km/h (1 Bft) S-SE 157 1 min 0 mm 1 UV-I 272 W/m 12,3 C 12,8 C 4,8 km/h (1 Bft)
20/08/2017 09:02 12,8 C 13,9 C 13,9 C 17,8 C 18,9 C 18,9 C 97 % 15 lf 13 cb 30 cb 87 cb 43 cb 1024,4 hPa 0,0 l/m 4,8 km/h (1 Bft) SE 135 1 min 0 mm 1 UV-I 269 W/m 12,3 C 12,8 C 6,4 km/h (2 Bft)
20/08/2017 09:01 12,8 C 13,9 C 13,9 C 17,8 C 18,9 C 18,9 C 97 % 15 lf 13 cb 30 cb 87 cb 43 cb 1024,4 hPa 0,0 l/m 4,8 km/h (1 Bft) S 180 1 min 0 mm 1 UV-I 262 W/m 12,3 C 12,8 C 6,4 km/h (2 Bft)
20/08/2017 09:00 12,7 C 13,9 C 13,9 C 17,8 C 18,9 C 18,9 C 97 % 15 lf 13 cb 30 cb 87 cb 43 cb 1024,4 hPa 0,0 l/m 6,4 km/h (2 Bft) SE 135 1 min 0 mm 1 UV-I 253 W/m 12,2 C 12,7 C 8,0 km/h (2 Bft)
20/08/2017 08:59 12,7 C 13,9 C 13,9 C 17,8 C 18,9 C 18,9 C 97 % 15 lf 13 cb 30 cb 87 cb 43 cb 1024,4 hPa 0,0 l/m 3,2 km/h (1 Bft) S-SE 157 1 min 0 mm 1 UV-I 214 W/m 12,2 C 12,7 C 6,4 km/h (2 Bft)
20/08/2017 08:58 12,6 C 13,9 C 13,9 C 17,8 C 18,9 C 18,9 C 97 % 15 lf 13 cb 30 cb 87 cb 43 cb 1024,4 hPa 0,0 l/m 3,2 km/h (1 Bft) S-SE 157 0 min 0 mm 1 UV-I 204 W/m 12,1 C 12,6 C 6,4 km/h (2 Bft)
20/08/2017 08:57 12,6 C 13,9 C 13,9 C 17,8 C 18,9 C 18,9 C 100 % 15 lf 13 cb 30 cb 87 cb 43 cb 1024,4 hPa 0,0 l/m 6,4 km/h (2 Bft) S-SE 157 0 min 0 mm 1 UV-I 200 W/m 12,6 C 12,6 C 8,0 km/h (2 Bft)
20/08/2017 08:56 12,6 C 13,9 C 13,9 C 17,8 C 18,9 C 18,9 C 97 % 15 lf 13 cb 30 cb 87 cb 43 cb 1024,4 hPa 0,0 l/m 4,8 km/h (1 Bft) S-SE 157 0 min 0 mm 1 UV-I 188 W/m 12,1 C 12,6 C 8,0 km/h (2 Bft)
20/08/2017 08:55 12,6 C 13,9 C 13,9 C 17,8 C 18,9 C 18,9 C 97 % 15 lf 13 cb 30 cb 87 cb 43 cb 1024,4 hPa 0,0 l/m 3,2 km/h (1 Bft) S-SE 157 0 min 0 mm 1 UV-I 192 W/m 12,1 C 12,6 C 4,8 km/h (1 Bft)
20/08/2017 08:54 12,6 C 13,9 C 13,9 C 17,8 C 18,9 C 18,9 C 97 % 15 lf 13 cb 30 cb 87 cb 43 cb 1024,4 hPa 0,0 l/m 3,2 km/h (1 Bft) S-SE 157 1 min 0 mm 1 UV-I 209 W/m 12,1 C 12,6 C 6,4 km/h (2 Bft)
20/08/2017 08:53 12,5 C 13,9 C 13,9 C 17,8 C 18,9 C 18,9 C 97 % 15 lf 13 cb 30 cb 87 cb 43 cb 1024,3 hPa 0,0 l/m 3,2 km/h (1 Bft) S-SE 157 1 min 0 mm 1 UV-I 220 W/m 12,0 C 12,5 C 6,4 km/h (2 Bft)
20/08/2017 08:52 12,5 C 13,9 C 13,9 C 17,8 C 18,9 C 18,9 C 97 % 15 lf 13 cb 30 cb 87 cb 43 cb 1024,3 hPa 0,0 l/m 3,2 km/h (1 Bft) S-SE 157 1 min 0 mm 1 UV-I 225 W/m 12,0 C 12,5 C 6,4 km/h (2 Bft)
20/08/2017 08:51 12,4 C 13,3 C 13,3 C 17,8 C 18,9 C 18,9 C 97 % 15 lf 13 cb 30 cb 87 cb 43 cb 1024,3 hPa 0,0 l/m 3,2 km/h (1 Bft) S-SE 157 1 min 0 mm 1 UV-I 229 W/m 11,9 C 12,4 C 6,4 km/h (2 Bft)
20/08/2017 08:50 12,4 C 13,3 C 13,3 C 17,8 C 18,9 C 18,9 C 97 % 15 lf 13 cb 30 cb 87 cb 43 cb 1024,3 hPa 0,0 l/m 3,2 km/h (1 Bft) SE 135 1 min 0 mm 1 UV-I 230 W/m 11,9 C 12,4 C 4,8 km/h (1 Bft)
20/08/2017 08:49 12,4 C 13,3 C 13,3 C 17,8 C 18,9 C 18,9 C 97 % 15 lf 13 cb 30 cb 87 cb 43 cb 1024,3 hPa 0,0 l/m 4,8 km/h (1 Bft) SE 135 1 min 0 mm 1 UV-I 230 W/m 11,9 C 12,4 C 6,4 km/h (2 Bft)
20/08/2017 08:48 12,4 C 13,3 C 13,3 C 17,8 C 18,9 C 18,9 C 97 % 15 lf 13 cb 30 cb 87 cb 43 cb 1024,3 hPa 0,0 l/m 3,2 km/h (1 Bft) S-SE 157 1 min 0 mm 1 UV-I 227 W/m 11,9 C 12,4 C 6,4 km/h (2 Bft)
20/08/2017 08:47 12,4 C 13,3 C 13,3 C 17,8 C 18,9 C 18,9 C 97 % 15 lf 13 cb 30 cb 87 cb 43 cb 1024,3 hPa 0,0 l/m 3,2 km/h (1 Bft) S-SE 157 1 min 0 mm 1 UV-I 223 W/m 11,9 C 12,4 C 6,4 km/h (2 Bft)
20/08/2017 08:46 12,3 C 13,3 C 13,3 C 17,8 C 18,9 C 18,9 C 97 % 15 lf 13 cb 30 cb 87 cb 43 cb 1024,3 hPa 0,0 l/m 3,2 km/h (1 Bft) SE 135 1 min 0 mm 1 UV-I 220 W/m 11,8 C 12,3 C 8,0 km/h (2 Bft)
20/08/2017 08:45 12,3 C 13,3 C 13,3 C 17,8 C 18,9 C 18,9 C 97 % 15 lf 13 cb 30 cb 87 cb 43 cb 1024,3 hPa 0,0 l/m 1,6 km/h (1 Bft) SE 135 1 min 0 mm 1 UV-I 218 W/m 11,8 C 12,3 C 3,2 km/h (1 Bft)
20/08/2017 08:44 12,3 C 13,3 C 13,3 C 17,8 C 18,9 C 18,9 C 97 % 15 lf 13 cb 30 cb 87 cb 43 cb 1024,3 hPa 0,0 l/m 4,8 km/h (1 Bft) SE 135 1 min 0 mm 1 UV-I 216 W/m 11,8 C 12,3 C 6,4 km/h (2 Bft)
20/08/2017 08:43 12,2 C 13,3 C 13,3 C 17,8 C 18,9 C 18,9 C 97 % 15 lf 13 cb 30 cb 87 cb 43 cb 1024,3 hPa 0,0 l/m 3,2 km/h (1 Bft) SE 135 1 min 0 mm 1 UV-I 214 W/m 11,7 C 12,2 C 4,8 km/h (1 Bft)
20/08/2017 08:42 12,2 C 13,3 C 13,3 C 17,8 C 18,9 C 18,9 C 97 % 15 lf 13 cb 30 cb 87 cb 43 cb 1024,3 hPa 0,0 l/m 3,2 km/h (1 Bft) SE 135 1 min 0 mm 1 UV-I 213 W/m 11,7 C 12,2 C 8,0 km/h (2 Bft)
20/08/2017 08:41 12,2 C 13,3 C 13,3 C 17,8 C 18,9 C 18,9 C 97 % 15 lf 13 cb 30 cb 87 cb 43 cb 1024,3 hPa 0,0 l/m 1,6 km/h (1 Bft) SE 135 1 min 0 mm 1 UV-I 209 W/m 11,7 C 12,2 C 6,4 km/h (2 Bft)
20/08/2017 08:40 12,1 C 13,3 C 13,3 C 17,8 C 18,9 C 18,9 C 97 % 15 lf 13 cb 30 cb 87 cb 43 cb 1024,3 hPa 0,0 l/m 1,6 km/h (1 Bft) SE 135 1 min 0 mm 1 UV-I 207 W/m 11,6 C 12,1 C 3,2 km/h (1 Bft)
20/08/2017 08:39 12,1 C 13,3 C 13,3 C 17,8 C 18,9 C 18,9 C 97 % 15 lf 13 cb 30 cb 87 cb 43 cb 1024,3 hPa 0,0 l/m 3,2 km/h (1 Bft) SE 135 1 min 0 mm 1 UV-I 204 W/m 11,6 C 12,1 C 6,4 km/h (2 Bft)
20/08/2017 08:38 12,1 C 13,3 C 13,3 C 17,8 C 18,9 C 18,9 C 97 % 15 lf 13 cb 30 cb 87 cb 43 cb 1024,3 hPa 0,0 l/m 3,2 km/h (1 Bft) SE 135 1 min 0 mm 1 UV-I 202 W/m 11,6 C 12,1 C 6,4 km/h (2 Bft)
20/08/2017 08:37 12,0 C 13,3 C 13,3 C 17,8 C 18,9 C 18,9 C 97 % 15 lf 13 cb 30 cb 87 cb 43 cb 1024,3 hPa 0,0 l/m 4,8 km/h (1 Bft) SE 135 1 min 0 mm 1 UV-I 200 W/m 11,5 C 12,0 C 6,4 km/h (2 Bft)
20/08/2017 08:36 11,9 C 13,3 C 13,3 C 17,8 C 18,9 C 18,9 C 97 % 15 lf 13 cb 30 cb 87 cb 43 cb 1024,2 hPa 0,0 l/m 4,8 km/h (1 Bft) SE 135 1 min 0 mm 1 UV-I 195 W/m 11,4 C 11,9 C 8,0 km/h (2 Bft)
20/08/2017 08:35 11,9 C 13,3 C 13,3 C 17,8 C 18,9 C 18,9 C 97 % 15 lf 13 cb 30 cb 87 cb 43 cb 1024,2 hPa 0,0 l/m 4,8 km/h (1 Bft) S-SE 157 1 min 0 mm 1 UV-I 192 W/m 11,4 C 11,9 C 8,0 km/h (2 Bft)
20/08/2017 08:34 11,9 C 13,3 C 13,3 C 17,8 C 18,9 C 18,9 C 97 % 15 lf 13 cb 30 cb 87 cb 43 cb 1024,2 hPa 0,0 l/m 3,2 km/h (1 Bft) S-SE 157 1 min 0 mm 1 UV-I 190 W/m 11,4 C 11,9 C 6,4 km/h (2 Bft)
20/08/2017 08:33 11,8 C 12,8 C 12,8 C 17,8 C 18,9 C 18,9 C 97 % 15 lf 13 cb 30 cb 87 cb 43 cb 1024,2 hPa 0,0 l/m 3,2 km/h (1 Bft) S-SE 157 1 min 0 mm 1 UV-I 186 W/m 11,3 C 11,8 C 8,0 km/h (2 Bft)
20/08/2017 08:32 11,8 C 12,8 C 12,8 C 17,8 C 18,9 C 18,9 C 97 % 15 lf 13 cb 30 cb 87 cb 43 cb 1024,2 hPa 0,0 l/m 1,6 km/h (1 Bft) SE 135 1 min 0 mm 1 UV-I 185 W/m 11,3 C 11,8 C 4,8 km/h (1 Bft)
20/08/2017 08:31 11,8 C 12,8 C 12,8 C 17,8 C 18,9 C 18,9 C 97 % 15 lf 13 cb 30 cb 87 cb 43 cb 1024,2 hPa 0,0 l/m 3,2 km/h (1 Bft) SE 135 1 min 0 mm 1 UV-I 181 W/m 11,3 C 11,8 C 6,4 km/h (2 Bft)
20/08/2017 08:30 11,7 C 12,8 C 12,8 C 17,8 C 18,9 C 18,9 C 97 % 15 lf 13 cb 30 cb 87 cb 43 cb 1024,2 hPa 0,0 l/m 6,4 km/h (2 Bft) S-SE 157 1 min 0 mm 1 UV-I 174 W/m 11,2 C 11,7 C 6,4 km/h (2 Bft)
20/08/2017 08:29 11,7 C 12,8 C 12,8 C 17,8 C 18,9 C 18,9 C 97 % 15 lf 13 cb 30 cb 87 cb 43 cb 1024,2 hPa 0,0 l/m 3,2 km/h (1 Bft) S-SE 157 1 min 0 mm 1 UV-I 171 W/m 11,2 C 11,7 C 6,4 km/h (2 Bft)
20/08/2017 08:28 11,7 C 12,8 C 12,8 C 17,8 C 18,9 C 18,9 C 97 % 15 lf 13 cb 30 cb 87 cb 43 cb 1024,3 hPa 0,0 l/m 3,2 km/h (1 Bft) S-SE 157 1 min 0 mm 1 UV-I 169 W/m 11,2 C 11,7 C 6,4 km/h (2 Bft)
20/08/2017 08:27 11,6 C 12,8 C 12,8 C 17,8 C 18,9 C 18,9 C 97 % 15 lf 13 cb 30 cb 87 cb 43 cb 1024,2 hPa 0,0 l/m 3,2 km/h (1 Bft) S-SE 157 1 min 0 mm 0 UV-I 165 W/m 11,1 C 11,6 C 3,2 km/h (1 Bft)
20/08/2017 08:26 11,6 C 12,8 C 12,8 C 17,8 C 18,9 C 18,9 C 97 % 15 lf 13 cb 30 cb 87 cb 43 cb 1024,2 hPa 0,0 l/m 3,2 km/h (1 Bft) S-SE 157 1 min 0 mm 0 UV-I 162 W/m 11,1 C 11,6 C 4,8 km/h (1 Bft)
20/08/2017 08:25 11,6 C 12,8 C 12,8 C 17,8 C 18,9 C 18,9 C 97 % 15 lf 13 cb 30 cb 87 cb 43 cb 1024,2 hPa 0,0 l/m 3,2 km/h (1 Bft) S-SE 157 1 min 0 mm 0 UV-I 158 W/m 11,1 C 11,6 C 6,4 km/h (2 Bft)
20/08/2017 08:24 11,6 C 12,8 C 12,8 C 17,8 C 18,9 C 18,9 C 97 % 15 lf 13 cb 30 cb 87 cb 43 cb 1024,2 hPa 0,0 l/m 4,8 km/h (1 Bft) S-SE 157 0 min 0 mm 0 UV-I 148 W/m 11,1 C 11,6 C 6,4 km/h (2 Bft)
20/08/2017 08:23 11,5 C 12,8 C 12,8 C 17,8 C 18,9 C 18,9 C 97 % 15 lf 13 cb 30 cb 87 cb 43 cb 1024,2 hPa 0,0 l/m 4,8 km/h (1 Bft) S-SE 157 0 min 0 mm 0 UV-I 142 W/m 11,0 C 11,5 C 6,4 km/h (2 Bft)
20/08/2017 08:22 11,5 C 12,8 C 12,8 C 17,8 C 18,9 C 18,9 C 97 % 15 lf 13 cb 30 cb 87 cb 43 cb 1024,2 hPa 0,0 l/m 3,2 km/h (1 Bft) SE 135 0 min 0 mm 0 UV-I 137 W/m 11,0 C 11,5 C 6,4 km/h (2 Bft)
20/08/2017 08:21 11,5 C 12,8 C 12,8 C 17,8 C 18,9 C 18,9 C 97 % 15 lf 13 cb 30 cb 87 cb 43 cb 1024,2 hPa 0,0 l/m 1,6 km/h (1 Bft) SE 135 0 min 0 mm 0 UV-I 134 W/m 11,0 C 11,5 C 3,2 km/h (1 Bft)
20/08/2017 08:20 11,4 C 12,8 C 12,8 C 17,8 C 18,9 C 18,9 C 97 % 15 lf 13 cb 30 cb 87 cb 43 cb 1024,1 hPa 0,0 l/m 3,2 km/h (1 Bft) SE 135 0 min 0 mm 0 UV-I 130 W/m 10,9 C 11,4 C 6,4 km/h (2 Bft)
20/08/2017 08:19 11,4 C 12,8 C 12,8 C 17,8 C 18,9 C 18,9 C 97 % 15 lf 13 cb 30 cb 87 cb 43 cb 1024,1 hPa 0,0 l/m 4,8 km/h (1 Bft) SE 135 0 min 0 mm 0 UV-I 125 W/m 10,9 C 11,4 C 8,0 km/h (2 Bft)
20/08/2017 08:18 11,4 C 12,8 C 12,8 C 17,8 C 18,9 C 18,9 C 97 % 15 lf 13 cb 30 cb 87 cb 43 cb 1024,2 hPa 0,0 l/m 6,4 km/h (2 Bft) SE 135 0 min 0 mm 0 UV-I 84 W/m 10,9 C 11,4 C 8,0 km/h (2 Bft)
20/08/2017 08:17 11,4 C 12,8 C 12,8 C 17,8 C 18,9 C 18,9 C 97 % 15 lf 13 cb 30 cb 87 cb 43 cb 1024,1 hPa 0,0 l/m 6,4 km/h (2 Bft) SE 135 0 min 0 mm 0 UV-I 63 W/m 10,9 C 11,4 C 8,0 km/h (2 Bft)
20/08/2017 08:16 11,4 C 12,8 C 12,8 C 17,8 C 18,9 C 18,9 C 97 % 15 lf 13 cb 30 cb 87 cb 43 cb 1024,1 hPa 0,0 l/m 6,4 km/h (2 Bft) SE 135 0 min 0 mm 0 UV-I 63 W/m 10,9 C 11,4 C 8,0 km/h (2 Bft)
20/08/2017 08:15 11,4 C 12,8 C 12,8 C 17,8 C 18,9 C 18,9 C 97 % 15 lf 13 cb 30 cb 87 cb 43 cb 1024,1 hPa 0,0 l/m 3,2 km/h (1 Bft) SE 135 0 min 0 mm 0 UV-I 62 W/m 10,9 C 11,4 C 6,4 km/h (2 Bft)
20/08/2017 08:14 11,4 C 12,8 C 12,8 C 17,8 C 18,9 C 18,9 C 97 % 15 lf 13 cb 30 cb 87 cb 43 cb 1024,1 hPa 0,0 l/m 4,8 km/h (1 Bft) S-SE 157 0 min 0 mm 0 UV-I 65 W/m 10,9 C 11,4 C 6,4 km/h (2 Bft)
20/08/2017 08:13 11,4 C 12,8 C 12,8 C 17,8 C 18,9 C 18,9 C 97 % 15 lf 13 cb 30 cb 87 cb 43 cb 1024,1 hPa 0,0 l/m 3,2 km/h (1 Bft) S-SE 157 0 min 0 mm 0 UV-I 83 W/m 10,9 C 11,4 C 6,4 km/h (2 Bft)
20/08/2017 08:12 11,3 C 12,8 C 12,8 C 17,8 C 18,9 C 18,9 C 97 % 15 lf 13 cb 30 cb 87 cb 43 cb 1024,1 hPa 0,0 l/m 4,8 km/h (1 Bft) S-SE 157 0 min 0 mm 0 UV-I 88 W/m 10,8 C 11,3 C 6,4 km/h (2 Bft)
20/08/2017 08:11 11,3 C 12,8 C 12,8 C 17,8 C 18,9 C 18,9 C 97 % 15 lf 13 cb 30 cb 87 cb 43 cb 1024,1 hPa 0,0 l/m 4,8 km/h (1 Bft) S-SE 157 0 min 0 mm 0 UV-I 90 W/m 10,8 C 11,3 C 6,4 km/h (2 Bft)
20/08/2017 08:10 11,3 C 12,8 C 12,8 C 17,8 C 18,9 C 18,9 C 97 % 15 lf 13 cb 30 cb 87 cb 43 cb 1024,0 hPa 0,0 l/m 3,2 km/h (1 Bft) S-SE 157 0 min 0 mm 0 UV-I 86 W/m 10,8 C 11,3 C 6,4 km/h (2 Bft)
20/08/2017 08:09 11,3 C 12,8 C 12,8 C 17,8 C 18,9 C 18,9 C 97 % 15 lf 13 cb 30 cb 87 cb 43 cb 1024,0 hPa 0,0 l/m 4,8 km/h (1 Bft) S-SE 157 0 min 0 mm 0 UV-I 88 W/m 10,8 C 11,3 C 8,0 km/h (2 Bft)
20/08/2017 08:08 11,3 C 12,8 C 12,8 C 17,8 C 18,9 C 18,9 C 97 % 15 lf 13 cb 30 cb 87 cb 43 cb 1024,0 hPa 0,0 l/m 3,2 km/h (1 Bft) S-SE 157 0 min 0 mm 0 UV-I 86 W/m 10,8 C 11,3 C 6,4 km/h (2 Bft)
20/08/2017 08:07 11,2 C 12,8 C 12,8 C 17,8 C 18,9 C 18,9 C 97 % 15 lf 13 cb 30 cb 87 cb 43 cb 1024,0 hPa 0,0 l/m 4,8 km/h (1 Bft) S-SE 157 0 min 0 mm 0 UV-I 83 W/m 10,7 C 11,2 C 8,0 km/h (2 Bft)
20/08/2017 08:06 11,2 C 12,8 C 12,8 C 17,8 C 18,9 C 18,9 C 97 % 15 lf 13 cb 30 cb 87 cb 43 cb 1024,0 hPa 0,0 l/m 4,8 km/h (1 Bft) S-SE 157 0 min 0 mm 0 UV-I 76 W/m 10,7 C 11,2 C 6,4 km/h (2 Bft)
20/08/2017 08:05 11,2 C 12,8 C 12,8 C 17,8 C 18,9 C 18,9 C 97 % 15 lf 13 cb 30 cb 87 cb 43 cb 1024,0 hPa 0,0 l/m 4,8 km/h (1 Bft) S-SE 157 0 min 0 mm 0 UV-I 72 W/m 10,7 C 11,2 C 8,0 km/h (2 Bft)
20/08/2017 08:04 11,2 C 12,8 C 12,8 C 17,8 C 18,9 C 18,9 C 97 % 15 lf 13 cb 30 cb 87 cb 43 cb 1024,1 hPa 0,0 l/m 4,8 km/h (1 Bft) S-SE 157 0 min 0 mm 0 UV-I 74 W/m 10,7 C 11,2 C 8,0 km/h (2 Bft)
20/08/2017 08:03 11,2 C 12,8 C 12,8 C 17,8 C 18,9 C 18,9 C 97 % 15 lf 13 cb 30 cb 87 cb 43 cb 1024,0 hPa 0,0 l/m 4,8 km/h (1 Bft) S-SE 157 0 min 0 mm 0 UV-I 74 W/m 10,7 C 11,2 C 6,4 km/h (2 Bft)
20/08/2017 08:02 11,2 C 12,8 C 12,8 C 17,8 C 18,9 C 18,9 C 97 % 15 lf 13 cb 30 cb 87 cb 43 cb 1024,0 hPa 0,0 l/m 6,4 km/h (2 Bft) S-SE 157 0 min 0 mm 0 UV-I 69 W/m 10,7 C 11,2 C 8,0 km/h (2 Bft)
20/08/2017 08:01 11,1 C 12,8 C 12,8 C 17,8 C 18,9 C 18,9 C 97 % 15 lf 13 cb 30 cb 87 cb 43 cb 1024,0 hPa 0,0 l/m 4,8 km/h (1 Bft) S-SE 157 0 min 0 mm 0 UV-I 69 W/m 10,6 C 11,1 C 6,4 km/h (2 Bft)
20/08/2017 08:00 11,1 C 12,8 C 12,8 C 17,8 C 18,9 C 18,9 C 97 % 15 lf 13 cb 30 cb 87 cb 43 cb 1024,0 hPa 0,0 l/m 3,2 km/h (1 Bft) S-SE 157 0 min 0 mm 0 UV-I 69 W/m 10,6 C 11,1 C 6,4 km/h (2 Bft)
20/08/2017 07:59 11,1 C 12,8 C 12,8 C 17,8 C 18,9 C 18,9 C 97 % 15 lf 13 cb 30 cb 87 cb 43 cb 1024,0 hPa 0,0 l/m 4,8 km/h (1 Bft) S-SE 157 0 min 0 mm 0 UV-I 69 W/m 10,6 C 11,1 C 8,0 km/h (2 Bft)
20/08/2017 07:58 11,1 C 12,8 C 12,8 C 17,8 C 18,9 C 18,9 C 97 % 15 lf 13 cb 30 cb 87 cb 43 cb 1024,0 hPa 0,0 l/m 6,4 km/h (2 Bft) S-SE 157 0 min 0 mm 0 UV-I 69 W/m 10,6 C 11,1 C 8,0 km/h (2 Bft)
20/08/2017 07:57 11,1 C 12,8 C 12,8 C 17,8 C 18,9 C 18,9 C 97 % 15 lf 13 cb 30 cb 87 cb 43 cb 1024,0 hPa 0,0 l/m 3,2 km/h (1 Bft) S-SE 157 0 min 0 mm 0 UV-I 70 W/m 10,6 C 11,1 C 6,4 km/h (2 Bft)
20/08/2017 07:56 11,1 C 12,8 C 12,8 C 17,8 C 18,9 C 18,9 C 97 % 15 lf 13 cb 30 cb 87 cb 43 cb 1024,0 hPa 0,0 l/m 6,4 km/h (2 Bft) S-SE 157 0 min 0 mm 0 UV-I 70 W/m 10,6 C 11,1 C 8,0 km/h (2 Bft)
20/08/2017 07:55 11,1 C 12,8 C 12,8 C 17,8 C 18,9 C 18,9 C 97 % 15 lf 13 cb 30 cb 87 cb 43 cb 1024,0 hPa 0,0 l/m 6,4 km/h (2 Bft) S-SE 157 0 min 0 mm 0 UV-I 70 W/m 10,6 C 11,1 C 8,0 km/h (2 Bft)
20/08/2017 07:54 11,1 C 12,8 C 12,8 C 17,8 C 18,9 C 18,9 C 97 % 15 lf 13 cb 30 cb 87 cb 43 cb 1023,9 hPa 0,0 l/m 8,0 km/h (2 Bft) S-SE 157 0 min 0 mm 0 UV-I 69 W/m 10,6 C 10,0 C 9,7 km/h (2 Bft)
20/08/2017 07:53 11,0 C 12,8 C 12,8 C 17,8 C 18,9 C 18,9 C 97 % 15 lf 13 cb 30 cb 87 cb 43 cb 1023,9 hPa 0,0 l/m 8,0 km/h (2 Bft) S-SE 157 0 min 0 mm 0 UV-I 65 W/m 10,5 C 9,9 C 9,7 km/h (2 Bft)
20/08/2017 07:52 11,0 C 12,8 C 12,8 C 17,8 C 18,9 C 18,9 C 97 % 15 lf 13 cb 30 cb 87 cb 43 cb 1023,9 hPa 0,0 l/m 6,4 km/h (2 Bft) S-SE 157 0 min 0 mm 0 UV-I 69 W/m 10,5 C 11,0 C 9,7 km/h (2 Bft)
20/08/2017 07:51 11,0 C 12,2 C 12,2 C 17,8 C 18,9 C 18,9 C 97 % 15 lf 13 cb 30 cb 87 cb 43 cb 1023,9 hPa 0,0 l/m 6,4 km/h (2 Bft) SE 135 0 min 0 mm 0 UV-I 70 W/m 10,5 C 11,0 C 8,0 km/h (2 Bft)
20/08/2017 07:50 11,0 C 12,2 C 12,2 C 17,8 C 18,9 C 18,9 C 97 % 15 lf 13 cb 30 cb 87 cb 43 cb 1023,8 hPa 0,0 l/m 8,0 km/h (2 Bft) SE 135 0 min 0 mm 0 UV-I 63 W/m 10,5 C 9,9 C 9,7 km/h (2 Bft)
20/08/2017 07:49 11,0 C 12,2 C 12,2 C 17,8 C 18,9 C 18,9 C 97 % 15 lf 13 cb 30 cb 87 cb 43 cb 1023,8 hPa 0,0 l/m 8,0 km/h (2 Bft) SE 135 0 min 0 mm 0 UV-I 58 W/m 10,5 C 9,9 C 9,7 km/h (2 Bft)
20/08/2017 07:48 10,9 C 12,2 C 12,2 C 17,8 C 18,9 C 18,9 C 97 % 15 lf 13 cb 30 cb 87 cb 43 cb 1023,9 hPa 0,0 l/m 8,0 km/h (2 Bft) SE 135 0 min 0 mm 0 UV-I 58 W/m 10,4 C 9,8 C 9,7 km/h (2 Bft)
20/08/2017 07:47 10,9 C 12,2 C 12,2 C 17,8 C 18,9 C 18,9 C 97 % 15 lf 13 cb 30 cb 87 cb 43 cb 1023,8 hPa 0,0 l/m 4,8 km/h (1 Bft) S-SE 157 0 min 0 mm 0 UV-I 58 W/m 10,4 C 10,9 C 8,0 km/h (2 Bft)
20/08/2017 07:46 10,9 C 12,2 C 12,2 C 17,8 C 18,9 C 18,9 C 97 % 15 lf 13 cb 30 cb 86 cb 43 cb 1023,8 hPa 0,0 l/m 6,4 km/h (2 Bft) SE 135 0 min 0 mm 0 UV-I 58 W/m 10,4 C 10,9 C 8,0 km/h (2 Bft)
20/08/2017 07:45 10,9 C 12,2 C 12,2 C 17,8 C 18,9 C 18,9 C 97 % 15 lf 13 cb 30 cb 86 cb 43 cb 1023,7 hPa 0,0 l/m 8,0 km/h (2 Bft) SE 135 0 min 0 mm 0 UV-I 49 W/m 10,4 C 9,8 C 9,7 km/h (2 Bft)
20/08/2017 07:44 10,9 C 12,2 C 12,2 C 17,8 C 18,9 C 18,9 C 97 % 15 lf 13 cb 30 cb 86 cb 43 cb 1023,7 hPa 0,0 l/m 4,8 km/h (1 Bft) SE 135 0 min 0 mm 0 UV-I 54 W/m 10,4 C 10,9 C 9,7 km/h (2 Bft)
20/08/2017 07:43 10,9 C 12,2 C 12,2 C 17,8 C 18,9 C 18,9 C 97 % 15 lf 13 cb 30 cb 86 cb 43 cb 1023,7 hPa 0,0 l/m 6,4 km/h (2 Bft) SE 135 0 min 0 mm 0 UV-I 53 W/m 10,4 C 10,9 C 8,0 km/h (2 Bft)
20/08/2017 07:42 10,9 C 12,2 C 12,2 C 17,8 C 18,9 C 18,9 C 97 % 15 lf 13 cb 30 cb 86 cb 43 cb 1023,7 hPa 0,0 l/m 4,8 km/h (1 Bft) SE 135 0 min 0 mm 0 UV-I 53 W/m 10,4 C 10,9 C 8,0 km/h (2 Bft)
20/08/2017 07:41 10,9 C 12,2 C 12,2 C 17,8 C 18,9 C 18,9 C 97 % 15 lf 13 cb 30 cb 86 cb 43 cb 1023,7 hPa 0,0 l/m 4,8 km/h (1 Bft) S-SE 157 0 min 0 mm 0 UV-I 53 W/m 10,4 C 10,9 C 6,4 km/h (2 Bft)
20/08/2017 07:40 10,9 C 12,2 C 12,2 C 17,8 C 18,9 C 18,9 C 97 % 15 lf 13 cb 30 cb 86 cb 43 cb 1023,7 hPa 0,0 l/m 4,8 km/h (1 Bft) S-SE 157 0 min 0 mm 0 UV-I 53 W/m 10,4 C 10,9 C 6,4 km/h (2 Bft)
20/08/2017 07:39 10,8 C 12,2 C 12,2 C 17,8 C 18,9 C 18,9 C 97 % 15 lf 13 cb 30 cb 86 cb 43 cb 1023,7 hPa 0,0 l/m 3,2 km/h (1 Bft) S-SE 157 0 min 0 mm 0 UV-I 49 W/m 10,3 C 10,8 C 6,4 km/h (2 Bft)
20/08/2017 07:38 10,8 C 12,2 C 12,2 C 17,8 C 18,9 C 18,9 C 97 % 15 lf 13 cb 30 cb 86 cb 43 cb 1023,7 hPa 0,0 l/m 3,2 km/h (1 Bft) S-SE 157 0 min 0 mm 0 UV-I 47 W/m 10,3 C 10,8 C 6,4 km/h (2 Bft)
20/08/2017 07:37 10,8 C 12,2 C 12,2 C 17,8 C 18,9 C 18,9 C 97 % 15 lf 13 cb 30 cb 86 cb 43 cb 1023,7 hPa 0,0 l/m 3,2 km/h (1 Bft) S-SE 157 0 min 0 mm 0 UV-I 46 W/m 10,3 C 10,8 C 6,4 km/h (2 Bft)
20/08/2017 07:36 10,8 C 12,2 C 12,2 C 17,8 C 18,9 C 18,9 C 97 % 15 lf 13 cb 30 cb 86 cb 43 cb 1023,7 hPa 0,0 l/m 6,4 km/h (2 Bft) S-SE 157 0 min 0 mm 0 UV-I 47 W/m 10,3 C 10,8 C 8,0 km/h (2 Bft)
20/08/2017 07:35 10,8 C 12,2 C 12,2 C 17,8 C 18,9 C 18,9 C 97 % 15 lf 13 cb 30 cb 86 cb 43 cb 1023,7 hPa 0,0 l/m 4,8 km/h (1 Bft) S-SE 157 0 min 0 mm 0 UV-I 47 W/m 10,3 C 10,8 C 6,4 km/h (2 Bft)
20/08/2017 07:34 10,8 C 12,2 C 12,2 C 17,8 C 18,9 C 18,9 C 97 % 15 lf 13 cb 30 cb 86 cb 43 cb 1023,7 hPa 0,0 l/m 4,8 km/h (1 Bft) S-SE 157 0 min 0 mm 0 UV-I 44 W/m 10,3 C 10,8 C 8,0 km/h (2 Bft)
20/08/2017 07:33 10,8 C 12,2 C 12,2 C 17,8 C 18,9 C 18,9 C 96 % 15 lf 13 cb 30 cb 86 cb 43 cb 1023,7 hPa 0,0 l/m 6,4 km/h (2 Bft) S-SE 157 0 min 0 mm 0 UV-I 44 W/m 10,2 C 10,8 C 6,4 km/h (2 Bft)
20/08/2017 07:32 10,8 C 12,2 C 12,2 C 17,8 C 18,9 C 18,9 C 96 % 15 lf 13 cb 30 cb 86 cb 43 cb 1023,7 hPa 0,0 l/m 4,8 km/h (1 Bft) S-SE 157 0 min 0 mm 0 UV-I 42 W/m 10,2 C 10,8 C 8,0 km/h (2 Bft)
20/08/2017 07:31 10,8 C 11,7 C 11,7 C 17,8 C 18,9 C 18,9 C 96 % 15 lf 12 cb 30 cb 86 cb 43 cb 1023,6 hPa 0,0 l/m 3,2 km/h (1 Bft) S-SE 157 0 min 0 mm 0 UV-I 42 W/m 10,2 C 10,8 C 6,4 km/h (2 Bft)
20/08/2017 07:30 10,8 C 11,7 C 11,7 C 17,8 C 18,9 C 18,9 C 96 % 15 lf 12 cb 30 cb 86 cb 43 cb 1023,7 hPa 0,0 l/m 4,8 km/h (1 Bft) S-SE 157 0 min 0 mm 0 UV-I 42 W/m 10,2 C 10,8 C 8,0 km/h (2 Bft)
20/08/2017 07:29 10,8 C 11,7 C 11,7 C 17,8 C 18,9 C 18,9 C 96 % 15 lf 12 cb 30 cb 86 cb 43 cb 1023,6 hPa 0,0 l/m 4,8 km/h (1 Bft) S-SE 157 0 min 0 mm 0 UV-I 42 W/m 10,2 C 10,8 C 6,4 km/h (2 Bft)
20/08/2017 07:28 10,8 C 11,7 C 11,7 C 17,8 C 18,9 C 18,9 C 96 % 15 lf 12 cb 30 cb 86 cb 43 cb 1023,6 hPa 0,0 l/m 3,2 km/h (1 Bft) S-SE 157 0 min 0 mm 0 UV-I 40 W/m 10,2 C 10,8 C 6,4 km/h (2 Bft)
20/08/2017 07:27 10,8 C 11,7 C 11,7 C 17,8 C 18,9 C 18,9 C 96 % 15 lf 12 cb 30 cb 86 cb 43 cb 1023,7 hPa 0,0 l/m 4,8 km/h (1 Bft) S-SE 157 0 min 0 mm 0 UV-I 40 W/m 10,2 C 10,8 C 8,0 km/h (2 Bft)
20/08/2017 07:26 10,8 C 11,7 C 11,7 C 17,8 C 18,9 C 18,9 C 96 % 15 lf 12 cb 30 cb 86 cb 43 cb 1023,6 hPa 0,0 l/m 4,8 km/h (1 Bft) SE 135 0 min 0 mm 0 UV-I 40 W/m 10,2 C 10,8 C 8,0 km/h (2 Bft)
20/08/2017 07:25 10,8 C 11,7 C 11,7 C 17,8 C 18,9 C 18,9 C 96 % 15 lf 12 cb 30 cb 86 cb 43 cb 1023,6 hPa 0,0 l/m 3,2 km/h (1 Bft) SE 135 0 min 0 mm 0 UV-I 37 W/m 10,2 C 10,8 C 6,4 km/h (2 Bft)
20/08/2017 07:24 10,8 C 11,7 C 11,7 C 17,8 C 18,9 C 18,9 C 96 % 15 lf 12 cb 30 cb 86 cb 43 cb 1023,6 hPa 0,0 l/m 3,2 km/h (1 Bft) SE 135 0 min 0 mm 0 UV-I 35 W/m 10,2 C 10,8 C 6,4 km/h (2 Bft)
20/08/2017 07:23 10,8 C 11,7 C 11,7 C 17,8 C 18,9 C 18,9 C 96 % 15 lf 12 cb 30 cb 86 cb 43 cb 1023,6 hPa 0,0 l/m 3,2 km/h (1 Bft) SE 135 0 min 0 mm 0 UV-I 35 W/m 10,2 C 10,8 C 4,8 km/h (1 Bft)
20/08/2017 07:22 10,8 C 11,7 C 11,7 C 17,8 C 18,9 C 18,9 C 96 % 15 lf 12 cb 30 cb 86 cb 43 cb 1023,6 hPa 0,0 l/m 6,4 km/h (2 Bft) SE 135 0 min 0 mm 0 UV-I 35 W/m 10,2 C 10,8 C 8,0 km/h (2 Bft)
20/08/2017 07:21 10,8 C 11,7 C 11,7 C 18,3 C 18,9 C 18,9 C 96 % 15 lf 12 cb 30 cb 86 cb 43 cb 1023,6 hPa 0,0 l/m 6,4 km/h (2 Bft) SE 135 0 min 0 mm 0 UV-I 33 W/m 10,2 C 10,8 C 8,0 km/h (2 Bft)
20/08/2017 07:20 10,8 C 11,7 C 11,7 C 18,3 C 18,9 C 18,9 C 96 % 15 lf 12 cb 30 cb 86 cb 43 cb 1023,7 hPa 0,0 l/m 6,4 km/h (2 Bft) S-SE 157 0 min 0 mm 0 UV-I 33 W/m 10,2 C 10,8 C 8,0 km/h (2 Bft)
20/08/2017 07:19 10,8 C 11,7 C 11,7 C 18,3 C 18,9 C 18,9 C 96 % 15 lf 12 cb 30 cb 86 cb 43 cb 1023,7 hPa 0,0 l/m 8,0 km/h (2 Bft) SE 135 0 min 0 mm 0 UV-I 32 W/m 10,2 C 9,7 C 9,7 km/h (2 Bft)
20/08/2017 07:18 10,8 C 11,7 C 11,7 C 18,3 C 18,9 C 18,9 C 96 % 15 lf 12 cb 30 cb 86 cb 43 cb 1023,6 hPa 0,0 l/m 6,4 km/h (2 Bft) S-SE 157 0 min 0 mm 0 UV-I 32 W/m 10,2 C 10,8 C 8,0 km/h (2 Bft)
20/08/2017 07:17 10,8 C 11,7 C 11,7 C 18,3 C 18,9 C 18,9 C 96 % 15 lf 12 cb 30 cb 86 cb 43 cb 1023,7 hPa 0,0 l/m 4,8 km/h (1 Bft) S-SE 157 0 min 0 mm 0 UV-I 32 W/m 10,2 C 10,8 C 8,0 km/h (2 Bft)
20/08/2017 07:16 10,8 C 11,7 C 11,7 C 18,3 C 18,9 C 18,9 C 96 % 15 lf 12 cb 30 cb 86 cb 43 cb 1023,6 hPa 0,0 l/m 6,4 km/h (2 Bft) SE 135 0 min 0 mm 0 UV-I 30 W/m 10,2 C 10,8 C 8,0 km/h (2 Bft)
20/08/2017 07:15 10,8 C 11,7 C 11,7 C 18,3 C 18,9 C 18,9 C 96 % 15 lf 12 cb 30 cb 86 cb 43 cb 1023,7 hPa 0,0 l/m 8,0 km/h (2 Bft) SE 135 0 min 0 mm 0 UV-I 30 W/m 10,2 C 9,7 C 9,7 km/h (2 Bft)
20/08/2017 07:14 10,8 C 11,7 C 11,7 C 18,3 C 18,9 C 18,9 C 96 % 15 lf 12 cb 30 cb 86 cb 43 cb 1023,7 hPa 0,0 l/m 6,4 km/h (2 Bft) SE 135 0 min 0 mm 0 UV-I 28 W/m 10,2 C 10,8 C 8,0 km/h (2 Bft)
20/08/2017 07:13 10,8 C 11,7 C 11,7 C 18,3 C 18,9 C 18,9 C 96 % 15 lf 12 cb 30 cb 86 cb 43 cb 1023,7 hPa 0,0 l/m 4,8 km/h (1 Bft) SE 135 0 min 0 mm 0 UV-I 30 W/m 10,2 C 10,8 C 8,0 km/h (2 Bft)
20/08/2017 07:12 10,8 C 11,7 C 11,7 C 18,3 C 18,9 C 18,9 C 96 % 15 lf 12 cb 30 cb 86 cb 43 cb 1023,6 hPa 0,0 l/m 6,4 km/h (2 Bft) SE 135 0 min 0 mm 0 UV-I 28 W/m 10,2 C 10,8 C 8,0 km/h (2 Bft)
20/08/2017 07:11 10,8 C 11,7 C 11,7 C 18,3 C 18,9 C 18,9 C 96 % 15 lf 12 cb 30 cb 86 cb 43 cb 1023,6 hPa 0,0 l/m 4,8 km/h (1 Bft) SE 135 0 min 0 mm 0 UV-I 28 W/m 10,2 C 10,8 C 6,4 km/h (2 Bft)
20/08/2017 07:10 10,8 C 11,7 C 11,7 C 18,3 C 18,9 C 18,9 C 96 % 15 lf 12 cb 30 cb 86 cb 43 cb 1023,7 hPa 0,0 l/m 4,8 km/h (1 Bft) SE 135 0 min 0 mm 0 UV-I 26 W/m 10,2 C 10,8 C 6,4 km/h (2 Bft)
20/08/2017 07:09 10,8 C 11,7 C 11,7 C 18,3 C 18,9 C 18,9 C 96 % 15 lf 12 cb 30 cb 86 cb 43 cb 1023,6 hPa 0,0 l/m 4,8 km/h (1 Bft) SE 135 0 min 0 mm 0 UV-I 26 W/m 10,2 C 10,8 C 8,0 km/h (2 Bft)
20/08/2017 07:08 10,8 C 11,7 C 11,7 C 18,3 C 18,9 C 18,9 C 96 % 15 lf 12 cb 30 cb 86 cb 43 cb 1023,7 hPa 0,0 l/m 6,4 km/h (2 Bft) SE 135 0 min 0 mm 0 UV-I 25 W/m 10,2 C 10,8 C 8,0 km/h (2 Bft)
20/08/2017 07:07 10,8 C 11,7 C 11,7 C 18,3 C 18,9 C 18,9 C 96 % 15 lf 12 cb 30 cb 86 cb 43 cb 1023,7 hPa 0,0 l/m 8,0 km/h (2 Bft) SE 135 0 min 0 mm 0 UV-I 25 W/m 10,2 C 9,7 C 8,0 km/h (2 Bft)
20/08/2017 07:06 10,8 C 11,7 C 11,7 C 18,3 C 18,9 C 18,9 C 96 % 15 lf 12 cb 30 cb 86 cb 43 cb 1023,6 hPa 0,0 l/m 6,4 km/h (2 Bft) SE 135 0 min 0 mm 0 UV-I 23 W/m 10,2 C 10,8 C 8,0 km/h (2 Bft)
20/08/2017 07:05 10,8 C 11,1 C 11,1 C 18,3 C 18,9 C 18,9 C 96 % 15 lf 12 cb 30 cb 86 cb 43 cb 1023,6 hPa 0,0 l/m 6,4 km/h (2 Bft) SE 135 0 min 0 mm 0 UV-I 23 W/m 10,2 C 10,8 C 8,0 km/h (2 Bft)
20/08/2017 07:04 10,8 C 11,1 C 11,1 C 18,3 C 18,9 C 18,9 C 96 % 15 lf 12 cb 30 cb 86 cb 43 cb 1023,6 hPa 0,0 l/m 6,4 km/h (2 Bft) S-SE 157 0 min 0 mm 0 UV-I 21 W/m 10,2 C 10,8 C 8,0 km/h (2 Bft)
20/08/2017 07:03 10,8 C 11,1 C 11,1 C 18,3 C 18,9 C 18,9 C 96 % 15 lf 12 cb 30 cb 86 cb 43 cb 1023,6 hPa 0,0 l/m 6,4 km/h (2 Bft) SE 135 0 min 0 mm 0 UV-I 21 W/m 10,2 C 10,8 C 8,0 km/h (2 Bft)
20/08/2017 07:02 10,8 C 11,1 C 11,1 C 18,3 C 18,9 C 18,9 C 96 % 15 lf 12 cb 30 cb 86 cb 43 cb 1023,5 hPa 0,0 l/m 4,8 km/h (1 Bft) SE 135 0 min 0 mm 0 UV-I 19 W/m 10,2 C 10,8 C 8,0 km/h (2 Bft)
20/08/2017 07:01 10,8 C 11,1 C 11,1 C 18,3 C 18,9 C 18,9 C 96 % 15 lf 12 cb 30 cb 86 cb 43 cb 1023,6 hPa 0,0 l/m 6,4 km/h (2 Bft) SE 135 0 min 0 mm 0 UV-I 19 W/m 10,2 C 10,8 C 8,0 km/h (2 Bft)
20/08/2017 07:00 10,8 C 11,1 C 11,1 C 18,3 C 18,9 C 18,9 C 96 % 15 lf 12 cb 30 cb 86 cb 43 cb 1023,6 hPa 0,0 l/m 6,4 km/h (2 Bft) S-SE 157 0 min 0 mm 0 UV-I 19 W/m 10,2 C 10,8 C 8,0 km/h (2 Bft)
20/08/2017 06:59 10,8 C 11,1 C 11,1 C 18,3 C 18,9 C 18,9 C 96 % 15 lf 12 cb 30 cb 86 cb 43 cb 1023,5 hPa 0,0 l/m 6,4 km/h (2 Bft) SE 135 0 min 0 mm 0 UV-I 18 W/m 10,2 C 10,8 C 8,0 km/h (2 Bft)
20/08/2017 06:58 10,8 C 11,1 C 11,1 C 18,3 C 18,9 C 18,9 C 96 % 15 lf 12 cb 30 cb 86 cb 43 cb 1023,5 hPa 0,0 l/m 4,8 km/h (1 Bft) SE 135 0 min 0 mm 0 UV-I 18 W/m 10,2 C 10,8 C 6,4 km/h (2 Bft)
20/08/2017 06:57 10,9 C 11,1 C 11,1 C 18,3 C 18,9 C 18,9 C 96 % 15 lf 12 cb 30 cb 86 cb 43 cb 1023,5 hPa 0,0 l/m 6,4 km/h (2 Bft) SE 135 0 min 0 mm 0 UV-I 18 W/m 10,3 C 10,9 C 8,0 km/h (2 Bft)
20/08/2017 06:56 10,9 C 11,1 C 11,1 C 18,3 C 18,9 C 18,9 C 96 % 15 lf 12 cb 30 cb 86 cb 43 cb 1023,5 hPa 0,0 l/m 4,8 km/h (1 Bft) SE 135 0 min 0 mm 0 UV-I 16 W/m 10,3 C 10,9 C 6,4 km/h (2 Bft)
20/08/2017 06:55 10,9 C 11,1 C 11,1 C 18,3 C 18,9 C 18,9 C 96 % 15 lf 12 cb 30 cb 86 cb 43 cb 1023,5 hPa 0,0 l/m 8,0 km/h (2 Bft) SE 135 0 min 0 mm 0 UV-I 16 W/m 10,3 C 9,8 C 8,0 km/h (2 Bft)
20/08/2017 06:54 10,9 C 11,1 C 11,1 C 18,3 C 18,9 C 18,9 C 96 % 15 lf 12 cb 30 cb 86 cb 43 cb 1023,4 hPa 0,0 l/m 4,8 km/h (1 Bft) SE 135 0 min 0 mm 0 UV-I 16 W/m 10,3 C 10,9 C 8,0 km/h (2 Bft)
20/08/2017 06:53 10,9 C 11,1 C 11,1 C 18,3 C 18,9 C 18,9 C 96 % 15 lf 12 cb 30 cb 86 cb 43 cb 1023,4 hPa 0,0 l/m 4,8 km/h (1 Bft) SE 135 0 min 0 mm 0 UV-I 14 W/m 10,3 C 10,9 C 6,4 km/h (2 Bft)
20/08/2017 06:52 10,9 C 11,1 C 11,1 C 18,3 C 18,9 C 18,9 C 96 % 15 lf 12 cb 30 cb 86 cb 43 cb 1023,4 hPa 0,0 l/m 4,8 km/h (1 Bft) SE 135 0 min 0 mm 0 UV-I 14 W/m 10,3 C 10,9 C 6,4 km/h (2 Bft)
20/08/2017 06:51 10,9 C 11,1 C 11,1 C 18,3 C 18,9 C 18,9 C 96 % 15 lf 12 cb 30 cb 86 cb 43 cb 1023,4 hPa 0,0 l/m 4,8 km/h (1 Bft) SE 135 0 min 0 mm 0 UV-I 14 W/m 10,3 C 10,9 C 6,4 km/h (2 Bft)
20/08/2017 06:50 10,9 C 11,1 C 11,1 C 18,3 C 18,9 C 18,9 C 96 % 15 lf 12 cb 30 cb 86 cb 43 cb 1023,4 hPa 0,0 l/m 4,8 km/h (1 Bft) SE 135 1 min 0 mm 0 UV-I 14 W/m 10,3 C 10,9 C 6,4 km/h (2 Bft)
20/08/2017 06:49 10,9 C 11,1 C 11,1 C 18,3 C 18,9 C 18,9 C 96 % 15 lf 12 cb 30 cb 86 cb 43 cb 1023,4 hPa 0,0 l/m 4,8 km/h (1 Bft) SE 135 1 min 0 mm 0 UV-I 14 W/m 10,3 C 10,9 C 8,0 km/h (2 Bft)
20/08/2017 06:48 10,9 C 11,1 C 11,1 C 18,3 C 18,9 C 18,9 C 96 % 15 lf 12 cb 30 cb 86 cb 43 cb 1023,4 hPa 0,0 l/m 6,4 km/h (2 Bft) SE 135 1 min 0 mm 0 UV-I 12 W/m 10,3 C 10,9 C 8,0 km/h (2 Bft)
20/08/2017 06:47 10,9 C 11,1 C 11,1 C 18,3 C 18,9 C 18,9 C 96 % 15 lf 12 cb 30 cb 86 cb 43 cb 1023,3 hPa 0,0 l/m 6,4 km/h (2 Bft) SE 135 1 min 0 mm 0 UV-I 12 W/m 10,3 C 10,9 C 8,0 km/h (2 Bft)
20/08/2017 06:46 10,9 C 11,1 C 11,1 C 18,3 C 18,9 C 18,9 C 96 % 15 lf 12 cb 30 cb 86 cb 43 cb 1023,4 hPa 0,0 l/m 4,8 km/h (1 Bft) SE 135 1 min 0 mm 0 UV-I 12 W/m 10,3 C 10,9 C 8,0 km/h (2 Bft)
20/08/2017 06:45 10,9 C 11,1 C 11,1 C 18,3 C 18,9 C 18,9 C 96 % 15 lf 12 cb 30 cb 86 cb 43 cb 1023,4 hPa 0,0 l/m 6,4 km/h (2 Bft) SE 135 0 min 0 mm 0 UV-I 11 W/m 10,3 C 10,9 C 8,0 km/h (2 Bft)
20/08/2017 06:44 10,9 C 11,1 C 11,1 C 18,3 C 18,9 C 18,9 C 96 % 15 lf 12 cb 30 cb 86 cb 43 cb 1023,3 hPa 0,0 l/m 6,4 km/h (2 Bft) SE 135 0 min 0 mm 0 UV-I 11 W/m 10,3 C 10,9 C 8,0 km/h (2 Bft)
20/08/2017 06:43 10,9 C 11,1 C 11,1 C 18,3 C 18,9 C 18,9 C 96 % 15 lf 12 cb 30 cb 86 cb 43 cb 1023,3 hPa 0,0 l/m 6,4 km/h (2 Bft) SE 135 0 min 0 mm 0 UV-I 9 W/m 10,3 C 10,9 C 8,0 km/h (2 Bft)
20/08/2017 06:42 10,9 C 11,1 C 11,1 C 18,3 C 18,9 C 18,9 C 96 % 15 lf 12 cb 30 cb 86 cb 43 cb 1023,3 hPa 0,0 l/m 6,4 km/h (2 Bft) SE 135 0 min 0 mm 0 UV-I 9 W/m 10,3 C 10,9 C 8,0 km/h (2 Bft)
20/08/2017 06:41 10,9 C 11,1 C 11,1 C 18,3 C 18,9 C 18,9 C 96 % 15 lf 12 cb 30 cb 86 cb 43 cb 1023,3 hPa 0,0 l/m 6,4 km/h (2 Bft) SE 135 0 min 0 mm 0 UV-I 7 W/m 10,3 C 10,9 C 8,0 km/h (2 Bft)
20/08/2017 06:40 10,9 C 11,1 C 11,1 C 18,3 C 18,9 C 18,9 C 96 % 15 lf 12 cb 30 cb 86 cb 43 cb 1023,3 hPa 0,0 l/m 6,4 km/h (2 Bft) SE 135 0 min 0 mm 0 UV-I 7 W/m 10,3 C 10,9 C 8,0 km/h (2 Bft)
20/08/2017 06:39 10,9 C 11,1 C 11,1 C 18,3 C 18,9 C 18,9 C 96 % 15 lf 12 cb 30 cb 86 cb 43 cb 1023,3 hPa 0,0 l/m 6,4 km/h (2 Bft) SE 135 0 min 0 mm 0 UV-I 7 W/m 10,3 C 10,9 C 8,0 km/h (2 Bft)
20/08/2017 06:38 10,9 C 11,1 C 11,1 C 18,3 C 18,9 C 18,9 C 96 % 15 lf 12 cb 30 cb 86 cb 43 cb 1023,3 hPa 0,0 l/m 6,4 km/h (2 Bft) SE 135 0 min 0 mm 0 UV-I 5 W/m 10,3 C 10,9 C 8,0 km/h (2 Bft)
20/08/2017 06:37 10,9 C 11,1 C 11,1 C 18,3 C 18,9 C 18,9 C 96 % 15 lf 12 cb 30 cb 86 cb 43 cb 1023,3 hPa 0,0 l/m 6,4 km/h (2 Bft) SE 135 0 min 0 mm 0 UV-I 5 W/m 10,3 C 10,9 C 8,0 km/h (2 Bft)
20/08/2017 06:36 10,9 C 11,1 C 11,1 C 18,3 C 18,9 C 18,9 C 96 % 15 lf 12 cb 30 cb 86 cb 43 cb 1023,3 hPa 0,0 l/m 4,8 km/h (1 Bft) SE 135 0 min 0 mm 0 UV-I 5 W/m 10,3 C 10,9 C 8,0 km/h (2 Bft)
20/08/2017 06:35 10,9 C 11,1 C 11,1 C 18,3 C 18,9 C 18,9 C 96 % 15 lf 12 cb 30 cb 86 cb 43 cb 1023,3 hPa 0,0 l/m 4,8 km/h (1 Bft) SE 135 0 min 0 mm 0 UV-I 5 W/m 10,3 C 10,9 C 6,4 km/h (2 Bft)
20/08/2017 06:34 10,9 C 11,1 C 11,1 C 18,3 C 18,9 C 18,9 C 96 % 15 lf 12 cb 30 cb 86 cb 43 cb 1023,3 hPa 0,0 l/m 4,8 km/h (1 Bft) SE 135 0 min 0 mm 0 UV-I 5 W/m 10,3 C 10,9 C 8,0 km/h (2 Bft)
20/08/2017 06:33 10,9 C 11,1 C 11,1 C 18,3 C 18,9 C 18,9 C 96 % 15 lf 12 cb 30 cb 86 cb 43 cb 1023,3 hPa 0,0 l/m 6,4 km/h (2 Bft) SE 135 0 min 0 mm 0 UV-I 0 W/m 10,3 C 10,9 C 8,0 km/h (2 Bft)
20/08/2017 06:32 11,0 C 11,1 C 11,1 C 18,3 C 18,9 C 18,9 C 96 % 15 lf 12 cb 30 cb 86 cb 43 cb 1023,3 hPa 0,0 l/m 4,8 km/h (1 Bft) SE 135 0 min 0 mm 0 UV-I 0 W/m 10,4 C 11,0 C 6,4 km/h (2 Bft)
20/08/2017 06:31 11,0 C 11,1 C 11,1 C 18,3 C 18,9 C 18,9 C 96 % 15 lf 12 cb 30 cb 86 cb 43 cb 1023,4 hPa 0,0 l/m 3,2 km/h (1 Bft) SE 135 0 min 0 mm 0 UV-I 0 W/m 10,4 C 11,0 C 6,4 km/h (2 Bft)
20/08/2017 06:30 11,0 C 11,1 C 11,1 C 18,3 C 18,9 C 18,9 C 96 % 15 lf 12 cb 30 cb 86 cb 43 cb 1023,2 hPa 0,0 l/m 4,8 km/h (1 Bft) SE 135 0 min 0 mm 0 UV-I 0 W/m 10,4 C 11,0 C 6,4 km/h (2 Bft)
20/08/2017 06:29 11,1 C 11,1 C 11,1 C 18,3 C 18,9 C 18,9 C 96 % 15 lf 12 cb 30 cb 86 cb 43 cb 1023,4 hPa 0,0 l/m 3,2 km/h (1 Bft) SE 135 0 min 0 mm 0 UV-I 0 W/m 10,5 C 11,1 C 6,4 km/h (2 Bft)
20/08/2017 06:28 11,1 C 11,1 C 11,1 C 18,3 C 18,9 C 18,9 C 96 % 15 lf 12 cb 30 cb 86 cb 43 cb 1023,3 hPa 0,0 l/m 4,8 km/h (1 Bft) SE 135 0 min 0 mm 0 UV-I 0 W/m 10,5 C 11,1 C 8,0 km/h (2 Bft)
20/08/2017 06:27 11,1 C 11,1 C 11,1 C 18,3 C 18,9 C 18,9 C 96 % 15 lf 12 cb 30 cb 86 cb 43 cb 1023,3 hPa 0,0 l/m 4,8 km/h (1 Bft) SE 135 0 min 0 mm 0 UV-I 0 W/m 10,5 C 11,1 C 8,0 km/h (2 Bft)
20/08/2017 06:26 11,1 C 11,1 C 11,1 C 18,3 C 18,9 C 18,9 C 96 % 15 lf 12 cb 30 cb 86 cb 43 cb 1023,3 hPa 0,0 l/m 6,4 km/h (2 Bft) SE 135 0 min 0 mm 0 UV-I 0 W/m 10,5 C 11,1 C 8,0 km/h (2 Bft)
20/08/2017 06:25 11,1 C 11,1 C 11,1 C 18,3 C 18,9 C 18,9 C 96 % 15 lf 12 cb 30 cb 86 cb 43 cb 1023,3 hPa 0,0 l/m 6,4 km/h (2 Bft) SE 135 0 min 0 mm 0 UV-I 0 W/m 10,5 C 11,1 C 8,0 km/h (2 Bft)
20/08/2017 06:24 11,1 C 11,1 C 11,1 C 18,3 C 18,9 C 18,9 C 96 % 15 lf 12 cb 30 cb 86 cb 43 cb 1023,3 hPa 0,0 l/m 3,2 km/h (1 Bft) SE 135 0 min 0 mm 0 UV-I 0 W/m 10,5 C 11,1 C 6,4 km/h (2 Bft)
20/08/2017 06:23 11,1 C 11,1 C 11,1 C 18,3 C 18,9 C 18,9 C 96 % 15 lf 12 cb 30 cb 86 cb 43 cb 1023,3 hPa 0,0 l/m 4,8 km/h (1 Bft) SE 135 0 min 0 mm 0 UV-I 0 W/m 10,5 C 11,1 C 8,0 km/h (2 Bft)
20/08/2017 06:22 11,1 C 11,1 C 11,1 C 18,3 C 18,9 C 18,9 C 96 % 15 lf 12 cb 30 cb 86 cb 43 cb 1023,3 hPa 0,0 l/m 4,8 km/h (1 Bft) SE 135 0 min 0 mm 0 UV-I 0 W/m 10,5 C 11,1 C 6,4 km/h (2 Bft)
20/08/2017 06:21 11,1 C 11,1 C 11,1 C 18,3 C 19,4 C 18,9 C 96 % 15 lf 12 cb 30 cb 87 cb 43 cb 1023,3 hPa 0,0 l/m 6,4 km/h (2 Bft) SE 135 0 min 0 mm 0 UV-I 0 W/m 10,5 C 11,1 C 8,0 km/h (2 Bft)
20/08/2017 06:20 11,1 C 11,1 C 11,1 C 18,3 C 19,4 C 18,9 C 96 % 15 lf 12 cb 30 cb 87 cb 43 cb 1023,3 hPa 0,0 l/m 6,4 km/h (2 Bft) S-SE 157 0 min 0 mm 0 UV-I 0 W/m 10,5 C 11,1 C 8,0 km/h (2 Bft)
20/08/2017 06:19 11,1 C 11,1 C 11,1 C 18,3 C 19,4 C 18,9 C 96 % 15 lf 12 cb 30 cb 87 cb 43 cb 1023,3 hPa 0,0 l/m 6,4 km/h (2 Bft) S-SE 157 0 min 0 mm 0 UV-I 0 W/m 10,5 C 11,1 C 8,0 km/h (2 Bft)
20/08/2017 06:18 11,1 C 11,1 C 11,1 C 18,3 C 19,4 C 18,9 C 96 % 15 lf 12 cb 30 cb 87 cb 43 cb 1023,2 hPa 0,0 l/m 4,8 km/h (1 Bft) S-SE 157 0 min 0 mm 0 UV-I 0 W/m 10,5 C 11,1 C 8,0 km/h (2 Bft)
20/08/2017 06:17 11,1 C 11,1 C 11,1 C 18,3 C 19,4 C 18,9 C 96 % 15 lf 12 cb 30 cb 87 cb 43 cb 1023,3 hPa 0,0 l/m 6,4 km/h (2 Bft) S-SE 157 0 min 0 mm 0 UV-I 0 W/m 10,5 C 11,1 C 6,4 km/h (2 Bft)
20/08/2017 06:16 11,1 C 11,1 C 11,1 C 18,3 C 19,4 C 18,9 C 96 % 15 lf 12 cb 30 cb 87 cb 43 cb 1023,3 hPa 0,0 l/m 4,8 km/h (1 Bft) S 180 0 min 0 mm 0 UV-I 0 W/m 10,5 C 11,1 C 6,4 km/h (2 Bft)
20/08/2017 06:15 11,1 C 11,1 C 11,1 C 18,3 C 19,4 C 18,9 C 96 % 15 lf 12 cb 30 cb 87 cb 43 cb 1023,2 hPa 0,0 l/m 4,8 km/h (1 Bft) S 180 0 min 0 mm 0 UV-I 0 W/m 10,5 C 11,1 C 8,0 km/h (2 Bft)
20/08/2017 06:14 11,1 C 11,1 C 11,1 C 18,3 C 19,4 C 18,9 C 96 % 15 lf 12 cb 30 cb 87 cb 43 cb 1023,3 hPa 0,0 l/m 4,8 km/h (1 Bft) S 180 0 min 0 mm 0 UV-I 0 W/m 10,5 C 11,1 C 8,0 km/h (2 Bft)
20/08/2017 06:13 11,1 C 11,1 C 11,1 C 18,3 C 19,4 C 18,9 C 96 % 15 lf 12 cb 30 cb 87 cb 43 cb 1023,3 hPa 0,0 l/m 4,8 km/h (1 Bft) S 180 0 min 0 mm 0 UV-I 0 W/m 10,5 C 11,1 C 6,4 km/h (2 Bft)
20/08/2017 06:12 11,1 C 11,1 C 11,1 C 18,3 C 19,4 C 18,9 C 95 % 15 lf 12 cb 30 cb 87 cb 43 cb 1023,3 hPa 0,0 l/m 3,2 km/h (1 Bft) S 180 0 min 0 mm 0 UV-I 0 W/m 10,3 C 11,1 C 6,4 km/h (2 Bft)
20/08/2017 06:11 11,1 C 11,1 C 11,1 C 18,3 C 19,4 C 18,9 C 95 % 15 lf 12 cb 30 cb 87 cb 43 cb 1023,3 hPa 0,0 l/m 3,2 km/h (1 Bft) S 180 0 min 0 mm 0 UV-I 0 W/m 10,3 C 11,1 C 4,8 km/h (1 Bft)
20/08/2017 06:10 11,1 C 11,1 C 11,1 C 18,3 C 19,4 C 18,9 C 95 % 15 lf 12 cb 30 cb 87 cb 43 cb 1023,2 hPa 0,0 l/m 3,2 km/h (1 Bft) S 180 0 min 0 mm 0 UV-I 0 W/m 10,3 C 11,1 C 3,2 km/h (1 Bft)
20/08/2017 06:09 11,1 C 11,1 C 11,1 C 18,3 C 19,4 C 18,9 C 95 % 15 lf 12 cb 30 cb 87 cb 43 cb 1023,3 hPa 0,0 l/m 3,2 km/h (1 Bft) S 180 0 min 0 mm 0 UV-I 0 W/m 10,3 C 11,1 C 4,8 km/h (1 Bft)
20/08/2017 06:08 11,1 C 11,1 C 11,1 C 18,3 C 19,4 C 18,9 C 95 % 15 lf 12 cb 30 cb 87 cb 43 cb 1023,2 hPa 0,0 l/m 3,2 km/h (1 Bft) S 180 0 min 0 mm 0 UV-I 0 W/m 10,3 C 11,1 C 4,8 km/h (1 Bft)
20/08/2017 06:07 11,1 C 11,7 C 11,7 C 18,3 C 19,4 C 18,9 C 95 % 15 lf 12 cb 30 cb 87 cb 43 cb 1023,2 hPa 0,0 l/m 3,2 km/h (1 Bft) S 180 0 min 0 mm 0 UV-I 0 W/m 10,3 C 11,1 C 3,2 km/h (1 Bft)
20/08/2017 06:06 11,1 C 11,7 C 11,7 C 18,3 C 19,4 C 18,9 C 95 % 15 lf 12 cb 30 cb 87 cb 43 cb 1023,2 hPa 0,0 l/m 3,2 km/h (1 Bft) S 180 0 min 0 mm 0 UV-I 0 W/m 10,3 C 11,1 C 3,2 km/h (1 Bft)
20/08/2017 06:05 11,1 C 11,7 C 11,7 C 18,3 C 19,4 C 18,9 C 95 % 15 lf 12 cb 30 cb 87 cb 43 cb 1023,3 hPa 0,0 l/m 3,2 km/h (1 Bft) S 180 0 min 0 mm 0 UV-I 0 W/m 10,3 C 11,1 C 3,2 km/h (1 Bft)
20/08/2017 06:04 11,2 C 11,7 C 11,7 C 18,3 C 19,4 C 18,9 C 95 % 15 lf 12 cb 30 cb 87 cb 43 cb 1023,3 hPa 0,0 l/m 3,2 km/h (1 Bft) S 180 0 min 0 mm 0 UV-I 0 W/m 10,4 C 11,2 C 3,2 km/h (1 Bft)
20/08/2017 06:03 11,2 C 11,7 C 11,7 C 18,3 C 19,4 C 18,9 C 95 % 15 lf 12 cb 30 cb 87 cb 43 cb 1023,2 hPa 0,0 l/m 3,2 km/h (1 Bft) S 180 0 min 0 mm 0 UV-I 0 W/m 10,4 C 11,2 C 3,2 km/h (1 Bft)
20/08/2017 06:02 11,2 C 11,7 C 11,7 C 18,3 C 19,4 C 18,9 C 95 % 15 lf 12 cb 30 cb 87 cb 43 cb 1023,2 hPa 0,0 l/m 3,2 km/h (1 Bft) S 180 0 min 0 mm 0 UV-I 0 W/m 10,4 C 11,2 C 4,8 km/h (1 Bft)
20/08/2017 06:01 11,2 C 11,7 C 11,7 C 18,3 C 19,4 C 18,9 C 95 % 15 lf 12 cb 30 cb 87 cb 43 cb 1023,2 hPa 0,0 l/m 1,6 km/h (1 Bft) S 180 0 min 0 mm 0 UV-I 0 W/m 10,4 C 11,2 C 3,2 km/h (1 Bft)
20/08/2017 06:00 11,2 C 11,7 C 11,7 C 18,3 C 19,4 C 18,9 C 95 % 15 lf 12 cb 30 cb 87 cb 43 cb 1023,1 hPa 0,0 l/m 3,2 km/h (1 Bft) S 180 0 min 0 mm 0 UV-I 0 W/m 10,4 C 11,2 C 3,2 km/h (1 Bft)
20/08/2017 05:59 11,3 C 11,7 C 11,7 C 18,3 C 19,4 C 18,9 C 95 % 15 lf 12 cb 30 cb 87 cb 43 cb 1023,1 hPa 0,0 l/m 1,6 km/h (1 Bft) S 180 0 min 0 mm 0 UV-I 0 W/m 10,5 C 11,3 C 3,2 km/h (1 Bft)
20/08/2017 05:58 11,3 C 11,7 C 11,7 C 18,3 C 19,4 C 18,9 C 95 % 15 lf 12 cb 30 cb 87 cb 43 cb 1023,1 hPa 0,0 l/m 3,2 km/h (1 Bft) S 180 0 min 0 mm 0 UV-I 0 W/m 10,5 C 11,3 C 4,8 km/h (1 Bft)
20/08/2017 05:57 11,3 C 11,7 C 11,7 C 18,3 C 19,4 C 18,9 C 95 % 15 lf 12 cb 30 cb 87 cb 43 cb 1023,1 hPa 0,0 l/m 3,2 km/h (1 Bft) S 180 0 min 0 mm 0 UV-I 0 W/m 10,5 C 11,3 C 6,4 km/h (2 Bft)
20/08/2017 05:56 11,3 C 11,7 C 11,7 C 18,3 C 19,4 C 18,9 C 95 % 15 lf 12 cb 30 cb 87 cb 43 cb 1023,1 hPa 0,0 l/m 3,2 km/h (1 Bft) S 180 0 min 0 mm 0 UV-I 0 W/m 10,5 C 11,3 C 6,4 km/h (2 Bft)
20/08/2017 05:55 11,3 C 11,7 C 11,7 C 18,3 C 19,4 C 18,9 C 95 % 15 lf 12 cb 30 cb 87 cb 43 cb 1023,1 hPa 0,0 l/m 3,2 km/h (1 Bft) S 180 0 min 0 mm 0 UV-I 0 W/m 10,5 C 11,3 C 6,4 km/h (2 Bft)
20/08/2017 05:54 11,4 C 11,7 C 11,7 C 18,3 C 19,4 C 18,9 C 95 % 15 lf 12 cb 30 cb 87 cb 43 cb 1023,0 hPa 0,0 l/m 3,2 km/h (1 Bft) S 180 0 min 0 mm 0 UV-I 0 W/m 10,6 C 11,4 C 4,8 km/h (1 Bft)
20/08/2017 05:53 11,4 C 11,7 C 11,7 C 18,3 C 19,4 C 18,9 C 95 % 15 lf 12 cb 30 cb 87 cb 43 cb 1023,0 hPa 0,0 l/m 3,2 km/h (1 Bft) S 180 0 min 0 mm 0 UV-I 0 W/m 10,6 C 11,4 C 4,8 km/h (1 Bft)
20/08/2017 05:52 11,4 C 11,7 C 11,7 C 18,3 C 19,4 C 18,9 C 95 % 15 lf 12 cb 30 cb 87 cb 43 cb 1023,1 hPa 0,0 l/m 1,6 km/h (1 Bft) S 180 0 min 0 mm 0 UV-I 0 W/m 10,6 C 11,4 C 3,2 km/h (1 Bft)
20/08/2017 05:51 11,5 C 11,7 C 11,7 C 18,3 C 19,4 C 18,9 C 95 % 15 lf 12 cb 30 cb 87 cb 43 cb 1023,0 hPa 0,0 l/m 0,0 km/h (0 Bft) N 0 0 min 0 mm 0 UV-I 0 W/m 10,7 C 11,5 C 0,0 km/h (0 Bft)
20/08/2017 05:50 11,5 C 11,7 C 11,7 C 18,3 C 19,4 C 18,9 C 95 % 15 lf 12 cb 30 cb 87 cb 43 cb 1023,0 hPa 0,0 l/m 0,0 km/h (0 Bft) N 0 0 min 0 mm 0 UV-I 0 W/m 10,7 C 11,5 C 0,0 km/h (0 Bft)
20/08/2017 05:49 11,6 C 11,7 C 11,7 C 18,3 C 19,4 C 18,9 C 95 % 15 lf 12 cb 30 cb 87 cb 43 cb 1023,0 hPa 0,0 l/m 0,0 km/h (0 Bft) N 0 0 min 0 mm 0 UV-I 0 W/m 10,8 C 11,6 C 0,0 km/h (0 Bft)
20/08/2017 05:48 11,6 C 11,7 C 11,7 C 18,3 C 19,4 C 18,9 C 95 % 15 lf 12 cb 30 cb 87 cb 43 cb 1023,0 hPa 0,0 l/m 0,0 km/h (0 Bft) N 0 0 min 0 mm 0 UV-I 0 W/m 10,8 C 11,6 C 0,0 km/h (0 Bft)
20/08/2017 05:47 11,6 C 11,7 C 11,7 C 18,3 C 19,4 C 18,9 C 95 % 15 lf 12 cb 30 cb 87 cb 43 cb 1023,0 hPa 0,0 l/m 0,0 km/h (0 Bft) S 180 0 min 0 mm 0 UV-I 0 W/m 10,8 C 11,6 C 1,6 km/h (1 Bft)
20/08/2017 05:46 11,6 C 11,7 C 11,7 C 18,3 C 19,4 C 18,9 C 95 % 15 lf 12 cb 30 cb 87 cb 43 cb 1023,0 hPa 0,0 l/m 1,6 km/h (1 Bft) S 180 0 min 0 mm 0 UV-I 0 W/m 10,8 C 11,6 C 3,2 km/h (1 Bft)
20/08/2017 05:45 11,6 C 11,7 C 11,7 C 18,3 C 19,4 C 18,9 C 95 % 15 lf 12 cb 30 cb 87 cb 43 cb 1023,0 hPa 0,0 l/m 3,2 km/h (1 Bft) S 180 0 min 0 mm 0 UV-I 0 W/m 10,8 C 11,6 C 3,2 km/h (1 Bft)
20/08/2017 05:44 11,6 C 11,7 C 11,7 C 18,3 C 19,4 C 18,9 C 95 % 15 lf 12 cb 30 cb 87 cb 43 cb 1023,0 hPa 0,0 l/m 1,6 km/h (1 Bft) S 180 0 min 0 mm 0 UV-I 0 W/m 10,8 C 11,6 C 3,2 km/h (1 Bft)
20/08/2017 05:43 11,6 C 11,7 C 11,7 C 18,3 C 19,4 C 18,9 C 95 % 15 lf 12 cb 30 cb 87 cb 43 cb 1023,0 hPa 0,0 l/m 3,2 km/h (1 Bft) S 180 0 min 0 mm 0 UV-I 0 W/m 10,8 C 11,6 C 6,4 km/h (2 Bft)
20/08/2017 05:42 11,7 C 11,7 C 11,7 C 18,3 C 19,4 C 18,9 C 95 % 15 lf 12 cb 30 cb 87 cb 43 cb 1023,0 hPa 0,0 l/m 3,2 km/h (1 Bft) S 180 0 min 0 mm 0 UV-I 0 W/m 10,9 C 11,7 C 4,8 km/h (1 Bft)
20/08/2017 05:41 11,7 C 11,7 C 11,7 C 18,3 C 19,4 C 18,9 C 95 % 15 lf 12 cb 30 cb 87 cb 43 cb 1023,0 hPa 0,0 l/m 3,2 km/h (1 Bft) S 180 0 min 0 mm 0 UV-I 0 W/m 10,9 C 11,7 C 6,4 km/h (2 Bft)
20/08/2017 05:40 11,7 C 11,7 C 11,7 C 18,3 C 19,4 C 18,9 C 95 % 15 lf 12 cb 30 cb 87 cb 43 cb 1023,0 hPa 0,0 l/m 3,2 km/h (1 Bft) S 180 0 min 0 mm 0 UV-I 0 W/m 10,9 C 11,7 C 3,2 km/h (1 Bft)
20/08/2017 05:39 11,7 C 11,7 C 11,7 C 18,3 C 19,4 C 18,9 C 95 % 15 lf 12 cb 30 cb 87 cb 43 cb 1023,1 hPa 0,0 l/m 3,2 km/h (1 Bft) S 180 0 min 0 mm 0 UV-I 0 W/m 10,9 C 11,7 C 6,4 km/h (2 Bft)
20/08/2017 05:38 11,7 C 11,7 C 11,7 C 18,3 C 19,4 C 18,9 C 95 % 15 lf 12 cb 30 cb 87 cb 43 cb 1023,0 hPa 0,0 l/m 4,8 km/h (1 Bft) S 180 0 min 0 mm 0 UV-I 0 W/m 10,9 C 11,7 C 6,4 km/h (2 Bft)
20/08/2017 05:37 11,7 C 11,7 C 11,7 C 18,3 C 19,4 C 18,9 C 95 % 15 lf 12 cb 30 cb 87 cb 43 cb 1023,0 hPa 0,0 l/m 4,8 km/h (1 Bft) S 180 0 min 0 mm 0 UV-I 0 W/m 10,9 C 11,7 C 6,4 km/h (2 Bft)
20/08/2017 05:36 11,7 C 11,7 C 11,7 C 18,3 C 19,4 C 18,9 C 95 % 15 lf 12 cb 30 cb 87 cb 43 cb 1023,0 hPa 0,0 l/m 3,2 km/h (1 Bft) S 180 0 min 0 mm 0 UV-I 0 W/m 10,9 C 11,7 C 6,4 km/h (2 Bft)
20/08/2017 05:35 11,7 C 11,7 C 11,7 C 18,3 C 19,4 C 18,9 C 95 % 15 lf 12 cb 30 cb 87 cb 43 cb 1023,0 hPa 0,0 l/m 4,8 km/h (1 Bft) S 180 0 min 0 mm 0 UV-I 0 W/m 10,9 C 11,7 C 6,4 km/h (2 Bft)
20/08/2017 05:34 11,7 C 11,7 C 11,7 C 18,3 C 19,4 C 18,9 C 95 % 15 lf 12 cb 30 cb 87 cb 43 cb 1023,0 hPa 0,0 l/m 3,2 km/h (1 Bft) S 180 0 min 0 mm 0 UV-I 0 W/m 10,9 C 11,7 C 4,8 km/h (1 Bft)
20/08/2017 05:33 11,6 C 11,7 C 11,7 C 18,3 C 19,4 C 18,9 C 95 % 15 lf 12 cb 30 cb 87 cb 43 cb 1022,9 hPa 0,0 l/m 4,8 km/h (1 Bft) S 180 0 min 0 mm 0 UV-I 0 W/m 10,8 C 11,6 C 6,4 km/h (2 Bft)
20/08/2017 05:32 11,6 C 11,7 C 11,7 C 18,3 C 19,4 C 18,9 C 95 % 15 lf 12 cb 30 cb 87 cb 43 cb 1023,0 hPa 0,0 l/m 3,2 km/h (1 Bft) S 180 0 min 0 mm 0 UV-I 0 W/m 10,8 C 11,6 C 4,8 km/h (1 Bft)
20/08/2017 05:31 11,6 C 11,7 C 11,7 C 18,3 C 19,4 C 18,9 C 95 % 15 lf 12 cb 30 cb 86 cb 43 cb 1023,0 hPa 0,0 l/m 1,6 km/h (1 Bft) S 180 0 min 0 mm 0 UV-I 0 W/m 10,8 C 11,6 C 3,2 km/h (1 Bft)
20/08/2017 05:30 11,6 C 11,7 C 11,7 C 18,3 C 19,4 C 18,9 C 94 % 15 lf 12 cb 30 cb 86 cb 43 cb 1023,0 hPa 0,0 l/m 0,0 km/h (0 Bft) S 180 0 min 0 mm 0 UV-I 0 W/m 10,7 C 11,6 C 1,6 km/h (1 Bft)
20/08/2017 05:29 11,6 C 11,7 C 11,7 C 18,3 C 19,4 C 18,9 C 94 % 15 lf 12 cb 30 cb 86 cb 43 cb 1023,1 hPa 0,0 l/m 0,0 km/h (0 Bft) N 0 0 min 0 mm 0 UV-I 0 W/m 10,7 C 11,6 C 0,0 km/h (0 Bft)
20/08/2017 05:28 11,7 C 11,7 C 11,7 C 18,3 C 19,4 C 18,9 C 94 % 15 lf 12 cb 30 cb 86 cb 43 cb 1023,0 hPa 0,0 l/m 0,0 km/h (0 Bft) N 0 0 min 0 mm 0 UV-I 0 W/m 10,8 C 11,7 C 0,0 km/h (0 Bft)
20/08/2017 05:27 11,7 C 11,7 C 11,7 C 18,3 C 19,4 C 18,9 C 94 % 15 lf 12 cb 30 cb 86 cb 43 cb 1023,1 hPa 0,0 l/m 0,0 km/h (0 Bft) N 0 0 min 0 mm 0 UV-I 0 W/m 10,8 C 11,7 C 0,0 km/h (0 Bft)
20/08/2017 05:26 11,7 C 11,7 C 11,7 C 18,3 C 19,4 C 18,9 C 94 % 15 lf 12 cb 30 cb 86 cb 43 cb 1023,0 hPa 0,0 l/m 0,0 km/h (0 Bft) N 0 0 min 0 mm 0 UV-I 0 W/m 10,8 C 11,7 C 0,0 km/h (0 Bft)
20/08/2017 05:25 11,8 C 11,7 C 11,7 C 18,3 C 19,4 C 18,9 C 95 % 15 lf 12 cb 30 cb 86 cb 43 cb 1023,0 hPa 0,0 l/m 0,0 km/h (0 Bft) N 0 0 min 0 mm 0 UV-I 0 W/m 11,0 C 11,8 C 0,0 km/h (0 Bft)
20/08/2017 05:24 11,8 C 11,7 C 11,7 C 18,3 C 19,4 C 18,9 C 95 % 15 lf 12 cb 30 cb 86 cb 43 cb 1023,0 hPa 0,0 l/m 0,0 km/h (0 Bft) N 0 0 min 0 mm 0 UV-I 0 W/m 11,0 C 11,8 C 0,0 km/h (0 Bft)
20/08/2017 05:23 11,8 C 11,7 C 11,7 C 18,3 C 19,4 C 18,9 C 95 % 15 lf 12 cb 30 cb 86 cb 43 cb 1023,0 hPa 0,0 l/m 0,0 km/h (0 Bft) N 0 0 min 0 mm 0 UV-I 0 W/m 11,0 C 11,8 C 0,0 km/h (0 Bft)
20/08/2017 05:22 11,8 C 11,7 C 11,7 C 18,3 C 19,4 C 18,9 C 94 % 15 lf 12 cb 30 cb 86 cb 43 cb 1022,9 hPa 0,0 l/m 0,0 km/h (0 Bft) N 0 0 min 0 mm 0 UV-I 0 W/m 10,9 C 11,8 C 0,0 km/h (0 Bft)
20/08/2017 05:21 11,9 C 11,7 C 11,7 C 18,3 C 19,4 C 18,9 C 94 % 15 lf 12 cb 30 cb 86 cb 43 cb 1022,9 hPa 0,0 l/m 0,0 km/h (0 Bft) N 0 0 min 0 mm 0 UV-I 0 W/m 11,0 C 11,9 C 0,0 km/h (0 Bft)
20/08/2017 05:20 11,9 C 11,7 C 11,7 C 18,3 C 19,4 C 18,9 C 94 % 15 lf 12 cb 30 cb 86 cb 43 cb 1023,0 hPa 0,0 l/m 0,0 km/h (0 Bft) N 0 0 min 0 mm 0 UV-I 0 W/m 11,0 C 11,9 C 0,0 km/h (0 Bft)
20/08/2017 05:19 11,9 C 11,7 C 11,7 C 18,3 C 19,4 C 18,9 C 94 % 15 lf 12 cb 30 cb 86 cb 43 cb 1023,0 hPa 0,0 l/m 0,0 km/h (0 Bft) N 0 0 min 0 mm 0 UV-I 0 W/m 11,0 C 11,9 C 0,0 km/h (0 Bft)
20/08/2017 05:18 12,0 C 12,2 C 12,2 C 18,3 C 19,4 C 18,9 C 94 % 15 lf 12 cb 30 cb 86 cb 43 cb 1022,9 hPa 0,0 l/m 0,0 km/h (0 Bft) N 0 0 min 0 mm 0 UV-I 0 W/m 11,1 C 12,0 C 0,0 km/h (0 Bft)
20/08/2017 05:17 12,1 C 12,2 C 12,2 C 18,3 C 19,4 C 18,9 C 94 % 15 lf 12 cb 30 cb 86 cb 43 cb 1022,9 hPa 0,0 l/m 0,0 km/h (0 Bft) N 0 0 min 0 mm 0 UV-I 0 W/m 11,2 C 12,1 C 0,0 km/h (0 Bft)
20/08/2017 05:16 12,1 C 12,2 C 12,2 C 18,3 C 19,4 C 18,9 C 94 % 15 lf 12 cb 30 cb 86 cb 43 cb 1022,9 hPa 0,0 l/m 0,0 km/h (0 Bft) N 0 0 min 0 mm 0 UV-I 0 W/m 11,2 C 12,1 C 0,0 km/h (0 Bft)
20/08/2017 05:15 12,1 C 12,2 C 12,2 C 18,3 C 19,4 C 18,9 C 94 % 15 lf 12 cb 30 cb 86 cb 43 cb 1022,9 hPa 0,0 l/m 0,0 km/h (0 Bft) N 0 0 min 0 mm 0 UV-I 0 W/m 11,2 C 12,1 C 0,0 km/h (0 Bft)
20/08/2017 05:14 12,2 C 12,2 C 12,2 C 18,3 C 19,4 C 18,9 C 95 % 15 lf 12 cb 30 cb 86 cb 43 cb 1022,9 hPa 0,0 l/m 0,0 km/h (0 Bft) N 0 0 min 0 mm 0 UV-I 0 W/m 11,4 C 12,2 C 0,0 km/h (0 Bft)
20/08/2017 05:13 12,2 C 12,2 C 12,2 C 18,3 C 19,4 C 18,9 C 95 % 15 lf 12 cb 30 cb 86 cb 43 cb 1022,9 hPa 0,0 l/m 0,0 km/h (0 Bft) N 0 0 min 0 mm 0 UV-I 0 W/m 11,4 C 12,2 C 0,0 km/h (0 Bft)
20/08/2017 05:12 12,2 C 12,2 C 12,2 C 18,3 C 19,4 C 18,9 C 95 % 15 lf 12 cb 30 cb 86 cb 43 cb 1022,9 hPa 0,0 l/m 0,0 km/h (0 Bft) S 180 0 min 0 mm 0 UV-I 0 W/m 11,4 C 12,2 C 1,6 km/h (1 Bft)
20/08/2017 05:11 12,2 C 12,2 C 12,2 C 18,3 C 19,4 C 18,9 C 94 % 15 lf 12 cb 30 cb 86 cb 43 cb 1022,8 hPa 0,0 l/m 1,6 km/h (1 Bft) S 180 0 min 0 mm 0 UV-I 0 W/m 11,3 C 12,2 C 3,2 km/h (1 Bft)
20/08/2017 05:10 12,3 C 12,2 C 12,2 C 18,3 C 19,4 C 18,9 C 94 % 15 lf 12 cb 30 cb 86 cb 43 cb 1022,9 hPa 0,0 l/m 0,0 km/h (0 Bft) S 180 0 min 0 mm 0 UV-I 0 W/m 11,4 C 12,3 C 3,2 km/h (1 Bft)
20/08/2017 05:09 12,3 C 12,2 C 12,2 C 18,3 C 19,4 C 18,9 C 94 % 15 lf 12 cb 30 cb 86 cb 43 cb 1022,8 hPa 0,0 l/m 0,0 km/h (0 Bft) S 180 0 min 0 mm 0 UV-I 0 W/m 11,4 C 12,3 C 1,6 km/h (1 Bft)
20/08/2017 05:08 12,3 C 12,2 C 12,2 C 18,3 C 19,4 C 18,9 C 94 % 15 lf 12 cb 30 cb 86 cb 43 cb 1022,8 hPa 0,0 l/m 1,6 km/h (1 Bft) S 180 0 min 0 mm 0 UV-I 0 W/m 11,4 C 12,3 C 3,2 km/h (1 Bft)
20/08/2017 05:07 12,3 C 12,2 C 12,2 C 18,3 C 19,4 C 18,9 C 94 % 15 lf 12 cb 30 cb 86 cb 43 cb 1022,8 hPa 0,0 l/m 1,6 km/h (1 Bft) S 180 0 min 0 mm 0 UV-I 0 W/m 11,4 C 12,3 C 3,2 km/h (1 Bft)
20/08/2017 05:06 12,3 C 12,2 C 12,2 C 18,3 C 19,4 C 18,9 C 94 % 15 lf 12 cb 30 cb 86 cb 43 cb 1022,8 hPa 0,0 l/m 1,6 km/h (1 Bft) S 180 0 min 0 mm 0 UV-I 0 W/m 11,4 C 12,3 C 3,2 km/h (1 Bft)
20/08/2017 05:05 12,3 C 12,2 C 12,2 C 18,3 C 19,4 C 18,9 C 94 % 15 lf 12 cb 30 cb 86 cb 43 cb 1022,8 hPa 0,0 l/m 1,6 km/h (1 Bft) S 180 0 min 0 mm 0 UV-I 0 W/m 11,4 C 12,3 C 3,2 km/h (1 Bft)
20/08/2017 05:04 12,4 C 12,2 C 12,2 C 18,3 C 19,4 C 18,9 C 94 % 15 lf 12 cb 30 cb 86 cb 43 cb 1022,8 hPa 0,0 l/m 1,6 km/h (1 Bft) S 180 0 min 0 mm 0 UV-I 0 W/m 11,5 C 12,4 C 3,2 km/h (1 Bft)
20/08/2017 05:03 12,4 C 12,2 C 12,2 C 18,3 C 19,4 C 18,9 C 94 % 15 lf 12 cb 30 cb 86 cb 43 cb 1022,7 hPa 0,0 l/m 3,2 km/h (1 Bft) S 180 0 min 0 mm 0 UV-I 0 W/m 11,5 C 12,4 C 3,2 km/h (1 Bft)
20/08/2017 05:02 12,4 C 12,2 C 12,2 C 18,3 C 19,4 C 18,9 C 94 % 15 lf 12 cb 30 cb 86 cb 43 cb 1022,8 hPa 0,0 l/m 3,2 km/h (1 Bft) S 180 0 min 0 mm 0 UV-I 0 W/m 11,5 C 12,4 C 4,8 km/h (1 Bft)
20/08/2017 05:01 12,4 C 12,2 C 12,2 C 18,3 C 19,4 C 18,9 C 94 % 15 lf 12 cb 30 cb 86 cb 43 cb 1022,8 hPa 0,0 l/m 1,6 km/h (1 Bft) S 180 0 min 0 mm 0 UV-I 0 W/m 11,5 C 12,4 C 3,2 km/h (1 Bft)
20/08/2017 05:00 12,4 C 12,2 C 12,2 C 18,3 C 19,4 C 18,9 C 94 % 15 lf 12 cb 30 cb 86 cb 43 cb 1022,7 hPa 0,0 l/m 3,2 km/h (1 Bft) S 180 0 min 0 mm 0 UV-I 0 W/m 11,5 C 12,4 C 3,2 km/h (1 Bft)
20/08/2017 04:59 12,4 C 12,2 C 12,2 C 18,3 C 19,4 C 18,9 C 94 % 15 lf 12 cb 30 cb 86 cb 43 cb 1022,8 hPa 0,0 l/m 3,2 km/h (1 Bft) S 180 0 min 0 mm 0 UV-I 0 W/m 11,5 C 12,4 C 3,2 km/h (1 Bft)
20/08/2017 04:58 12,4 C 12,2 C 12,2 C 18,3 C 19,4 C 18,9 C 94 % 15 lf 12 cb 30 cb 86 cb 43 cb 1022,8 hPa 0,0 l/m 3,2 km/h (1 Bft) S 180 0 min 0 mm 0 UV-I 0 W/m 11,5 C 12,4 C 4,8 km/h (1 Bft)
20/08/2017 04:57 12,4 C 12,2 C 12,2 C 18,3 C 19,4 C 18,9 C 94 % 15 lf 12 cb 30 cb 86 cb 43 cb 1022,8 hPa 0,0 l/m 3,2 km/h (1 Bft) S 180 0 min 0 mm 0 UV-I 0 W/m 11,5 C 12,4 C 4,8 km/h (1 Bft)
20/08/2017 04:56 12,4 C 12,2 C 12,2 C 18,3 C 19,4 C 18,9 C 94 % 15 lf 12 cb 30 cb 86 cb 43 cb 1022,8 hPa 0,0 l/m 1,6 km/h (1 Bft) S 180 0 min 0 mm 0 UV-I 0 W/m 11,5 C 12,4 C 4,8 km/h (1 Bft)
20/08/2017 04:55 12,5 C 12,2 C 12,2 C 18,3 C 19,4 C 18,9 C 94 % 15 lf 12 cb 30 cb 86 cb 43 cb 1022,7 hPa 0,0 l/m 1,6 km/h (1 Bft) S 180 0 min 0 mm 0 UV-I 0 W/m 11,6 C 12,5 C 4,8 km/h (1 Bft)
20/08/2017 04:54 12,5 C 12,2 C 12,2 C 18,3 C 19,4 C 18,9 C 94 % 15 lf 12 cb 30 cb 86 cb 43 cb 1022,7 hPa 0,0 l/m 1,6 km/h (1 Bft) S 180 0 min 0 mm 0 UV-I 0 W/m 11,6 C 12,5 C 3,2 km/h (1 Bft)
20/08/2017 04:53 12,6 C 12,8 C 12,2 C 18,3 C 19,4 C 18,9 C 94 % 15 lf 12 cb 30 cb 86 cb 43 cb 1022,7 hPa 0,0 l/m 1,6 km/h (1 Bft) S 180 0 min 0 mm 0 UV-I 0 W/m 11,7 C 12,6 C 3,2 km/h (1 Bft)
20/08/2017 04:52 12,6 C 12,8 C 12,8 C 18,3 C 19,4 C 18,9 C 94 % 15 lf 12 cb 30 cb 86 cb 43 cb 1022,7 hPa 0,0 l/m 3,2 km/h (1 Bft) S 180 0 min 0 mm 0 UV-I 0 W/m 11,7 C 12,6 C 3,2 km/h (1 Bft)
20/08/2017 04:51 12,6 C 12,8 C 12,8 C 18,3 C 19,4 C 18,9 C 94 % 15 lf 12 cb 30 cb 86 cb 43 cb 1022,7 hPa 0,0 l/m 1,6 km/h (1 Bft) S 180 0 min 0 mm 0 UV-I 0 W/m 11,7 C 12,6 C 3,2 km/h (1 Bft)
20/08/2017 04:50 12,6 C 12,8 C 12,8 C 18,3 C 19,4 C 18,9 C 94 % 15 lf 12 cb 30 cb 86 cb 43 cb 1022,7 hPa 0,0 l/m 1,6 km/h (1 Bft) S 180 0 min 0 mm 0 UV-I 0 W/m 11,7 C 12,6 C 4,8 km/h (1 Bft)
20/08/2017 04:49 12,6 C 12,8 C 12,8 C 18,3 C 19,4 C 18,9 C 94 % 15 lf 12 cb 30 cb 86 cb 43 cb 1022,7 hPa 0,0 l/m 1,6 km/h (1 Bft) S 180 0 min 0 mm 0 UV-I 0 W/m 11,7 C 12,6 C 3,2 km/h (1 Bft)
20/08/2017 04:48 12,6 C 12,8 C 12,8 C 18,9 C 19,4 C 18,9 C 94 % 15 lf 12 cb 30 cb 86 cb 43 cb 1022,7 hPa 0,0 l/m 1,6 km/h (1 Bft) S 180 0 min 0 mm 0 UV-I 0 W/m 11,7 C 12,6 C 3,2 km/h (1 Bft)
20/08/2017 04:47 12,7 C 12,8 C 12,8 C 18,9 C 19,4 C 18,9 C 94 % 15 lf 12 cb 30 cb 86 cb 43 cb 1022,7 hPa 0,0 l/m 1,6 km/h (1 Bft) S 180 0 min 0 mm 0 UV-I 0 W/m 11,8 C 12,7 C 3,2 km/h (1 Bft)
20/08/2017 04:46 12,7 C 12,8 C 12,8 C 18,9 C 19,4 C 18,9 C 94 % 15 lf 12 cb 30 cb 86 cb 43 cb 1022,7 hPa 0,0 l/m 1,6 km/h (1 Bft) S 180 0 min 0 mm 0 UV-I 0 W/m 11,8 C 12,7 C 4,8 km/h (1 Bft)
20/08/2017 04:45 12,7 C 12,8 C 12,8 C 18,9 C 19,4 C 18,9 C 94 % 15 lf 12 cb 30 cb 86 cb 43 cb 1022,8 hPa 0,0 l/m 1,6 km/h (1 Bft) S 180 0 min 0 mm 0 UV-I 0 W/m 11,8 C 12,7 C 1,6 km/h (1 Bft)
20/08/2017 04:44 12,8 C 12,8 C 12,8 C 18,9 C 19,4 C 18,9 C 94 % 15 lf 12 cb 30 cb 86 cb 43 cb 1022,7 hPa 0,0 l/m 1,6 km/h (1 Bft) S 180 0 min 0 mm 0 UV-I 0 W/m 11,9 C 12,8 C 1,6 km/h (1 Bft)
20/08/2017 04:43 12,8 C 12,8 C 12,8 C 18,9 C 19,4 C 18,9 C 94 % 15 lf 12 cb 30 cb 86 cb 43 cb 1022,8 hPa 0,0 l/m 3,2 km/h (1 Bft) S 180 0 min 0 mm 0 UV-I 0 W/m 11,9 C 12,8 C 3,2 km/h (1 Bft)
20/08/2017 04:42 12,8 C 12,8 C 12,8 C 18,9 C 19,4 C 18,9 C 94 % 15 lf 12 cb 30 cb 86 cb 43 cb 1022,7 hPa 0,0 l/m 3,2 km/h (1 Bft) S 180 0 min 0 mm 0 UV-I 0 W/m 11,9 C 12,8 C 4,8 km/h (1 Bft)
20/08/2017 04:41 12,8 C 12,8 C 12,8 C 18,9 C 19,4 C 18,9 C 94 % 15 lf 12 cb 30 cb 86 cb 43 cb 1022,7 hPa 0,0 l/m 3,2 km/h (1 Bft) S 180 0 min 0 mm 0 UV-I 0 W/m 11,9 C 12,8 C 4,8 km/h (1 Bft)
20/08/2017 04:40 12,8 C 12,8 C 12,8 C 18,9 C 19,4 C 18,9 C 94 % 15 lf 12 cb 30 cb 86 cb 43 cb 1022,8 hPa 0,0 l/m 3,2 km/h (1 Bft) S 180 0 min 0 mm 0 UV-I 0 W/m 11,9 C 12,8 C 4,8 km/h (1 Bft)
20/08/2017 04:39 12,8 C 12,8 C 12,8 C 18,9 C 19,4 C 18,9 C 94 % 15 lf 12 cb 30 cb 86 cb 43 cb 1022,8 hPa 0,0 l/m 3,2 km/h (1 Bft) S 180 0 min 0 mm 0 UV-I 0 W/m 11,9 C 12,8 C 3,2 km/h (1 Bft)
20/08/2017 04:38 12,8 C 12,8 C 12,8 C 18,9 C 19,4 C 18,9 C 94 % 15 lf 12 cb 30 cb 86 cb 43 cb 1022,8 hPa 0,0 l/m 4,8 km/h (1 Bft) S 180 0 min 0 mm 0 UV-I 0 W/m 11,9 C 12,8 C 6,4 km/h (2 Bft)
20/08/2017 04:37 12,9 C 12,8 C 12,8 C 18,9 C 19,4 C 18,9 C 94 % 15 lf 12 cb 30 cb 86 cb 43 cb 1022,8 hPa 0,0 l/m 3,2 km/h (1 Bft) S 180 0 min 0 mm 0 UV-I 0 W/m 12,0 C 12,9 C 6,4 km/h (2 Bft)
20/08/2017 04:36 12,9 C 12,8 C 12,8 C 18,9 C 19,4 C 18,9 C 95 % 15 lf 12 cb 30 cb 86 cb 43 cb 1022,8 hPa 0,0 l/m 3,2 km/h (1 Bft) S 180 0 min 0 mm 0 UV-I 0 W/m 12,1 C 12,9 C 4,8 km/h (1 Bft)
20/08/2017 04:35 12,9 C 13,3 C 13,3 C 18,9 C 19,4 C 18,9 C 95 % 15 lf 12 cb 30 cb 86 cb 43 cb 1022,8 hPa 0,0 l/m 8,0 km/h (2 Bft) S 180 0 min 0 mm 0 UV-I 0 W/m 12,1 C 11,9 C 9,7 km/h (2 Bft)
20/08/2017 04:34 12,8 C 13,3 C 13,3 C 18,9 C 19,4 C 18,9 C 95 % 15 lf 12 cb 30 cb 86 cb 43 cb 1022,7 hPa 0,0 l/m 6,4 km/h (2 Bft) S 180 0 min 0 mm 0 UV-I 0 W/m 12,0 C 12,8 C 9,7 km/h (2 Bft)
20/08/2017 04:33 12,8 C 13,3 C 13,3 C 18,9 C 19,4 C 18,9 C 94 % 15 lf 12 cb 30 cb 86 cb 43 cb 1022,8 hPa 0,0 l/m 6,4 km/h (2 Bft) S 180 0 min 0 mm 0 UV-I 0 W/m 11,9 C 12,8 C 9,7 km/h (2 Bft)
20/08/2017 04:32 12,8 C 13,3 C 13,3 C 18,9 C 19,4 C 18,9 C 94 % 15 lf 12 cb 30 cb 86 cb 43 cb 1022,8 hPa 0,0 l/m 6,4 km/h (2 Bft) S 180 0 min 0 mm 0 UV-I 0 W/m 11,9 C 12,8 C 8,0 km/h (2 Bft)
20/08/2017 04:31 12,8 C 13,3 C 13,3 C 18,9 C 19,4 C 18,9 C 94 % 15 lf 12 cb 30 cb 86 cb 43 cb 1022,7 hPa 0,0 l/m 6,4 km/h (2 Bft) S 180 0 min 0 mm 0 UV-I 0 W/m 11,9 C 12,8 C 8,0 km/h (2 Bft)
20/08/2017 04:30 12,8 C 13,3 C 13,3 C 18,9 C 19,4 C 18,9 C 94 % 15 lf 12 cb 30 cb 86 cb 43 cb 1022,8 hPa 0,0 l/m 3,2 km/h (1 Bft) S-SE 157 0 min 0 mm 0 UV-I 0 W/m 11,9 C 12,8 C 4,8 km/h (1 Bft)
20/08/2017 04:29 12,8 C 13,3 C 13,3 C 18,9 C 19,4 C 18,9 C 94 % 15 lf 12 cb 30 cb 86 cb 43 cb 1022,7 hPa 0,0 l/m 1,6 km/h (1 Bft) S-SE 157 0 min 0 mm 0 UV-I 0 W/m 11,9 C 12,8 C 3,2 km/h (1 Bft)
20/08/2017 04:28 12,9 C 13,3 C 13,3 C 18,9 C 19,4 C 18,9 C 94 % 15 lf 12 cb 30 cb 86 cb 43 cb 1022,8 hPa 0,0 l/m 1,6 km/h (1 Bft) S-SE 157 0 min 0 mm 0 UV-I 0 W/m 12,0 C 12,9 C 3,2 km/h (1 Bft)
20/08/2017 04:27 12,9 C 13,3 C 13,3 C 18,9 C 19,4 C 18,9 C 94 % 15 lf 12 cb 30 cb 86 cb 43 cb 1022,7 hPa 0,0 l/m 1,6 km/h (1 Bft) S-SE 157 0 min 0 mm 0 UV-I 0 W/m 12,0 C 12,9 C 3,2 km/h (1 Bft)
20/08/2017 04:26 12,9 C 13,3 C 13,3 C 18,9 C 19,4 C 18,9 C 94 % 15 lf 12 cb 30 cb 86 cb 43 cb 1022,7 hPa 0,0 l/m 1,6 km/h (1 Bft) S-SE 157 0 min 0 mm 0 UV-I 0 W/m 12,0 C 12,9 C 3,2 km/h (1 Bft)
20/08/2017 04:25 12,9 C 13,3 C 13,3 C 18,9 C 19,4 C 18,9 C 94 % 15 lf 12 cb 30 cb 86 cb 43 cb 1022,8 hPa 0,0 l/m 3,2 km/h (1 Bft) S-SE 157 0 min 0 mm 0 UV-I 0 W/m 12,0 C 12,9 C 4,8 km/h (1 Bft)
20/08/2017 04:24 12,9 C 13,3 C 13,3 C 18,9 C 19,4 C 18,9 C 94 % 15 lf 12 cb 30 cb 86 cb 43 cb 1022,7 hPa 0,0 l/m 3,2 km/h (1 Bft) S 180 0 min 0 mm 0 UV-I 0 W/m 12,0 C 12,9 C 6,4 km/h (2 Bft)
20/08/2017 04:23 12,9 C 13,3 C 13,3 C 18,9 C 19,4 C 18,9 C 94 % 15 lf 12 cb 30 cb 86 cb 43 cb 1022,7 hPa 0,0 l/m 3,2 km/h (1 Bft) S 180 0 min 0 mm 0 UV-I 0 W/m 12,0 C 12,9 C 6,4 km/h (2 Bft)
20/08/2017 04:22 12,9 C 13,3 C 13,3 C 18,9 C 19,4 C 18,9 C 94 % 15 lf 12 cb 30 cb 86 cb 43 cb 1022,8 hPa 0,0 l/m 4,8 km/h (1 Bft) S 180 0 min 0 mm 0 UV-I 0 W/m 12,0 C 12,9 C 8,0 km/h (2 Bft)
20/08/2017 04:21 12,9 C 13,3 C 13,3 C 18,9 C 19,4 C 18,9 C 94 % 15 lf 12 cb 30 cb 86 cb 43 cb 1022,8 hPa 0,0 l/m 4,8 km/h (1 Bft) S 180 0 min 0 mm 0 UV-I 0 W/m 12,0 C 12,9 C 6,4 km/h (2 Bft)
20/08/2017 04:20 12,9 C 13,3 C 13,3 C 18,9 C 19,4 C 18,9 C 94 % 15 lf 12 cb 30 cb 86 cb 43 cb 1022,8 hPa 0,0 l/m 4,8 km/h (1 Bft) S 180 0 min 0 mm 0 UV-I 0 W/m 12,0 C 12,9 C 8,0 km/h (2 Bft)
20/08/2017 04:19 12,9 C 13,3 C 13,3 C 18,9 C 19,4 C 18,9 C 94 % 15 lf 12 cb 30 cb 86 cb 43 cb 1022,8 hPa 0,0 l/m 6,4 km/h (2 Bft) S 180 0 min 0 mm 0 UV-I 0 W/m 12,0 C 12,9 C 8,0 km/h (2 Bft)
20/08/2017 04:18 12,9 C 13,3 C 13,3 C 18,9 C 19,4 C 18,9 C 94 % 15 lf 12 cb 30 cb 86 cb 43 cb 1022,9 hPa 0,0 l/m 3,2 km/h (1 Bft) S 180 0 min 0 mm 0 UV-I 0 W/m 12,0 C 12,9 C 8,0 km/h (2 Bft)
20/08/2017 04:17 12,9 C 13,3 C 13,3 C 18,9 C 19,4 C 18,9 C 94 % 15 lf 12 cb 30 cb 86 cb 43 cb 1022,7 hPa 0,0 l/m 3,2 km/h (1 Bft) S 180 0 min 0 mm 0 UV-I 0 W/m 12,0 C 12,9 C 4,8 km/h (1 Bft)
20/08/2017 04:16 12,9 C 13,3 C 13,3 C 18,9 C 19,4 C 18,9 C 94 % 15 lf 12 cb 30 cb 86 cb 43 cb 1022,8 hPa 0,0 l/m 6,4 km/h (2 Bft) S 180 0 min 0 mm 0 UV-I 0 W/m 12,0 C 12,9 C 8,0 km/h (2 Bft)
20/08/2017 04:15 12,9 C 13,3 C 13,3 C 18,9 C 19,4 C 18,9 C 95 % 15 lf 12 cb 30 cb 86 cb 43 cb 1022,8 hPa 0,0 l/m 4,8 km/h (1 Bft) S 180 0 min 0 mm 0 UV-I 0 W/m 12,1 C 12,9 C 6,4 km/h (2 Bft)
20/08/2017 04:14 12,9 C 13,3 C 13,3 C 18,9 C 19,4 C 18,9 C 94 % 15 lf 12 cb 30 cb 86 cb 43 cb 1022,8 hPa 0,0 l/m 4,8 km/h (1 Bft) S 180 0 min 0 mm 0 UV-I 0 W/m 12,0 C 12,9 C 6,4 km/h (2 Bft)
20/08/2017 04:13 12,9 C 13,3 C 13,3 C 18,9 C 19,4 C 18,9 C 94 % 15 lf 12 cb 30 cb 86 cb 43 cb 1022,7 hPa 0,0 l/m 6,4 km/h (2 Bft) S-SE 157 0 min 0 mm 0 UV-I 0 W/m 12,0 C 12,9 C 8,0 km/h (2 Bft)
20/08/2017 04:12 12,9 C 13,3 C 13,3 C 18,9 C 19,4 C 18,9 C 94 % 15 lf 12 cb 30 cb 86 cb 43 cb 1022,8 hPa 0,0 l/m 8,0 km/h (2 Bft) S-SE 157 0 min 0 mm 0 UV-I 0 W/m 12,0 C 11,9 C 9,7 km/h (2 Bft)
20/08/2017 04:11 12,9 C 13,3 C 13,3 C 18,9 C 19,4 C 18,9 C 94 % 15 lf 12 cb 30 cb 86 cb 43 cb 1022,8 hPa 0,0 l/m 6,4 km/h (2 Bft) S-SE 157 0 min 0 mm 0 UV-I 0 W/m 12,0 C 12,9 C 8,0 km/h (2 Bft)
20/08/2017 04:10 12,9 C 13,3 C 13,3 C 18,9 C 19,4 C 18,9 C 94 % 15 lf 12 cb 30 cb 86 cb 43 cb 1022,7 hPa 0,0 l/m 4,8 km/h (1 Bft) S-SE 157 0 min 0 mm 0 UV-I 0 W/m 12,0 C 12,9 C 6,4 km/h (2 Bft)
20/08/2017 04:09 12,9 C 13,3 C 13,3 C 18,9 C 19,4 C 18,9 C 94 % 15 lf 12 cb 30 cb 86 cb 43 cb 1022,7 hPa 0,0 l/m 3,2 km/h (1 Bft) S-SE 157 0 min 0 mm 0 UV-I 0 W/m 12,0 C 12,9 C 3,2 km/h (1 Bft)
20/08/2017 04:08 12,9 C 13,3 C 13,3 C 18,9 C 19,4 C 18,9 C 94 % 15 lf 12 cb 30 cb 86 cb 43 cb 1022,8 hPa 0,0 l/m 3,2 km/h (1 Bft) S-SE 157 0 min 0 mm 0 UV-I 0 W/m 12,0 C 12,9 C 4,8 km/h (1 Bft)
20/08/2017 04:07 12,9 C 13,3 C 13,3 C 18,9 C 19,4 C 18,9 C 94 % 15 lf 12 cb 30 cb 86 cb 43 cb 1022,8 hPa 0,0 l/m 3,2 km/h (1 Bft) S-SE 157 0 min 0 mm 0 UV-I 0 W/m 12,0 C 12,9 C 4,8 km/h (1 Bft)
20/08/2017 04:06 12,9 C 13,3 C 13,3 C 18,9 C 19,4 C 18,9 C 94 % 15 lf 12 cb 30 cb 86 cb 43 cb 1022,8 hPa 0,0 l/m 3,2 km/h (1 Bft) S-SE 157 0 min 0 mm 0 UV-I 0 W/m 12,0 C 12,9 C 6,4 km/h (2 Bft)
20/08/2017 04:05 12,9 C 13,3 C 13,3 C 18,9 C 19,4 C 18,9 C 94 % 15 lf 12 cb 30 cb 86 cb 43 cb 1022,8 hPa 0,0 l/m 3,2 km/h (1 Bft) S-SE 157 0 min 0 mm 0 UV-I 0 W/m 12,0 C 12,9 C 6,4 km/h (2 Bft)
20/08/2017 04:04 12,9 C 13,3 C 13,3 C 18,9 C 19,4 C 18,9 C 94 % 15 lf 12 cb 30 cb 86 cb 43 cb 1022,8 hPa 0,0 l/m 1,6 km/h (1 Bft) S-SE 157 0 min 0 mm 0 UV-I 0 W/m 12,0 C 12,9 C 3,2 km/h (1 Bft)
20/08/2017 04:03 12,9 C 13,9 C 13,9 C 18,9 C 19,4 C 18,9 C 94 % 15 lf 12 cb 30 cb 86 cb 43 cb 1022,8 hPa 0,0 l/m 1,6 km/h (1 Bft) S-SE 157 0 min 0 mm 0 UV-I 0 W/m 12,0 C 12,9 C 3,2 km/h (1 Bft)
20/08/2017 04:02 12,9 C 13,9 C 13,9 C 18,9 C 19,4 C 18,9 C 94 % 15 lf 12 cb 30 cb 86 cb 43 cb 1022,9 hPa 0,0 l/m 3,2 km/h (1 Bft) S-SE 157 0 min 0 mm 0 UV-I 0 W/m 12,0 C 12,9 C 4,8 km/h (1 Bft)
20/08/2017 04:01 12,9 C 13,9 C 13,9 C 18,9 C 19,4 C 18,9 C 94 % 15 lf 12 cb 30 cb 86 cb 43 cb 1022,8 hPa 0,0 l/m 3,2 km/h (1 Bft) S-SE 157 0 min 0 mm 0 UV-I 0 W/m 12,0 C 12,9 C 6,4 km/h (2 Bft)
20/08/2017 04:00 12,9 C 13,9 C 13,9 C 18,9 C 19,4 C 18,9 C 94 % 15 lf 12 cb 30 cb 86 cb 43 cb 1022,9 hPa 0,0 l/m 3,2 km/h (1 Bft) S-SE 157 0 min 0 mm 0 UV-I 0 W/m 12,0 C 12,9 C 4,8 km/h (1 Bft)
20/08/2017 03:59 12,9 C 13,9 C 13,9 C 18,9 C 19,4 C 18,9 C 94 % 15 lf 12 cb 30 cb 86 cb 43 cb 1022,9 hPa 0,0 l/m 3,2 km/h (1 Bft) S-SE 157 0 min 0 mm 0 UV-I 0 W/m 12,0 C 12,9 C 4,8 km/h (1 Bft)
20/08/2017 03:58 12,9 C 13,9 C 13,9 C 18,9 C 19,4 C 18,9 C 94 % 15 lf 12 cb 30 cb 86 cb 43 cb 1022,8 hPa 0,0 l/m 4,8 km/h (1 Bft) S-SE 157 0 min 0 mm 0 UV-I 0 W/m 12,0 C 12,9 C 6,4 km/h (2 Bft)
20/08/2017 03:57 12,9 C 13,9 C 13,9 C 18,9 C 19,4 C 18,9 C 94 % 15 lf 12 cb 30 cb 86 cb 43 cb 1022,8 hPa 0,0 l/m 3,2 km/h (1 Bft) S-SE 157 0 min 0 mm 0 UV-I 0 W/m 12,0 C 12,9 C 4,8 km/h (1 Bft)
20/08/2017 03:56 12,9 C 13,9 C 13,9 C 18,9 C 19,4 C 18,9 C 94 % 15 lf 12 cb 30 cb 86 cb 43 cb 1022,8 hPa 0,0 l/m 3,2 km/h (1 Bft) S-SE 157 0 min 0 mm 0 UV-I 0 W/m 12,0 C 12,9 C 4,8 km/h (1 Bft)
20/08/2017 03:55 12,9 C 13,9 C 13,9 C 18,9 C 19,4 C 18,9 C 94 % 15 lf 12 cb 30 cb 86 cb 43 cb 1022,8 hPa 0,0 l/m 4,8 km/h (1 Bft) S-SE 157 0 min 0 mm 0 UV-I 0 W/m 12,0 C 12,9 C 6,4 km/h (2 Bft)
20/08/2017 03:54 12,9 C 13,9 C 13,9 C 18,9 C 19,4 C 18,9 C 94 % 15 lf 12 cb 30 cb 86 cb 43 cb 1022,8 hPa 0,0 l/m 4,8 km/h (1 Bft) S-SE 157 0 min 0 mm 0 UV-I 0 W/m 12,0 C 12,9 C 6,4 km/h (2 Bft)
20/08/2017 03:53 12,9 C 13,9 C 13,9 C 18,9 C 19,4 C 18,9 C 94 % 15 lf 12 cb 30 cb 86 cb 43 cb 1022,8 hPa 0,0 l/m 3,2 km/h (1 Bft) S-SE 157 0 min 0 mm 0 UV-I 0 W/m 12,0 C 12,9 C 6,4 km/h (2 Bft)
20/08/2017 03:52 12,9 C 13,9 C 13,9 C 18,9 C 19,4 C 18,9 C 94 % 15 lf 12 cb 30 cb 86 cb 43 cb 1022,8 hPa 0,0 l/m 3,2 km/h (1 Bft) S-SE 157 0 min 0 mm 0 UV-I 0 W/m 12,0 C 12,9 C 6,4 km/h (2 Bft)
20/08/2017 03:51 12,9 C 13,9 C 13,9 C 18,9 C 19,4 C 18,9 C 94 % 15 lf 12 cb 30 cb 86 cb 43 cb 1022,8 hPa 0,0 l/m 6,4 km/h (2 Bft) S-SE 157 0 min 0 mm 0 UV-I 0 W/m 12,0 C 12,9 C 8,0 km/h (2 Bft)
20/08/2017 03:50 12,9 C 13,9 C 13,9 C 18,9 C 19,4 C 18,9 C 94 % 15 lf 12 cb 30 cb 86 cb 43 cb 1022,8 hPa 0,0 l/m 4,8 km/h (1 Bft) S-SE 157 0 min 0 mm 0 UV-I 0 W/m 12,0 C 12,9 C 6,4 km/h (2 Bft)
20/08/2017 03:49 12,9 C 13,9 C 13,9 C 18,9 C 19,4 C 18,9 C 94 % 15 lf 12 cb 30 cb 86 cb 43 cb 1022,8 hPa 0,0 l/m 4,8 km/h (1 Bft) S-SE 157 0 min 0 mm 0 UV-I 0 W/m 12,0 C 12,9 C 8,0 km/h (2 Bft)
20/08/2017 03:48 12,9 C 13,9 C 13,9 C 18,9 C 19,4 C 18,9 C 94 % 15 lf 12 cb 30 cb 86 cb 43 cb 1022,8 hPa 0,0 l/m 4,8 km/h (1 Bft) S-SE 157 0 min 0 mm 0 UV-I 0 W/m 12,0 C 12,9 C 8,0 km/h (2 Bft)
20/08/2017 03:47 12,9 C 13,9 C 13,9 C 18,9 C 19,4 C 18,9 C 94 % 15 lf 12 cb 30 cb 86 cb 43 cb 1022,8 hPa 0,0 l/m 3,2 km/h (1 Bft) S-SE 157 0 min 0 mm 0 UV-I 0 W/m 12,0 C 12,9 C 6,4 km/h (2 Bft)
20/08/2017 03:46 12,9 C 13,9 C 13,9 C 18,9 C 19,4 C 18,9 C 94 % 15 lf 12 cb 30 cb 86 cb 43 cb 1022,7 hPa 0,0 l/m 3,2 km/h (1 Bft) S-SE 157 0 min 0 mm 0 UV-I 0 W/m 12,0 C 12,9 C 6,4 km/h (2 Bft)
20/08/2017 03:45 12,9 C 13,9 C 13,9 C 18,9 C 19,4 C 18,9 C 94 % 15 lf 12 cb 30 cb 86 cb 43 cb 1022,7 hPa 0,0 l/m 4,8 km/h (1 Bft) S-SE 157 0 min 0 mm 0 UV-I 0 W/m 12,0 C 12,9 C 6,4 km/h (2 Bft)
20/08/2017 03:44 12,9 C 13,9 C 13,9 C 18,9 C 19,4 C 18,9 C 94 % 15 lf 12 cb 30 cb 86 cb 43 cb 1022,7 hPa 0,0 l/m 4,8 km/h (1 Bft) S-SE 157 0 min 0 mm 0 UV-I 0 W/m 12,0 C 12,9 C 8,0 km/h (2 Bft)
20/08/2017 03:43 12,9 C 13,9 C 13,9 C 18,9 C 19,4 C 18,9 C 94 % 15 lf 12 cb 30 cb 86 cb 43 cb 1022,7 hPa 0,0 l/m 6,4 km/h (2 Bft) S-SE 157 0 min 0 mm 0 UV-I 0 W/m 12,0 C 12,9 C 8,0 km/h (2 Bft)
20/08/2017 03:42 12,9 C 13,9 C 13,9 C 18,9 C 19,4 C 18,9 C 94 % 15 lf 12 cb 30 cb 86 cb 43 cb 1022,8 hPa 0,0 l/m 6,4 km/h (2 Bft) S-SE 157 0 min 0 mm 0 UV-I 0 W/m 12,0 C 12,9 C 9,7 km/h (2 Bft)
20/08/2017 03:41 12,9 C 13,9 C 13,9 C 18,9 C 19,4 C 18,9 C 94 % 15 lf 12 cb 30 cb 86 cb 43 cb 1022,7 hPa 0,0 l/m 6,4 km/h (2 Bft) S-SE 157 0 min 0 mm 0 UV-I 0 W/m 12,0 C 12,9 C 8,0 km/h (2 Bft)
20/08/2017 03:40 12,9 C 13,9 C 13,9 C 18,9 C 19,4 C 18,9 C 94 % 15 lf 12 cb 30 cb 86 cb 43 cb 1022,8 hPa 0,0 l/m 3,2 km/h (1 Bft) S-SE 157 0 min 0 mm 0 UV-I 0 W/m 12,0 C 12,9 C 4,8 km/h (1 Bft)
20/08/2017 03:39 12,9 C 13,9 C 13,9 C 18,9 C 19,4 C 18,9 C 94 % 15 lf 12 cb 30 cb 86 cb 43 cb 1022,8 hPa 0,0 l/m 4,8 km/h (1 Bft) S-SE 157 0 min 0 mm 0 UV-I 0 W/m 12,0 C 12,9 C 8,0 km/h (2 Bft)
20/08/2017 03:38 12,9 C 13,9 C 13,9 C 18,9 C 19,4 C 18,9 C 94 % 15 lf 12 cb 30 cb 86 cb 43 cb 1022,7 hPa 0,0 l/m 6,4 km/h (2 Bft) S 180 0 min 0 mm 0 UV-I 0 W/m 12,0 C 12,9 C 8,0 km/h (2 Bft)
20/08/2017 03:37 12,9 C 13,9 C 13,9 C 18,9 C 19,4 C 18,9 C 94 % 15 lf 12 cb 30 cb 86 cb 43 cb 1022,7 hPa 0,0 l/m 4,8 km/h (1 Bft) S-SE 157 0 min 0 mm 0 UV-I 0 W/m 12,0 C 12,9 C 8,0 km/h (2 Bft)
20/08/2017 03:36 12,9 C 13,9 C 13,9 C 18,9 C 19,4 C 18,9 C 94 % 15 lf 12 cb 30 cb 86 cb 43 cb 1022,7 hPa 0,0 l/m 3,2 km/h (1 Bft) S-SE 157 0 min 0 mm 0 UV-I 0 W/m 12,0 C 12,9 C 6,4 km/h (2 Bft)
20/08/2017 03:35 12,9 C 13,9 C 13,9 C 18,9 C 19,4 C 18,9 C 94 % 15 lf 12 cb 30 cb 86 cb 43 cb 1022,7 hPa 0,0 l/m 4,8 km/h (1 Bft) S-SE 157 0 min 0 mm 0 UV-I 0 W/m 12,0 C 12,9 C 6,4 km/h (2 Bft)
20/08/2017 03:34 12,9 C 13,9 C 13,9 C 18,9 C 19,4 C 18,9 C 94 % 15 lf 12 cb 30 cb 86 cb 43 cb 1022,7 hPa 0,0 l/m 3,2 km/h (1 Bft) S-SE 157 0 min 0 mm 0 UV-I 0 W/m 12,0 C 12,9 C 6,4 km/h (2 Bft)
20/08/2017 03:33 12,9 C 13,9 C 13,9 C 18,9 C 19,4 C 18,9 C 94 % 15 lf 12 cb 30 cb 86 cb 43 cb 1022,8 hPa 0,0 l/m 4,8 km/h (1 Bft) S-SE 157 0 min 0 mm 0 UV-I 0 W/m 12,0 C 12,9 C 8,0 km/h (2 Bft)
20/08/2017 03:32 12,9 C 13,9 C 13,9 C 18,9 C 19,4 C 18,9 C 94 % 15 lf 12 cb 30 cb 86 cb 43 cb 1022,7 hPa 0,0 l/m 6,4 km/h (2 Bft) S-SE 157 0 min 0 mm 0 UV-I 0 W/m 12,0 C 12,9 C 8,0 km/h (2 Bft)
20/08/2017 03:31 12,9 C 13,9 C 13,9 C 18,9 C 19,4 C 18,9 C 94 % 15 lf 12 cb 30 cb 86 cb 43 cb 1022,7 hPa 0,0 l/m 4,8 km/h (1 Bft) S-SE 157 0 min 0 mm 0 UV-I 0 W/m 12,0 C 12,9 C 8,0 km/h (2 Bft)
20/08/2017 03:30 12,9 C 13,9 C 13,9 C 18,9 C 19,4 C 18,9 C 94 % 15 lf 12 cb 30 cb 86 cb 43 cb 1022,7 hPa 0,0 l/m 4,8 km/h (1 Bft) S-SE 157 0 min 0 mm 0 UV-I 0 W/m 12,0 C 12,9 C 6,4 km/h (2 Bft)
20/08/2017 03:29 12,9 C 13,9 C 13,9 C 18,9 C 19,4 C 18,9 C 94 % 15 lf 12 cb 30 cb 86 cb 43 cb 1022,8 hPa 0,0 l/m 3,2 km/h (1 Bft) S-SE 157 0 min 0 mm 0 UV-I 0 W/m 12,0 C 12,9 C 6,4 km/h (2 Bft)
20/08/2017 03:28 12,9 C 13,9 C 13,9 C 18,9 C 19,4 C 18,9 C 94 % 15 lf 12 cb 30 cb 86 cb 43 cb 1022,7 hPa 0,0 l/m 3,2 km/h (1 Bft) S-SE 157 0 min 0 mm 0 UV-I 0 W/m 12,0 C 12,9 C 4,8 km/h (1 Bft)
20/08/2017 03:27 12,9 C 13,9 C 13,9 C 18,9 C 19,4 C 18,9 C 94 % 15 lf 12 cb 30 cb 86 cb 43 cb 1022,7 hPa 0,0 l/m 3,2 km/h (1 Bft) S-SE 157 0 min 0 mm 0 UV-I 0 W/m 12,0 C 12,9 C 6,4 km/h (2 Bft)
20/08/2017 03:26 12,9 C 13,9 C 13,9 C 18,9 C 19,4 C 18,9 C 94 % 15 lf 12 cb 30 cb 86 cb 43 cb 1022,7 hPa 0,0 l/m 6,4 km/h (2 Bft) S-SE 157 0 min 0 mm 0 UV-I 0 W/m 12,0 C 12,9 C 8,0 km/h (2 Bft)
20/08/2017 03:25 12,9 C 13,9 C 13,9 C 18,9 C 19,4 C 18,9 C 94 % 15 lf 12 cb 30 cb 86 cb 43 cb 1022,6 hPa 0,0 l/m 3,2 km/h (1 Bft) S 180 0 min 0 mm 0 UV-I 0 W/m 12,0 C 12,9 C 6,4 km/h (2 Bft)
20/08/2017 03:24 12,9 C 13,9 C 13,9 C 18,9 C 19,4 C 18,9 C 94 % 15 lf 12 cb 30 cb 86 cb 43 cb 1022,7 hPa 0,0 l/m 6,4 km/h (2 Bft) S 180 0 min 0 mm 0 UV-I 0 W/m 12,0 C 12,9 C 8,0 km/h (2 Bft)
20/08/2017 03:23 12,9 C 13,9 C 13,9 C 18,9 C 19,4 C 18,9 C 94 % 15 lf 12 cb 30 cb 86 cb 43 cb 1022,7 hPa 0,0 l/m 8,0 km/h (2 Bft) S-SE 157 0 min 0 mm 0 UV-I 0 W/m 12,0 C 11,9 C 8,0 km/h (2 Bft)
20/08/2017 03:22 12,9 C 13,9 C 13,9 C 18,9 C 19,4 C 18,9 C 94 % 15 lf 12 cb 30 cb 86 cb 43 cb 1022,7 hPa 0,0 l/m 4,8 km/h (1 Bft) S-SE 157 0 min 0 mm 0 UV-I 0 W/m 12,0 C 12,9 C 8,0 km/h (2 Bft)
20/08/2017 03:21 12,9 C 13,9 C 13,9 C 18,9 C 19,4 C 18,9 C 94 % 15 lf 12 cb 30 cb 86 cb 43 cb 1022,7 hPa 0,0 l/m 6,4 km/h (2 Bft) S-SE 157 0 min 0 mm 0 UV-I 0 W/m 12,0 C 12,9 C 8,0 km/h (2 Bft)
20/08/2017 03:20 12,9 C 13,9 C 13,9 C 18,9 C 19,4 C 18,9 C 94 % 15 lf 12 cb 30 cb 86 cb 43 cb 1022,6 hPa 0,0 l/m 4,8 km/h (1 Bft) S-SE 157 0 min 0 mm 0 UV-I 0 W/m 12,0 C 12,9 C 8,0 km/h (2 Bft)
20/08/2017 03:19 12,9 C 13,9 C 13,9 C 18,9 C 19,4 C 18,9 C 94 % 15 lf 12 cb 30 cb 86 cb 43 cb 1022,7 hPa 0,0 l/m 6,4 km/h (2 Bft) S-SE 157 0 min 0 mm 0 UV-I 0 W/m 12,0 C 12,9 C 8,0 km/h (2 Bft)
20/08/2017 03:18 12,9 C 13,9 C 13,9 C 18,9 C 19,4 C 18,9 C 94 % 15 lf 12 cb 30 cb 86 cb 43 cb 1022,7 hPa 0,0 l/m 6,4 km/h (2 Bft) S 180 0 min 0 mm 0 UV-I 0 W/m 12,0 C 12,9 C 9,7 km/h (2 Bft)
20/08/2017 03:17 12,9 C 13,9 C 13,9 C 18,9 C 19,4 C 18,9 C 94 % 14 lf 12 cb 30 cb 86 cb 43 cb 1022,7 hPa 0,0 l/m 6,4 km/h (2 Bft) S 180 0 min 0 mm 0 UV-I 0 W/m 12,0 C 12,9 C 8,0 km/h (2 Bft)
20/08/2017 03:16 12,9 C 13,9 C 13,9 C 18,9 C 19,4 C 18,9 C 94 % 14 lf 12 cb 30 cb 86 cb 43 cb 1022,7 hPa 0,0 l/m 8,0 km/h (2 Bft) S-SE 157 0 min 0 mm 0 UV-I 0 W/m 12,0 C 11,9 C 8,0 km/h (2 Bft)
20/08/2017 03:15 12,9 C 13,9 C 13,9 C 18,9 C 19,4 C 18,9 C 94 % 13 lf 12 cb 30 cb 86 cb 43 cb 1022,6 hPa 0,0 l/m 4,8 km/h (1 Bft) S-SE 157 0 min 0 mm 0 UV-I 0 W/m 12,0 C 12,9 C 8,0 km/h (2 Bft)
20/08/2017 03:14 12,9 C 13,9 C 13,9 C 18,9 C 19,4 C 18,9 C 94 % 13 lf 12 cb 30 cb 86 cb 43 cb 1022,7 hPa 0,0 l/m 4,8 km/h (1 Bft) S-SE 157 0 min 0 mm 0 UV-I 0 W/m 12,0 C 12,9 C 6,4 km/h (2 Bft)
20/08/2017 03:13 12,9 C 13,9 C 13,9 C 18,9 C 19,4 C 18,9 C 94 % 13 lf 12 cb 30 cb 86 cb 43 cb 1022,6 hPa 0,0 l/m 4,8 km/h (1 Bft) S-SE 157 0 min 0 mm 0 UV-I 0 W/m 12,0 C 12,9 C 6,4 km/h (2 Bft)
20/08/2017 03:12 13,0 C 13,9 C 13,9 C 18,9 C 19,4 C 18,9 C 94 % 13 lf 12 cb 30 cb 86 cb 43 cb 1022,6 hPa 0,0 l/m 4,8 km/h (1 Bft) S-SE 157 0 min 0 mm 0 UV-I 0 W/m 12,1 C 13,0 C 6,4 km/h (2 Bft)
20/08/2017 03:11 13,0 C 13,9 C 13,9 C 18,9 C 19,4 C 18,9 C 94 % 13 lf 12 cb 30 cb 86 cb 43 cb 1022,6 hPa 0,0 l/m 6,4 km/h (2 Bft) S-SE 157 0 min 0 mm 0 UV-I 0 W/m 12,1 C 13,0 C 8,0 km/h (2 Bft)
20/08/2017 03:10 13,0 C 13,9 C 13,9 C 18,9 C 19,4 C 18,9 C 94 % 13 lf 12 cb 30 cb 86 cb 43 cb 1022,6 hPa 0,0 l/m 6,4 km/h (2 Bft) S-SE 157 0 min 0 mm 0 UV-I 0 W/m 12,1 C 13,0 C 8,0 km/h (2 Bft)
20/08/2017 03:09 13,0 C 13,9 C 13,9 C 18,9 C 19,4 C 18,9 C 94 % 13 lf 12 cb 30 cb 86 cb 43 cb 1022,6 hPa 0,0 l/m 4,8 km/h (1 Bft) S-SE 157 0 min 0 mm 0 UV-I 0 W/m 12,1 C 13,0 C 6,4 km/h (2 Bft)
20/08/2017 03:08 13,0 C 13,9 C 13,9 C 18,9 C 19,4 C 18,9 C 94 % 13 lf 12 cb 30 cb 86 cb 43 cb 1022,6 hPa 0,0 l/m 4,8 km/h (1 Bft) S-SE 157 0 min 0 mm 0 UV-I 0 W/m 12,1 C 13,0 C 6,4 km/h (2 Bft)
20/08/2017 03:07 13,0 C 13,9 C 13,9 C 18,9 C 19,4 C 18,9 C 94 % 13 lf 12 cb 30 cb 86 cb 43 cb 1022,5 hPa 0,0 l/m 3,2 km/h (1 Bft) S-SE 157 0 min 0 mm 0 UV-I 0 W/m 12,1 C 13,0 C 8,0 km/h (2 Bft)
20/08/2017 03:06 13,0 C 13,9 C 13,9 C 18,9 C 19,4 C 18,9 C 94 % 13 lf 12 cb 30 cb 86 cb 43 cb 1022,6 hPa 0,0 l/m 3,2 km/h (1 Bft) S-SE 157 0 min 0 mm 0 UV-I 0 W/m 12,1 C 13,0 C 8,0 km/h (2 Bft)
20/08/2017 03:05 13,0 C 13,9 C 13,9 C 18,9 C 19,4 C 18,9 C 94 % 13 lf 12 cb 30 cb 86 cb 43 cb 1022,6 hPa 0,0 l/m 4,8 km/h (1 Bft) S-SE 157 0 min 0 mm 0 UV-I 0 W/m 12,1 C 13,0 C 6,4 km/h (2 Bft)
20/08/2017 03:04 13,0 C 13,9 C 13,9 C 18,9 C 19,4 C 18,9 C 94 % 13 lf 12 cb 30 cb 86 cb 43 cb 1022,5 hPa 0,0 l/m 3,2 km/h (1 Bft) S-SE 157 0 min 0 mm 0 UV-I 0 W/m 12,1 C 13,0 C 6,4 km/h (2 Bft)
20/08/2017 03:03 13,0 C 13,9 C 13,9 C 18,9 C 19,4 C 18,9 C 94 % 13 lf 12 cb 30 cb 86 cb 43 cb 1022,6 hPa 0,0 l/m 3,2 km/h (1 Bft) S-SE 157 0 min 0 mm 0 UV-I 0 W/m 12,1 C 13,0 C 4,8 km/h (1 Bft)
20/08/2017 03:02 12,9 C 13,9 C 13,9 C 18,9 C 19,4 C 18,9 C 94 % 13 lf 12 cb 30 cb 86 cb 43 cb 1022,5 hPa 0,0 l/m 3,2 km/h (1 Bft) S-SE 157 0 min 0 mm 0 UV-I 0 W/m 12,0 C 12,9 C 6,4 km/h (2 Bft)
20/08/2017 03:01 12,9 C 13,9 C 13,9 C 18,9 C 19,4 C 18,9 C 94 % 13 lf 12 cb 30 cb 86 cb 43 cb 1022,6 hPa 0,0 l/m 3,2 km/h (1 Bft) S-SE 157 0 min 0 mm 0 UV-I 0 W/m 12,0 C 12,9 C 4,8 km/h (1 Bft)
20/08/2017 03:00 12,9 C 13,9 C 13,9 C 18,9 C 19,4 C 18,9 C 94 % 13 lf 12 cb 30 cb 86 cb 43 cb 1022,5 hPa 0,0 l/m 3,2 km/h (1 Bft) S-SE 157 0 min 0 mm 0 UV-I 0 W/m 12,0 C 12,9 C 4,8 km/h (1 Bft)
20/08/2017 02:59 12,9 C 13,9 C 13,9 C 18,9 C 19,4 C 18,9 C 94 % 13 lf 12 cb 30 cb 86 cb 43 cb 1022,5 hPa 0,0 l/m 1,6 km/h (1 Bft) S-SE 157 0 min 0 mm 0 UV-I 0 W/m 12,0 C 12,9 C 3,2 km/h (1 Bft)
20/08/2017 02:58 12,9 C 13,9 C 13,9 C 18,9 C 19,4 C 18,9 C 94 % 13 lf 12 cb 30 cb 86 cb 43 cb 1022,5 hPa 0,0 l/m 1,6 km/h (1 Bft) S-SE 157 0 min 0 mm 0 UV-I 0 W/m 12,0 C 12,9 C 4,8 km/h (1 Bft)
20/08/2017 02:57 12,9 C 13,9 C 13,9 C 18,9 C 19,4 C 18,9 C 94 % 13 lf 12 cb 30 cb 86 cb 43 cb 1022,5 hPa 0,0 l/m 3,2 km/h (1 Bft) S-SE 157 0 min 0 mm 0 UV-I 0 W/m 12,0 C 12,9 C 6,4 km/h (2 Bft)
20/08/2017 02:56 12,9 C 13,9 C 13,9 C 18,9 C 19,4 C 18,9 C 94 % 13 lf 12 cb 30 cb 85 cb 43 cb 1022,5 hPa 0,0 l/m 3,2 km/h (1 Bft) S-SE 157 0 min 0 mm 0 UV-I 0 W/m 12,0 C 12,9 C 6,4 km/h (2 Bft)
20/08/2017 02:55 12,9 C 13,9 C 13,9 C 18,9 C 19,4 C 18,9 C 94 % 13 lf 12 cb 30 cb 86 cb 43 cb 1022,5 hPa 0,0 l/m 4,8 km/h (1 Bft) S-SE 157 0 min 0 mm 0 UV-I 0 W/m 12,0 C 12,9 C 8,0 km/h (2 Bft)
20/08/2017 02:54 12,9 C 13,9 C 13,9 C 18,9 C 19,4 C 18,9 C 94 % 13 lf 12 cb 30 cb 85 cb 43 cb 1022,5 hPa 0,0 l/m 4,8 km/h (1 Bft) S-SE 157 0 min 0 mm 0 UV-I 0 W/m 12,0 C 12,9 C 8,0 km/h (2 Bft)
20/08/2017 02:53 12,9 C 13,9 C 13,9 C 18,9 C 19,4 C 18,9 C 94 % 13 lf 12 cb 30 cb 86 cb 43 cb 1022,5 hPa 0,0 l/m 4,8 km/h (1 Bft) S-SE 157 0 min 0 mm 0 UV-I 0 W/m 12,0 C 12,9 C 6,4 km/h (2 Bft)
20/08/2017 02:52 12,9 C 13,9 C 13,9 C 18,9 C 19,4 C 18,9 C 94 % 13 lf 12 cb 30 cb 85 cb 43 cb 1022,6 hPa 0,0 l/m 4,8 km/h (1 Bft) S-SE 157 0 min 0 mm 0 UV-I 0 W/m 12,0 C 12,9 C 6,4 km/h (2 Bft)
20/08/2017 02:51 12,9 C 13,9 C 13,9 C 18,9 C 19,4 C 18,9 C 94 % 13 lf 12 cb 30 cb 85 cb 43 cb 1022,5 hPa 0,0 l/m 4,8 km/h (1 Bft) S-SE 157 0 min 0 mm 0 UV-I 0 W/m 12,0 C 12,9 C 6,4 km/h (2 Bft)
20/08/2017 02:50 12,9 C 13,9 C 13,9 C 18,9 C 19,4 C 18,9 C 94 % 13 lf 12 cb 30 cb 85 cb 43 cb 1022,6 hPa 0,0 l/m 4,8 km/h (1 Bft) S-SE 157 0 min 0 mm 0 UV-I 0 W/m 12,0 C 12,9 C 6,4 km/h (2 Bft)
20/08/2017 02:49 12,9 C 13,9 C 13,9 C 18,9 C 19,4 C 18,9 C 94 % 13 lf 12 cb 30 cb 85 cb 43 cb 1022,6 hPa 0,0 l/m 4,8 km/h (1 Bft) S-SE 157 0 min 0 mm 0 UV-I 0 W/m 12,0 C 12,9 C 8,0 km/h (2 Bft)
20/08/2017 02:48 13,0 C 13,9 C 13,9 C 18,9 C 19,4 C 18,9 C 94 % 13 lf 12 cb 30 cb 85 cb 43 cb 1022,6 hPa 0,0 l/m 4,8 km/h (1 Bft) S-SE 157 0 min 0 mm 0 UV-I 0 W/m 12,1 C 13,0 C 8,0 km/h (2 Bft)
20/08/2017 02:47 13,0 C 13,9 C 13,9 C 18,9 C 19,4 C 18,9 C 94 % 13 lf 12 cb 30 cb 85 cb 43 cb 1022,6 hPa 0,0 l/m 6,4 km/h (2 Bft) S-SE 157 0 min 0 mm 0 UV-I 0 W/m 12,1 C 13,0 C 8,0 km/h (2 Bft)
20/08/2017 02:46 13,0 C 13,9 C 13,9 C 18,9 C 19,4 C 18,9 C 94 % 13 lf 12 cb 30 cb 85 cb 43 cb 1022,6 hPa 0,0 l/m 4,8 km/h (1 Bft) S-SE 157 0 min 0 mm 0 UV-I 0 W/m 12,1 C 13,0 C 8,0 km/h (2 Bft)
20/08/2017 02:45 13,0 C 13,9 C 13,9 C 18,9 C 19,4 C 18,9 C 94 % 13 lf 12 cb 30 cb 85 cb 43 cb 1022,6 hPa 0,0 l/m 8,0 km/h (2 Bft) S-SE 157 0 min 0 mm 0 UV-I 0 W/m 12,1 C 12,0 C 9,7 km/h (2 Bft)
20/08/2017 02:44 13,0 C 13,9 C 13,9 C 18,9 C 19,4 C 18,9 C 94 % 13 lf 12 cb 30 cb 85 cb 43 cb 1022,5 hPa 0,0 l/m 6,4 km/h (2 Bft) S-SE 157 0 min 0 mm 0 UV-I 0 W/m 12,1 C 13,0 C 8,0 km/h (2 Bft)
20/08/2017 02:43 13,0 C 13,9 C 13,9 C 18,9 C 19,4 C 18,9 C 94 % 12 lf 12 cb 30 cb 85 cb 43 cb 1022,5 hPa 0,0 l/m 6,4 km/h (2 Bft) S-SE 157 0 min 0 mm 0 UV-I 0 W/m 12,1 C 13,0 C 8,0 km/h (2 Bft)
20/08/2017 02:42 13,1 C 13,9 C 13,9 C 18,9 C 19,4 C 18,9 C 94 % 12 lf 12 cb 30 cb 85 cb 43 cb 1022,5 hPa 0,0 l/m 6,4 km/h (2 Bft) S-SE 157 0 min 0 mm 0 UV-I 0 W/m 12,2 C 13,1 C 8,0 km/h (2 Bft)
20/08/2017 02:41 13,1 C 13,9 C 13,9 C 18,9 C 19,4 C 18,9 C 94 % 12 lf 12 cb 30 cb 85 cb 43 cb 1022,5 hPa 0,0 l/m 6,4 km/h (2 Bft) S-SE 157 0 min 0 mm 0 UV-I 0 W/m 12,2 C 13,1 C 8,0 km/h (2 Bft)
20/08/2017 02:40 13,1 C 13,9 C 13,9 C 18,9 C 19,4 C 18,9 C 94 % 12 lf 12 cb 30 cb 85 cb 43 cb 1022,5 hPa 0,0 l/m 8,0 km/h (2 Bft) S-SE 157 0 min 0 mm 0 UV-I 0 W/m 12,2 C 12,1 C 9,7 km/h (2 Bft)
20/08/2017 02:39 13,1 C 13,9 C 13,9 C 18,9 C 19,4 C 18,9 C 94 % 12 lf 12 cb 30 cb 85 cb 43 cb 1022,5 hPa 0,0 l/m 4,8 km/h (1 Bft) S-SE 157 0 min 0 mm 0 UV-I 0 W/m 12,2 C 13,1 C 8,0 km/h (2 Bft)
20/08/2017 02:38 13,1 C 13,9 C 13,9 C 18,9 C 19,4 C 18,9 C 94 % 12 lf 12 cb 30 cb 85 cb 43 cb 1022,5 hPa 0,0 l/m 4,8 km/h (1 Bft) S-SE 157 0 min 0 mm 0 UV-I 0 W/m 12,2 C 13,1 C 6,4 km/h (2 Bft)
20/08/2017 02:37 13,1 C 13,9 C 13,9 C 18,9 C 19,4 C 18,9 C 94 % 12 lf 12 cb 30 cb 85 cb 43 cb 1022,5 hPa 0,0 l/m 4,8 km/h (1 Bft) S-SE 157 0 min 0 mm 0 UV-I 0 W/m 12,2 C 13,1 C 8,0 km/h (2 Bft)
20/08/2017 02:36 13,1 C 13,9 C 13,9 C 18,9 C 19,4 C 18,9 C 94 % 12 lf 12 cb 30 cb 85 cb 43 cb 1022,5 hPa 0,0 l/m 3,2 km/h (1 Bft) SE 135 0 min 0 mm 0 UV-I 0 W/m 12,2 C 13,1 C 4,8 km/h (1 Bft)
20/08/2017 02:35 13,1 C 13,9 C 13,9 C 18,9 C 19,4 C 18,9 C 94 % 12 lf 12 cb 30 cb 85 cb 42 cb 1022,4 hPa 0,0 l/m 4,8 km/h (1 Bft) SE 135 0 min 0 mm 0 UV-I 0 W/m 12,2 C 13,1 C 6,4 km/h (2 Bft)
20/08/2017 02:34 13,1 C 13,9 C 13,9 C 18,9 C 19,4 C 18,9 C 94 % 12 lf 12 cb 30 cb 85 cb 43 cb 1022,4 hPa 0,0 l/m 6,4 km/h (2 Bft) SE 135 0 min 0 mm 0 UV-I 0 W/m 12,2 C 13,1 C 8,0 km/h (2 Bft)
20/08/2017 02:33 13,1 C 13,9 C 13,9 C 18,9 C 19,4 C 18,9 C 94 % 12 lf 12 cb 30 cb 85 cb 43 cb 1022,4 hPa 0,0 l/m 4,8 km/h (1 Bft) SE 135 0 min 0 mm 0 UV-I 0 W/m 12,2 C 13,1 C 6,4 km/h (2 Bft)
20/08/2017 02:32 13,1 C 13,9 C 13,9 C 18,9 C 19,4 C 18,9 C 94 % 12 lf 12 cb 30 cb 85 cb 43 cb 1022,4 hPa 0,0 l/m 3,2 km/h (1 Bft) SE 135 0 min 0 mm 0 UV-I 0 W/m 12,2 C 13,1 C 8,0 km/h (2 Bft)
20/08/2017 02:31 13,1 C 13,9 C 13,9 C 18,9 C 19,4 C 18,9 C 94 % 12 lf 12 cb 30 cb 85 cb 43 cb 1022,5 hPa 0,0 l/m 3,2 km/h (1 Bft) E-SE 112 0 min 0 mm 0 UV-I 0 W/m 12,2 C 13,1 C 4,8 km/h (1 Bft)
20/08/2017 02:30 13,1 C 13,9 C 13,9 C 18,9 C 19,4 C 18,9 C 94 % 12 lf 12 cb 30 cb 85 cb 43 cb 1022,4 hPa 0,0 l/m 6,4 km/h (2 Bft) SE 135 0 min 0 mm 0 UV-I 0 W/m 12,2 C 13,1 C 9,7 km/h (2 Bft)
20/08/2017 02:29 13,1 C 13,9 C 13,9 C 18,9 C 19,4 C 18,9 C 94 % 12 lf 12 cb 30 cb 85 cb 43 cb 1022,4 hPa 0,0 l/m 6,4 km/h (2 Bft) SE 135 0 min 0 mm 0 UV-I 0 W/m 12,2 C 13,1 C 8,0 km/h (2 Bft)
20/08/2017 02:28 13,1 C 13,9 C 13,9 C 18,9 C 19,4 C 18,9 C 94 % 11 lf 12 cb 30 cb 85 cb 43 cb 1022,4 hPa 0,0 l/m 8,0 km/h (2 Bft) SE 135 0 min 0 mm 0 UV-I 0 W/m 12,2 C 12,1 C 8,0 km/h (2 Bft)
20/08/2017 02:27 13,1 C 13,9 C 13,9 C 18,9 C 19,4 C 18,9 C 94 % 11 lf 12 cb 30 cb 85 cb 43 cb 1022,4 hPa 0,0 l/m 6,4 km/h (2 Bft) SE 135 0 min 0 mm 0 UV-I 0 W/m 12,2 C 13,1 C 9,7 km/h (2 Bft)
20/08/2017 02:26 13,1 C 13,3 C 13,9 C 18,9 C 19,4 C 18,9 C 94 % 11 lf 12 cb 30 cb 85 cb 42 cb 1022,4 hPa 0,0 l/m 8,0 km/h (2 Bft) SE 135 0 min 0 mm 0 UV-I 0 W/m 12,2 C 12,1 C 9,7 km/h (2 Bft)
20/08/2017 02:25 13,1 C 13,3 C 13,3 C 18,9 C 19,4 C 18,9 C 94 % 11 lf 12 cb 30 cb 85 cb 42 cb 1022,4 hPa 0,0 l/m 8,0 km/h (2 Bft) SE 135 0 min 0 mm 0 UV-I 0 W/m 12,2 C 12,1 C 9,7 km/h (2 Bft)
20/08/2017 02:24 13,1 C 13,3 C 13,3 C 18,9 C 19,4 C 18,9 C 94 % 11 lf 12 cb 30 cb 85 cb 43 cb 1022,4 hPa 0,0 l/m 8,0 km/h (2 Bft) SE 135 0 min 0 mm 0 UV-I 0 W/m 12,2 C 12,1 C 9,7 km/h (2 Bft)
20/08/2017 02:23 13,1 C 13,3 C 13,3 C 18,9 C 19,4 C 18,9 C 93 % 11 lf 12 cb 30 cb 85 cb 43 cb 1022,4 hPa 0,0 l/m 8,0 km/h (2 Bft) SE 135 0 min 0 mm 0 UV-I 0 W/m 12,0 C 12,1 C 9,7 km/h (2 Bft)
20/08/2017 02:22 13,1 C 13,3 C 13,3 C 18,9 C 19,4 C 18,9 C 93 % 10 lf 12 cb 30 cb 85 cb 43 cb 1022,4 hPa 0,0 l/m 8,0 km/h (2 Bft) SE 135 0 min 0 mm 0 UV-I 0 W/m 12,0 C 12,1 C 9,7 km/h (2 Bft)
20/08/2017 02:21 13,1 C 13,3 C 13,3 C 18,9 C 19,4 C 18,9 C 93 % 10 lf 12 cb 30 cb 85 cb 42 cb 1022,4 hPa 0,0 l/m 8,0 km/h (2 Bft) SE 135 0 min 0 mm 0 UV-I 0 W/m 12,0 C 12,1 C 9,7 km/h (2 Bft)
20/08/2017 02:20 13,1 C 13,3 C 13,3 C 18,9 C 19,4 C 18,9 C 93 % 10 lf 12 cb 30 cb 85 cb 43 cb 1022,3 hPa 0,0 l/m 8,0 km/h (2 Bft) SE 135 0 min 0 mm 0 UV-I 0 W/m 12,0 C 12,1 C 9,7 km/h (2 Bft)
20/08/2017 02:19 13,1 C 13,3 C 13,3 C 18,9 C 19,4 C 18,9 C 93 % 10 lf 12 cb 30 cb 85 cb 42 cb 1022,4 hPa 0,0 l/m 6,4 km/h (2 Bft) SE 135 0 min 0 mm 0 UV-I 0 W/m 12,0 C 13,1 C 8,0 km/h (2 Bft)
20/08/2017 02:18 13,1 C 13,3 C 13,3 C 18,9 C 19,4 C 18,9 C 93 % 9 lf 12 cb 30 cb 85 cb 43 cb 1022,4 hPa 0,0 l/m 6,4 km/h (2 Bft) SE 135 0 min 0 mm 0 UV-I 0 W/m 12,0 C 13,1 C 8,0 km/h (2 Bft)
20/08/2017 02:17 13,1 C 13,3 C 13,3 C 19,4 C 19,4 C 18,9 C 93 % 9 lf 12 cb 30 cb 85 cb 42 cb 1022,4 hPa 0,0 l/m 4,8 km/h (1 Bft) S-SE 157 0 min 0 mm 0 UV-I 0 W/m 12,0 C 13,1 C 8,0 km/h (2 Bft)
20/08/2017 02:16 13,1 C 13,3 C 13,3 C 19,4 C 19,4 C 18,9 C 93 % 9 lf 12 cb 30 cb 85 cb 43 cb 1022,4 hPa 0,0 l/m 6,4 km/h (2 Bft) S-SE 157 0 min 0 mm 0 UV-I 0 W/m 12,0 C 13,1 C 8,0 km/h (2 Bft)
20/08/2017 02:15 13,1 C 13,3 C 13,3 C 19,4 C 19,4 C 18,9 C 92 % 9 lf 12 cb 30 cb 85 cb 42 cb 1022,4 hPa 0,0 l/m 6,4 km/h (2 Bft) S-SE 157 0 min 0 mm 0 UV-I 0 W/m 11,8 C 13,1 C 8,0 km/h (2 Bft)
20/08/2017 02:14 13,1 C 13,3 C 13,3 C 19,4 C 19,4 C 18,9 C 92 % 8 lf 12 cb 30 cb 85 cb 42 cb 1022,3 hPa 0,0 l/m 4,8 km/h (1 Bft) S-SE 157 0 min 0 mm 0 UV-I 0 W/m 11,8 C 13,1 C 6,4 km/h (2 Bft)
20/08/2017 02:13 13,1 C 13,3 C 13,3 C 19,4 C 19,4 C 18,9 C 92 % 8 lf 12 cb 30 cb 85 cb 42 cb 1022,4 hPa 0,0 l/m 4,8 km/h (1 Bft) S-SE 157 0 min 0 mm 0 UV-I 0 W/m 11,8 C 13,1 C 6,4 km/h (2 Bft)
20/08/2017 02:12 13,2 C 13,3 C 13,3 C 19,4 C 19,4 C 18,9 C 92 % 8 lf 12 cb 30 cb 85 cb 42 cb 1022,3 hPa 0,0 l/m 6,4 km/h (2 Bft) S-SE 157 0 min 0 mm 0 UV-I 0 W/m 11,9 C 13,2 C 6,4 km/h (2 Bft)
20/08/2017 02:11 13,2 C 13,3 C 13,3 C 19,4 C 19,4 C 18,9 C 92 % 8 lf 12 cb 30 cb 85 cb 42 cb 1022,3 hPa 0,0 l/m 3,2 km/h (1 Bft) S-SE 157 0 min 0 mm 0 UV-I 0 W/m 11,9 C 13,2 C 4,8 km/h (1 Bft)
20/08/2017 02:10 13,2 C 13,3 C 13,3 C 19,4 C 19,4 C 18,9 C 92 % 7 lf 12 cb 30 cb 85 cb 42 cb 1022,4 hPa 0,0 l/m 3,2 km/h (1 Bft) S-SE 157 0 min 0 mm 0 UV-I 0 W/m 11,9 C 13,2 C 3,2 km/h (1 Bft)
20/08/2017 02:09 13,2 C 13,3 C 13,3 C 19,4 C 19,4 C 18,9 C 92 % 7 lf 12 cb 30 cb 85 cb 42 cb 1022,3 hPa 0,0 l/m 3,2 km/h (1 Bft) S-SE 157 0 min 0 mm 0 UV-I 0 W/m 11,9 C 13,2 C 3,2 km/h (1 Bft)
20/08/2017 02:08 13,3 C 13,3 C 13,3 C 19,4 C 19,4 C 18,9 C 92 % 6 lf 12 cb 30 cb 85 cb 42 cb 1022,3 hPa 0,0 l/m 1,6 km/h (1 Bft) S-SE 157 0 min 0 mm 0 UV-I 0 W/m 12,0 C 13,3 C 3,2 km/h (1 Bft)
20/08/2017 02:07 13,3 C 13,3 C 13,3 C 19,4 C 19,4 C 18,9 C 92 % 6 lf 12 cb 30 cb 85 cb 42 cb 1022,3 hPa 0,0 l/m 1,6 km/h (1 Bft) S-SE 157 0 min 0 mm 0 UV-I 0 W/m 12,0 C 13,3 C 3,2 km/h (1 Bft)
20/08/2017 02:06 13,3 C 13,3 C 13,3 C 19,4 C 19,4 C 18,9 C 92 % 6 lf 12 cb 30 cb 85 cb 42 cb 1022,3 hPa 0,0 l/m 1,6 km/h (1 Bft) S-SE 157 0 min 0 mm 0 UV-I 0 W/m 12,0 C 13,3 C 3,2 km/h (1 Bft)
20/08/2017 02:05 13,3 C 13,3 C 13,3 C 19,4 C 19,4 C 18,9 C 92 % 5 lf 12 cb 30 cb 85 cb 42 cb 1022,3 hPa 0,0 l/m 3,2 km/h (1 Bft) S-SE 157 0 min 0 mm 0 UV-I 0 W/m 12,0 C 13,3 C 3,2 km/h (1 Bft)
20/08/2017 02:04 13,3 C 13,3 C 13,3 C 19,4 C 19,4 C 18,9 C 92 % 5 lf 12 cb 30 cb 85 cb 42 cb 1022,3 hPa 0,0 l/m 3,2 km/h (1 Bft) S-SE 157 0 min 0 mm 0 UV-I 0 W/m 12,0 C 13,3 C 3,2 km/h (1 Bft)
20/08/2017 02:03 13,4 C 13,3 C 13,3 C 19,4 C 19,4 C 18,9 C 92 % 4 lf 12 cb 30 cb 85 cb 42 cb 1022,3 hPa 0,0 l/m 1,6 km/h (1 Bft) S-SE 157 0 min 0 mm 0 UV-I 0 W/m 12,1 C 13,4 C 4,8 km/h (1 Bft)
20/08/2017 02:02 13,4 C 13,3 C 13,3 C 19,4 C 19,4 C 18,9 C 92 % 4 lf 12 cb 30 cb 85 cb 42 cb 1022,3 hPa 0,0 l/m 1,6 km/h (1 Bft) S-SE 157 0 min 0 mm 0 UV-I 0 W/m 12,1 C 13,4 C 3,2 km/h (1 Bft)
20/08/2017 02:01 13,4 C 13,3 C 13,3 C 19,4 C 19,4 C 18,9 C 92 % 4 lf 12 cb 30 cb 85 cb 42 cb 1022,3 hPa 0,0 l/m 1,6 km/h (1 Bft) S-SE 157 0 min 0 mm 0 UV-I 0 W/m 12,1 C 13,4 C 3,2 km/h (1 Bft)
20/08/2017 02:00 13,4 C 13,3 C 13,3 C 19,4 C 19,4 C 18,9 C 92 % 4 lf 12 cb 30 cb 85 cb 42 cb 1022,4 hPa 0,0 l/m 3,2 km/h (1 Bft) S-SE 157 0 min 0 mm 0 UV-I 0 W/m 12,1 C 13,4 C 3,2 km/h (1 Bft)
20/08/2017 01:59 13,4 C 13,9 C 13,9 C 19,4 C 19,4 C 18,9 C 92 % 4 lf 12 cb 30 cb 85 cb 42 cb 1022,3 hPa 0,0 l/m 3,2 km/h (1 Bft) S-SE 157 0 min 0 mm 0 UV-I 0 W/m 12,1 C 13,4 C 6,4 km/h (2 Bft)
20/08/2017 01:58 13,5 C 13,9 C 13,9 C 19,4 C 19,4 C 18,9 C 92 % 4 lf 12 cb 30 cb 85 cb 42 cb 1022,3 hPa 0,0 l/m 3,2 km/h (1 Bft) S-SE 157 0 min 0 mm 0 UV-I 0 W/m 12,2 C 13,5 C 3,2 km/h (1 Bft)
20/08/2017 01:57 13,6 C 13,9 C 13,9 C 19,4 C 19,4 C 18,9 C 92 % 4 lf 12 cb 30 cb 85 cb 42 cb 1022,4 hPa 0,0 l/m 3,2 km/h (1 Bft) S-SE 157 0 min 0 mm 0 UV-I 0 W/m 12,3 C 13,6 C 6,4 km/h (2 Bft)
20/08/2017 01:56 13,6 C 13,9 C 13,9 C 19,4 C 19,4 C 18,9 C 92 % 4 lf 12 cb 30 cb 85 cb 42 cb 1022,4 hPa 0,0 l/m 3,2 km/h (1 Bft) S-SE 157 0 min 0 mm 0 UV-I 0 W/m 12,3 C 13,6 C 3,2 km/h (1 Bft)
20/08/2017 01:55 13,6 C 13,9 C 13,9 C 19,4 C 19,4 C 18,9 C 92 % 4 lf 12 cb 30 cb 85 cb 42 cb 1022,4 hPa 0,0 l/m 3,2 km/h (1 Bft) S-SE 157 0 min 0 mm 0 UV-I 0 W/m 12,3 C 13,6 C 6,4 km/h (2 Bft)
20/08/2017 01:54 13,6 C 13,9 C 13,9 C 19,4 C 19,4 C 18,9 C 92 % 3 lf 12 cb 30 cb 85 cb 42 cb 1022,4 hPa 0,0 l/m 3,2 km/h (1 Bft) S-SE 157 0 min 0 mm 0 UV-I 0 W/m 12,3 C 13,6 C 8,0 km/h (2 Bft)
20/08/2017 01:53 13,7 C 13,9 C 13,9 C 19,4 C 19,4 C 18,9 C 92 % 3 lf 12 cb 30 cb 85 cb 42 cb 1022,3 hPa 0,0 l/m 3,2 km/h (1 Bft) S-SE 157 0 min 0 mm 0 UV-I 0 W/m 12,4 C 13,7 C 6,4 km/h (2 Bft)
20/08/2017 01:52 13,7 C 13,9 C 13,9 C 19,4 C 19,4 C 18,9 C 92 % 3 lf 12 cb 30 cb 85 cb 42 cb 1022,4 hPa 0,0 l/m 3,2 km/h (1 Bft) S-SE 157 0 min 0 mm 0 UV-I 0 W/m 12,4 C 13,7 C 4,8 km/h (1 Bft)
20/08/2017 01:51 13,7 C 13,9 C 13,9 C 19,4 C 19,4 C 18,9 C 92 % 3 lf 12 cb 30 cb 85 cb 42 cb 1022,4 hPa 0,0 l/m 1,6 km/h (1 Bft) S-SE 157 0 min 0 mm 0 UV-I 0 W/m 12,4 C 13,7 C 3,2 km/h (1 Bft)
20/08/2017 01:50 13,7 C 13,9 C 13,9 C 19,4 C 19,4 C 18,9 C 92 % 3 lf 12 cb 30 cb 85 cb 42 cb 1022,4 hPa 0,0 l/m 3,2 km/h (1 Bft) S-SE 157 0 min 0 mm 0 UV-I 0 W/m 12,4 C 13,7 C 6,4 km/h (2 Bft)
20/08/2017 01:49 13,7 C 13,9 C 13,9 C 19,4 C 19,4 C 18,9 C 92 % 3 lf 12 cb 30 cb 85 cb 42 cb 1022,4 hPa 0,0 l/m 3,2 km/h (1 Bft) S 180 0 min 0 mm 0 UV-I 0 W/m 12,4 C 13,7 C 6,4 km/h (2 Bft)
20/08/2017 01:48 13,8 C 13,9 C 13,9 C 19,4 C 19,4 C 18,9 C 92 % 3 lf 12 cb 30 cb 85 cb 42 cb 1022,3 hPa 0,0 l/m 3,2 km/h (1 Bft) S 180 0 min 0 mm 0 UV-I 0 W/m 12,5 C 13,8 C 6,4 km/h (2 Bft)
20/08/2017 01:47 13,8 C 13,9 C 13,9 C 19,4 C 19,4 C 18,9 C 92 % 3 lf 12 cb 30 cb 85 cb 42 cb 1022,4 hPa 0,0 l/m 3,2 km/h (1 Bft) S 180 0 min 0 mm 0 UV-I 0 W/m 12,5 C 13,8 C 4,8 km/h (1 Bft)
20/08/2017 01:46 13,8 C 13,9 C 13,9 C 19,4 C 19,4 C 18,9 C 92 % 3 lf 12 cb 30 cb 85 cb 42 cb 1022,4 hPa 0,0 l/m 3,2 km/h (1 Bft) S 180 0 min 0 mm 0 UV-I 0 W/m 12,5 C 13,8 C 3,2 km/h (1 Bft)
20/08/2017 01:45 13,8 C 13,9 C 13,9 C 19,4 C 19,4 C 18,9 C 92 % 3 lf 12 cb 30 cb 85 cb 42 cb 1022,4 hPa 0,0 l/m 3,2 km/h (1 Bft) S 180 0 min 0 mm 0 UV-I 0 W/m 12,5 C 13,8 C 6,4 km/h (2 Bft)
20/08/2017 01:44 13,8 C 13,9 C 13,9 C 19,4 C 19,4 C 18,9 C 92 % 3 lf 12 cb 30 cb 85 cb 42 cb 1022,4 hPa 0,0 l/m 3,2 km/h (1 Bft) S 180 0 min 0 mm 0 UV-I 0 W/m 12,5 C 13,8 C 6,4 km/h (2 Bft)
20/08/2017 01:43 13,8 C 13,9 C 13,9 C 19,4 C 19,4 C 18,9 C 91 % 2 lf 12 cb 30 cb 85 cb 42 cb 1022,3 hPa 0,0 l/m 3,2 km/h (1 Bft) S 180 0 min 0 mm 0 UV-I 0 W/m 12,4 C 13,8 C 6,4 km/h (2 Bft)
20/08/2017 01:42 13,8 C 13,9 C 13,9 C 19,4 C 19,4 C 18,9 C 92 % 2 lf 12 cb 30 cb 85 cb 42 cb 1022,3 hPa 0,0 l/m 3,2 km/h (1 Bft) S 180 0 min 0 mm 0 UV-I 0 W/m 12,5 C 13,8 C 6,4 km/h (2 Bft)
20/08/2017 01:41 13,8 C 14,4 C 13,9 C 19,4 C 19,4 C 18,9 C 92 % 2 lf 12 cb 30 cb 85 cb 42 cb 1022,4 hPa 0,0 l/m 3,2 km/h (1 Bft) S 180 0 min 0 mm 0 UV-I 0 W/m 12,5 C 13,8 C 4,8 km/h (1 Bft)
20/08/2017 01:40 13,8 C 14,4 C 14,4 C 19,4 C 19,4 C 18,9 C 91 % 2 lf 12 cb 30 cb 85 cb 42 cb 1022,3 hPa 0,0 l/m 4,8 km/h (1 Bft) S 180 0 min 0 mm 0 UV-I 0 W/m 12,4 C 13,8 C 6,4 km/h (2 Bft)
20/08/2017 01:39 13,9 C 14,4 C 14,4 C 19,4 C 19,4 C 18,9 C 91 % 2 lf 12 cb 30 cb 85 cb 42 cb 1022,3 hPa 0,0 l/m 3,2 km/h (1 Bft) S-SO 202 0 min 0 mm 0 UV-I 0 W/m 12,5 C 13,9 C 6,4 km/h (2 Bft)
20/08/2017 01:38 13,9 C 14,4 C 14,4 C 19,4 C 19,4 C 18,9 C 91 % 2 lf 12 cb 30 cb 85 cb 42 cb 1022,3 hPa 0,0 l/m 3,2 km/h (1 Bft) S-SO 202 0 min 0 mm 0 UV-I 0 W/m 12,5 C 13,9 C 3,2 km/h (1 Bft)
20/08/2017 01:37 13,9 C 14,4 C 14,4 C 19,4 C 19,4 C 18,9 C 91 % 2 lf 12 cb 30 cb 85 cb 42 cb 1022,3 hPa 0,0 l/m 3,2 km/h (1 Bft) S-SO 202 0 min 0 mm 0 UV-I 0 W/m 12,5 C 13,9 C 4,8 km/h (1 Bft)
20/08/2017 01:36 13,9 C 14,4 C 14,4 C 19,4 C 19,4 C 18,9 C 91 % 2 lf 12 cb 30 cb 85 cb 42 cb 1022,4 hPa 0,0 l/m 3,2 km/h (1 Bft) S-SO 202 0 min 0 mm 0 UV-I 0 W/m 12,5 C 13,9 C 6,4 km/h (2 Bft)
20/08/2017 01:35 13,9 C 14,4 C 14,4 C 19,4 C 19,4 C 18,9 C 91 % 1 lf 12 cb 30 cb 85 cb 42 cb 1022,3 hPa 0,0 l/m 3,2 km/h (1 Bft) S-SO 202 0 min 0 mm 0 UV-I 0 W/m 12,5 C 13,9 C 4,8 km/h (1 Bft)
20/08/2017 01:34 13,9 C 14,4 C 14,4 C 19,4 C 19,4 C 18,9 C 91 % 1 lf 12 cb 30 cb 85 cb 42 cb 1022,4 hPa 0,0 l/m 4,8 km/h (1 Bft) S-SO 202 0 min 0 mm 0 UV-I 0 W/m 12,5 C 13,9 C 6,4 km/h (2 Bft)
20/08/2017 01:33 13,9 C 14,4 C 14,4 C 19,4 C 19,4 C 18,9 C 91 % 1 lf 12 cb 30 cb 85 cb 42 cb 1022,3 hPa 0,0 l/m 6,4 km/h (2 Bft) S-SO 202 0 min 0 mm 0 UV-I 0 W/m 12,5 C 13,9 C 8,0 km/h (2 Bft)
20/08/2017 01:32 13,9 C 14,4 C 14,4 C 19,4 C 19,4 C 18,9 C 91 % 1 lf 12 cb 30 cb 85 cb 42 cb 1022,3 hPa 0,0 l/m 3,2 km/h (1 Bft) S-SO 202 0 min 0 mm 0 UV-I 0 W/m 12,5 C 13,9 C 6,4 km/h (2 Bft)
20/08/2017 01:31 13,9 C 14,4 C 14,4 C 19,4 C 19,4 C 18,9 C 91 % 1 lf 12 cb 30 cb 85 cb 42 cb 1022,3 hPa 0,0 l/m 3,2 km/h (1 Bft) S-SO 202 0 min 0 mm 0 UV-I 0 W/m 12,5 C 13,9 C 6,4 km/h (2 Bft)
20/08/2017 01:30 13,9 C 14,4 C 14,4 C 19,4 C 19,4 C 18,9 C 91 % 1 lf 12 cb 30 cb 85 cb 42 cb 1022,3 hPa 0,0 l/m 4,8 km/h (1 Bft) S-SO 202 0 min 0 mm 0 UV-I 0 W/m 12,5 C 13,9 C 6,4 km/h (2 Bft)
20/08/2017 01:29 14,0 C 14,4 C 14,4 C 19,4 C 19,4 C 18,9 C 91 % 1 lf 12 cb 30 cb 85 cb 42 cb 1022,3 hPa 0,0 l/m 4,8 km/h (1 Bft) S-SO 202 0 min 0 mm 0 UV-I 0 W/m 12,6 C 14,0 C 6,4 km/h (2 Bft)
20/08/2017 01:28 14,0 C 14,4 C 14,4 C 19,4 C 19,4 C 18,9 C 91 % 1 lf 12 cb 30 cb 85 cb 42 cb 1022,3 hPa 0,0 l/m 3,2 km/h (1 Bft) SO 225 0 min 0 mm 0 UV-I 0 W/m 12,6 C 14,0 C 6,4 km/h (2 Bft)
20/08/2017 01:27 14,0 C 14,4 C 14,4 C 19,4 C 19,4 C 18,9 C 91 % 1 lf 12 cb 30 cb 85 cb 42 cb 1022,3 hPa 0,0 l/m 3,2 km/h (1 Bft) SO 225 0 min 0 mm 0 UV-I 0 W/m 12,6 C 14,0 C 4,8 km/h (1 Bft)
20/08/2017 01:26 14,0 C 14,4 C 14,4 C 19,4 C 19,4 C 18,9 C 92 % 1 lf 12 cb 30 cb 85 cb 42 cb 1022,4 hPa 0,0 l/m 3,2 km/h (1 Bft) SO 225 0 min 0 mm 0 UV-I 0 W/m 12,7 C 14,0 C 6,4 km/h (2 Bft)
20/08/2017 01:25 14,1 C 14,4 C 14,4 C 19,4 C 19,4 C 18,9 C 92 % 1 lf 12 cb 30 cb 85 cb 42 cb 1022,3 hPa 0,0 l/m 3,2 km/h (1 Bft) SO 225 0 min 0 mm 0 UV-I 0 W/m 12,8 C 14,1 C 3,2 km/h (1 Bft)
20/08/2017 01:24 14,1 C 14,4 C 14,4 C 19,4 C 19,4 C 18,9 C 92 % 1 lf 12 cb 30 cb 85 cb 42 cb 1022,3 hPa 0,0 l/m 1,6 km/h (1 Bft) SO 225 0 min 0 mm 0 UV-I 0 W/m 12,8 C 14,1 C 3,2 km/h (1 Bft)
20/08/2017 01:23 14,1 C 14,4 C 14,4 C 19,4 C 19,4 C 18,9 C 92 % 1 lf 12 cb 30 cb 85 cb 42 cb 1022,3 hPa 0,0 l/m 3,2 km/h (1 Bft) SO 225 0 min 0 mm 0 UV-I 0 W/m 12,8 C 14,1 C 3,2 km/h (1 Bft)
20/08/2017 01:22 14,1 C 15,0 C 14,4 C 19,4 C 19,4 C 18,9 C 92 % 1 lf 12 cb 30 cb 85 cb 42 cb 1022,3 hPa 0,0 l/m 1,6 km/h (1 Bft) SO 225 0 min 0 mm 0 UV-I 0 W/m 12,8 C 14,1 C 4,8 km/h (1 Bft)
20/08/2017 01:21 14,1 C 15,0 C 15,0 C 19,4 C 19,4 C 18,9 C 92 % 1 lf 12 cb 30 cb 85 cb 42 cb 1022,3 hPa 0,0 l/m 3,2 km/h (1 Bft) SO 225 0 min 0 mm 0 UV-I 0 W/m 12,8 C 14,1 C 6,4 km/h (2 Bft)
20/08/2017 01:20 14,1 C 15,0 C 15,0 C 19,4 C 19,4 C 18,9 C 92 % 0 lf 12 cb 30 cb 85 cb 42 cb 1022,3 hPa 0,0 l/m 3,2 km/h (1 Bft) SO 225 0 min 0 mm 0 UV-I 0 W/m 12,8 C 14,1 C 6,4 km/h (2 Bft)
20/08/2017 01:19 14,0 C 15,0 C 15,0 C 19,4 C 19,4 C 18,9 C 92 % 0 lf 12 cb 30 cb 85 cb 42 cb 1022,3 hPa 0,0 l/m 1,6 km/h (1 Bft) SO 225 0 min 0 mm 0 UV-I 0 W/m 12,7 C 14,0 C 4,8 km/h (1 Bft)
20/08/2017 01:18 14,0 C 15,0 C 15,0 C 19,4 C 19,4 C 18,9 C 92 % 0 lf 12 cb 30 cb 85 cb 42 cb 1022,3 hPa 0,0 l/m 0,0 km/h (0 Bft) SO 225 0 min 0 mm 0 UV-I 0 W/m 12,7 C 14,0 C 1,6 km/h (1 Bft)
20/08/2017 01:17 14,1 C 15,0 C 15,0 C 19,4 C 19,4 C 18,9 C 92 % 0 lf 12 cb 30 cb 85 cb 42 cb 1022,3 hPa 0,0 l/m 1,6 km/h (1 Bft) SO 225 0 min 0 mm 0 UV-I 0 W/m 12,8 C 14,1 C 4,8 km/h (1 Bft)
20/08/2017 01:16 14,0 C 15,0 C 15,0 C 19,4 C 19,4 C 18,9 C 92 % 0 lf 12 cb 30 cb 85 cb 42 cb 1022,3 hPa 0,0 l/m 3,2 km/h (1 Bft) SO 225 0 min 0 mm 0 UV-I 0 W/m 12,7 C 14,0 C 3,2 km/h (1 Bft)
20/08/2017 01:15 14,0 C 15,0 C 15,0 C 19,4 C 19,4 C 18,9 C 92 % 1 lf 12 cb 30 cb 85 cb 42 cb 1022,3 hPa 0,0 l/m 3,2 km/h (1 Bft) SO 225 0 min 0 mm 0 UV-I 0 W/m 12,7 C 14,0 C 3,2 km/h (1 Bft)
20/08/2017 01:14 14,0 C 15,0 C 15,0 C 19,4 C 19,4 C 18,9 C 92 % 1 lf 12 cb 30 cb 85 cb 42 cb 1022,3 hPa 0,0 l/m 3,2 km/h (1 Bft) SO 225 0 min 0 mm 0 UV-I 0 W/m 12,7 C 14,0 C 6,4 km/h (2 Bft)
20/08/2017 01:13 14,0 C 15,0 C 15,0 C 19,4 C 19,4 C 18,9 C 92 % 1 lf 12 cb 30 cb 85 cb 42 cb 1022,3 hPa 0,0 l/m 3,2 km/h (1 Bft) SO 225 0 min 0 mm 0 UV-I 0 W/m 12,7 C 14,0 C 6,4 km/h (2 Bft)
20/08/2017 01:12 14,1 C 15,0 C 15,0 C 19,4 C 19,4 C 18,9 C 92 % 1 lf 12 cb 30 cb 85 cb 42 cb 1022,3 hPa 0,0 l/m 3,2 km/h (1 Bft) SO 225 0 min 0 mm 0 UV-I 0 W/m 12,8 C 14,1 C 6,4 km/h (2 Bft)
20/08/2017 01:11 14,0 C 15,0 C 15,0 C 19,4 C 19,4 C 18,9 C 92 % 1 lf 12 cb 30 cb 85 cb 42 cb 1022,3 hPa 0,0 l/m 1,6 km/h (1 Bft) S 180 0 min 0 mm 0 UV-I 0 W/m 12,7 C 14,0 C 3,2 km/h (1 Bft)
20/08/2017 01:10 14,0 C 15,0 C 15,0 C 19,4 C 19,4 C 18,9 C 92 % 1 lf 12 cb 30 cb 85 cb 42 cb 1022,3 hPa 0,0 l/m 1,6 km/h (1 Bft) S 180 0 min 0 mm 0 UV-I 0 W/m 12,7 C 14,0 C 4,8 km/h (1 Bft)
20/08/2017 01:09 14,0 C 15,0 C 15,0 C 19,4 C 19,4 C 18,9 C 92 % 1 lf 12 cb 30 cb 85 cb 42 cb 1022,3 hPa 0,0 l/m 0,0 km/h (0 Bft) S 180 0 min 0 mm 0 UV-I 0 W/m 12,7 C 14,0 C 3,2 km/h (1 Bft)
20/08/2017 01:08 14,0 C 15,0 C 15,0 C 19,4 C 19,4 C 18,9 C 92 % 1 lf 12 cb 30 cb 85 cb 42 cb 1022,3 hPa 0,0 l/m 1,6 km/h (1 Bft) S 180 0 min 0 mm 0 UV-I 0 W/m 12,7 C 14,0 C 1,6 km/h (1 Bft)
20/08/2017 01:07 14,1 C 15,0 C 15,0 C 19,4 C 19,4 C 18,9 C 92 % 2 lf 12 cb 30 cb 85 cb 42 cb 1022,4 hPa 0,0 l/m 3,2 km/h (1 Bft) S 180 0 min 0 mm 0 UV-I 0 W/m 12,8 C 14,1 C 3,2 km/h (1 Bft)
20/08/2017 01:06 14,1 C 15,0 C 15,0 C 19,4 C 19,4 C 18,9 C 92 % 2 lf 12 cb 30 cb 85 cb 42 cb 1022,4 hPa 0,0 l/m 1,6 km/h (1 Bft) S 180 0 min 0 mm 0 UV-I 0 W/m 12,8 C 14,1 C 3,2 km/h (1 Bft)
20/08/2017 01:05 14,1 C 15,0 C 15,0 C 19,4 C 19,4 C 18,9 C 92 % 2 lf 12 cb 30 cb 85 cb 42 cb 1022,4 hPa 0,0 l/m 0,0 km/h (0 Bft) N 0 0 min 0 mm 0 UV-I 0 W/m 12,8 C 14,1 C 0,0 km/h (0 Bft)
20/08/2017 01:04 14,1 C 15,0 C 15,0 C 19,4 C 19,4 C 18,9 C 92 % 2 lf 12 cb 30 cb 85 cb 42 cb 1022,4 hPa 0,0 l/m 0,0 km/h (0 Bft) N 0 0 min 0 mm 0 UV-I 0 W/m 12,8 C 14,1 C 0,0 km/h (0 Bft)
20/08/2017 01:03 14,1 C 14,4 C 14,4 C 19,4 C 19,4 C 18,9 C 92 % 2 lf 12 cb 30 cb 85 cb 42 cb 1022,4 hPa 0,0 l/m 0,0 km/h (0 Bft) N 0 0 min 0 mm 0 UV-I 0 W/m 12,8 C 14,1 C 0,0 km/h (0 Bft)
20/08/2017 01:02 14,1 C 15,0 C 14,4 C 19,4 C 19,4 C 18,9 C 92 % 2 lf 12 cb 30 cb 85 cb 42 cb 1022,4 hPa 0,0 l/m 0,0 km/h (0 Bft) N 0 0 min 0 mm 0 UV-I 0 W/m 12,8 C 14,1 C 0,0 km/h (0 Bft)
20/08/2017 01:01 14,1 C 15,0 C 15,0 C 19,4 C 19,4 C 18,9 C 92 % 2 lf 12 cb 30 cb 85 cb 42 cb 1022,4 hPa 0,0 l/m 0,0 km/h (0 Bft) N 0 0 min 0 mm 0 UV-I 0 W/m 12,8 C 14,1 C 0,0 km/h (0 Bft)
20/08/2017 01:00 14,1 C 15,0 C 15,0 C 19,4 C 19,4 C 18,9 C 92 % 2 lf 12 cb 30 cb 85 cb 42 cb 1022,4 hPa 0,0 l/m 0,0 km/h (0 Bft) N 0 0 min 0 mm 0 UV-I 0 W/m 12,8 C 14,1 C 0,0 km/h (0 Bft)
20/08/2017 00:59 14,1 C 14,4 C 15,0 C 19,4 C 19,4 C 18,9 C 92 % 2 lf 12 cb 30 cb 85 cb 42 cb 1022,3 hPa 0,0 l/m 0,0 km/h (0 Bft) N 0 0 min 0 mm 0 UV-I 0 W/m 12,8 C 14,1 C 0,0 km/h (0 Bft)
20/08/2017 00:58 14,1 C 14,4 C 14,4 C 19,4 C 19,4 C 18,9 C 92 % 2 lf 12 cb 30 cb 85 cb 42 cb 1022,3 hPa 0,0 l/m 0,0 km/h (0 Bft) N 0 0 min 0 mm 0 UV-I 0 W/m 12,8 C 14,1 C 0,0 km/h (0 Bft)
20/08/2017 00:57 14,1 C 14,4 C 14,4 C 19,4 C 19,4 C 18,9 C 92 % 2 lf 12 cb 30 cb 85 cb 42 cb 1022,4 hPa 0,0 l/m 0,0 km/h (0 Bft) N 0 0 min 0 mm 0 UV-I 0 W/m 12,8 C 14,1 C 0,0 km/h (0 Bft)
20/08/2017 00:56 14,1 C 14,4 C 14,4 C 19,4 C 19,4 C 18,9 C 92 % 2 lf 12 cb 30 cb 85 cb 42 cb 1022,3 hPa 0,0 l/m 0,0 km/h (0 Bft) N 0 0 min 0 mm 0 UV-I 0 W/m 12,8 C 14,1 C 0,0 km/h (0 Bft)
20/08/2017 00:55 14,1 C 14,4 C 14,4 C 19,4 C 19,4 C 18,9 C 92 % 2 lf 12 cb 30 cb 85 cb 42 cb 1022,2 hPa 0,0 l/m 1,6 km/h (1 Bft) S 180 0 min 0 mm 0 UV-I 0 W/m 12,8 C 14,1 C 3,2 km/h (1 Bft)
20/08/2017 00:54 14,1 C 14,4 C 14,4 C 19,4 C 19,4 C 18,9 C 92 % 2 lf 12 cb 30 cb 85 cb 42 cb 1022,3 hPa 0,0 l/m 3,2 km/h (1 Bft) S 180 0 min 0 mm 0 UV-I 0 W/m 12,8 C 14,1 C 4,8 km/h (1 Bft)
20/08/2017 00:53 14,1 C 14,4 C 14,4 C 19,4 C 19,4 C 18,9 C 92 % 2 lf 12 cb 30 cb 85 cb 42 cb 1022,3 hPa 0,0 l/m 6,4 km/h (2 Bft) S 180 0 min 0 mm 0 UV-I 0 W/m 12,8 C 14,1 C 8,0 km/h (2 Bft)
20/08/2017 00:52 14,1 C 14,4 C 14,4 C 19,4 C 19,4 C 18,9 C 92 % 2 lf 12 cb 30 cb 85 cb 42 cb 1022,2 hPa 0,0 l/m 4,8 km/h (1 Bft) S 180 0 min 0 mm 0 UV-I 0 W/m 12,8 C 14,1 C 6,4 km/h (2 Bft)
20/08/2017 00:51 14,1 C 14,4 C 14,4 C 19,4 C 19,4 C 18,9 C 92 % 3 lf 12 cb 30 cb 85 cb 42 cb 1022,3 hPa 0,0 l/m 6,4 km/h (2 Bft) S 180 0 min 0 mm 0 UV-I 0 W/m 12,8 C 14,1 C 6,4 km/h (2 Bft)
20/08/2017 00:50 14,1 C 14,4 C 14,4 C 19,4 C 19,4 C 18,9 C 92 % 3 lf 12 cb 30 cb 85 cb 42 cb 1022,2 hPa 0,0 l/m 6,4 km/h (2 Bft) S 180 0 min 0 mm 0 UV-I 0 W/m 12,8 C 14,1 C 6,4 km/h (2 Bft)
20/08/2017 00:49 14,2 C 14,4 C 14,4 C 19,4 C 19,4 C 18,9 C 92 % 3 lf 12 cb 30 cb 85 cb 42 cb 1022,2 hPa 0,0 l/m 4,8 km/h (1 Bft) S 180 0 min 0 mm 0 UV-I 0 W/m 12,9 C 14,2 C 6,4 km/h (2 Bft)
20/08/2017 00:48 14,2 C 14,4 C 14,4 C 19,4 C 19,4 C 18,9 C 92 % 3 lf 12 cb 30 cb 85 cb 42 cb 1022,2 hPa 0,0 l/m 4,8 km/h (1 Bft) S 180 0 min 0 mm 0 UV-I 0 W/m 12,9 C 14,2 C 6,4 km/h (2 Bft)
20/08/2017 00:47 14,2 C 14,4 C 14,4 C 19,4 C 19,4 C 18,9 C 92 % 3 lf 12 cb 30 cb 85 cb 42 cb 1022,2 hPa 0,0 l/m 4,8 km/h (1 Bft) S 180 0 min 0 mm 0 UV-I 0 W/m 12,9 C 14,2 C 6,4 km/h (2 Bft)
20/08/2017 00:46 14,2 C 14,4 C 14,4 C 19,4 C 19,4 C 18,9 C 92 % 2 lf 12 cb 30 cb 85 cb 42 cb 1022,2 hPa 0,0 l/m 3,2 km/h (1 Bft) S 180 0 min 0 mm 0 UV-I 0 W/m 12,9 C 14,2 C 6,4 km/h (2 Bft)
20/08/2017 00:45 14,2 C 14,4 C 14,4 C 19,4 C 19,4 C 18,9 C 92 % 2 lf 12 cb 30 cb 85 cb 42 cb 1022,1 hPa 0,0 l/m 3,2 km/h (1 Bft) S 180 0 min 0 mm 0 UV-I 0 W/m 12,9 C 14,2 C 6,4 km/h (2 Bft)
20/08/2017 00:44 14,2 C 14,4 C 14,4 C 19,4 C 19,4 C 18,9 C 92 % 2 lf 12 cb 30 cb 85 cb 42 cb 1022,2 hPa 0,0 l/m 1,6 km/h (1 Bft) S 180 0 min 0 mm 0 UV-I 0 W/m 12,9 C 14,2 C 3,2 km/h (1 Bft)
20/08/2017 00:43 14,2 C 14,4 C 14,4 C 19,4 C 19,4 C 18,9 C 92 % 2 lf 12 cb 30 cb 85 cb 42 cb 1022,1 hPa 0,0 l/m 1,6 km/h (1 Bft) S 180 0 min 0 mm 0 UV-I 0 W/m 12,9 C 14,2 C 3,2 km/h (1 Bft)
20/08/2017 00:42 14,2 C 14,4 C 14,4 C 19,4 C 19,4 C 18,9 C 92 % 2 lf 12 cb 30 cb 85 cb 42 cb 1022,2 hPa 0,0 l/m 1,6 km/h (1 Bft) S 180 0 min 0 mm 0 UV-I 0 W/m 12,9 C 14,2 C 3,2 km/h (1 Bft)
20/08/2017 00:41 14,2 C 14,4 C 14,4 C 19,4 C 19,4 C 18,9 C 92 % 2 lf 12 cb 30 cb 85 cb 42 cb 1022,1 hPa 0,0 l/m 1,6 km/h (1 Bft) S 180 0 min 0 mm 0 UV-I 0 W/m 12,9 C 14,2 C 3,2 km/h (1 Bft)
20/08/2017 00:40 14,2 C 14,4 C 14,4 C 19,4 C 19,4 C 18,9 C 92 % 2 lf 12 cb 30 cb 85 cb 42 cb 1022,1 hPa 0,0 l/m 3,2 km/h (1 Bft) S 180 0 min 0 mm 0 UV-I 0 W/m 12,9 C 14,2 C 4,8 km/h (1 Bft)
20/08/2017 00:39 14,2 C 14,4 C 14,4 C 19,4 C 19,4 C 18,9 C 92 % 2 lf 12 cb 30 cb 85 cb 42 cb 1022,1 hPa 0,0 l/m 6,4 km/h (2 Bft) SO 225 0 min 0 mm 0 UV-I 0 W/m 12,9 C 14,2 C 8,0 km/h (2 Bft)
20/08/2017 00:38 14,2 C 15,0 C 14,4 C 19,4 C 19,4 C 18,9 C 92 % 2 lf 12 cb 30 cb 85 cb 42 cb 1022,1 hPa 0,0 l/m 3,2 km/h (1 Bft) SO 225 0 min 0 mm 0 UV-I 0 W/m 12,9 C 14,2 C 4,8 km/h (1 Bft)
20/08/2017 00:37 14,2 C 15,0 C 15,0 C 19,4 C 19,4 C 18,9 C 92 % 2 lf 12 cb 30 cb 85 cb 42 cb 1022,0 hPa 0,0 l/m 1,6 km/h (1 Bft) SO 225 0 min 0 mm 0 UV-I 0 W/m 12,9 C 14,2 C 3,2 km/h (1 Bft)
20/08/2017 00:36 14,3 C 15,0 C 15,0 C 19,4 C 19,4 C 18,9 C 92 % 2 lf 12 cb 30 cb 85 cb 42 cb 1022,1 hPa 0,0 l/m 1,6 km/h (1 Bft) SO 225 0 min 0 mm 0 UV-I 0 W/m 13,0 C 14,3 C 3,2 km/h (1 Bft)
20/08/2017 00:35 14,3 C 15,0 C 15,0 C 19,4 C 19,4 C 18,9 C 92 % 2 lf 12 cb 30 cb 85 cb 42 cb 1022,1 hPa 0,0 l/m 4,8 km/h (1 Bft) SO 225 0 min 0 mm 0 UV-I 0 W/m 13,0 C 14,3 C 6,4 km/h (2 Bft)
20/08/2017 00:34 14,3 C 15,0 C 15,0 C 19,4 C 19,4 C 18,9 C 92 % 2 lf 12 cb 30 cb 85 cb 42 cb 1022,1 hPa 0,0 l/m 1,6 km/h (1 Bft) O-SO 247 0 min 0 mm 0 UV-I 0 W/m 13,0 C 14,3 C 4,8 km/h (1 Bft)
20/08/2017 00:33 14,3 C 15,0 C 15,0 C 19,4 C 19,4 C 18,9 C 92 % 2 lf 12 cb 30 cb 85 cb 42 cb 1022,1 hPa 0,0 l/m 1,6 km/h (1 Bft) O-SO 247 0 min 0 mm 0 UV-I 0 W/m 13,0 C 14,3 C 3,2 km/h (1 Bft)
20/08/2017 00:32 14,3 C 15,0 C 15,0 C 19,4 C 19,4 C 18,9 C 92 % 2 lf 12 cb 30 cb 85 cb 42 cb 1022,0 hPa 0,0 l/m 1,6 km/h (1 Bft) O-SO 247 0 min 0 mm 0 UV-I 0 W/m 13,0 C 14,3 C 6,4 km/h (2 Bft)
20/08/2017 00:31 14,3 C 15,0 C 15,0 C 19,4 C 19,4 C 18,9 C 92 % 2 lf 12 cb 30 cb 85 cb 42 cb 1022,1 hPa 0,0 l/m 1,6 km/h (1 Bft) S 180 0 min 0 mm 0 UV-I 0 W/m 13,0 C 14,3 C 3,2 km/h (1 Bft)
20/08/2017 00:30 14,3 C 15,0 C 15,0 C 19,4 C 19,4 C 18,9 C 92 % 2 lf 12 cb 30 cb 85 cb 42 cb 1022,0 hPa 0,0 l/m 3,2 km/h (1 Bft) S 180 0 min 0 mm 0 UV-I 0 W/m 13,0 C 14,3 C 4,8 km/h (1 Bft)
20/08/2017 00:29 14,3 C 15,0 C 15,0 C 19,4 C 19,4 C 18,9 C 92 % 1 lf 12 cb 30 cb 85 cb 42 cb 1021,9 hPa 0,0 l/m 3,2 km/h (1 Bft) S 180 0 min 0 mm 0 UV-I 0 W/m 13,0 C 14,3 C 3,2 km/h (1 Bft)
20/08/2017 00:28 14,3 C 15,0 C 15,0 C 19,4 C 19,4 C 18,9 C 92 % 1 lf 12 cb 30 cb 85 cb 42 cb 1022,0 hPa 0,0 l/m 3,2 km/h (1 Bft) S 180 0 min 0 mm 0 UV-I 0 W/m 13,0 C 14,3 C 6,4 km/h (2 Bft)
20/08/2017 00:27 14,3 C 15,0 C 15,0 C 19,4 C 19,4 C 18,9 C 92 % 1 lf 12 cb 30 cb 85 cb 42 cb 1022,0 hPa 0,0 l/m 4,8 km/h (1 Bft) S 180 0 min 0 mm 0 UV-I 0 W/m 13,0 C 14,3 C 6,4 km/h (2 Bft)
20/08/2017 00:26 14,3 C 15,0 C 15,0 C 19,4 C 19,4 C 18,9 C 92 % 1 lf 12 cb 30 cb 85 cb 42 cb 1022,0 hPa 0,0 l/m 4,8 km/h (1 Bft) S 180 0 min 0 mm 0 UV-I 0 W/m 13,0 C 14,3 C 6,4 km/h (2 Bft)
20/08/2017 00:25 14,3 C 15,0 C 15,0 C 19,4 C 19,4 C 18,9 C 92 % 1 lf 12 cb 30 cb 85 cb 42 cb 1022,0 hPa 0,0 l/m 4,8 km/h (1 Bft) S 180 0 min 0 mm 0 UV-I 0 W/m 13,0 C 14,3 C 6,4 km/h (2 Bft)
20/08/2017 00:24 14,3 C 15,0 C 15,0 C 19,4 C 19,4 C 18,9 C 92 % 1 lf 12 cb 30 cb 85 cb 42 cb 1021,9 hPa 0,0 l/m 3,2 km/h (1 Bft) S 180 0 min 0 mm 0 UV-I 0 W/m 13,0 C 14,3 C 6,4 km/h (2 Bft)
20/08/2017 00:23 14,3 C 15,0 C 15,0 C 19,4 C 19,4 C 18,9 C 92 % 1 lf 12 cb 30 cb 85 cb 42 cb 1021,9 hPa 0,0 l/m 4,8 km/h (1 Bft) S 180 0 min 0 mm 0 UV-I 0 W/m 13,0 C 14,3 C 6,4 km/h (2 Bft)
20/08/2017 00:22 14,3 C 15,0 C 15,0 C 19,4 C 19,4 C 18,9 C 92 % 1 lf 12 cb 30 cb 85 cb 42 cb 1021,9 hPa 0,0 l/m 6,4 km/h (2 Bft) S 180 0 min 0 mm 0 UV-I 0 W/m 13,0 C 14,3 C 8,0 km/h (2 Bft)
20/08/2017 00:21 14,3 C 15,0 C 15,0 C 19,4 C 19,4 C 18,9 C 92 % 1 lf 12 cb 30 cb 85 cb 42 cb 1021,9 hPa 0,0 l/m 6,4 km/h (2 Bft) S-SE 157 0 min 0 mm 0 UV-I 0 W/m 13,0 C 14,3 C 8,0 km/h (2 Bft)
20/08/2017 00:20 14,4 C 15,0 C 15,0 C 19,4 C 19,4 C 18,9 C 92 % 1 lf 12 cb 30 cb 85 cb 42 cb 1022,0 hPa 0,0 l/m 4,8 km/h (1 Bft) S-SE 157 0 min 0 mm 0 UV-I 0 W/m 13,1 C 14,4 C 8,0 km/h (2 Bft)
20/08/2017 00:19 14,4 C 15,0 C 15,0 C 19,4 C 19,4 C 18,9 C 92 % 1 lf 12 cb 30 cb 85 cb 42 cb 1021,9 hPa 0,0 l/m 6,4 km/h (2 Bft) S-SE 157 0 min 0 mm 0 UV-I 0 W/m 13,1 C 14,4 C 8,0 km/h (2 Bft)
20/08/2017 00:18 14,4 C 15,0 C 15,0 C 19,4 C 19,4 C 18,9 C 92 % 1 lf 12 cb 30 cb 85 cb 42 cb 1021,9 hPa 0,0 l/m 6,4 km/h (2 Bft) S-SE 157 0 min 0 mm 0 UV-I 0 W/m 13,1 C 14,4 C 8,0 km/h (2 Bft)
20/08/2017 00:17 14,4 C 15,0 C 15,0 C 19,4 C 19,4 C 18,9 C 92 % 1 lf 12 cb 30 cb 85 cb 42 cb 1022,0 hPa 0,0 l/m 4,8 km/h (1 Bft) S 180 0 min 0 mm 0 UV-I 0 W/m 13,1 C 14,4 C 6,4 km/h (2 Bft)
20/08/2017 00:16 14,4 C 15,0 C 15,0 C 19,4 C 19,4 C 18,9 C 92 % 1 lf 12 cb 30 cb 85 cb 42 cb 1021,9 hPa 0,0 l/m 6,4 km/h (2 Bft) S 180 0 min 0 mm 0 UV-I 0 W/m 13,1 C 14,4 C 6,4 km/h (2 Bft)
20/08/2017 00:15 14,4 C 15,0 C 15,0 C 19,4 C 19,4 C 18,9 C 92 % 1 lf 12 cb 30 cb 85 cb 42 cb 1022,0 hPa 0,0 l/m 4,8 km/h (1 Bft) S 180 0 min 0 mm 0 UV-I 0 W/m 13,1 C 14,4 C 8,0 km/h (2 Bft)
20/08/2017 00:14 14,4 C 15,0 C 15,0 C 19,4 C 19,4 C 18,9 C 92 % 1 lf 12 cb 30 cb 85 cb 42 cb 1022,0 hPa 0,0 l/m 4,8 km/h (1 Bft) S 180 0 min 0 mm 0 UV-I 0 W/m 13,1 C 14,4 C 8,0 km/h (2 Bft)
20/08/2017 00:13 14,4 C 15,0 C 15,0 C 19,4 C 19,4 C 18,9 C 92 % 1 lf 12 cb 30 cb 85 cb 42 cb 1022,0 hPa 0,0 l/m 3,2 km/h (1 Bft) S 180 0 min 0 mm 0 UV-I 0 W/m 13,1 C 14,4 C 6,4 km/h (2 Bft)
20/08/2017 00:12 14,4 C 15,0 C 15,0 C 19,4 C 19,4 C 18,9 C 92 % 1 lf 12 cb 30 cb 85 cb 42 cb 1021,9 hPa 0,0 l/m 4,8 km/h (1 Bft) S 180 0 min 0 mm 0 UV-I 0 W/m 13,1 C 14,4 C 8,0 km/h (2 Bft)
20/08/2017 00:11 14,4 C 15,0 C 15,0 C 19,4 C 19,4 C 18,9 C 92 % 1 lf 12 cb 30 cb 85 cb 42 cb 1022,0 hPa 0,0 l/m 3,2 km/h (1 Bft) S 180 0 min 0 mm 0 UV-I 0 W/m 13,1 C 14,4 C 4,8 km/h (1 Bft)
20/08/2017 00:10 14,4 C 15,0 C 15,0 C 19,4 C 19,4 C 18,9 C 92 % 1 lf 12 cb 30 cb 85 cb 42 cb 1022,0 hPa 0,0 l/m 3,2 km/h (1 Bft) S 180 0 min 0 mm 0 UV-I 0 W/m 13,1 C 14,4 C 6,4 km/h (2 Bft)
20/08/2017 00:09 14,4 C 15,0 C 15,0 C 19,4 C 19,4 C 18,9 C 92 % 1 lf 12 cb 30 cb 85 cb 42 cb 1022,0 hPa 0,0 l/m 3,2 km/h (1 Bft) S 180 0 min 0 mm 0 UV-I 0 W/m 13,1 C 14,4 C 4,8 km/h (1 Bft)
20/08/2017 00:08 14,4 C 15,0 C 15,0 C 19,4 C 19,4 C 18,9 C 91 % 1 lf 12 cb 30 cb 85 cb 42 cb 1022,0 hPa 0,0 l/m 3,2 km/h (1 Bft) S 180 0 min 0 mm 0 UV-I 0 W/m 12,9 C 14,4 C 4,8 km/h (1 Bft)
20/08/2017 00:07 14,4 C 15,0 C 15,0 C 19,4 C 19,4 C 18,9 C 91 % 1 lf 12 cb 30 cb 85 cb 42 cb 1022,0 hPa 0,0 l/m 3,2 km/h (1 Bft) S 180 0 min 0 mm 0 UV-I 0 W/m 12,9 C 14,4 C 4,8 km/h (1 Bft)
20/08/2017 00:06 14,4 C 15,0 C 15,0 C 19,4 C 19,4 C 18,9 C 91 % 1 lf 12 cb 30 cb 85 cb 42 cb 1022,0 hPa 0,0 l/m 3,2 km/h (1 Bft) S 180 0 min 0 mm 0 UV-I 0 W/m 12,9 C 14,4 C 3,2 km/h (1 Bft)
20/08/2017 00:05 14,4 C 15,0 C 15,0 C 19,4 C 19,4 C 18,9 C 91 % 1 lf 12 cb 30 cb 85 cb 42 cb 1022,0 hPa 0,0 l/m 3,2 km/h (1 Bft) S 180 0 min 0 mm 0 UV-I 0 W/m 12,9 C 14,4 C 4,8 km/h (1 Bft)
20/08/2017 00:04 14,4 C 15,0 C 15,0 C 19,4 C 19,4 C 18,9 C 91 % 1 lf 12 cb 30 cb 85 cb 42 cb 1022,0 hPa 0,0 l/m 1,6 km/h (1 Bft) S 180 0 min 0 mm 0 UV-I 0 W/m 12,9 C 14,4 C 3,2 km/h (1 Bft)
20/08/2017 00:03 14,4 C 15,0 C 15,0 C 19,4 C 19,4 C 18,9 C 91 % 1 lf 12 cb 30 cb 85 cb 42 cb 1021,9 hPa 0,0 l/m 1,6 km/h (1 Bft) S 180 0 min 0 mm 0 UV-I 0 W/m 12,9 C 14,4 C 3,2 km/h (1 Bft)
20/08/2017 00:02 14,4 C 15,0 C 15,0 C 19,4 C 19,4 C 18,9 C 91 % 1 lf 12 cb 30 cb 85 cb 42 cb 1021,9 hPa 0,0 l/m 1,6 km/h (1 Bft) S 180 0 min 0 mm 0 UV-I 0 W/m 12,9 C 14,4 C 3,2 km/h (1 Bft)
20/08/2017 00:01 14,4 C 15,0 C 15,0 C 19,4 C 19,4 C 18,9 C 91 % 1 lf 12 cb 30 cb 85 cb 42 cb 1022,0 hPa 0,0 l/m 0,0 km/h (0 Bft) N 0 0 min 0 mm 0 UV-I 0 W/m 12,9 C 14,4 C 0,0 km/h (0 Bft)
20/08/2017 00:00 14,4 C 15,0 C 15,0 C 19,4 C 19,4 C 18,9 C 91 % 1 lf 12 cb 30 cb 85 cb 42 cb 1022,0 hPa 0,0 l/m 0,0 km/h (0 Bft) S 180 0 min 0 mm 0 UV-I 0 W/m 12,9 C 14,4 C 3,2 km/h (1 Bft)
19/08/2017 23:59 14,4 C 15,0 C 15,0 C 19,4 C 19,4 C 18,9 C 92 % 1 lf 12 cb 30 cb 85 cb 42 cb 1021,9 hPa 0,0 l/m 3,2 km/h (1 Bft) S 180 0 min 0 mm 0 UV-I 0 W/m 13,1 C 14,4 C 4,8 km/h (1 Bft)
19/08/2017 23:58 14,4 C 15,0 C 15,0 C 19,4 C 19,4 C 18,9 C 92 % 1 lf 12 cb 30 cb 85 cb 42 cb 1021,9 hPa 0,0 l/m 3,2 km/h (1 Bft) S 180 0 min 0 mm 0 UV-I 0 W/m 13,1 C 14,4 C 6,4 km/h (2 Bft)
19/08/2017 23:57 14,4 C 15,0 C 15,0 C 19,4 C 19,4 C 18,9 C 92 % 1 lf 12 cb 30 cb 85 cb 42 cb 1021,9 hPa 0,0 l/m 3,2 km/h (1 Bft) S 180 0 min 0 mm 0 UV-I 0 W/m 13,1 C 14,4 C 4,8 km/h (1 Bft)
19/08/2017 23:56 14,4 C 15,0 C 15,0 C 19,4 C 19,4 C 18,9 C 92 % 1 lf 12 cb 30 cb 85 cb 42 cb 1021,9 hPa 0,0 l/m 3,2 km/h (1 Bft) S 180 0 min 0 mm 0 UV-I 0 W/m 13,1 C 14,4 C 3,2 km/h (1 Bft)
19/08/2017 23:55 14,4 C 15,0 C 15,0 C 19,4 C 19,4 C 18,9 C 92 % 1 lf 12 cb 30 cb 85 cb 42 cb 1021,9 hPa 0,0 l/m 3,2 km/h (1 Bft) S 180 0 min 0 mm 0 UV-I 0 W/m 13,1 C 14,4 C 4,8 km/h (1 Bft)
19/08/2017 23:54 14,4 C 15,0 C 15,0 C 20,0 C 19,4 C 18,9 C 91 % 1 lf 12 cb 30 cb 85 cb 42 cb 1021,9 hPa 0,0 l/m 3,2 km/h (1 Bft) S 180 0 min 0 mm 0 UV-I 0 W/m 12,9 C 14,4 C 6,4 km/h (2 Bft)
19/08/2017 23:53 14,4 C 15,0 C 15,0 C 20,0 C 19,4 C 18,9 C 92 % 1 lf 12 cb 30 cb 85 cb 42 cb 1022,0 hPa 0,0 l/m 3,2 km/h (1 Bft) S 180 0 min 0 mm 0 UV-I 0 W/m 13,1 C 14,4 C 6,4 km/h (2 Bft)
19/08/2017 23:52 14,4 C 15,0 C 15,0 C 20,0 C 19,4 C 18,9 C 92 % 1 lf 12 cb 30 cb 85 cb 42 cb 1021,9 hPa 0,0 l/m 3,2 km/h (1 Bft) S 180 0 min 0 mm 0 UV-I 0 W/m 13,1 C 14,4 C 6,4 km/h (2 Bft)
19/08/2017 23:51 14,3 C 15,0 C 15,0 C 20,0 C 19,4 C 18,9 C 92 % 1 lf 12 cb 30 cb 85 cb 42 cb 1021,9 hPa 0,0 l/m 4,8 km/h (1 Bft) S 180 0 min 0 mm 0 UV-I 0 W/m 13,0 C 14,3 C 6,4 km/h (2 Bft)
19/08/2017 23:50 14,4 C 15,0 C 15,0 C 20,0 C 19,4 C 18,9 C 92 % 1 lf 12 cb 30 cb 85 cb 42 cb 1021,9 hPa 0,0 l/m 3,2 km/h (1 Bft) S 180 0 min 0 mm 0 UV-I 0 W/m 13,1 C 14,4 C 6,4 km/h (2 Bft)
19/08/2017 23:49 14,4 C 15,0 C 15,0 C 20,0 C 19,4 C 18,9 C 92 % 1 lf 12 cb 30 cb 85 cb 42 cb 1021,9 hPa 0,0 l/m 3,2 km/h (1 Bft) S 180 0 min 0 mm 0 UV-I 0 W/m 13,1 C 14,4 C 8,0 km/h (2 Bft)
19/08/2017 23:48 14,4 C 15,0 C 15,0 C 20,0 C 19,4 C 18,9 C 92 % 1 lf 12 cb 30 cb 85 cb 42 cb 1021,9 hPa 0,0 l/m 4,8 km/h (1 Bft) S 180 0 min 0 mm 0 UV-I 0 W/m 13,1 C 14,4 C 8,0 km/h (2 Bft)
19/08/2017 23:47 14,4 C 15,0 C 15,0 C 20,0 C 19,4 C 18,9 C 92 % 1 lf 12 cb 30 cb 84 cb 42 cb 1021,9 hPa 0,0 l/m 4,8 km/h (1 Bft) S 180 0 min 0 mm 0 UV-I 0 W/m 13,1 C 14,4 C 8,0 km/h (2 Bft)
19/08/2017 23:46 14,4 C 15,0 C 15,0 C 20,0 C 19,4 C 18,9 C 92 % 1 lf 12 cb 30 cb 84 cb 42 cb 1021,9 hPa 0,0 l/m 4,8 km/h (1 Bft) S 180 0 min 0 mm 0 UV-I 0 W/m 13,1 C 14,4 C 6,4 km/h (2 Bft)
19/08/2017 23:45 14,4 C 15,0 C 15,0 C 20,0 C 19,4 C 18,9 C 92 % 1 lf 12 cb 30 cb 84 cb 42 cb 1021,9 hPa 0,0 l/m 4,8 km/h (1 Bft) S 180 0 min 0 mm 0 UV-I 0 W/m 13,1 C 14,4 C 6,4 km/h (2 Bft)
19/08/2017 23:44 14,4 C 15,0 C 15,0 C 20,0 C 19,4 C 18,9 C 92 % 1 lf 12 cb 30 cb 84 cb 42 cb 1021,9 hPa 0,0 l/m 4,8 km/h (1 Bft) S-SE 157 0 min 0 mm 0 UV-I 0 W/m 13,1 C 14,4 C 6,4 km/h (2 Bft)
19/08/2017 23:43 14,4 C 15,0 C 15,0 C 20,0 C 19,4 C 18,9 C 91 % 1 lf 12 cb 30 cb 84 cb 42 cb 1022,0 hPa 0,0 l/m 1,6 km/h (1 Bft) S-SE 157 0 min 0 mm 0 UV-I 0 W/m 12,9 C 14,4 C 4,8 km/h (1 Bft)
19/08/2017 23:42 14,4 C 15,0 C 15,0 C 20,0 C 19,4 C 18,9 C 91 % 1 lf 12 cb 30 cb 84 cb 42 cb 1021,9 hPa 0,0 l/m 1,6 km/h (1 Bft) S-SE 157 0 min 0 mm 0 UV-I 0 W/m 12,9 C 14,4 C 3,2 km/h (1 Bft)
19/08/2017 23:41 14,4 C 15,0 C 15,0 C 20,0 C 19,4 C 18,9 C 91 % 1 lf 12 cb 30 cb 84 cb 42 cb 1022,0 hPa 0,0 l/m 1,6 km/h (1 Bft) S-SE 157 0 min 0 mm 0 UV-I 0 W/m 12,9 C 14,4 C 3,2 km/h (1 Bft)
19/08/2017 23:40 14,4 C 15,0 C 15,0 C 20,0 C 19,4 C 18,9 C 91 % 1 lf 12 cb 30 cb 84 cb 42 cb 1022,0 hPa 0,0 l/m 0,0 km/h (0 Bft) S-SE 157 0 min 0 mm 0 UV-I 0 W/m 12,9 C 14,4 C 1,6 km/h (1 Bft)
19/08/2017 23:39 14,4 C 15,0 C 15,0 C 20,0 C 19,4 C 18,9 C 91 % 1 lf 12 cb 30 cb 84 cb 42 cb 1022,0 hPa 0,0 l/m 0,0 km/h (0 Bft) N 0 0 min 0 mm 0 UV-I 0 W/m 12,9 C 14,4 C 0,0 km/h (0 Bft)
19/08/2017 23:38 14,4 C 15,0 C 15,0 C 20,0 C 19,4 C 18,9 C 91 % 1 lf 12 cb 30 cb 84 cb 42 cb 1022,0 hPa 0,0 l/m 0,0 km/h (0 Bft) N 0 0 min 0 mm 0 UV-I 0 W/m 12,9 C 14,4 C 0,0 km/h (0 Bft)
19/08/2017 23:37 14,4 C 15,0 C 15,0 C 20,0 C 19,4 C 18,9 C 91 % 1 lf 12 cb 30 cb 84 cb 42 cb 1022,0 hPa 0,0 l/m 0,0 km/h (0 Bft) S-SE 157 0 min 0 mm 0 UV-I 0 W/m 12,9 C 14,4 C 1,6 km/h (1 Bft)
19/08/2017 23:36 14,4 C 15,0 C 15,0 C 20,0 C 19,4 C 18,9 C 91 % 1 lf 12 cb 30 cb 84 cb 42 cb 1022,0 hPa 0,0 l/m 1,6 km/h (1 Bft) S-SE 157 0 min 0 mm 0 UV-I 0 W/m 12,9 C 14,4 C 1,6 km/h (1 Bft)
19/08/2017 23:35 14,4 C 15,0 C 15,0 C 20,0 C 19,4 C 18,9 C 91 % 1 lf 12 cb 30 cb 84 cb 42 cb 1021,9 hPa 0,0 l/m 3,2 km/h (1 Bft) S-SE 157 0 min 0 mm 0 UV-I 0 W/m 12,9 C 14,4 C 4,8 km/h (1 Bft)
19/08/2017 23:34 14,4 C 15,0 C 15,0 C 20,0 C 19,4 C 18,9 C 91 % 1 lf 12 cb 30 cb 84 cb 42 cb 1022,0 hPa 0,0 l/m 3,2 km/h (1 Bft) S-SE 157 0 min 0 mm 0 UV-I 0 W/m 12,9 C 14,4 C 3,2 km/h (1 Bft)
19/08/2017 23:33 14,4 C 15,0 C 15,0 C 20,0 C 19,4 C 18,9 C 91 % 2 lf 12 cb 30 cb 84 cb 42 cb 1022,0 hPa 0,0 l/m 3,2 km/h (1 Bft) S-SE 157 0 min 0 mm 0 UV-I 0 W/m 12,9 C 14,4 C 4,8 km/h (1 Bft)
19/08/2017 23:32 14,4 C 15,0 C 15,0 C 20,0 C 19,4 C 18,9 C 91 % 2 lf 12 cb 30 cb 84 cb 42 cb 1022,0 hPa 0,0 l/m 3,2 km/h (1 Bft) S-SE 157 0 min 0 mm 0 UV-I 0 W/m 12,9 C 14,4 C 6,4 km/h (2 Bft)
19/08/2017 23:31 14,4 C 15,0 C 15,0 C 20,0 C 19,4 C 18,9 C 91 % 2 lf 12 cb 30 cb 84 cb 42 cb 1021,9 hPa 0,0 l/m 3,2 km/h (1 Bft) S-SE 157 0 min 0 mm 0 UV-I 0 W/m 12,9 C 14,4 C 4,8 km/h (1 Bft)
19/08/2017 23:30 14,4 C 15,0 C 15,0 C 20,0 C 19,4 C 18,9 C 91 % 2 lf 12 cb 30 cb 84 cb 42 cb 1021,9 hPa 0,0 l/m 3,2 km/h (1 Bft) S-SE 157 0 min 0 mm 0 UV-I 0 W/m 12,9 C 14,4 C 4,8 km/h (1 Bft)
19/08/2017 23:29 14,4 C 15,0 C 15,0 C 20,0 C 19,4 C 18,9 C 91 % 2 lf 12 cb 30 cb 84 cb 42 cb 1021,9 hPa 0,0 l/m 3,2 km/h (1 Bft) S-SE 157 0 min 0 mm 0 UV-I 0 W/m 12,9 C 14,4 C 6,4 km/h (2 Bft)
19/08/2017 23:28 14,4 C 15,0 C 15,0 C 20,0 C 19,4 C 18,9 C 91 % 2 lf 12 cb 30 cb 84 cb 42 cb 1021,9 hPa 0,0 l/m 3,2 km/h (1 Bft) S-SE 157 0 min 0 mm 0 UV-I 0 W/m 12,9 C 14,4 C 6,4 km/h (2 Bft)
19/08/2017 23:27 14,4 C 15,0 C 15,0 C 20,0 C 19,4 C 18,9 C 91 % 2 lf 12 cb 30 cb 84 cb 42 cb 1021,9 hPa 0,0 l/m 4,8 km/h (1 Bft) S-SE 157 0 min 0 mm 0 UV-I 0 W/m 12,9 C 14,4 C 6,4 km/h (2 Bft)
19/08/2017 23:26 14,4 C 15,0 C 15,0 C 20,0 C 19,4 C 18,9 C 91 % 2 lf 12 cb 30 cb 84 cb 42 cb 1021,9 hPa 0,0 l/m 4,8 km/h (1 Bft) S-SE 157 0 min 0 mm 0 UV-I 0 W/m 12,9 C 14,4 C 8,0 km/h (2 Bft)
19/08/2017 23:25 14,4 C 15,0 C 15,0 C 20,0 C 19,4 C 18,9 C 91 % 2 lf 12 cb 30 cb 84 cb 42 cb 1021,9 hPa 0,0 l/m 6,4 km/h (2 Bft) S 180 0 min 0 mm 0 UV-I 0 W/m 12,9 C 14,4 C 6,4 km/h (2 Bft)
19/08/2017 23:24 14,4 C 15,0 C 15,0 C 20,0 C 19,4 C 18,9 C 91 % 2 lf 12 cb 30 cb 84 cb 42 cb 1021,9 hPa 0,0 l/m 4,8 km/h (1 Bft) S 180 0 min 0 mm 0 UV-I 0 W/m 12,9 C 14,4 C 6,4 km/h (2 Bft)
19/08/2017 23:23 14,4 C 15,0 C 15,0 C 20,0 C 19,4 C 18,9 C 91 % 2 lf 12 cb 30 cb 84 cb 42 cb 1022,0 hPa 0,0 l/m 4,8 km/h (1 Bft) S 180 0 min 0 mm 0 UV-I 0 W/m 12,9 C 14,4 C 6,4 km/h (2 Bft)
19/08/2017 23:22 14,4 C 15,0 C 15,0 C 20,0 C 19,4 C 18,9 C 91 % 2 lf 12 cb 30 cb 84 cb 42 cb 1022,0 hPa 0,0 l/m 4,8 km/h (1 Bft) S 180 0 min 0 mm 0 UV-I 0 W/m 12,9 C 14,4 C 6,4 km/h (2 Bft)
19/08/2017 23:21 14,4 C 15,0 C 15,0 C 20,0 C 19,4 C 18,9 C 91 % 2 lf 12 cb 30 cb 84 cb 42 cb 1022,1 hPa 0,0 l/m 3,2 km/h (1 Bft) S 180 0 min 0 mm 0 UV-I 0 W/m 12,9 C 14,4 C 3,2 km/h (1 Bft)
19/08/2017 23:20 14,4 C 15,0 C 15,0 C 20,0 C 19,4 C 18,9 C 91 % 2 lf 12 cb 30 cb 84 cb 42 cb 1022,0 hPa 0,0 l/m 3,2 km/h (1 Bft) S 180 0 min 0 mm 0 UV-I 0 W/m 12,9 C 14,4 C 3,2 km/h (1 Bft)
19/08/2017 23:19 14,4 C 15,0 C 15,0 C 20,0 C 19,4 C 18,9 C 91 % 2 lf 12 cb 30 cb 84 cb 42 cb 1022,1 hPa 0,0 l/m 1,6 km/h (1 Bft) S 180 0 min 0 mm 0 UV-I 0 W/m 12,9 C 14,4 C 3,2 km/h (1 Bft)
19/08/2017 23:18 14,4 C 15,0 C 15,0 C 20,0 C 19,4 C 18,9 C 91 % 2 lf 12 cb 30 cb 84 cb 42 cb 1021,9 hPa 0,0 l/m 1,6 km/h (1 Bft) S 180 0 min 0 mm 0 UV-I 0 W/m 12,9 C 14,4 C 3,2 km/h (1 Bft)
19/08/2017 23:17 14,4 C 15,0 C 15,0 C 20,0 C 19,4 C 18,9 C 91 % 1 lf 12 cb 30 cb 84 cb 42 cb 1022,0 hPa 0,0 l/m 1,6 km/h (1 Bft) S 180 0 min 0 mm 0 UV-I 0 W/m 12,9 C 14,4 C 4,8 km/h (1 Bft)
19/08/2017 23:16 14,4 C 15,0 C 15,0 C 20,0 C 19,4 C 18,9 C 91 % 1 lf 12 cb 30 cb 84 cb 42 cb 1021,9 hPa 0,0 l/m 1,6 km/h (1 Bft) S 180 0 min 0 mm 0 UV-I 0 W/m 12,9 C 14,4 C 3,2 km/h (1 Bft)
19/08/2017 23:15 14,4 C 15,0 C 15,0 C 20,0 C 19,4 C 18,9 C 91 % 1 lf 12 cb 30 cb 84 cb 42 cb 1021,9 hPa 0,0 l/m 1,6 km/h (1 Bft) S 180 0 min 0 mm 0 UV-I 0 W/m 12,9 C 14,4 C 1,6 km/h (1 Bft)
19/08/2017 23:14 14,4 C 15,0 C 15,0 C 20,0 C 19,4 C 18,9 C 91 % 1 lf 12 cb 30 cb 84 cb 42 cb 1021,9 hPa 0,0 l/m 1,6 km/h (1 Bft) S 180 0 min 0 mm 0 UV-I 0 W/m 12,9 C 14,4 C 3,2 km/h (1 Bft)
19/08/2017 23:13 14,4 C 15,0 C 15,0 C 20,0 C 19,4 C 18,9 C 91 % 1 lf 12 cb 30 cb 84 cb 42 cb 1022,0 hPa 0,0 l/m 1,6 km/h (1 Bft) S 180 0 min 0 mm 0 UV-I 0 W/m 12,9 C 14,4 C 3,2 km/h (1 Bft)
19/08/2017 23:12 14,5 C 15,0 C 15,0 C 20,0 C 19,4 C 18,9 C 91 % 1 lf 12 cb 30 cb 84 cb 42 cb 1022,0 hPa 0,0 l/m 1,6 km/h (1 Bft) S 180 0 min 0 mm 0 UV-I 0 W/m 13,0 C 14,5 C 3,2 km/h (1 Bft)
19/08/2017 23:11 14,4 C 15,0 C 15,0 C 20,0 C 19,4 C 18,9 C 91 % 1 lf 12 cb 30 cb 84 cb 42 cb 1022,0 hPa 0,0 l/m 3,2 km/h (1 Bft) S 180 0 min 0 mm 0 UV-I 0 W/m 12,9 C 14,4 C 3,2 km/h (1 Bft)
19/08/2017 23:10 14,5 C 15,0 C 15,0 C 20,0 C 19,4 C 18,9 C 91 % 1 lf 12 cb 30 cb 84 cb 42 cb 1022,0 hPa 0,0 l/m 4,8 km/h (1 Bft) S 180 0 min 0 mm 0 UV-I 0 W/m 13,0 C 14,5 C 6,4 km/h (2 Bft)
19/08/2017 23:09 14,5 C 15,0 C 15,0 C 20,0 C 19,4 C 18,9 C 91 % 1 lf 12 cb 30 cb 84 cb 42 cb 1022,0 hPa 0,0 l/m 3,2 km/h (1 Bft) S 180 0 min 0 mm 0 UV-I 0 W/m 13,0 C 14,5 C 4,8 km/h (1 Bft)
19/08/2017 23:08 14,5 C 15,0 C 15,0 C 20,0 C 19,4 C 18,9 C 91 % 1 lf 12 cb 30 cb 84 cb 42 cb 1021,9 hPa 0,0 l/m 3,2 km/h (1 Bft) S 180 0 min 0 mm 0 UV-I 0 W/m 13,0 C 14,5 C 6,4 km/h (2 Bft)
19/08/2017 23:07 14,5 C 15,0 C 15,0 C 20,0 C 19,4 C 18,9 C 91 % 1 lf 12 cb 30 cb 84 cb 42 cb 1022,0 hPa 0,0 l/m 4,8 km/h (1 Bft) S 180 0 min 0 mm 0 UV-I 0 W/m 13,0 C 14,5 C 8,0 km/h (2 Bft)
19/08/2017 23:06 14,5 C 15,0 C 15,0 C 20,0 C 19,4 C 18,9 C 91 % 1 lf 12 cb 30 cb 84 cb 42 cb 1021,9 hPa 0,0 l/m 6,4 km/h (2 Bft) S 180 0 min 0 mm 0 UV-I 0 W/m 13,0 C 14,5 C 8,0 km/h (2 Bft)
19/08/2017 23:05 14,5 C 15,0 C 15,0 C 20,0 C 19,4 C 18,9 C 91 % 1 lf 12 cb 30 cb 84 cb 42 cb 1022,0 hPa 0,0 l/m 4,8 km/h (1 Bft) S 180 0 min 0 mm 0 UV-I 0 W/m 13,0 C 14,5 C 6,4 km/h (2 Bft)
19/08/2017 23:04 14,6 C 15,0 C 15,0 C 20,0 C 19,4 C 18,9 C 91 % 1 lf 12 cb 30 cb 84 cb 42 cb 1022,0 hPa 0,0 l/m 6,4 km/h (2 Bft) S 180 0 min 0 mm 0 UV-I 0 W/m 13,1 C 14,6 C 8,0 km/h (2 Bft)
19/08/2017 23:03 14,6 C 15,0 C 15,0 C 20,0 C 19,4 C 18,9 C 91 % 1 lf 12 cb 30 cb 84 cb 42 cb 1022,0 hPa 0,0 l/m 6,4 km/h (2 Bft) S-SE 157 0 min 0 mm 0 UV-I 0 W/m 13,1 C 14,6 C 9,7 km/h (2 Bft)
19/08/2017 23:02 14,6 C 15,0 C 15,0 C 20,0 C 19,4 C 18,9 C 91 % 1 lf 12 cb 30 cb 84 cb 42 cb 1022,0 hPa 0,0 l/m 4,8 km/h (1 Bft) S-SE 157 0 min 0 mm 0 UV-I 0 W/m 13,1 C 14,6 C 6,4 km/h (2 Bft)
19/08/2017 23:01 14,6 C 15,0 C 15,0 C 20,0 C 19,4 C 18,9 C 91 % 1 lf 12 cb 30 cb 84 cb 42 cb 1022,0 hPa 0,0 l/m 6,4 km/h (2 Bft) S-SE 157 0 min 0 mm 0 UV-I 0 W/m 13,1 C 14,6 C 8,0 km/h (2 Bft)
19/08/2017 23:00 14,6 C 15,0 C 15,0 C 20,0 C 19,4 C 18,9 C 91 % 1 lf 12 cb 30 cb 84 cb 42 cb 1021,9 hPa 0,0 l/m 6,4 km/h (2 Bft) S-SE 157 0 min 0 mm 0 UV-I 0 W/m 13,1 C 14,6 C 8,0 km/h (2 Bft)
19/08/2017 22:59 14,6 C 15,6 C 15,6 C 20,0 C 19,4 C 18,9 C 91 % 1 lf 12 cb 30 cb 84 cb 42 cb 1022,0 hPa 0,0 l/m 4,8 km/h (1 Bft) S-SE 157 0 min 0 mm 0 UV-I 0 W/m 13,1 C 14,6 C 6,4 km/h (2 Bft)
19/08/2017 22:58 14,6 C 15,6 C 15,6 C 20,0 C 19,4 C 18,9 C 91 % 1 lf 12 cb 30 cb 84 cb 42 cb 1021,9 hPa 0,0 l/m 3,2 km/h (1 Bft) SE 135 0 min 0 mm 0 UV-I 0 W/m 13,1 C 14,6 C 6,4 km/h (2 Bft)
19/08/2017 22:57 14,6 C 15,6 C 15,6 C 20,0 C 19,4 C 18,9 C 91 % 2 lf 12 cb 30 cb 84 cb 42 cb 1021,9 hPa 0,0 l/m 3,2 km/h (1 Bft) SE 135 0 min 0 mm 0 UV-I 0 W/m 13,1 C 14,6 C 4,8 km/h (1 Bft)
19/08/2017 22:56 14,6 C 15,6 C 15,6 C 20,0 C 19,4 C 18,9 C 91 % 1 lf 12 cb 30 cb 84 cb 42 cb 1021,9 hPa 0,0 l/m 3,2 km/h (1 Bft) SE 135 0 min 0 mm 0 UV-I 0 W/m 13,1 C 14,6 C 3,2 km/h (1 Bft)
19/08/2017 22:55 14,6 C 15,6 C 15,6 C 20,0 C 19,4 C 18,9 C 91 % 1 lf 12 cb 30 cb 84 cb 42 cb 1021,8 hPa 0,0 l/m 3,2 km/h (1 Bft) SE 135 0 min 0 mm 0 UV-I 0 W/m 13,1 C 14,6 C 3,2 km/h (1 Bft)
19/08/2017 22:54 14,6 C 15,6 C 15,6 C 20,0 C 19,4 C 18,9 C 91 % 2 lf 12 cb 30 cb 84 cb 42 cb 1021,8 hPa 0,0 l/m 3,2 km/h (1 Bft) SE 135 0 min 0 mm 0 UV-I 0 W/m 13,1 C 14,6 C 3,2 km/h (1 Bft)
19/08/2017 22:53 14,6 C 15,6 C 15,6 C 20,0 C 19,4 C 18,9 C 91 % 2 lf 12 cb 30 cb 84 cb 42 cb 1021,8 hPa 0,0 l/m 3,2 km/h (1 Bft) SE 135 0 min 0 mm 0 UV-I 0 W/m 13,1 C 14,6 C 3,2 km/h (1 Bft)
19/08/2017 22:52 14,6 C 15,6 C 15,6 C 20,0 C 19,4 C 18,9 C 90 % 2 lf 12 cb 30 cb 84 cb 42 cb 1021,8 hPa 0,0 l/m 1,6 km/h (1 Bft) SE 135 0 min 0 mm 0 UV-I 0 W/m 13,0 C 14,6 C 3,2 km/h (1 Bft)
19/08/2017 22:51 14,6 C 15,6 C 15,6 C 20,0 C 19,4 C 18,9 C 90 % 2 lf 12 cb 30 cb 84 cb 42 cb 1021,9 hPa 0,0 l/m 1,6 km/h (1 Bft) SE 135 0 min 0 mm 0 UV-I 0 W/m 13,0 C 14,6 C 4,8 km/h (1 Bft)
19/08/2017 22:50 14,6 C 15,6 C 15,6 C 20,0 C 19,4 C 18,9 C 90 % 2 lf 12 cb 30 cb 84 cb 42 cb 1021,9 hPa 0,0 l/m 1,6 km/h (1 Bft) SE 135 0 min 0 mm 0 UV-I 0 W/m 13,0 C 14,6 C 4,8 km/h (1 Bft)
19/08/2017 22:49 14,6 C 15,6 C 15,6 C 20,0 C 19,4 C 18,9 C 90 % 1 lf 12 cb 30 cb 84 cb 42 cb 1021,9 hPa 0,0 l/m 3,2 km/h (1 Bft) SE 135 0 min 0 mm 0 UV-I 0 W/m 13,0 C 14,6 C 6,4 km/h (2 Bft)
19/08/2017 22:48 14,6 C 15,6 C 15,6 C 20,0 C 19,4 C 18,9 C 90 % 1 lf 12 cb 30 cb 84 cb 42 cb 1021,9 hPa 0,0 l/m 3,2 km/h (1 Bft) SE 135 0 min 0 mm 0 UV-I 0 W/m 13,0 C 14,6 C 3,2 km/h (1 Bft)
19/08/2017 22:47 14,6 C 15,6 C 15,6 C 20,0 C 19,4 C 18,9 C 90 % 2 lf 12 cb 30 cb 84 cb 42 cb 1021,9 hPa 0,0 l/m 1,6 km/h (1 Bft) SE 135 0 min 0 mm 0 UV-I 0 W/m 13,0 C 14,6 C 3,2 km/h (1 Bft)
19/08/2017 22:46 14,6 C 15,6 C 15,6 C 20,0 C 19,4 C 18,9 C 90 % 2 lf 12 cb 30 cb 84 cb 42 cb 1021,8 hPa 0,0 l/m 1,6 km/h (1 Bft) SE 135 0 min 0 mm 0 UV-I 0 W/m 13,0 C 14,6 C 3,2 km/h (1 Bft)
19/08/2017 22:45 14,6 C 15,6 C 15,6 C 20,0 C 19,4 C 18,9 C 90 % 1 lf 12 cb 30 cb 84 cb 42 cb 1021,9 hPa 0,0 l/m 3,2 km/h (1 Bft) SE 135 0 min 0 mm 0 UV-I 0 W/m 13,0 C 14,6 C 3,2 km/h (1 Bft)
19/08/2017 22:44 14,6 C 15,6 C 15,6 C 20,0 C 19,4 C 18,9 C 90 % 1 lf 12 cb 30 cb 84 cb 42 cb 1021,8 hPa 0,0 l/m 0,0 km/h (0 Bft) SE 135 0 min 0 mm 0 UV-I 0 W/m 13,0 C 14,6 C 1,6 km/h (1 Bft)
19/08/2017 22:43 14,6 C 15,6 C 15,6 C 20,0 C 19,4 C 18,9 C 90 % 1 lf 12 cb 30 cb 84 cb 42 cb 1021,9 hPa 0,0 l/m 0,0 km/h (0 Bft) N 0 0 min 0 mm 0 UV-I 0 W/m 13,0 C 14,6 C 0,0 km/h (0 Bft)
19/08/2017 22:42 14,7 C 15,6 C 15,6 C 20,0 C 19,4 C 18,9 C 90 % 1 lf 12 cb 30 cb 84 cb 42 cb 1021,8 hPa 0,0 l/m 0,0 km/h (0 Bft) N 0 0 min 0 mm 0 UV-I 0 W/m 13,1 C 14,7 C 0,0 km/h (0 Bft)
19/08/2017 22:41 14,7 C 15,6 C 15,6 C 20,0 C 19,4 C 18,9 C 90 % 1 lf 12 cb 30 cb 84 cb 42 cb 1021,8 hPa 0,0 l/m 0,0 km/h (0 Bft) N 0 0 min 0 mm 0 UV-I 0 W/m 13,1 C 14,7 C 0,0 km/h (0 Bft)
19/08/2017 22:40 14,7 C 15,6 C 15,6 C 20,0 C 19,4 C 18,9 C 89 % 1 lf 12 cb 30 cb 84 cb 42 cb 1021,8 hPa 0,0 l/m 0,0 km/h (0 Bft) N 0 0 min 0 mm 0 UV-I 0 W/m 12,9 C 14,7 C 0,0 km/h (0 Bft)
19/08/2017 22:39 14,7 C 15,6 C 15,6 C 20,0 C 19,4 C 18,9 C 89 % 1 lf 12 cb 30 cb 84 cb 42 cb 1021,8 hPa 0,0 l/m 0,0 km/h (0 Bft) N 0 0 min 0 mm 0 UV-I 0 W/m 12,9 C 14,7 C 0,0 km/h (0 Bft)
19/08/2017 22:38 14,7 C 15,6 C 15,6 C 20,0 C 19,4 C 18,9 C 89 % 1 lf 12 cb 30 cb 84 cb 42 cb 1021,8 hPa 0,0 l/m 0,0 km/h (0 Bft) N 0 0 min 0 mm 0 UV-I 0 W/m 12,9 C 14,7 C 0,0 km/h (0 Bft)
19/08/2017 22:37 14,7 C 15,6 C 15,6 C 20,0 C 19,4 C 18,9 C 89 % 1 lf 12 cb 30 cb 84 cb 42 cb 1021,8 hPa 0,0 l/m 0,0 km/h (0 Bft) N 0 0 min 0 mm 0 UV-I 0 W/m 12,9 C 14,7 C 0,0 km/h (0 Bft)
19/08/2017 22:36 14,7 C 15,6 C 15,6 C 20,0 C 19,4 C 18,9 C 89 % 1 lf 12 cb 30 cb 84 cb 42 cb 1021,7 hPa 0,0 l/m 0,0 km/h (0 Bft) N 0 0 min 0 mm 0 UV-I 0 W/m 12,9 C 14,7 C 0,0 km/h (0 Bft)
19/08/2017 22:35 14,7 C 15,6 C 15,6 C 20,0 C 19,4 C 18,9 C 89 % 1 lf 12 cb 30 cb 84 cb 42 cb 1021,7 hPa 0,0 l/m 0,0 km/h (0 Bft) SE 135 0 min 0 mm 0 UV-I 0 W/m 12,9 C 14,7 C 1,6 km/h (1 Bft)
19/08/2017 22:34 14,7 C 15,6 C 15,6 C 20,0 C 19,4 C 18,9 C 89 % 1 lf 12 cb 30 cb 84 cb 42 cb 1021,8 hPa 0,0 l/m 1,6 km/h (1 Bft) SE 135 0 min 0 mm 0 UV-I 0 W/m 12,9 C 14,7 C 1,6 km/h (1 Bft)
19/08/2017 22:33 14,7 C 15,6 C 15,6 C 20,0 C 19,4 C 18,9 C 89 % 1 lf 12 cb 30 cb 84 cb 42 cb 1021,8 hPa 0,0 l/m 3,2 km/h (1 Bft) SE 135 0 min 0 mm 0 UV-I 0 W/m 12,9 C 14,7 C 3,2 km/h (1 Bft)
19/08/2017 22:32 14,7 C 15,6 C 15,6 C 20,0 C 19,4 C 18,9 C 89 % 1 lf 12 cb 30 cb 84 cb 42 cb 1021,8 hPa 0,0 l/m 1,6 km/h (1 Bft) SE 135 0 min 0 mm 0 UV-I 0 W/m 12,9 C 14,7 C 3,2 km/h (1 Bft)
19/08/2017 22:31 14,7 C 15,6 C 15,6 C 20,0 C 19,4 C 18,9 C 89 % 1 lf 12 cb 30 cb 84 cb 42 cb 1021,8 hPa 0,0 l/m 1,6 km/h (1 Bft) SE 135 0 min 0 mm 0 UV-I 0 W/m 12,9 C 14,7 C 1,6 km/h (1 Bft)
19/08/2017 22:30 14,7 C 15,6 C 15,6 C 20,0 C 19,4 C 18,9 C 88 % 1 lf 12 cb 30 cb 84 cb 42 cb 1021,7 hPa 0,0 l/m 1,6 km/h (1 Bft) SE 135 0 min 0 mm 0 UV-I 0 W/m 12,7 C 14,7 C 3,2 km/h (1 Bft)
19/08/2017 22:29 14,7 C 15,6 C 15,6 C 20,0 C 19,4 C 18,9 C 88 % 1 lf 12 cb 30 cb 84 cb 42 cb 1021,8 hPa 0,0 l/m 1,6 km/h (1 Bft) SE 135 0 min 0 mm 0 UV-I 0 W/m 12,7 C 14,7 C 3,2 km/h (1 Bft)
19/08/2017 22:28 14,8 C 15,6 C 15,6 C 20,0 C 19,4 C 18,9 C 88 % 1 lf 12 cb 30 cb 84 cb 42 cb 1021,8 hPa 0,0 l/m 1,6 km/h (1 Bft) SE 135 0 min 0 mm 0 UV-I 0 W/m 12,8 C 14,8 C 1,6 km/h (1 Bft)
19/08/2017 22:27 14,8 C 15,0 C 15,0 C 20,0 C 19,4 C 18,9 C 88 % 1 lf 12 cb 30 cb 84 cb 42 cb 1021,8 hPa 0,0 l/m 1,6 km/h (1 Bft) SE 135 0 min 0 mm 0 UV-I 0 W/m 12,8 C 14,8 C 1,6 km/h (1 Bft)
19/08/2017 22:26 14,8 C 15,0 C 15,0 C 20,0 C 19,4 C 18,9 C 88 % 1 lf 12 cb 30 cb 84 cb 42 cb 1021,7 hPa 0,0 l/m 0,0 km/h (0 Bft) SE 135 0 min 0 mm 0 UV-I 0 W/m 12,8 C 14,8 C 1,6 km/h (1 Bft)
19/08/2017 22:25 14,8 C 15,0 C 15,0 C 20,0 C 19,4 C 18,9 C 88 % 1 lf 12 cb 30 cb 84 cb 42 cb 1021,8 hPa 0,0 l/m 1,6 km/h (1 Bft) SE 135 0 min 0 mm 0 UV-I 0 W/m 12,8 C 14,8 C 1,6 km/h (1 Bft)
19/08/2017 22:24 14,8 C 15,0 C 15,0 C 20,0 C 19,4 C 18,9 C 88 % 1 lf 12 cb 30 cb 84 cb 42 cb 1021,7 hPa 0,0 l/m 1,6 km/h (1 Bft) SE 135 0 min 0 mm 0 UV-I 0 W/m 12,8 C 14,8 C 1,6 km/h (1 Bft)
19/08/2017 22:23 14,8 C 15,0 C 15,0 C 20,0 C 19,4 C 18,9 C 88 % 1 lf 12 cb 30 cb 84 cb 42 cb 1021,7 hPa 0,0 l/m 1,6 km/h (1 Bft) SE 135 0 min 0 mm 0 UV-I 0 W/m 12,8 C 14,8 C 3,2 km/h (1 Bft)
19/08/2017 22:22 14,8 C 15,0 C 15,0 C 20,0 C 19,4 C 18,9 C 88 % 1 lf 12 cb 30 cb 84 cb 42 cb 1021,7 hPa 0,0 l/m 1,6 km/h (1 Bft) SE 135 0 min 0 mm 0 UV-I 0 W/m 12,8 C 14,8 C 3,2 km/h (1 Bft)
19/08/2017 22:21 14,8 C 15,0 C 15,0 C 20,0 C 19,4 C 18,9 C 88 % 1 lf 12 cb 30 cb 84 cb 42 cb 1021,7 hPa 0,0 l/m 1,6 km/h (1 Bft) SE 135 0 min 0 mm 0 UV-I 0 W/m 12,8 C 14,8 C 3,2 km/h (1 Bft)
19/08/2017 22:20 14,9 C 15,0 C 15,0 C 20,0 C 19,4 C 18,9 C 87 % 1 lf 12 cb 30 cb 84 cb 42 cb 1021,7 hPa 0,0 l/m 1,6 km/h (1 Bft) SE 135 0 min 0 mm 0 UV-I 0 W/m 12,8 C 14,9 C 3,2 km/h (1 Bft)
19/08/2017 22:19 14,9 C 15,0 C 15,0 C 20,0 C 19,4 C 18,9 C 87 % 1 lf 12 cb 30 cb 84 cb 42 cb 1021,6 hPa 0,0 l/m 1,6 km/h (1 Bft) SE 135 0 min 0 mm 0 UV-I 0 W/m 12,8 C 14,9 C 3,2 km/h (1 Bft)
19/08/2017 22:18 14,9 C 15,0 C 15,0 C 20,0 C 19,4 C 18,9 C 87 % 1 lf 12 cb 30 cb 84 cb 42 cb 1021,7 hPa 0,0 l/m 1,6 km/h (1 Bft) SE 135 0 min 0 mm 0 UV-I 0 W/m 12,8 C 14,9 C 3,2 km/h (1 Bft)
19/08/2017 22:17 14,9 C 15,0 C 15,0 C 20,0 C 19,4 C 18,9 C 87 % 1 lf 12 cb 30 cb 84 cb 42 cb 1021,7 hPa 0,0 l/m 1,6 km/h (1 Bft) SE 135 0 min 0 mm 0 UV-I 0 W/m 12,8 C 14,9 C 1,6 km/h (1 Bft)
19/08/2017 22:16 14,9 C 15,0 C 15,0 C 20,0 C 19,4 C 18,9 C 87 % 1 lf 12 cb 30 cb 84 cb 42 cb 1021,7 hPa 0,0 l/m 1,6 km/h (1 Bft) SE 135 0 min 0 mm 0 UV-I 0 W/m 12,8 C 14,9 C 1,6 km/h (1 Bft)
19/08/2017 22:15 15,0 C 15,0 C 15,0 C 20,0 C 19,4 C 18,9 C 87 % 1 lf 12 cb 30 cb 84 cb 42 cb 1021,7 hPa 0,0 l/m 1,6 km/h (1 Bft) SE 135 0 min 0 mm 0 UV-I 0 W/m 12,9 C 15,0 C 3,2 km/h (1 Bft)
19/08/2017 22:14 15,0 C 15,0 C 15,0 C 20,0 C 19,4 C 18,9 C 86 % 1 lf 12 cb 30 cb 84 cb 42 cb 1021,8 hPa 0,0 l/m 1,6 km/h (1 Bft) SE 135 0 min 0 mm 0 UV-I 0 W/m 12,7 C 15,0 C 3,2 km/h (1 Bft)
19/08/2017 22:13 15,1 C 15,0 C 15,0 C 20,0 C 19,4 C 18,9 C 87 % 1 lf 12 cb 30 cb 84 cb 42 cb 1021,8 hPa 0,0 l/m 0,0 km/h (0 Bft) N 0 0 min 0 mm 0 UV-I 0 W/m 13,0 C 15,1 C 0,0 km/h (0 Bft)
19/08/2017 22:12 15,1 C 15,0 C 15,0 C 20,0 C 19,4 C 18,9 C 86 % 1 lf 12 cb 30 cb 84 cb 42 cb 1021,8 hPa 0,0 l/m 0,0 km/h (0 Bft) N 0 0 min 0 mm 0 UV-I 0 W/m 12,8 C 15,1 C 0,0 km/h (0 Bft)
19/08/2017 22:11 15,1 C 15,0 C 15,0 C 20,0 C 19,4 C 18,9 C 86 % 1 lf 12 cb 30 cb 84 cb 42 cb 1021,8 hPa 0,0 l/m 0,0 km/h (0 Bft) N 0 0 min 0 mm 0 UV-I 0 W/m 12,8 C 15,1 C 0,0 km/h (0 Bft)
19/08/2017 22:10 15,1 C 15,6 C 15,6 C 20,0 C 19,4 C 18,9 C 86 % 1 lf 12 cb 30 cb 84 cb 42 cb 1021,8 hPa 0,0 l/m 0,0 km/h (0 Bft) N 0 0 min 0 mm 0 UV-I 0 W/m 12,8 C 15,1 C 0,0 km/h (0 Bft)
19/08/2017 22:09 15,1 C 15,6 C 15,6 C 20,0 C 19,4 C 18,9 C 86 % 1 lf 12 cb 30 cb 84 cb 42 cb 1021,8 hPa 0,0 l/m 0,0 km/h (0 Bft) SE 135 0 min 0 mm 0 UV-I 0 W/m 12,8 C 15,1 C 1,6 km/h (1 Bft)
19/08/2017 22:08 15,2 C 15,6 C 15,6 C 20,0 C 19,4 C 18,9 C 86 % 1 lf 12 cb 30 cb 84 cb 42 cb 1021,8 hPa 0,0 l/m 3,2 km/h (1 Bft) SE 135 0 min 0 mm 0 UV-I 0 W/m 12,9 C 15,2 C 4,8 km/h (1 Bft)
19/08/2017 22:07 15,2 C 15,6 C 15,6 C 20,0 C 19,4 C 18,9 C 86 % 1 lf 12 cb 30 cb 84 cb 42 cb 1021,7 hPa 0,0 l/m 1,6 km/h (1 Bft) SE 135 0 min 0 mm 0 UV-I 0 W/m 12,9 C 15,2 C 3,2 km/h (1 Bft)
19/08/2017 22:06 15,2 C 15,6 C 15,6 C 20,0 C 19,4 C 18,9 C 86 % 1 lf 12 cb 30 cb 84 cb 42 cb 1021,8 hPa 0,0 l/m 3,2 km/h (1 Bft) SE 135 0 min 0 mm 0 UV-I 0 W/m 12,9 C 15,2 C 3,2 km/h (1 Bft)
19/08/2017 22:05 15,2 C 15,6 C 15,6 C 20,0 C 19,4 C 18,9 C 86 % 1 lf 12 cb 30 cb 84 cb 42 cb 1021,7 hPa 0,0 l/m 3,2 km/h (1 Bft) SE 135 0 min 0 mm 0 UV-I 0 W/m 12,9 C 15,2 C 3,2 km/h (1 Bft)
19/08/2017 22:04 15,2 C 15,6 C 15,6 C 20,0 C 19,4 C 18,9 C 85 % 1 lf 12 cb 30 cb 84 cb 42 cb 1021,7 hPa 0,0 l/m 3,2 km/h (1 Bft) SE 135 0 min 0 mm 0 UV-I 0 W/m 12,7 C 15,2 C 3,2 km/h (1 Bft)
19/08/2017 22:03 15,2 C 15,6 C 15,6 C 20,0 C 19,4 C 18,9 C 85 % 1 lf 12 cb 30 cb 84 cb 42 cb 1021,7 hPa 0,0 l/m 4,8 km/h (1 Bft) SE 135 0 min 0 mm 0 UV-I 0 W/m 12,7 C 15,2 C 6,4 km/h (2 Bft)
19/08/2017 22:02 15,3 C 15,6 C 15,6 C 20,0 C 19,4 C 18,9 C 85 % 0 lf 12 cb 30 cb 84 cb 42 cb 1021,6 hPa 0,0 l/m 1,6 km/h (1 Bft) SE 135 0 min 0 mm 0 UV-I 0 W/m 12,8 C 15,3 C 4,8 km/h (1 Bft)
19/08/2017 22:01 15,3 C 15,6 C 15,6 C 20,0 C 19,4 C 18,9 C 85 % 0 lf 12 cb 30 cb 84 cb 42 cb 1021,7 hPa 0,0 l/m 0,0 km/h (0 Bft) N 0 0 min 0 mm 0 UV-I 0 W/m 12,8 C 15,3 C 0,0 km/h (0 Bft)
19/08/2017 22:00 15,3 C 15,6 C 15,6 C 20,0 C 19,4 C 18,9 C 85 % 0 lf 12 cb 30 cb 84 cb 42 cb 1021,7 hPa 0,0 l/m 0,0 km/h (0 Bft) N 0 0 min 0 mm 0 UV-I 0 W/m 12,8 C 15,3 C 0,0 km/h (0 Bft)
19/08/2017 21:59 15,3 C 15,6 C 15,6 C 20,0 C 19,4 C 18,9 C 85 % 0 lf 12 cb 30 cb 84 cb 42 cb 1021,6 hPa 0,0 l/m 0,0 km/h (0 Bft) N 0 0 min 0 mm 0 UV-I 0 W/m 12,8 C 15,3 C 0,0 km/h (0 Bft)
19/08/2017 21:58 15,3 C 15,6 C 15,6 C 20,0 C 19,4 C 18,9 C 85 % 0 lf 12 cb 30 cb 84 cb 42 cb 1021,7 hPa 0,0 l/m 0,0 km/h (0 Bft) N 0 0 min 0 mm 0 UV-I 0 W/m 12,8 C 15,3 C 0,0 km/h (0 Bft)
19/08/2017 21:57 15,3 C 15,6 C 15,6 C 20,0 C 19,4 C 18,9 C 85 % 0 lf 12 cb 30 cb 84 cb 42 cb 1021,7 hPa 0,0 l/m 0,0 km/h (0 Bft) N 0 0 min 0 mm 0 UV-I 0 W/m 12,8 C 15,3 C 0,0 km/h (0 Bft)
19/08/2017 21:56 15,3 C 15,6 C 15,6 C 20,0 C 19,4 C 18,9 C 85 % 0 lf 12 cb 30 cb 84 cb 42 cb 1021,6 hPa 0,0 l/m 0,0 km/h (0 Bft) N 0 0 min 0 mm 0 UV-I 0 W/m 12,8 C 15,3 C 0,0 km/h (0 Bft)
19/08/2017 21:55 15,3 C 15,6 C 15,6 C 20,0 C 19,4 C 18,9 C 85 % 0 lf 12 cb 30 cb 84 cb 42 cb 1021,6 hPa 0,0 l/m 0,0 km/h (0 Bft) N 0 0 min 0 mm 0 UV-I 0 W/m 12,8 C 15,3 C 0,0 km/h (0 Bft)
19/08/2017 21:54 15,3 C 15,6 C 15,6 C 20,0 C 19,4 C 18,9 C 85 % 0 lf 12 cb 30 cb 84 cb 42 cb 1021,6 hPa 0,0 l/m 0,0 km/h (0 Bft) N 0 0 min 0 mm 0 UV-I 0 W/m 12,8 C 15,3 C 0,0 km/h (0 Bft)
19/08/2017 21:53 15,3 C 15,6 C 15,6 C 20,0 C 19,4 C 18,9 C 85 % 0 lf 12 cb 30 cb 84 cb 42 cb 1021,6 hPa 0,0 l/m 0,0 km/h (0 Bft) N 0 0 min 0 mm 0 UV-I 0 W/m 12,8 C 15,3 C 0,0 km/h (0 Bft)
19/08/2017 21:52 15,3 C 15,6 C 15,6 C 20,0 C 19,4 C 18,9 C 85 % 0 lf 12 cb 30 cb 84 cb 42 cb 1021,6 hPa 0,0 l/m 0,0 km/h (0 Bft) SE 135 0 min 0 mm 0 UV-I 0 W/m 12,8 C 15,3 C 1,6 km/h (1 Bft)
19/08/2017 21:51 15,3 C 15,6 C 15,6 C 20,0 C 19,4 C 18,9 C 85 % 0 lf 12 cb 30 cb 84 cb 42 cb 1021,5 hPa 0,0 l/m 1,6 km/h (1 Bft) SE 135 0 min 0 mm 0 UV-I 0 W/m 12,8 C 15,3 C 3,2 km/h (1 Bft)
19/08/2017 21:50 15,3 C 15,6 C 15,6 C 20,0 C 19,4 C 18,9 C 85 % 0 lf 12 cb 30 cb 84 cb 42 cb 1021,5 hPa 0,0 l/m 3,2 km/h (1 Bft) SE 135 0 min 0 mm 0 UV-I 0 W/m 12,8 C 15,3 C 3,2 km/h (1 Bft)
19/08/2017 21:49 15,3 C 15,6 C 15,6 C 20,0 C 19,4 C 18,9 C 85 % 0 lf 12 cb 30 cb 84 cb 42 cb 1021,6 hPa 0,0 l/m 1,6 km/h (1 Bft) SE 135 0 min 0 mm 0 UV-I 0 W/m 12,8 C 15,3 C 3,2 km/h (1 Bft)
19/08/2017 21:48 15,3 C 15,6 C 15,6 C 20,0 C 19,4 C 18,9 C 85 % 0 lf 12 cb 30 cb 84 cb 42 cb 1021,6 hPa 0,0 l/m 1,6 km/h (1 Bft) SE 135 0 min 0 mm 0 UV-I 0 W/m 12,8 C 15,3 C 3,2 km/h (1 Bft)
19/08/2017 21:47 15,3 C 15,6 C 15,6 C 20,0 C 19,4 C 18,9 C 85 % 0 lf 12 cb 30 cb 84 cb 42 cb 1021,6 hPa 0,0 l/m 1,6 km/h (1 Bft) SE 135 0 min 0 mm 0 UV-I 0 W/m 12,8 C 15,3 C 3,2 km/h (1 Bft)
19/08/2017 21:46 15,3 C 15,6 C 15,6 C 20,0 C 19,4 C 18,9 C 84 % 0 lf 12 cb 30 cb 84 cb 42 cb 1021,6 hPa 0,0 l/m 0,0 km/h (0 Bft) SE 135 0 min 0 mm 0 UV-I 0 W/m 12,6 C 15,3 C 1,6 km/h (1 Bft)
19/08/2017 21:45 15,3 C 15,6 C 15,6 C 20,0 C 19,4 C 18,9 C 84 % 0 lf 12 cb 30 cb 84 cb 42 cb 1021,6 hPa 0,0 l/m 1,6 km/h (1 Bft) SE 135 0 min 0 mm 0 UV-I 0 W/m 12,6 C 15,3 C 1,6 km/h (1 Bft)
19/08/2017 21:44 15,3 C 15,6 C 15,6 C 20,0 C 19,4 C 18,9 C 84 % 0 lf 12 cb 30 cb 84 cb 42 cb 1021,5 hPa 0,0 l/m 1,6 km/h (1 Bft) SE 135 0 min 0 mm 0 UV-I 0 W/m 12,6 C 15,3 C 3,2 km/h (1 Bft)
19/08/2017 21:43 15,3 C 15,6 C 15,6 C 20,0 C 19,4 C 18,9 C 84 % 0 lf 12 cb 30 cb 84 cb 42 cb 1021,6 hPa 0,0 l/m 1,6 km/h (1 Bft) SE 135 0 min 0 mm 0 UV-I 0 W/m 12,6 C 15,3 C 3,2 km/h (1 Bft)
19/08/2017 21:42 15,3 C 15,6 C 15,6 C 20,0 C 19,4 C 18,9 C 84 % 0 lf 12 cb 30 cb 84 cb 42 cb 1021,6 hPa 0,0 l/m 1,6 km/h (1 Bft) SE 135 0 min 0 mm 0 UV-I 0 W/m 12,6 C 15,3 C 3,2 km/h (1 Bft)
19/08/2017 21:41 15,3 C 15,6 C 15,6 C 20,0 C 19,4 C 18,9 C 84 % 0 lf 12 cb 30 cb 84 cb 42 cb 1021,5 hPa 0,0 l/m 1,6 km/h (1 Bft) SE 135 0 min 0 mm 0 UV-I 0 W/m 12,6 C 15,3 C 3,2 km/h (1 Bft)
19/08/2017 21:40 15,4 C 15,6 C 15,6 C 20,0 C 19,4 C 18,9 C 84 % 0 lf 12 cb 30 cb 84 cb 42 cb 1021,5 hPa 0,0 l/m 1,6 km/h (1 Bft) SE 135 0 min 0 mm 0 UV-I 0 W/m 12,7 C 15,4 C 3,2 km/h (1 Bft)
19/08/2017 21:39 15,4 C 15,6 C 15,6 C 20,0 C 19,4 C 18,9 C 84 % 0 lf 12 cb 30 cb 84 cb 42 cb 1021,5 hPa 0,0 l/m 3,2 km/h (1 Bft) E-SE 112 0 min 0 mm 0 UV-I 0 W/m 12,7 C 15,4 C 6,4 km/h (2 Bft)
19/08/2017 21:38 15,4 C 15,6 C 15,6 C 20,0 C 19,4 C 18,9 C 84 % 0 lf 12 cb 30 cb 84 cb 42 cb 1021,5 hPa 0,0 l/m 6,4 km/h (2 Bft) E-SE 112 0 min 0 mm 0 UV-I 0 W/m 12,7 C 15,4 C 8,0 km/h (2 Bft)
19/08/2017 21:37 15,4 C 15,6 C 15,6 C 20,0 C 19,4 C 18,9 C 85 % 0 lf 12 cb 30 cb 84 cb 42 cb 1021,4 hPa 0,0 l/m 3,2 km/h (1 Bft) S 180 0 min 0 mm 0 UV-I 0 W/m 12,9 C 15,4 C 4,8 km/h (1 Bft)
19/08/2017 21:36 15,4 C 15,6 C 15,6 C 20,0 C 19,4 C 18,9 C 85 % 0 lf 12 cb 30 cb 84 cb 42 cb 1021,5 hPa 0,0 l/m 0,0 km/h (0 Bft) N 0 0 min 0 mm 0 UV-I 0 W/m 12,9 C 15,4 C 0,0 km/h (0 Bft)
19/08/2017 21:35 15,4 C 15,6 C 15,6 C 20,0 C 19,4 C 18,9 C 85 % 0 lf 12 cb 30 cb 84 cb 42 cb 1021,4 hPa 0,0 l/m 0,0 km/h (0 Bft) S 180 0 min 0 mm 0 UV-I 0 W/m 12,9 C 15,4 C 1,6 km/h (1 Bft)
19/08/2017 21:34 15,4 C 15,6 C 15,6 C 20,0 C 19,4 C 18,9 C 85 % 0 lf 12 cb 30 cb 84 cb 42 cb 1021,4 hPa 0,0 l/m 0,0 km/h (0 Bft) N 0 0 min 0 mm 0 UV-I 0 W/m 12,9 C 15,4 C 0,0 km/h (0 Bft)
19/08/2017 21:33 15,4 C 15,6 C 15,6 C 20,0 C 19,4 C 18,9 C 85 % 0 lf 12 cb 30 cb 84 cb 42 cb 1021,4 hPa 0,0 l/m 0,0 km/h (0 Bft) N 0 0 min 0 mm 0 UV-I 0 W/m 12,9 C 15,4 C 0,0 km/h (0 Bft)
19/08/2017 21:32 15,4 C 16,1 C 15,6 C 20,0 C 19,4 C 18,9 C 84 % 0 lf 12 cb 30 cb 84 cb 42 cb 1021,4 hPa 0,0 l/m 1,6 km/h (1 Bft) S 180 0 min 0 mm 0 UV-I 0 W/m 12,7 C 15,4 C 1,6 km/h (1 Bft)
19/08/2017 21:31 15,4 C 16,1 C 16,1 C 20,0 C 19,4 C 18,9 C 84 % 0 lf 12 cb 30 cb 84 cb 42 cb 1021,5 hPa 0,0 l/m 1,6 km/h (1 Bft) S 180 0 min 0 mm 0 UV-I 0 W/m 12,7 C 15,4 C 3,2 km/h (1 Bft)
19/08/2017 21:30 15,4 C 16,1 C 16,1 C 20,0 C 19,4 C 18,9 C 84 % 0 lf 12 cb 30 cb 84 cb 42 cb 1021,4 hPa 0,0 l/m 3,2 km/h (1 Bft) S 180 0 min 0 mm 0 UV-I 0 W/m 12,7 C 15,4 C 4,8 km/h (1 Bft)
19/08/2017 21:29 15,4 C 16,1 C 16,1 C 20,0 C 19,4 C 18,9 C 84 % 0 lf 12 cb 30 cb 84 cb 42 cb 1021,4 hPa 0,0 l/m 6,4 km/h (2 Bft) S 180 0 min 0 mm 0 UV-I 0 W/m 12,7 C 15,4 C 8,0 km/h (2 Bft)
19/08/2017 21:28 15,4 C 16,1 C 16,1 C 20,0 C 19,4 C 18,9 C 84 % 0 lf 12 cb 30 cb 84 cb 42 cb 1021,4 hPa 0,0 l/m 1,6 km/h (1 Bft) SE 135 0 min 0 mm 0 UV-I 0 W/m 12,7 C 15,4 C 4,8 km/h (1 Bft)
19/08/2017 21:27 15,4 C 16,1 C 16,1 C 20,0 C 19,4 C 18,9 C 84 % 0 lf 12 cb 30 cb 84 cb 42 cb 1021,4 hPa 0,0 l/m 1,6 km/h (1 Bft) SE 135 0 min 0 mm 0 UV-I 0 W/m 12,7 C 15,4 C 3,2 km/h (1 Bft)
19/08/2017 21:26 15,4 C 16,1 C 16,1 C 20,0 C 19,4 C 18,9 C 84 % 0 lf 12 cb 30 cb 84 cb 42 cb 1021,4 hPa 0,0 l/m 3,2 km/h (1 Bft) SE 135 0 min 0 mm 0 UV-I 0 W/m 12,7 C 15,4 C 3,2 km/h (1 Bft)
19/08/2017 21:25 15,4 C 16,1 C 16,1 C 20,0 C 19,4 C 18,9 C 84 % 0 lf 12 cb 30 cb 84 cb 42 cb 1021,4 hPa 0,0 l/m 4,8 km/h (1 Bft) SE 135 0 min 0 mm 0 UV-I 0 W/m 12,7 C 15,4 C 6,4 km/h (2 Bft)
19/08/2017 21:24 15,4 C 16,1 C 16,1 C 20,0 C 19,4 C 18,9 C 84 % 0 lf 12 cb 30 cb 84 cb 42 cb 1021,4 hPa 0,0 l/m 4,8 km/h (1 Bft) SE 135 0 min 0 mm 0 UV-I 0 W/m 12,7 C 15,4 C 6,4 km/h (2 Bft)
19/08/2017 21:23 15,4 C 16,1 C 16,1 C 20,0 C 19,4 C 18,9 C 84 % 0 lf 12 cb 30 cb 84 cb 42 cb 1021,4 hPa 0,0 l/m 3,2 km/h (1 Bft) SE 135 0 min 0 mm 0 UV-I 0 W/m 12,7 C 15,4 C 4,8 km/h (1 Bft)
19/08/2017 21:22 15,4 C 16,1 C 16,1 C 20,6 C 19,4 C 18,9 C 84 % 0 lf 12 cb 30 cb 84 cb 42 cb 1021,4 hPa 0,0 l/m 3,2 km/h (1 Bft) SE 135 0 min 0 mm 0 UV-I 0 W/m 12,7 C 15,4 C 6,4 km/h (2 Bft)
19/08/2017 21:21 15,4 C 16,1 C 16,1 C 20,6 C 19,4 C 18,9 C 84 % 0 lf 12 cb 30 cb 84 cb 42 cb 1021,5 hPa 0,0 l/m 3,2 km/h (1 Bft) SE 135 0 min 0 mm 0 UV-I 0 W/m 12,7 C 15,4 C 6,4 km/h (2 Bft)
19/08/2017 21:20 15,4 C 16,1 C 16,1 C 20,6 C 19,4 C 18,9 C 84 % 0 lf 12 cb 30 cb 84 cb 42 cb 1021,4 hPa 0,0 l/m 3,2 km/h (1 Bft) S-SE 157 0 min 0 mm 0 UV-I 0 W/m 12,7 C 15,4 C 6,4 km/h (2 Bft)
19/08/2017 21:19 15,4 C 16,1 C 16,1 C 20,6 C 19,4 C 18,9 C 85 % 0 lf 12 cb 30 cb 84 cb 42 cb 1021,5 hPa 0,0 l/m 4,8 km/h (1 Bft) SE 135 0 min 0 mm 0 UV-I 0 W/m 12,9 C 15,4 C 8,0 km/h (2 Bft)
19/08/2017 21:18 15,4 C 16,1 C 16,1 C 20,6 C 19,4 C 18,9 C 85 % 0 lf 12 cb 30 cb 84 cb 42 cb 1021,4 hPa 0,0 l/m 3,2 km/h (1 Bft) SE 135 0 min 0 mm 0 UV-I 0 W/m 12,9 C 15,4 C 4,8 km/h (1 Bft)
19/08/2017 21:17 15,4 C 16,1 C 16,1 C 20,6 C 19,4 C 18,9 C 85 % 0 lf 11 cb 30 cb 84 cb 42 cb 1021,4 hPa 0,0 l/m 6,4 km/h (2 Bft) S-SE 157 0 min 0 mm 0 UV-I 0 W/m 12,9 C 15,4 C 6,4 km/h (2 Bft)
19/08/2017 21:16 15,4 C 16,1 C 16,1 C 20,6 C 19,4 C 18,9 C 85 % 0 lf 11 cb 30 cb 84 cb 42 cb 1021,4 hPa 0,0 l/m 4,8 km/h (1 Bft) S-SE 157 0 min 0 mm 0 UV-I 0 W/m 12,9 C 15,4 C 6,4 km/h (2 Bft)
19/08/2017 21:15 15,4 C 16,1 C 16,1 C 20,6 C 19,4 C 18,9 C 85 % 0 lf 11 cb 30 cb 84 cb 42 cb 1021,4 hPa 0,0 l/m 3,2 km/h (1 Bft) S-SE 157 0 min 0 mm 0 UV-I 0 W/m 12,9 C 15,4 C 3,2 km/h (1 Bft)
19/08/2017 21:14 15,4 C 16,1 C 16,1 C 20,6 C 19,4 C 18,9 C 85 % 0 lf 11 cb 30 cb 84 cb 42 cb 1021,3 hPa 0,0 l/m 4,8 km/h (1 Bft) S-SE 157 0 min 0 mm 0 UV-I 0 W/m 12,9 C 15,4 C 6,4 km/h (2 Bft)
19/08/2017 21:13 15,4 C 16,1 C 16,1 C 20,6 C 19,4 C 18,9 C 85 % 0 lf 11 cb 30 cb 84 cb 42 cb 1021,3 hPa 0,0 l/m 4,8 km/h (1 Bft) S-SE 157 0 min 0 mm 0 UV-I 0 W/m 12,9 C 15,4 C 6,4 km/h (2 Bft)
19/08/2017 21:12 15,4 C 16,1 C 16,1 C 20,6 C 19,4 C 18,9 C 85 % 0 lf 11 cb 30 cb 84 cb 42 cb 1021,3 hPa 0,0 l/m 3,2 km/h (1 Bft) S-SE 157 0 min 0 mm 0 UV-I 0 W/m 12,9 C 15,4 C 6,4 km/h (2 Bft)
19/08/2017 21:11 15,4 C 16,1 C 16,1 C 20,6 C 19,4 C 18,9 C 85 % 0 lf 11 cb 30 cb 84 cb 42 cb 1021,4 hPa 0,0 l/m 3,2 km/h (1 Bft) S-SE 157 0 min 0 mm 0 UV-I 0 W/m 12,9 C 15,4 C 8,0 km/h (2 Bft)
19/08/2017 21:10 15,4 C 16,1 C 16,1 C 20,6 C 19,4 C 18,9 C 85 % 0 lf 11 cb 30 cb 84 cb 42 cb 1021,4 hPa 0,0 l/m 3,2 km/h (1 Bft) S-SE 157 0 min 0 mm 0 UV-I 0 W/m 12,9 C 15,4 C 6,4 km/h (2 Bft)
19/08/2017 21:09 15,4 C 16,1 C 16,1 C 20,6 C 19,4 C 18,9 C 85 % 0 lf 11 cb 30 cb 84 cb 42 cb 1021,4 hPa 0,0 l/m 3,2 km/h (1 Bft) SE 135 0 min 0 mm 0 UV-I 0 W/m 12,9 C 15,4 C 3,2 km/h (1 Bft)
19/08/2017 21:08 15,4 C 16,1 C 16,1 C 20,6 C 19,4 C 18,9 C 85 % 0 lf 11 cb 30 cb 84 cb 42 cb 1021,3 hPa 0,0 l/m 6,4 km/h (2 Bft) SE 135 0 min 0 mm 0 UV-I 0 W/m 12,9 C 15,4 C 8,0 km/h (2 Bft)
19/08/2017 21:07 15,4 C 16,1 C 16,1 C 20,6 C 19,4 C 18,9 C 85 % 0 lf 11 cb 30 cb 84 cb 42 cb 1021,3 hPa 0,0 l/m 4,8 km/h (1 Bft) S-SE 157 0 min 0 mm 0 UV-I 0 W/m 12,9 C 15,4 C 8,0 km/h (2 Bft)
19/08/2017 21:06 15,4 C 16,1 C 16,1 C 20,6 C 19,4 C 18,9 C 85 % 0 lf 11 cb 30 cb 84 cb 42 cb 1021,4 hPa 0,0 l/m 6,4 km/h (2 Bft) S-SE 157 0 min 0 mm 0 UV-I 0 W/m 12,9 C 15,4 C 8,0 km/h (2 Bft)
19/08/2017 21:05 15,4 C 16,1 C 16,1 C 20,6 C 19,4 C 18,9 C 85 % 0 lf 11 cb 30 cb 84 cb 42 cb 1021,4 hPa 0,0 l/m 6,4 km/h (2 Bft) S-SE 157 0 min 0 mm 0 UV-I 0 W/m 12,9 C 15,4 C 9,7 km/h (2 Bft)
19/08/2017 21:04 15,4 C 16,1 C 16,1 C 20,6 C 19,4 C 18,9 C 85 % 0 lf 11 cb 30 cb 84 cb 42 cb 1021,3 hPa 0,0 l/m 6,4 km/h (2 Bft) S-SE 157 0 min 0 mm 0 UV-I 0 W/m 12,9 C 15,4 C 8,0 km/h (2 Bft)
19/08/2017 21:03 15,4 C 15,6 C 15,6 C 20,6 C 19,4 C 18,9 C 85 % 0 lf 11 cb 30 cb 84 cb 42 cb 1021,4 hPa 0,0 l/m 6,4 km/h (2 Bft) S-SE 157 0 min 0 mm 0 UV-I 0 W/m 12,9 C 15,4 C 8,0 km/h (2 Bft)
19/08/2017 21:02 15,4 C 15,6 C 15,6 C 20,6 C 19,4 C 18,9 C 85 % 0 lf 11 cb 30 cb 84 cb 42 cb 1021,3 hPa 0,0 l/m 4,8 km/h (1 Bft) S 180 0 min 0 mm 0 UV-I 0 W/m 12,9 C 15,4 C 8,0 km/h (2 Bft)
19/08/2017 21:01 15,4 C 15,6 C 15,6 C 20,6 C 19,4 C 18,9 C 85 % 0 lf 11 cb 30 cb 84 cb 42 cb 1021,3 hPa 0,0 l/m 4,8 km/h (1 Bft) S-SE 157 0 min 0 mm 0 UV-I 0 W/m 12,9 C 15,4 C 8,0 km/h (2 Bft)
19/08/2017 21:00 15,4 C 15,6 C 15,6 C 20,6 C 19,4 C 18,9 C 85 % 0 lf 11 cb 30 cb 84 cb 42 cb 1021,4 hPa 0,0 l/m 4,8 km/h (1 Bft) S 180 0 min 0 mm 0 UV-I 0 W/m 12,9 C 15,4 C 8,0 km/h (2 Bft)
19/08/2017 20:59 15,4 C 15,6 C 15,6 C 20,6 C 19,4 C 19,4 C 85 % 0 lf 11 cb 30 cb 84 cb 43 cb 1021,3 hPa 0,0 l/m 6,4 km/h (2 Bft) SE 135 0 min 0 mm 0 UV-I 0 W/m 12,9 C 15,4 C 8,0 km/h (2 Bft)
19/08/2017 20:58 15,4 C 15,6 C 15,6 C 20,6 C 19,4 C 18,9 C 85 % 0 lf 11 cb 30 cb 84 cb 42 cb 1021,3 hPa 0,0 l/m 1,6 km/h (1 Bft) SE 135 0 min 0 mm 0 UV-I 0 W/m 12,9 C 15,4 C 3,2 km/h (1 Bft)
19/08/2017 20:57 15,4 C 15,6 C 15,6 C 20,6 C 19,4 C 18,9 C 85 % 0 lf 11 cb 30 cb 84 cb 42 cb 1021,3 hPa 0,0 l/m 4,8 km/h (1 Bft) SE 135 0 min 0 mm 0 UV-I 0 W/m 12,9 C 15,4 C 6,4 km/h (2 Bft)
19/08/2017 20:56 15,4 C 15,6 C 15,6 C 20,6 C 19,4 C 18,9 C 85 % 0 lf 11 cb 30 cb 84 cb 42 cb 1021,3 hPa 0,0 l/m 3,2 km/h (1 Bft) S-SE 157 0 min 0 mm 0 UV-I 0 W/m 12,9 C 15,4 C 8,0 km/h (2 Bft)
19/08/2017 20:55 15,5 C 15,6 C 15,6 C 20,6 C 19,4 C 18,9 C 85 % 0 lf 11 cb 30 cb 84 cb 42 cb 1021,3 hPa 0,0 l/m 3,2 km/h (1 Bft) S-SE 157 0 min 0 mm 0 UV-I 0 W/m 13,0 C 15,5 C 6,4 km/h (2 Bft)
19/08/2017 20:54 15,5 C 15,6 C 15,6 C 20,6 C 19,4 C 18,9 C 85 % 0 lf 11 cb 30 cb 84 cb 42 cb 1021,3 hPa 0,0 l/m 4,8 km/h (1 Bft) S-SE 157 0 min 0 mm 0 UV-I 0 W/m 13,0 C 15,5 C 6,4 km/h (2 Bft)
19/08/2017 20:53 15,5 C 15,6 C 15,6 C 20,6 C 19,4 C 18,9 C 85 % 0 lf 11 cb 30 cb 84 cb 42 cb 1021,2 hPa 0,0 l/m 4,8 km/h (1 Bft) S-SE 157 0 min 0 mm 0 UV-I 0 W/m 13,0 C 15,5 C 8,0 km/h (2 Bft)
19/08/2017 20:52 15,6 C 15,6 C 15,6 C 20,6 C 19,4 C 18,9 C 84 % 0 lf 11 cb 30 cb 84 cb 42 cb 1021,2 hPa 0,0 l/m 6,4 km/h (2 Bft) S-SE 157 0 min 0 mm 0 UV-I 0 W/m 12,9 C 15,6 C 6,4 km/h (2 Bft)
19/08/2017 20:51 15,6 C 15,6 C 15,6 C 20,6 C 19,4 C 18,9 C 84 % 0 lf 11 cb 30 cb 84 cb 42 cb 1021,2 hPa 0,0 l/m 4,8 km/h (1 Bft) S-SE 157 0 min 0 mm 0 UV-I 0 W/m 12,9 C 15,6 C 8,0 km/h (2 Bft)
19/08/2017 20:50 15,6 C 15,6 C 15,6 C 20,6 C 19,4 C 19,4 C 84 % 0 lf 11 cb 30 cb 84 cb 43 cb 1021,3 hPa 0,0 l/m 8,0 km/h (2 Bft) S-SE 157 0 min 0 mm 0 UV-I 0 W/m 12,9 C 14,7 C 12,9 km/h (3 Bft)
19/08/2017 20:49 15,6 C 15,6 C 15,6 C 20,6 C 19,4 C 18,9 C 84 % 0 lf 11 cb 30 cb 84 cb 42 cb 1021,2 hPa 0,0 l/m 8,0 km/h (2 Bft) S-SE 157 0 min 0 mm 0 UV-I 0 W/m 12,9 C 14,7 C 11,3 km/h (2 Bft)
19/08/2017 20:48 15,6 C 15,6 C 15,6 C 20,6 C 19,4 C 18,9 C 84 % 0 lf 11 cb 30 cb 84 cb 42 cb 1021,3 hPa 0,0 l/m 4,8 km/h (1 Bft) S-SE 157 0 min 0 mm 0 UV-I 0 W/m 12,9 C 15,6 C 8,0 km/h (2 Bft)
19/08/2017 20:47 15,7 C 15,6 C 15,6 C 20,6 C 19,4 C 18,9 C 84 % 0 lf 11 cb 30 cb 84 cb 42 cb 1021,2 hPa 0,0 l/m 8,0 km/h (2 Bft) S-SE 157 0 min 0 mm 0 UV-I 0 W/m 13,0 C 14,8 C 11,3 km/h (2 Bft)
19/08/2017 20:46 15,7 C 15,6 C 15,6 C 20,6 C 19,4 C 19,4 C 84 % 0 lf 11 cb 30 cb 84 cb 43 cb 1021,2 hPa 0,0 l/m 8,0 km/h (2 Bft) S-SE 157 0 min 0 mm 0 UV-I 0 W/m 13,0 C 14,8 C 9,7 km/h (2 Bft)
19/08/2017 20:45 15,7 C 15,6 C 15,6 C 20,6 C 19,4 C 18,9 C 84 % 0 lf 11 cb 30 cb 84 cb 42 cb 1021,2 hPa 0,0 l/m 3,2 km/h (1 Bft) S-SE 157 0 min 0 mm 0 UV-I 0 W/m 13,0 C 15,7 C 6,4 km/h (2 Bft)
19/08/2017 20:44 15,8 C 16,1 C 16,1 C 20,6 C 19,4 C 18,9 C 83 % 0 lf 11 cb 30 cb 84 cb 42 cb 1021,2 hPa 0,0 l/m 4,8 km/h (1 Bft) S-SE 157 0 min 0 mm 0 UV-I 0 W/m 12,9 C 15,8 C 8,0 km/h (2 Bft)
19/08/2017 20:43 15,8 C 16,1 C 16,1 C 20,6 C 19,4 C 18,9 C 83 % 0 lf 11 cb 30 cb 84 cb 42 cb 1021,2 hPa 0,0 l/m 4,8 km/h (1 Bft) S-SE 157 0 min 0 mm 0 UV-I 0 W/m 12,9 C 15,8 C 6,4 km/h (2 Bft)
19/08/2017 20:42 15,8 C 16,1 C 16,1 C 20,6 C 19,4 C 19,4 C 83 % 0 lf 11 cb 30 cb 84 cb 43 cb 1021,2 hPa 0,0 l/m 4,8 km/h (1 Bft) S-SE 157 0 min 0 mm 0 UV-I 0 W/m 12,9 C 15,8 C 8,0 km/h (2 Bft)
19/08/2017 20:41 15,9 C 16,1 C 16,1 C 20,6 C 19,4 C 19,4 C 83 % 0 lf 11 cb 30 cb 84 cb 43 cb 1021,2 hPa 0,0 l/m 4,8 km/h (1 Bft) S-SE 157 0 min 0 mm 0 UV-I 0 W/m 13,0 C 15,9 C 6,4 km/h (2 Bft)
19/08/2017 20:40 15,9 C 16,1 C 16,1 C 20,6 C 19,4 C 18,9 C 83 % 0 lf 11 cb 30 cb 84 cb 42 cb 1021,2 hPa 0,0 l/m 6,4 km/h (2 Bft) SE 135 0 min 0 mm 0 UV-I 0 W/m 13,0 C 15,9 C 8,0 km/h (2 Bft)
19/08/2017 20:39 15,9 C 16,1 C 16,1 C 20,6 C 19,4 C 18,9 C 83 % 0 lf 11 cb 30 cb 84 cb 42 cb 1021,1 hPa 0,0 l/m 6,4 km/h (2 Bft) SE 135 0 min 0 mm 0 UV-I 0 W/m 13,0 C 15,9 C 8,0 km/h (2 Bft)
19/08/2017 20:38 16,0 C 16,1 C 16,1 C 20,6 C 19,4 C 19,4 C 83 % 0 lf 11 cb 30 cb 84 cb 43 cb 1021,1 hPa 0,0 l/m 6,4 km/h (2 Bft) S-SE 157 0 min 0 mm 0 UV-I 5 W/m 13,1 C 16,0 C 8,0 km/h (2 Bft)
19/08/2017 20:37 16,1 C 16,1 C 16,1 C 20,6 C 19,4 C 19,4 C 83 % 0 lf 11 cb 30 cb 84 cb 43 cb 1021,1 hPa 0,0 l/m 3,2 km/h (1 Bft) S-SE 157 0 min 0 mm 0 UV-I 5 W/m 13,2 C 16,1 C 6,4 km/h (2 Bft)
19/08/2017 20:36 16,1 C 16,1 C 16,1 C 20,6 C 19,4 C 19,4 C 82 % 0 lf 11 cb 30 cb 84 cb 43 cb 1021,2 hPa 0,0 l/m 4,8 km/h (1 Bft) S-SE 157 0 min 0 mm 0 UV-I 5 W/m 13,0 C 16,1 C 8,0 km/h (2 Bft)
19/08/2017 20:35 16,1 C 16,1 C 16,1 C 20,6 C 19,4 C 19,4 C 82 % 0 lf 11 cb 30 cb 84 cb 43 cb 1021,1 hPa 0,0 l/m 4,8 km/h (1 Bft) S-SE 157 0 min 0 mm 0 UV-I 7 W/m 13,0 C 16,1 C 8,0 km/h (2 Bft)
19/08/2017 20:34 16,1 C 16,1 C 16,1 C 20,6 C 19,4 C 18,9 C 82 % 0 lf 11 cb 30 cb 84 cb 42 cb 1021,1 hPa 0,0 l/m 4,8 km/h (1 Bft) S-SE 157 0 min 0 mm 0 UV-I 7 W/m 13,0 C 16,1 C 6,4 km/h (2 Bft)
19/08/2017 20:33 16,2 C 16,1 C 16,1 C 20,6 C 19,4 C 19,4 C 82 % 0 lf 11 cb 30 cb 84 cb 43 cb 1021,1 hPa 0,0 l/m 3,2 km/h (1 Bft) S-SE 157 0 min 0 mm 0 UV-I 7 W/m 13,1 C 16,2 C 4,8 km/h (1 Bft)
19/08/2017 20:32 16,2 C 16,1 C 16,1 C 20,6 C 19,4 C 18,9 C 82 % 0 lf 11 cb 30 cb 84 cb 42 cb 1021,1 hPa 0,0 l/m 6,4 km/h (2 Bft) S-SE 157 0 min 0 mm 0 UV-I 7 W/m 13,1 C 16,2 C 9,7 km/h (2 Bft)
19/08/2017 20:31 16,2 C 16,1 C 16,1 C 20,6 C 19,4 C 18,9 C 82 % 0 lf 11 cb 30 cb 84 cb 42 cb 1021,1 hPa 0,0 l/m 6,4 km/h (2 Bft) S 180 0 min 0 mm 0 UV-I 9 W/m 13,1 C 16,2 C 9,7 km/h (2 Bft)
19/08/2017 20:30 16,2 C 16,1 C 16,1 C 20,6 C 19,4 C 18,9 C 82 % 0 lf 11 cb 30 cb 84 cb 42 cb 1021,1 hPa 0,0 l/m 4,8 km/h (1 Bft) S 180 0 min 0 mm 0 UV-I 9 W/m 13,1 C 16,2 C 6,4 km/h (2 Bft)
19/08/2017 20:29 16,2 C 16,1 C 16,1 C 20,6 C 19,4 C 19,4 C 82 % 0 lf 11 cb 30 cb 84 cb 43 cb 1021,1 hPa 0,0 l/m 3,2 km/h (1 Bft) S 180 0 min 0 mm 0 UV-I 9 W/m 13,1 C 16,2 C 6,4 km/h (2 Bft)
19/08/2017 20:28 16,2 C 16,7 C 16,1 C 20,6 C 19,4 C 18,9 C 81 % 0 lf 11 cb 30 cb 84 cb 42 cb 1021,1 hPa 0,0 l/m 6,4 km/h (2 Bft) S 180 0 min 0 mm 0 UV-I 9 W/m 12,9 C 16,2 C 9,7 km/h (2 Bft)
19/08/2017 20:27 16,2 C 16,7 C 16,7 C 20,6 C 19,4 C 18,9 C 81 % 0 lf 11 cb 30 cb 84 cb 42 cb 1021,1 hPa 0,0 l/m 8,0 km/h (2 Bft) S 180 0 min 0 mm 0 UV-I 11 W/m 12,9 C 15,4 C 9,7 km/h (2 Bft)
19/08/2017 20:26 16,2 C 16,7 C 16,7 C 20,6 C 19,4 C 18,9 C 81 % 0 lf 11 cb 30 cb 84 cb 42 cb 1021,1 hPa 0,0 l/m 4,8 km/h (1 Bft) S 180 0 min 0 mm 0 UV-I 11 W/m 12,9 C 16,2 C 6,4 km/h (2 Bft)
19/08/2017 20:25 16,2 C 16,7 C 16,7 C 20,6 C 19,4 C 19,4 C 81 % 0 lf 11 cb 30 cb 84 cb 43 cb 1021,0 hPa 0,0 l/m 4,8 km/h (1 Bft) S 180 0 min 0 mm 0 UV-I 11 W/m 12,9 C 16,2 C 6,4 km/h (2 Bft)
19/08/2017 20:24 16,2 C 16,7 C 16,7 C 20,6 C 19,4 C 19,4 C 81 % 0 lf 11 cb 30 cb 84 cb 43 cb 1021,0 hPa 0,0 l/m 8,0 km/h (2 Bft) S 180 0 min 0 mm 0 UV-I 12 W/m 12,9 C 15,4 C 11,3 km/h (2 Bft)
19/08/2017 20:23 16,3 C 16,7 C 16,7 C 20,6 C 19,4 C 18,9 C 81 % 0 lf 11 cb 30 cb 84 cb 42 cb 1021,1 hPa 0,0 l/m 6,4 km/h (2 Bft) S 180 0 min 0 mm 0 UV-I 12 W/m 13,0 C 16,3 C 9,7 km/h (2 Bft)
19/08/2017 20:22 16,3 C 16,7 C 16,7 C 20,6 C 19,4 C 19,4 C 81 % 0 lf 11 cb 30 cb 84 cb 43 cb 1021,1 hPa 0,0 l/m 6,4 km/h (2 Bft) S-SE 157 0 min 0 mm 0 UV-I 14 W/m 13,0 C 16,3 C 9,7 km/h (2 Bft)
19/08/2017 20:21 16,3 C 16,7 C 16,7 C 20,6 C 19,4 C 18,9 C 81 % 0 lf 11 cb 30 cb 84 cb 42 cb 1021,0 hPa 0,0 l/m 1,6 km/h (1 Bft) S 180 0 min 0 mm 0 UV-I 14 W/m 13,0 C 16,3 C 6,4 km/h (2 Bft)
19/08/2017 20:20 16,3 C 16,7 C 16,7 C 20,6 C 19,4 C 18,9 C 81 % 0 lf 11 cb 30 cb 84 cb 42 cb 1021,1 hPa 0,0 l/m 4,8 km/h (1 Bft) S-SE 157 0 min 0 mm 0 UV-I 16 W/m 13,0 C 16,3 C 8,0 km/h (2 Bft)
19/08/2017 20:19 16,3 C 16,7 C 16,7 C 20,6 C 19,4 C 19,4 C 81 % 0 lf 11 cb 30 cb 84 cb 43 cb 1021,0 hPa 0,0 l/m 3,2 km/h (1 Bft) S-SE 157 0 min 0 mm 0 UV-I 18 W/m 13,0 C 16,3 C 8,0 km/h (2 Bft)
19/08/2017 20:18 16,3 C 16,7 C 16,7 C 20,6 C 19,4 C 19,4 C 81 % 0 lf 11 cb 30 cb 84 cb 43 cb 1021,0 hPa 0,0 l/m 3,2 km/h (1 Bft) S-SE 157 0 min 0 mm 0 UV-I 19 W/m 13,0 C 16,3 C 8,0 km/h (2 Bft)
19/08/2017 20:17 16,3 C 16,7 C 16,7 C 20,6 C 19,4 C 19,4 C 81 % 0 lf 11 cb 30 cb 84 cb 43 cb 1021,0 hPa 0,0 l/m 3,2 km/h (1 Bft) SE 135 0 min 0 mm 0 UV-I 21 W/m 13,0 C 16,3 C 4,8 km/h (1 Bft)
19/08/2017 20:16 16,3 C 16,7 C 16,7 C 20,6 C 19,4 C 19,4 C 81 % 0 lf 11 cb 30 cb 84 cb 43 cb 1021,0 hPa 0,0 l/m 1,6 km/h (1 Bft) SE 135 0 min 0 mm 0 UV-I 21 W/m 13,0 C 16,3 C 3,2 km/h (1 Bft)
19/08/2017 20:15 16,3 C 16,7 C 16,7 C 20,6 C 19,4 C 19,4 C 81 % 0 lf 11 cb 30 cb 84 cb 43 cb 1020,9 hPa 0,0 l/m 3,2 km/h (1 Bft) SE 135 0 min 0 mm 0 UV-I 23 W/m 13,0 C 16,3 C 6,4 km/h (2 Bft)
19/08/2017 20:14 16,3 C 16,7 C 16,7 C 20,6 C 19,4 C 19,4 C 81 % 0 lf 11 cb 30 cb 84 cb 43 cb 1020,9 hPa 0,0 l/m 8,0 km/h (2 Bft) SE 135 0 min 0 mm 0 UV-I 23 W/m 13,0 C 15,5 C 9,7 km/h (2 Bft)
19/08/2017 20:13 16,3 C 17,2 C 17,2 C 20,6 C 19,4 C 19,4 C 81 % 0 lf 11 cb 30 cb 84 cb 43 cb 1020,9 hPa 0,0 l/m 6,4 km/h (2 Bft) SO 225 0 min 0 mm 0 UV-I 25 W/m 13,0 C 16,3 C 9,7 km/h (2 Bft)
19/08/2017 20:12 16,3 C 17,2 C 17,2 C 20,6 C 19,4 C 19,4 C 81 % 0 lf 11 cb 30 cb 84 cb 43 cb 1020,9 hPa 0,0 l/m 8,0 km/h (2 Bft) SO 225 0 min 0 mm 0 UV-I 26 W/m 13,0 C 15,5 C 11,3 km/h (2 Bft)
19/08/2017 20:11 16,4 C 17,2 C 17,2 C 20,6 C 19,4 C 19,4 C 82 % 0 lf 11 cb 30 cb 84 cb 43 cb 1020,9 hPa 0,0 l/m 4,8 km/h (1 Bft) O 270 0 min 0 mm 0 UV-I 26 W/m 13,3 C 16,4 C 8,0 km/h (2 Bft)
19/08/2017 20:10 16,4 C 17,2 C 17,2 C 20,6 C 19,4 C 19,4 C 82 % 0 lf 11 cb 30 cb 84 cb 43 cb 1020,9 hPa 0,0 l/m 1,6 km/h (1 Bft) O-NO 292 0 min 0 mm 0 UV-I 28 W/m 13,3 C 16,4 C 3,2 km/h (1 Bft)
19/08/2017 20:09 16,3 C 17,2 C 17,2 C 20,6 C 19,4 C 18,9 C 82 % 0 lf 11 cb 30 cb 84 cb 42 cb 1021,0 hPa 0,0 l/m 3,2 km/h (1 Bft) O-NO 292 0 min 0 mm 0 UV-I 30 W/m 13,2 C 16,3 C 6,4 km/h (2 Bft)
19/08/2017 20:08 16,3 C 17,2 C 17,2 C 20,6 C 19,4 C 19,4 C 82 % 0 lf 11 cb 30 cb 84 cb 43 cb 1021,0 hPa 0,0 l/m 6,4 km/h (2 Bft) O-NO 292 0 min 0 mm 0 UV-I 30 W/m 13,2 C 16,3 C 8,0 km/h (2 Bft)
19/08/2017 20:07 16,3 C 17,8 C 17,8 C 20,6 C 19,4 C 19,4 C 82 % 0 lf 11 cb 30 cb 84 cb 43 cb 1021,0 hPa 0,0 l/m 0,0 km/h (0 Bft) SO 225 0 min 0 mm 0 UV-I 33 W/m 13,2 C 16,3 C 3,2 km/h (1 Bft)
19/08/2017 20:06 16,3 C 17,8 C 17,8 C 20,6 C 19,4 C 19,4 C 82 % 0 lf 11 cb 30 cb 84 cb 43 cb 1020,9 hPa 0,0 l/m 0,0 km/h (0 Bft) N 0 0 min 0 mm 0 UV-I 35 W/m 13,2 C 16,3 C 0,0 km/h (0 Bft)
19/08/2017 20:05 16,3 C 17,8 C 17,8 C 20,6 C 19,4 C 19,4 C 82 % 0 lf 11 cb 30 cb 84 cb 43 cb 1020,9 hPa 0,0 l/m 0,0 km/h (0 Bft) N 0 0 min 0 mm 0 UV-I 37 W/m 13,2 C 16,3 C 0,0 km/h (0 Bft)
19/08/2017 20:04 16,3 C 17,8 C 17,8 C 20,6 C 19,4 C 19,4 C 82 % 0 lf 11 cb 30 cb 84 cb 43 cb 1020,9 hPa 0,0 l/m 0,0 km/h (0 Bft) N 0 0 min 0 mm 0 UV-I 42 W/m 13,2 C 16,3 C 0,0 km/h (0 Bft)
19/08/2017 20:03 16,3 C 17,8 C 17,8 C 20,6 C 19,4 C 19,4 C 82 % 1 lf 11 cb 30 cb 84 cb 43 cb 1020,8 hPa 0,0 l/m 0,0 km/h (0 Bft) N 0 0 min 0 mm 0 UV-I 42 W/m 13,2 C 16,3 C 0,0 km/h (0 Bft)
19/08/2017 20:02 16,3 C 17,8 C 17,8 C 20,6 C 19,4 C 19,4 C 82 % 2 lf 11 cb 30 cb 84 cb 43 cb 1020,8 hPa 0,0 l/m 0,0 km/h (0 Bft) N 0 0 min 0 mm 0 UV-I 44 W/m 13,2 C 16,3 C 0,0 km/h (0 Bft)
19/08/2017 20:01 16,3 C 17,8 C 17,8 C 20,6 C 19,4 C 19,4 C 82 % 2 lf 11 cb 30 cb 84 cb 43 cb 1020,8 hPa 0,0 l/m 0,0 km/h (0 Bft) N 0 0 min 0 mm 0 UV-I 47 W/m 13,2 C 16,3 C 0,0 km/h (0 Bft)
19/08/2017 20:00 16,3 C 17,8 C 17,8 C 20,6 C 19,4 C 19,4 C 82 % 1 lf 11 cb 30 cb 84 cb 43 cb 1020,9 hPa 0,0 l/m 0,0 km/h (0 Bft) N 0 0 min 0 mm 0 UV-I 46 W/m 13,2 C 16,3 C 0,0 km/h (0 Bft)
19/08/2017 19:59 16,4 C 17,2 C 17,2 C 20,6 C 19,4 C 19,4 C 82 % 0 lf 11 cb 30 cb 84 cb 43 cb 1020,9 hPa 0,0 l/m 0,0 km/h (0 Bft) O 270 0 min 0 mm 0 UV-I 42 W/m 13,3 C 16,4 C 1,6 km/h (1 Bft)
19/08/2017 19:58 16,4 C 17,2 C 17,2 C 20,6 C 19,4 C 19,4 C 82 % 1 lf 11 cb 30 cb 84 cb 43 cb 1020,9 hPa 0,0 l/m 0,0 km/h (0 Bft) O 270 0 min 0 mm 0 UV-I 40 W/m 13,3 C 16,4 C 1,6 km/h (1 Bft)
19/08/2017 19:57 16,4 C 17,2 C 17,2 C 20,6 C 19,4 C 19,4 C 82 % 1 lf 11 cb 30 cb 84 cb 43 cb 1020,8 hPa 0,0 l/m 1,6 km/h (1 Bft) O 270 0 min 0 mm 0 UV-I 37 W/m 13,3 C 16,4 C 3,2 km/h (1 Bft)
19/08/2017 19:56 16,4 C 17,2 C 17,2 C 20,6 C 19,4 C 19,4 C 82 % 1 lf 11 cb 30 cb 84 cb 43 cb 1020,7 hPa 0,0 l/m 1,6 km/h (1 Bft) O 270 0 min 0 mm 0 UV-I 35 W/m 13,3 C 16,4 C 4,8 km/h (1 Bft)
19/08/2017 19:55 16,4 C 17,2 C 17,2 C 20,6 C 19,4 C 19,4 C 82 % 1 lf 11 cb 30 cb 84 cb 43 cb 1020,8 hPa 0,0 l/m 0,0 km/h (0 Bft) NO 315 0 min 0 mm 0 UV-I 46 W/m 13,3 C 16,4 C 1,6 km/h (1 Bft)
19/08/2017 19:54 16,4 C 17,2 C 17,2 C 20,6 C 19,4 C 19,4 C 82 % 2 lf 11 cb 30 cb 84 cb 43 cb 1020,8 hPa 0,0 l/m 0,0 km/h (0 Bft) N 0 0 min 0 mm 0 UV-I 40 W/m 13,3 C 16,4 C 0,0 km/h (0 Bft)
19/08/2017 19:53 16,4 C 17,2 C 17,2 C 20,6 C 19,4 C 19,4 C 82 % 3 lf 11 cb 30 cb 84 cb 43 cb 1020,7 hPa 0,0 l/m 0,0 km/h (0 Bft) NO 315 0 min 0 mm 0 UV-I 32 W/m 13,3 C 16,4 C 1,6 km/h (1 Bft)
19/08/2017 19:52 16,4 C 17,2 C 17,2 C 20,6 C 19,4 C 19,4 C 82 % 3 lf 11 cb 30 cb 84 cb 43 cb 1020,8 hPa 0,0 l/m 1,6 km/h (1 Bft) NO 315 0 min 0 mm 0 UV-I 33 W/m 13,3 C 16,4 C 3,2 km/h (1 Bft)
19/08/2017 19:51 16,4 C 17,2 C 17,2 C 20,6 C 19,4 C 19,4 C 82 % 4 lf 11 cb 30 cb 84 cb 43 cb 1020,7 hPa 0,0 l/m 1,6 km/h (1 Bft) NO 315 0 min 0 mm 0 UV-I 35 W/m 13,3 C 16,4 C 3,2 km/h (1 Bft)
19/08/2017 19:50 16,4 C 17,2 C 17,2 C 20,6 C 19,4 C 19,4 C 81 % 5 lf 11 cb 30 cb 84 cb 43 cb 1020,7 hPa 0,0 l/m 3,2 km/h (1 Bft) N 360 0 min 0 mm 0 UV-I 37 W/m 13,1 C 16,4 C 6,4 km/h (2 Bft)
19/08/2017 19:49 16,4 C 17,2 C 17,2 C 20,6 C 19,4 C 19,4 C 81 % 8 lf 11 cb 30 cb 84 cb 43 cb 1020,8 hPa 0,0 l/m 3,2 km/h (1 Bft) S-SO 202 0 min 0 mm 0 UV-I 40 W/m 13,1 C 16,4 C 4,8 km/h (1 Bft)
19/08/2017 19:48 16,5 C 17,2 C 17,2 C 20,6 C 19,4 C 19,4 C 81 % 11 lf 11 cb 30 cb 84 cb 43 cb 1020,8 hPa 0,0 l/m 3,2 km/h (1 Bft) SO 225 0 min 0 mm 0 UV-I 39 W/m 13,2 C 16,5 C 4,8 km/h (1 Bft)
19/08/2017 19:47 16,5 C 17,2 C 17,2 C 20,6 C 19,4 C 19,4 C 82 % 13 lf 11 cb 30 cb 84 cb 43 cb 1020,8 hPa 0,0 l/m 3,2 km/h (1 Bft) SO 225 0 min 0 mm 0 UV-I 37 W/m 13,4 C 16,5 C 6,4 km/h (2 Bft)
19/08/2017 19:46 16,5 C 17,2 C 17,2 C 20,6 C 19,4 C 19,4 C 82 % 13 lf 11 cb 30 cb 84 cb 43 cb 1020,8 hPa 0,0 l/m 3,2 km/h (1 Bft) NO 315 0 min 0 mm 0 UV-I 35 W/m 13,4 C 16,5 C 8,0 km/h (2 Bft)
19/08/2017 19:45 16,6 C 17,2 C 17,2 C 20,6 C 19,4 C 19,4 C 82 % 14 lf 11 cb 30 cb 84 cb 43 cb 1020,8 hPa 0,0 l/m 4,8 km/h (1 Bft) O-SO 247 0 min 0 mm 0 UV-I 30 W/m 13,5 C 16,6 C 6,4 km/h (2 Bft)
19/08/2017 19:44 16,6 C 17,2 C 17,2 C 20,6 C 19,4 C 19,4 C 82 % 15 lf 11 cb 30 cb 84 cb 43 cb 1020,8 hPa 0,0 l/m 4,8 km/h (1 Bft) O 270 0 min 0 mm 0 UV-I 30 W/m 13,5 C 16,6 C 8,0 km/h (2 Bft)
19/08/2017 19:43 16,6 C 17,2 C 17,2 C 20,6 C 19,4 C 19,4 C 81 % 15 lf 11 cb 30 cb 84 cb 43 cb 1020,9 hPa 0,0 l/m 6,4 km/h (2 Bft) NO 315 0 min 0 mm 0 UV-I 28 W/m 13,3 C 16,6 C 9,7 km/h (2 Bft)
19/08/2017 19:42 16,6 C 17,2 C 17,2 C 20,6 C 19,4 C 19,4 C 81 % 15 lf 11 cb 30 cb 84 cb 43 cb 1020,8 hPa 0,0 l/m 4,8 km/h (1 Bft) O-NO 292 0 min 0 mm 0 UV-I 23 W/m 13,3 C 16,6 C 9,7 km/h (2 Bft)
19/08/2017 19:41 16,6 C 17,2 C 17,2 C 20,6 C 19,4 C 19,4 C 81 % 15 lf 11 cb 30 cb 84 cb 43 cb 1020,8 hPa 0,0 l/m 9,7 km/h (2 Bft) O-NO 292 0 min 0 mm 0 UV-I 21 W/m 13,3 C 15,0 C 12,9 km/h (3 Bft)
19/08/2017 19:40 16,6 C 17,8 C 17,8 C 20,6 C 19,4 C 19,4 C 81 % 15 lf 11 cb 30 cb 84 cb 43 cb 1020,7 hPa 0,0 l/m 4,8 km/h (1 Bft) N-NE 22 0 min 0 mm 0 UV-I 19 W/m 13,3 C 16,6 C 9,7 km/h (2 Bft)
19/08/2017 19:39 16,7 C 17,8 C 17,8 C 20,6 C 19,4 C 19,4 C 80 % 15 lf 11 cb 30 cb 84 cb 43 cb 1020,8 hPa 0,0 l/m 1,6 km/h (1 Bft) N-NE 22 0 min 0 mm 0 UV-I 18 W/m 13,2 C 16,7 C 4,8 km/h (1 Bft)
19/08/2017 19:38 16,7 C 17,8 C 17,8 C 20,6 C 19,4 C 19,4 C 80 % 15 lf 11 cb 30 cb 84 cb 43 cb 1020,7 hPa 0,0 l/m 4,8 km/h (1 Bft) SO 225 0 min 0 mm 0 UV-I 18 W/m 13,2 C 16,7 C 8,0 km/h (2 Bft)
19/08/2017 19:37 16,7 C 17,8 C 17,8 C 20,6 C 19,4 C 19,4 C 80 % 9 lf 11 cb 30 cb 84 cb 43 cb 1020,8 hPa 0,0 l/m 3,2 km/h (1 Bft) SO 225 0 min 0 mm 0 UV-I 16 W/m 13,2 C 16,7 C 6,4 km/h (2 Bft)
19/08/2017 19:36 16,7 C 17,8 C 17,8 C 20,6 C 19,4 C 19,4 C 79 % 4 lf 11 cb 30 cb 84 cb 43 cb 1020,8 hPa 0,0 l/m 8,0 km/h (2 Bft) O-NO 292 0 min 0 mm 0 UV-I 18 W/m 13,0 C 15,9 C 9,7 km/h (2 Bft)
19/08/2017 19:35 16,7 C 17,8 C 17,8 C 20,6 C 19,4 C 19,4 C 79 % 4 lf 11 cb 30 cb 84 cb 43 cb 1020,7 hPa 0,0 l/m 8,0 km/h (2 Bft) NO 315 0 min 0 mm 0 UV-I 18 W/m 13,0 C 15,9 C 11,3 km/h (2 Bft)
19/08/2017 19:34 16,8 C 17,8 C 17,8 C 20,6 C 19,4 C 19,4 C 79 % 4 lf 11 cb 30 cb 84 cb 43 cb 1020,8 hPa 0,0 l/m 3,2 km/h (1 Bft) O-NO 292 0 min 0 mm 0 UV-I 19 W/m 13,1 C 16,8 C 6,4 km/h (2 Bft)
19/08/2017 19:33 16,8 C 17,8 C 17,8 C 20,6 C 19,4 C 19,4 C 79 % 4 lf 11 cb 30 cb 84 cb 43 cb 1020,7 hPa 0,0 l/m 9,7 km/h (2 Bft) O-NO 292 0 min 0 mm 0 UV-I 21 W/m 13,1 C 15,2 C 12,9 km/h (3 Bft)
19/08/2017 19:32 16,8 C 17,8 C 17,8 C 20,6 C 19,4 C 19,4 C 78 % 4 lf 11 cb 30 cb 84 cb 43 cb 1020,8 hPa 0,0 l/m 11,3 km/h (2 Bft) NO 315 0 min 0 mm 0 UV-I 25 W/m 12,9 C 14,6 C 12,9 km/h (3 Bft)
19/08/2017 19:31 16,9 C 17,8 C 17,8 C 20,6 C 19,4 C 19,4 C 78 % 6 lf 11 cb 30 cb 84 cb 43 cb 1020,8 hPa 0,0 l/m 8,0 km/h (2 Bft) NO 315 0 min 0 mm 0 UV-I 26 W/m 13,0 C 16,1 C 9,7 km/h (2 Bft)
19/08/2017 19:30 16,9 C 17,8 C 17,8 C 20,6 C 19,4 C 19,4 C 78 % 4 lf 11 cb 30 cb 84 cb 43 cb 1020,7 hPa 0,0 l/m 9,7 km/h (2 Bft) O 270 0 min 0 mm 0 UV-I 28 W/m 13,0 C 15,3 C 14,5 km/h (3 Bft)
19/08/2017 19:29 16,9 C 17,8 C 17,8 C 20,6 C 19,4 C 19,4 C 78 % 0 lf 11 cb 30 cb 84 cb 43 cb 1020,7 hPa 0,0 l/m 11,3 km/h (2 Bft) NO 315 0 min 0 mm 0 UV-I 32 W/m 13,0 C 14,7 C 14,5 km/h (3 Bft)
19/08/2017 19:28 17,0 C 18,3 C 18,3 C 20,6 C 19,4 C 19,4 C 78 % 0 lf 11 cb 30 cb 84 cb 43 cb 1020,7 hPa 0,0 l/m 6,4 km/h (2 Bft) O-NO 292 0 min 0 mm 0 UV-I 35 W/m 13,1 C 17,0 C 9,7 km/h (2 Bft)
19/08/2017 19:27 17,1 C 18,3 C 18,3 C 20,6 C 19,4 C 19,4 C 77 % 0 lf 11 cb 30 cb 84 cb 43 cb 1020,8 hPa 0,0 l/m 9,7 km/h (2 Bft) NO 315 0 min 0 mm 0 UV-I 39 W/m 13,0 C 15,6 C 14,5 km/h (3 Bft)
19/08/2017 19:26 17,1 C 18,3 C 18,3 C 20,6 C 19,4 C 19,4 C 78 % 0 lf 11 cb 30 cb 84 cb 43 cb 1020,8 hPa 0,0 l/m 8,0 km/h (2 Bft) O-NO 292 0 min 0 mm 0 UV-I 46 W/m 13,2 C 16,3 C 12,9 km/h (3 Bft)
19/08/2017 19:25 17,1 C 18,3 C 18,3 C 20,6 C 19,4 C 19,4 C 77 % 0 lf 11 cb 30 cb 84 cb 43 cb 1020,7 hPa 0,0 l/m 3,2 km/h (1 Bft) O-NO 292 0 min 0 mm 0 UV-I 49 W/m 13,0 C 17,1 C 6,4 km/h (2 Bft)
19/08/2017 19:24 17,1 C 18,3 C 18,3 C 20,6 C 19,4 C 19,4 C 77 % 0 lf 11 cb 30 cb 84 cb 43 cb 1020,8 hPa 0,0 l/m 3,2 km/h (1 Bft) O 270 0 min 0 mm 0 UV-I 53 W/m 13,0 C 17,1 C 8,0 km/h (2 Bft)
19/08/2017 19:23 17,2 C 18,3 C 18,3 C 20,6 C 19,4 C 19,4 C 76 % 0 lf 11 cb 30 cb 84 cb 43 cb 1020,8 hPa 0,0 l/m 8,0 km/h (2 Bft) O 270 0 min 0 mm 0 UV-I 53 W/m 12,9 C 16,4 C 11,3 km/h (2 Bft)
19/08/2017 19:22 17,2 C 18,3 C 18,3 C 20,6 C 19,4 C 19,4 C 76 % 0 lf 11 cb 30 cb 84 cb 43 cb 1020,7 hPa 0,0 l/m 9,7 km/h (2 Bft) O-SO 247 0 min 0 mm 0 UV-I 54 W/m 12,9 C 15,7 C 16,1 km/h (3 Bft)
19/08/2017 19:21 17,3 C 18,3 C 18,3 C 20,6 C 19,4 C 19,4 C 76 % 0 lf 11 cb 30 cb 84 cb 43 cb 1020,7 hPa 0,0 l/m 4,8 km/h (1 Bft) O-NO 292 0 min 0 mm 0 UV-I 56 W/m 13,0 C 17,3 C 8,0 km/h (2 Bft)
19/08/2017 19:20 17,3 C 18,3 C 18,3 C 20,6 C 19,4 C 19,4 C 76 % 0 lf 11 cb 30 cb 84 cb 43 cb 1020,8 hPa 0,0 l/m 8,0 km/h (2 Bft) O 270 0 min 0 mm 0 UV-I 58 W/m 13,0 C 16,5 C 16,1 km/h (3 Bft)
19/08/2017 19:19 17,4 C 18,3 C 18,3 C 20,6 C 19,4 C 19,4 C 75 % 0 lf 11 cb 30 cb 84 cb 43 cb 1020,8 hPa 0,0 l/m 9,7 km/h (2 Bft) O-SO 247 0 min 0 mm 0 UV-I 58 W/m 12,9 C 15,9 C 17,7 km/h (3 Bft)
19/08/2017 19:18 17,4 C 18,3 C 18,3 C 20,6 C 19,4 C 19,4 C 75 % 0 lf 11 cb 30 cb 84 cb 43 cb 1020,8 hPa 0,0 l/m 11,3 km/h (2 Bft) O-SO 247 0 min 0 mm 0 UV-I 60 W/m 12,9 C 15,3 C 14,5 km/h (3 Bft)
19/08/2017 19:17 17,5 C 18,3 C 18,3 C 20,6 C 19,4 C 19,4 C 74 % 0 lf 11 cb 30 cb 84 cb 43 cb 1020,8 hPa 0,0 l/m 11,3 km/h (2 Bft) O-NO 292 0 min 0 mm 0 UV-I 60 W/m 12,8 C 15,4 C 19,3 km/h (3 Bft)
19/08/2017 19:16 17,6 C 18,3 C 18,3 C 20,6 C 19,4 C 19,4 C 74 % 0 lf 11 cb 30 cb 84 cb 43 cb 1020,7 hPa 0,0 l/m 8,0 km/h (2 Bft) O 270 0 min 0 mm 0 UV-I 62 W/m 12,9 C 16,8 C 12,9 km/h (3 Bft)
19/08/2017 19:15 17,6 C 18,3 C 18,3 C 20,6 C 19,4 C 19,4 C 74 % 0 lf 11 cb 30 cb 84 cb 43 cb 1020,7 hPa 0,0 l/m 6,4 km/h (2 Bft) O-NO 292 0 min 0 mm 0 UV-I 62 W/m 12,9 C 17,6 C 9,7 km/h (2 Bft)
19/08/2017 19:14 17,7 C 18,3 C 18,3 C 20,6 C 19,4 C 19,4 C 74 % 0 lf 11 cb 30 cb 84 cb 43 cb 1020,8 hPa 0,0 l/m 6,4 km/h (2 Bft) NO 315 0 min 0 mm 0 UV-I 60 W/m 13,0 C 17,7 C 14,5 km/h (3 Bft)
19/08/2017 19:13 17,7 C 18,3 C 18,3 C 20,6 C 19,4 C 19,4 C 73 % 0 lf 11 cb 30 cb 84 cb 43 cb 1020,7 hPa 0,0 l/m 9,7 km/h (2 Bft) O-NO 292 0 min 0 mm 0 UV-I 58 W/m 12,8 C 16,2 C 17,7 km/h (3 Bft)
19/08/2017 19:12 17,8 C 18,3 C 18,3 C 20,6 C 19,4 C 19,4 C 72 % 0 lf 11 cb 30 cb 84 cb 43 cb 1020,7 hPa 0,0 l/m 11,3 km/h (2 Bft) O 270 0 min 0 mm 0 UV-I 56 W/m 12,7 C 15,7 C 14,5 km/h (3 Bft)
19/08/2017 19:11 17,9 C 18,3 C 18,3 C 20,6 C 19,4 C 19,4 C 71 % 0 lf 11 cb 30 cb 84 cb 43 cb 1020,7 hPa 0,0 l/m 11,3 km/h (2 Bft) O 270 0 min 0 mm 0 UV-I 53 W/m 12,6 C 15,8 C 17,7 km/h (3 Bft)
19/08/2017 19:10 18,1 C 18,3 C 18,3 C 20,6 C 19,4 C 19,4 C 70 % 0 lf 11 cb 30 cb 84 cb 43 cb 1020,6 hPa 0,0 l/m 12,9 km/h (3 Bft) NO 315 0 min 0 mm 0 UV-I 49 W/m 12,5 C 15,6 C 19,3 km/h (3 Bft)
19/08/2017 19:09 18,2 C 18,3 C 18,3 C 20,6 C 19,4 C 19,4 C 70 % 0 lf 11 cb 30 cb 84 cb 43 cb 1020,7 hPa 0,0 l/m 11,3 km/h (2 Bft) O-NO 292 0 min 0 mm 0 UV-I 46 W/m 12,6 C 16,2 C 12,9 km/h (3 Bft)
19/08/2017 19:08 18,3 C 18,3 C 18,3 C 20,6 C 19,4 C 19,4 C 69 % 0 lf 11 cb 30 cb 84 cb 43 cb 1020,6 hPa 0,0 l/m 14,5 km/h (3 Bft) NO 315 0 min 0 mm 0 UV-I 44 W/m 12,5 C 15,3 C 19,3 km/h (3 Bft)
19/08/2017 19:07 18,5 C 18,9 C 18,9 C 20,6 C 19,4 C 19,4 C 68 % 0 lf 11 cb 30 cb 84 cb 43 cb 1020,6 hPa 0,0 l/m 12,9 km/h (3 Bft) O-NO 292 0 min 0 mm 0 UV-I 44 W/m 12,5 C 16,0 C 19,3 km/h (3 Bft)
19/08/2017 19:06 18,7 C 18,9 C 18,9 C 20,6 C 19,4 C 19,4 C 67 % 0 lf 11 cb 30 cb 84 cb 43 cb 1020,5 hPa 0,0 l/m 12,9 km/h (3 Bft) O-NO 292 0 min 0 mm 0 UV-I 47 W/m 12,4 C 16,3 C 17,7 km/h (3 Bft)
19/08/2017 19:05 18,8 C 18,9 C 18,9 C 20,6 C 19,4 C 19,4 C 65 % 0 lf 11 cb 30 cb 84 cb 43 cb 1020,6 hPa 0,0 l/m 17,7 km/h (3 Bft) O 270 0 min 0 mm 0 UV-I 49 W/m 12,1 C 15,1 C 24,1 km/h (4 Bft)
19/08/2017 19:04 19,1 C 18,9 C 18,9 C 20,6 C 19,4 C 19,4 C 64 % 0 lf 11 cb 30 cb 84 cb 43 cb 1020,6 hPa 0,0 l/m 19,3 km/h (3 Bft) O 270 0 min 0 mm 0 UV-I 53 W/m 12,1 C 15,2 C 22,5 km/h (4 Bft)
19/08/2017 19:03 19,3 C 18,9 C 18,9 C 20,6 C 19,4 C 19,4 C 63 % 0 lf 11 cb 30 cb 84 cb 43 cb 1020,5 hPa 0,0 l/m 22,5 km/h (4 Bft) O-NO 292 0 min 0 mm 0 UV-I 56 W/m 12,1 C 14,8 C 33,8 km/h (5 Bft)
19/08/2017 19:02 19,3 C 18,9 C 18,9 C 20,6 C 19,4 C 19,4 C 61 % 0 lf 11 cb 30 cb 84 cb 43 cb 1020,6 hPa 0,0 l/m 17,7 km/h (3 Bft) O-NO 292 0 min 0 mm 0 UV-I 67 W/m 11,6 C 15,8 C 29,0 km/h (5 Bft)
19/08/2017 19:01 19,3 C 19,4 C 19,4 C 20,6 C 19,4 C 19,4 C 61 % 0 lf 11 cb 30 cb 84 cb 43 cb 1020,4 hPa 0,0 l/m 12,9 km/h (3 Bft) O-SO 247 0 min 0 mm 0 UV-I 70 W/m 11,6 C 17,0 C 17,7 km/h (3 Bft)
19/08/2017 19:00 19,3 C 19,4 C 19,4 C 20,6 C 19,4 C 19,4 C 61 % 0 lf 11 cb 30 cb 84 cb 43 cb 1020,3 hPa 0,0 l/m 12,9 km/h (3 Bft) O-SO 247 0 min 0 mm 0 UV-I 72 W/m 11,6 C 17,0 C 16,1 km/h (3 Bft)
19/08/2017 18:59 19,4 C 19,4 C 19,4 C 20,6 C 19,4 C 19,4 C 61 % 0 lf 11 cb 29 cb 84 cb 43 cb 1020,4 hPa 0,0 l/m 11,3 km/h (2 Bft) O 270 0 min 0 mm 0 UV-I 70 W/m 11,7 C 17,6 C 17,7 km/h (3 Bft)
19/08/2017 18:58 19,4 C 19,4 C 19,4 C 20,6 C 19,4 C 19,4 C 62 % 0 lf 11 cb 29 cb 84 cb 43 cb 1020,3 hPa 0,0 l/m 6,4 km/h (2 Bft) O 270 0 min 0 mm 0 UV-I 72 W/m 11,9 C 19,4 C 12,9 km/h (3 Bft)
19/08/2017 18:57 19,4 C 19,4 C 19,4 C 20,6 C 19,4 C 19,4 C 61 % 0 lf 11 cb 29 cb 84 cb 43 cb 1020,3 hPa 0,0 l/m 4,8 km/h (1 Bft) O 270 0 min 0 mm 0 UV-I 76 W/m 11,7 C 19,4 C 9,7 km/h (2 Bft)
19/08/2017 18:56 19,4 C 19,4 C 19,4 C 20,6 C 19,4 C 19,4 C 61 % 0 lf 11 cb 29 cb 84 cb 43 cb 1020,3 hPa 0,0 l/m 11,3 km/h (2 Bft) SO 225 0 min 0 mm 0 UV-I 83 W/m 11,7 C 17,6 C 16,1 km/h (3 Bft)
19/08/2017 18:55 19,4 C 19,4 C 19,4 C 20,6 C 19,4 C 19,4 C 61 % 0 lf 11 cb 29 cb 84 cb 43 cb 1020,4 hPa 0,0 l/m 9,7 km/h (2 Bft) S 180 0 min 0 mm 0 UV-I 86 W/m 11,7 C 18,1 C 17,7 km/h (3 Bft)
19/08/2017 18:54 19,4 C 19,4 C 19,4 C 20,6 C 19,4 C 19,4 C 60 % 0 lf 11 cb 29 cb 84 cb 43 cb 1020,2 hPa 0,0 l/m 17,7 km/h (3 Bft) S-SO 202 0 min 0 mm 0 UV-I 88 W/m 11,4 C 15,9 C 25,7 km/h (4 Bft)
19/08/2017 18:53 19,4 C 19,4 C 19,4 C 20,6 C 19,4 C 19,4 C 60 % 0 lf 11 cb 29 cb 84 cb 43 cb 1020,4 hPa 0,0 l/m 12,9 km/h (3 Bft) S 180 0 min 0 mm 0 UV-I 88 W/m 11,4 C 17,1 C 17,7 km/h (3 Bft)
19/08/2017 18:52 19,4 C 19,4 C 19,4 C 20,6 C 19,4 C 19,4 C 60 % 0 lf 11 cb 29 cb 84 cb 43 cb 1020,3 hPa 0,0 l/m 12,9 km/h (3 Bft) SO 225 0 min 0 mm 0 UV-I 88 W/m 11,4 C 17,1 C 17,7 km/h (3 Bft)
19/08/2017 18:51 19,4 C 19,4 C 19,4 C 20,6 C 19,4 C 19,4 C 61 % 0 lf 11 cb 29 cb 84 cb 43 cb 1020,3 hPa 0,0 l/m 12,9 km/h (3 Bft) SO 225 0 min 0 mm 0 UV-I 93 W/m 11,7 C 17,1 C 17,7 km/h (3 Bft)
19/08/2017 18:50 19,4 C 19,4 C 19,4 C 20,6 C 19,4 C 19,4 C 60 % 0 lf 11 cb 29 cb 84 cb 43 cb 1020,3 hPa 0,0 l/m 9,7 km/h (2 Bft) SO 225 0 min 0 mm 0 UV-I 91 W/m 11,4 C 18,1 C 12,9 km/h (3 Bft)
19/08/2017 18:49 19,4 C 19,4 C 19,4 C 20,6 C 19,4 C 19,4 C 60 % 0 lf 11 cb 29 cb 84 cb 43 cb 1020,3 hPa 0,0 l/m 12,9 km/h (3 Bft) O-SO 247 0 min 0 mm 0 UV-I 95 W/m 11,4 C 17,1 C 17,7 km/h (3 Bft)
19/08/2017 18:48 19,4 C 19,4 C 19,4 C 20,6 C 19,4 C 19,4 C 60 % 0 lf 11 cb 29 cb 84 cb 43 cb 1020,2 hPa 0,0 l/m 11,3 km/h (2 Bft) O-SO 247 0 min 0 mm 0 UV-I 97 W/m 11,4 C 17,6 C 16,1 km/h (3 Bft)
19/08/2017 18:47 19,5 C 19,4 C 19,4 C 20,6 C 19,4 C 19,4 C 60 % 0 lf 11 cb 29 cb 84 cb 43 cb 1020,2 hPa 0,0 l/m 12,9 km/h (3 Bft) SO 225 0 min 0 mm 0 UV-I 97 W/m 11,5 C 17,2 C 16,1 km/h (3 Bft)
19/08/2017 18:46 19,5 C 19,4 C 19,4 C 20,6 C 19,4 C 19,4 C 60 % 0 lf 11 cb 29 cb 84 cb 43 cb 1020,3 hPa 0,0 l/m 17,7 km/h (3 Bft) S-SO 202 0 min 0 mm 0 UV-I 95 W/m 11,5 C 16,0 C 29,0 km/h (5 Bft)
19/08/2017 18:45 19,5 C 19,4 C 19,4 C 20,6 C 19,4 C 19,4 C 60 % 0 lf 11 cb 29 cb 84 cb 43 cb 1020,2 hPa 0,0 l/m 11,3 km/h (2 Bft) SO 225 0 min 0 mm 0 UV-I 93 W/m 11,5 C 17,7 C 14,5 km/h (3 Bft)
19/08/2017 18:44 19,5 C 19,4 C 19,4 C 20,6 C 19,4 C 19,4 C 60 % 0 lf 11 cb 29 cb 84 cb 43 cb 1020,2 hPa 0,0 l/m 9,7 km/h (2 Bft) O-SO 247 0 min 0 mm 0 UV-I 84 W/m 11,5 C 18,2 C 14,5 km/h (3 Bft)
19/08/2017 18:43 19,6 C 19,4 C 19,4 C 20,6 C 19,4 C 19,4 C 59 % 0 lf 11 cb 29 cb 84 cb 43 cb 1020,2 hPa 0,0 l/m 9,7 km/h (2 Bft) O-SO 247 0 min 0 mm 0 UV-I 79 W/m 11,4 C 18,3 C 12,9 km/h (3 Bft)
19/08/2017 18:42 19,6 C 19,4 C 19,4 C 20,6 C 19,4 C 19,4 C 59 % 0 lf 11 cb 29 cb 84 cb 43 cb 1020,2 hPa 0,0 l/m 17,7 km/h (3 Bft) O 270 0 min 0 mm 0 UV-I 76 W/m 11,4 C 16,1 C 25,7 km/h (4 Bft)
19/08/2017 18:41 19,6 C 19,4 C 19,4 C 20,6 C 19,4 C 19,4 C 59 % 0 lf 11 cb 29 cb 84 cb 43 cb 1020,3 hPa 0,0 l/m 16,1 km/h (3 Bft) SO 225 0 min 0 mm 0 UV-I 74 W/m 11,4 C 16,5 C 19,3 km/h (3 Bft)
19/08/2017 18:40 19,7 C 20,0 C 20,0 C 20,6 C 18,9 C 19,4 C 58 % 0 lf 11 cb 29 cb 84 cb 43 cb 1020,2 hPa 0,0 l/m 14,5 km/h (3 Bft) SO 225 0 min 0 mm 0 UV-I 74 W/m 11,2 C 17,0 C 22,5 km/h (4 Bft)
19/08/2017 18:39 19,7 C 20,0 C 20,0 C 20,6 C 18,9 C 19,4 C 58 % 0 lf 11 cb 29 cb 84 cb 43 cb 1020,3 hPa 0,0 l/m 16,1 km/h (3 Bft) S-SO 202 0 min 0 mm 0 UV-I 90 W/m 11,2 C 16,6 C 20,9 km/h (4 Bft)
19/08/2017 18:38 19,7 C 20,0 C 20,0 C 20,6 C 18,9 C 19,4 C 58 % 0 lf 11 cb 29 cb 84 cb 43 cb 1020,3 hPa 0,0 l/m 17,7 km/h (3 Bft) SO 225 0 min 0 mm 0 UV-I 102 W/m 11,2 C 16,3 C 24,1 km/h (4 Bft)
19/08/2017 18:37 19,8 C 20,0 C 20,0 C 20,6 C 18,9 C 19,4 C 58 % 0 lf 11 cb 29 cb 84 cb 43 cb 1020,3 hPa 0,0 l/m 14,5 km/h (3 Bft) S-SO 202 0 min 0 mm 0 UV-I 107 W/m 11,3 C 17,1 C 17,7 km/h (3 Bft)
19/08/2017 18:36 19,8 C 20,0 C 20,0 C 20,6 C 18,9 C 19,4 C 58 % 0 lf 11 cb 29 cb 84 cb 43 cb 1020,3 hPa 0,0 l/m 14,5 km/h (3 Bft) SO 225 0 min 0 mm 0 UV-I 113 W/m 11,3 C 17,1 C 17,7 km/h (3 Bft)
19/08/2017 18:35 19,8 C 20,0 C 20,0 C 20,6 C 18,9 C 19,4 C 59 % 0 lf 11 cb 29 cb 84 cb 43 cb 1020,3 hPa 0,0 l/m 9,7 km/h (2 Bft) O-SO 247 0 min 0 mm 0 UV-I 120 W/m 11,6 C 18,5 C 14,5 km/h (3 Bft)
19/08/2017 18:34 19,8 C 20,6 C 20,6 C 20,6 C 18,9 C 19,4 C 58 % 0 lf 11 cb 29 cb 84 cb 43 cb 1020,4 hPa 0,0 l/m 14,5 km/h (3 Bft) O-SO 247 0 min 0 mm 0 UV-I 125 W/m 11,3 C 17,1 C 22,5 km/h (4 Bft)
19/08/2017 18:33 19,8 C 20,6 C 20,6 C 20,6 C 18,9 C 19,4 C 58 % 0 lf 11 cb 29 cb 84 cb 43 cb 1020,3 hPa 0,0 l/m 9,7 km/h (2 Bft) S-SO 202 0 min 0 mm 0 UV-I 134 W/m 11,3 C 18,5 C 16,1 km/h (3 Bft)
19/08/2017 18:32 19,8 C 20,6 C 20,6 C 20,6 C 18,9 C 19,4 C 58 % 0 lf 11 cb 29 cb 84 cb 43 cb 1020,3 hPa 0,0 l/m 11,3 km/h (2 Bft) S-SO 202 0 min 0 mm 0 UV-I 135 W/m 11,3 C 18,0 C 14,5 km/h (3 Bft)
19/08/2017 18:31 19,9 C 20,6 C 20,6 C 20,6 C 18,9 C 19,4 C 58 % 0 lf 11 cb 29 cb 84 cb 43 cb 1020,3 hPa 0,0 l/m 11,3 km/h (2 Bft) SO 225 0 min 0 mm 1 UV-I 141 W/m 11,4 C 18,1 C 16,1 km/h (3 Bft)
19/08/2017 18:30 19,9 C 20,6 C 20,6 C 20,6 C 18,9 C 19,4 C 59 % 0 lf 11 cb 29 cb 84 cb 43 cb 1020,3 hPa 0,0 l/m 12,9 km/h (3 Bft) SO 225 0 min 0 mm 1 UV-I 146 W/m 11,6 C 17,7 C 16,1 km/h (3 Bft)
19/08/2017 18:29 19,9 C 20,6 C 20,6 C 20,6 C 18,9 C 19,4 C 59 % 0 lf 11 cb 29 cb 84 cb 43 cb 1020,3 hPa 0,0 l/m 9,7 km/h (2 Bft) S-SO 202 0 min 0 mm 1 UV-I 149 W/m 11,6 C 18,6 C 12,9 km/h (3 Bft)
19/08/2017 18:28 19,9 C 21,1 C 21,1 C 20,6 C 18,9 C 19,4 C 59 % 0 lf 11 cb 29 cb 84 cb 43 cb 1020,3 hPa 0,0 l/m 12,9 km/h (3 Bft) SO 225 0 min 0 mm 1 UV-I 155 W/m 11,6 C 17,7 C 17,7 km/h (3 Bft)
19/08/2017 18:27 19,9 C 20,6 C 20,6 C 20,6 C 18,9 C 19,4 C 59 % 0 lf 11 cb 29 cb 84 cb 43 cb 1020,2 hPa 0,0 l/m 11,3 km/h (2 Bft) O 270 0 min 0 mm 1 UV-I 162 W/m 11,6 C 18,1 C 20,9 km/h (4 Bft)
19/08/2017 18:26 19,9 C 20,6 C 20,6 C 20,6 C 18,9 C 19,4 C 60 % 0 lf 11 cb 29 cb 84 cb 43 cb 1020,3 hPa 0,0 l/m 4,8 km/h (1 Bft) SO 225 0 min 0 mm 1 UV-I 141 W/m 11,9 C 19,9 C 8,0 km/h (2 Bft)
19/08/2017 18:25 19,9 C 20,6 C 20,6 C 20,6 C 18,9 C 19,4 C 59 % 0 lf 11 cb 29 cb 84 cb 43 cb 1020,2 hPa 0,0 l/m 8,0 km/h (2 Bft) SO 225 0 min 0 mm 1 UV-I 141 W/m 11,6 C 19,2 C 9,7 km/h (2 Bft)
19/08/2017 18:24 19,9 C 20,6 C 20,6 C 20,6 C 18,9 C 19,4 C 58 % 0 lf 11 cb 29 cb 84 cb 43 cb 1020,3 hPa 0,0 l/m 8,0 km/h (2 Bft) S-SO 202 0 min 0 mm 1 UV-I 141 W/m 11,4 C 19,2 C 9,7 km/h (2 Bft)
19/08/2017 18:23 19,9 C 20,6 C 20,6 C 20,6 C 18,9 C 19,4 C 58 % 0 lf 11 cb 29 cb 84 cb 43 cb 1020,2 hPa 0,0 l/m 8,0 km/h (2 Bft) SO 225 0 min 0 mm 1 UV-I 134 W/m 11,4 C 19,2 C 11,3 km/h (2 Bft)
19/08/2017 18:22 19,9 C 21,1 C 20,6 C 20,6 C 18,9 C 19,4 C 58 % 0 lf 11 cb 29 cb 84 cb 43 cb 1020,1 hPa 0,0 l/m 11,3 km/h (2 Bft) S 180 0 min 0 mm 1 UV-I 134 W/m 11,4 C 18,1 C 14,5 km/h (3 Bft)
19/08/2017 18:21 19,9 C 21,1 C 21,1 C 20,6 C 18,9 C 19,4 C 58 % 0 lf 11 cb 29 cb 84 cb 43 cb 1020,3 hPa 0,0 l/m 14,5 km/h (3 Bft) SO 225 0 min 0 mm 1 UV-I 139 W/m 11,4 C 17,3 C 19,3 km/h (3 Bft)
19/08/2017 18:20 20,0 C 21,1 C 21,1 C 20,6 C 18,9 C 19,4 C 58 % 0 lf 11 cb 29 cb 84 cb 43 cb 1020,2 hPa 0,0 l/m 12,9 km/h (3 Bft) S-SO 202 0 min 0 mm 1 UV-I 142 W/m 11,5 C 17,8 C 16,1 km/h (3 Bft)
19/08/2017 18:19 20,1 C 21,1 C 21,1 C 20,6 C 18,9 C 19,4 C 58 % 0 lf 11 cb 29 cb 84 cb 43 cb 1020,1 hPa 0,0 l/m 17,7 km/h (3 Bft) S-SO 202 0 min 0 mm 1 UV-I 146 W/m 11,6 C 16,8 C 25,7 km/h (4 Bft)
19/08/2017 18:18 20,1 C 21,7 C 21,7 C 20,6 C 18,9 C 19,4 C 58 % 0 lf 11 cb 29 cb 84 cb 43 cb 1020,2 hPa 0,0 l/m 14,5 km/h (3 Bft) S 180 0 min 0 mm 1 UV-I 151 W/m 11,6 C 17,5 C 20,9 km/h (4 Bft)
19/08/2017 18:17 20,1 C 21,7 C 21,7 C 20,6 C 18,9 C 19,4 C 58 % 0 lf 11 cb 29 cb 84 cb 43 cb 1020,1 hPa 0,0 l/m 11,3 km/h (2 Bft) S-SO 202 0 min 0 mm 1 UV-I 153 W/m 11,6 C 18,3 C 19,3 km/h (3 Bft)
19/08/2017 18:16 20,1 C 22,2 C 22,2 C 20,6 C 18,9 C 19,4 C 58 % 0 lf 11 cb 29 cb 84 cb 43 cb 1020,2 hPa 0,0 l/m 12,9 km/h (3 Bft) S-SO 202 0 min 0 mm 1 UV-I 158 W/m 11,6 C 17,9 C 17,7 km/h (3 Bft)
19/08/2017 18:15 20,1 C 22,8 C 22,8 C 20,6 C 18,9 C 19,4 C 58 % 0 lf 11 cb 29 cb 84 cb 43 cb 1020,1 hPa 0,0 l/m 16,1 km/h (3 Bft) S-SO 202 0 min 0 mm 1 UV-I 178 W/m 11,6 C 17,1 C 22,5 km/h (4 Bft)
19/08/2017 18:14 20,1 C 23,3 C 23,3 C 20,6 C 18,9 C 19,4 C 58 % 0 lf 11 cb 29 cb 84 cb 43 cb 1020,1 hPa 0,0 l/m 16,1 km/h (3 Bft) S 180 0 min 0 mm 1 UV-I 192 W/m 11,6 C 17,1 C 25,7 km/h (4 Bft)
19/08/2017 18:13 20,1 C 23,9 C 23,9 C 20,6 C 18,9 C 19,4 C 57 % 0 lf 12 cb 29 cb 84 cb 43 cb 1020,1 hPa 0,0 l/m 14,5 km/h (3 Bft) S-SO 202 0 min 0 mm 1 UV-I 209 W/m 11,3 C 17,5 C 17,7 km/h (3 Bft)
19/08/2017 18:12 20,1 C 23,9 C 23,9 C 20,6 C 18,9 C 19,4 C 58 % 0 lf 12 cb 29 cb 84 cb 43 cb 1020,0 hPa 0,0 l/m 14,5 km/h (3 Bft) S 180 1 min 0 mm 1 UV-I 229 W/m 11,6 C 17,5 C 19,3 km/h (3 Bft)
19/08/2017 18:11 20,1 C 24,4 C 24,4 C 20,6 C 18,9 C 19,4 C 57 % 0 lf 12 cb 29 cb 84 cb 43 cb 1020,1 hPa 0,0 l/m 16,1 km/h (3 Bft) S-SO 202 1 min 0 mm 1 UV-I 468 W/m 11,3 C 17,1 C 22,5 km/h (4 Bft)
19/08/2017 18:10 20,1 C 23,9 C 23,9 C 20,0 C 18,9 C 19,4 C 58 % 0 lf 12 cb 29 cb 84 cb 43 cb 1020,1 hPa 0,0 l/m 16,1 km/h (3 Bft) S-SO 202 1 min 0 mm 1 UV-I 548 W/m 11,6 C 17,1 C 24,1 km/h (4 Bft)
19/08/2017 18:09 20,0 C 22,8 C 22,8 C 20,0 C 18,9 C 19,4 C 58 % 0 lf 11 cb 29 cb 84 cb 43 cb 1020,0 hPa 0,0 l/m 16,1 km/h (3 Bft) SO 225 1 min 0 mm 1 UV-I 543 W/m 11,5 C 17,0 C 20,9 km/h (4 Bft)
19/08/2017 18:08 19,9 C 22,2 C 22,2 C 20,0 C 18,9 C 19,4 C 58 % 0 lf 11 cb 29 cb 84 cb 43 cb 1020,1 hPa 0,0 l/m 16,1 km/h (3 Bft) S-SO 202 1 min 0 mm 1 UV-I 540 W/m 11,4 C 16,9 C 19,3 km/h (3 Bft)
19/08/2017 18:07 19,9 C 21,7 C 21,7 C 20,0 C 18,9 C 19,4 C 57 % 0 lf 11 cb 29 cb 84 cb 43 cb 1020,1 hPa 0,0 l/m 17,7 km/h (3 Bft) S-SO 202 0 min 0 mm 1 UV-I 211 W/m 11,1 C 16,5 C 24,1 km/h (4 Bft)
19/08/2017 18:06 19,9 C 21,7 C 21,7 C 20,0 C 18,9 C 19,4 C 57 % 0 lf 11 cb 29 cb 84 cb 43 cb 1020,2 hPa 0,0 l/m 19,3 km/h (3 Bft) S 180 0 min 0 mm 1 UV-I 211 W/m 11,1 C 16,2 C 25,7 km/h (4 Bft)
19/08/2017 18:05 19,9 C 21,7 C 21,7 C 20,0 C 18,9 C 19,4 C 57 % 0 lf 11 cb 29 cb 84 cb 43 cb 1020,2 hPa 0,0 l/m 16,1 km/h (3 Bft) S-SO 202 0 min 0 mm 1 UV-I 211 W/m 11,1 C 16,9 C 20,9 km/h (4 Bft)
19/08/2017 18:04 20,0 C 21,7 C 21,7 C 20,0 C 18,9 C 19,4 C 57 % 0 lf 11 cb 29 cb 84 cb 43 cb 1020,0 hPa 0,0 l/m 19,3 km/h (3 Bft) S 180 0 min 0 mm 1 UV-I 209 W/m 11,2 C 16,3 C 25,7 km/h (4 Bft)
19/08/2017 18:03 20,0 C 21,7 C 21,7 C 20,0 C 18,9 C 19,4 C 57 % 0 lf 11 cb 29 cb 84 cb 43 cb 1020,0 hPa 0,0 l/m 14,5 km/h (3 Bft) S-SO 202 0 min 0 mm 1 UV-I 174 W/m 11,2 C 17,4 C 19,3 km/h (3 Bft)
19/08/2017 18:02 20,1 C 22,2 C 21,7 C 20,0 C 18,9 C 19,4 C 56 % 0 lf 11 cb 29 cb 84 cb 43 cb 1020,0 hPa 0,0 l/m 12,9 km/h (3 Bft) S-SO 202 0 min 0 mm 1 UV-I 174 W/m 11,0 C 17,9 C 19,3 km/h (3 Bft)
19/08/2017 18:01 20,1 C 22,2 C 22,2 C 20,0 C 18,9 C 19,4 C 56 % 0 lf 11 cb 29 cb 84 cb 43 cb 1020,1 hPa 0,0 l/m 19,3 km/h (3 Bft) S 180 0 min 0 mm 1 UV-I 174 W/m 11,0 C 16,5 C 25,7 km/h (4 Bft)
19/08/2017 18:00 20,2 C 22,8 C 22,2 C 20,0 C 18,9 C 19,4 C 55 % 0 lf 11 cb 29 cb 84 cb 43 cb 1020,0 hPa 0,0 l/m 16,1 km/h (3 Bft) S-SO 202 0 min 0 mm 1 UV-I 160 W/m 10,9 C 17,2 C 19,3 km/h (3 Bft)
19/08/2017 17:59 20,2 C 22,8 C 22,8 C 20,0 C 18,9 C 19,4 C 55 % 0 lf 11 cb 29 cb 84 cb 43 cb 1020,1 hPa 0,0 l/m 16,1 km/h (3 Bft) S-SO 202 0 min 0 mm 1 UV-I 156 W/m 10,9 C 17,2 C 24,1 km/h (4 Bft)
19/08/2017 17:58 20,2 C 23,3 C 23,3 C 20,0 C 18,9 C 19,4 C 55 % 0 lf 11 cb 29 cb 84 cb 43 cb 1020,0 hPa 0,0 l/m 16,1 km/h (3 Bft) S 180 0 min 0 mm 1 UV-I 160 W/m 10,9 C 17,2 C 24,1 km/h (4 Bft)
19/08/2017 17:57 20,2 C 23,3 C 23,9 C 20,0 C 18,9 C 19,4 C 56 % 0 lf 11 cb 29 cb 84 cb 43 cb 1020,0 hPa 0,0 l/m 14,5 km/h (3 Bft) S-SO 202 1 min 0 mm 1 UV-I 497 W/m 11,1 C 17,6 C 24,1 km/h (4 Bft)
19/08/2017 17:56 20,2 C 23,3 C 23,3 C 20,0 C 18,9 C 19,4 C 55 % 0 lf 11 cb 29 cb 84 cb 43 cb 1020,0 hPa 0,0 l/m 16,1 km/h (3 Bft) S-SO 202 1 min 0 mm 1 UV-I 497 W/m 10,9 C 17,2 C 20,9 km/h (4 Bft)
19/08/2017 17:55 20,3 C 23,3 C 23,3 C 20,0 C 18,9 C 19,4 C 55 % 0 lf 11 cb 29 cb 84 cb 43 cb 1020,1 hPa 0,0 l/m 17,7 km/h (3 Bft) S-SO 202 0 min 0 mm 1 UV-I 146 W/m 11,0 C 17,0 C 24,1 km/h (4 Bft)
19/08/2017 17:54 20,3 C 23,9 C 23,9 C 20,0 C 18,9 C 19,4 C 55 % 0 lf 11 cb 29 cb 84 cb 43 cb 1020,0 hPa 0,0 l/m 16,1 km/h (3 Bft) S-SO 202 0 min 0 mm 1 UV-I 146 W/m 11,0 C 17,4 C 29,0 km/h (5 Bft)
19/08/2017 17:53 20,2 C 23,9 C 23,9 C 20,0 C 18,9 C 19,4 C 55 % 0 lf 11 cb 29 cb 84 cb 43 cb 1020,0 hPa 0,0 l/m 14,5 km/h (3 Bft) S-SO 202 1 min 0 mm 1 UV-I 392 W/m 10,9 C 17,6 C 19,3 km/h (3 Bft)
19/08/2017 17:52 20,2 C 23,9 C 23,9 C 20,0 C 18,9 C 19,4 C 55 % 0 lf 11 cb 29 cb 84 cb 43 cb 1020,1 hPa 0,0 l/m 12,9 km/h (3 Bft) SO 225 1 min 0 mm 1 UV-I 392 W/m 10,9 C 18,0 C 19,3 km/h (3 Bft)
19/08/2017 17:51 20,2 C 24,4 C 24,4 C 20,0 C 18,9 C 19,4 C 55 % 0 lf 11 cb 29 cb 84 cb 43 cb 1020,0 hPa 0,0 l/m 17,7 km/h (3 Bft) SO 225 1 min 0 mm 1 UV-I 578 W/m 10,9 C 16,9 C 24,1 km/h (4 Bft)
19/08/2017 17:50 20,2 C 24,4 C 24,4 C 20,0 C 18,9 C 19,4 C 55 % 0 lf 11 cb 29 cb 84 cb 43 cb 1020,1 hPa 0,0 l/m 22,5 km/h (4 Bft) S-SO 202 1 min 0 mm 1 UV-I 578 W/m 10,9 C 16,0 C 30,6 km/h (5 Bft)
19/08/2017 17:49 20,2 C 24,4 C 24,4 C 20,0 C 18,9 C 19,4 C 56 % 0 lf 11 cb 29 cb 84 cb 43 cb 1020,0 hPa 0,0 l/m 16,1 km/h (3 Bft) S-SO 202 1 min 0 mm 1 UV-I 578 W/m 11,1 C 17,2 C 20,9 km/h (4 Bft)
19/08/2017 17:48 20,2 C 24,4 C 24,4 C 20,0 C 18,9 C 19,4 C 57 % 0 lf 11 cb 29 cb 84 cb 43 cb 1020,0 hPa 0,0 l/m 16,1 km/h (3 Bft) S-SO 202 0 min 0 mm 1 UV-I 179 W/m 11,4 C 17,2 C 22,5 km/h (4 Bft)
19/08/2017 17:47 20,2 C 25,0 C 25,0 C 20,0 C 18,9 C 19,4 C 57 % 0 lf 12 cb 29 cb 84 cb 43 cb 1020,0 hPa 0,0 l/m 11,3 km/h (2 Bft) S-SO 202 0 min 0 mm 1 UV-I 179 W/m 11,4 C 18,5 C 25,7 km/h (4 Bft)
19/08/2017 17:46 20,2 C 25,6 C 25,6 C 20,0 C 18,9 C 19,4 C 57 % 0 lf 12 cb 29 cb 84 cb 43 cb 1020,0 hPa 0,0 l/m 14,5 km/h (3 Bft) SO 225 0 min 0 mm 1 UV-I 179 W/m 11,4 C 17,6 C 19,3 km/h (3 Bft)
19/08/2017 17:45 20,2 C 25,0 C 25,0 C 20,0 C 18,9 C 19,4 C 57 % 0 lf 12 cb 29 cb 84 cb 43 cb 1020,0 hPa 0,0 l/m 12,9 km/h (3 Bft) S-SO 202 1 min 0 mm 1 UV-I 545 W/m 11,4 C 18,0 C 19,3 km/h (3 Bft)
19/08/2017 17:44 20,1 C 24,4 C 24,4 C 20,0 C 18,9 C 19,4 C 57 % 0 lf 11 cb 29 cb 84 cb 43 cb 1020,1 hPa 0,0 l/m 14,5 km/h (3 Bft) S-SO 202 1 min 0 mm 1 UV-I 536 W/m 11,3 C 17,5 C 20,9 km/h (4 Bft)
19/08/2017 17:43 20,1 C 23,3 C 23,3 C 20,0 C 18,9 C 19,4 C 58 % 0 lf 11 cb 29 cb 84 cb 43 cb 1020,0 hPa 0,0 l/m 14,5 km/h (3 Bft) S-SO 202 1 min 0 mm 1 UV-I 543 W/m 11,6 C 17,5 C 20,9 km/h (4 Bft)
19/08/2017 17:42 20,1 C 22,8 C 22,8 C 20,0 C 18,9 C 19,4 C 57 % 0 lf 11 cb 29 cb 84 cb 43 cb 1020,1 hPa 0,0 l/m 16,1 km/h (3 Bft) S-SO 202 1 min 0 mm 1 UV-I 545 W/m 11,3 C 17,1 C 22,5 km/h (4 Bft)
19/08/2017 17:41 20,1 C 22,2 C 22,8 C 20,0 C 18,9 C 19,4 C 57 % 0 lf 11 cb 29 cb 84 cb 43 cb 1020,1 hPa 0,0 l/m 16,1 km/h (3 Bft) SO 225 1 min 0 mm 1 UV-I 550 W/m 11,3 C 17,1 C 29,0 km/h (5 Bft)
19/08/2017 17:40 20,1 C 21,7 C 22,2 C 20,0 C 18,9 C 19,4 C 57 % 0 lf 11 cb 29 cb 84 cb 43 cb 1020,1 hPa 0,0 l/m 14,5 km/h (3 Bft) S-SO 202 1 min 0 mm 1 UV-I 534 W/m 11,3 C 17,5 C 24,1 km/h (4 Bft)
19/08/2017 17:39 20,2 C 22,2 C 21,7 C 20,0 C 18,9 C 19,4 C 56 % 0 lf 11 cb 29 cb 84 cb 43 cb 1020,0 hPa 0,0 l/m 11,3 km/h (2 Bft) SO 225 0 min 0 mm 1 UV-I 160 W/m 11,1 C 18,5 C 20,9 km/h (4 Bft)
19/08/2017 17:38 20,2 C 22,2 C 22,2 C 20,0 C 18,9 C 19,4 C 56 % 0 lf 11 cb 29 cb 84 cb 43 cb 1020,2 hPa 0,0 l/m 14,5 km/h (3 Bft) SO 225 0 min 0 mm 1 UV-I 144 W/m 11,1 C 17,6 C 19,3 km/h (3 Bft)
19/08/2017 17:37 20,3 C 22,8 C 22,8 C 20,0 C 18,9 C 19,4 C 56 % 0 lf 11 cb 29 cb 84 cb 43 cb 1020,1 hPa 0,0 l/m 16,1 km/h (3 Bft) S-SO 202 0 min 0 mm 1 UV-I 139 W/m 11,2 C 17,4 C 24,1 km/h (4 Bft)
19/08/2017 17:36 20,3 C 23,3 C 23,3 C 20,0 C 18,9 C 19,4 C 56 % 0 lf 11 cb 29 cb 84 cb 43 cb 1020,2 hPa 0,0 l/m 16,1 km/h (3 Bft) S-SO 202 0 min 0 mm 1 UV-I 130 W/m 11,2 C 17,4 C 24,1 km/h (4 Bft)
19/08/2017 17:35 20,4 C 23,9 C 23,9 C 20,0 C 18,9 C 19,4 C 55 % 0 lf 11 cb 29 cb 84 cb 43 cb 1020,1 hPa 0,0 l/m 9,7 km/h (2 Bft) S-SO 202 0 min 0 mm 1 UV-I 128 W/m 11,1 C 19,2 C 12,9 km/h (3 Bft)
19/08/2017 17:34 20,4 C 24,4 C 24,4 C 20,0 C 18,9 C 19,4 C 55 % 0 lf 11 cb 29 cb 84 cb 43 cb 1020,2 hPa 0,0 l/m 11,3 km/h (2 Bft) SO 225 0 min 0 mm 1 UV-I 144 W/m 11,1 C 18,7 C 14,5 km/h (3 Bft)
19/08/2017 17:33 20,4 C 25,6 C 25,6 C 20,0 C 18,9 C 19,4 C 55 % 0 lf 12 cb 29 cb 84 cb 43 cb 1020,2 hPa 0,0 l/m 14,5 km/h (3 Bft) SO 225 1 min 0 mm 1 UV-I 555 W/m 11,1 C 17,9 C 22,5 km/h (4 Bft)
19/08/2017 17:32 20,4 C 25,6 C 25,6 C 20,0 C 18,9 C 19,4 C 54 % 0 lf 12 cb 29 cb 84 cb 43 cb 1020,2 hPa 0,0 l/m 19,3 km/h (3 Bft) S 180 1 min 0 mm 2 UV-I 555 W/m 10,8 C 16,8 C 29,0 km/h (5 Bft)
19/08/2017 17:31 20,4 C 25,6 C 25,6 C 20,0 C 18,9 C 19,4 C 55 % 0 lf 12 cb 29 cb 84 cb 43 cb 1020,1 hPa 0,0 l/m 22,5 km/h (4 Bft) S-SO 202 1 min 0 mm 2 UV-I 559 W/m 11,1 C 16,3 C 30,6 km/h (5 Bft)
19/08/2017 17:30 20,3 C 25,6 C 25,6 C 20,0 C 18,9 C 19,4 C 56 % 0 lf 12 cb 29 cb 84 cb 43 cb 1020,0 hPa 0,0 l/m 17,7 km/h (3 Bft) S 180 1 min 0 mm 2 UV-I 568 W/m 11,2 C 17,0 C 24,1 km/h (4 Bft)
19/08/2017 17:29 20,3 C 25,0 C 25,0 C 20,0 C 18,9 C 19,4 C 57 % 0 lf 11 cb 29 cb 84 cb 43 cb 1020,1 hPa 0,0 l/m 14,5 km/h (3 Bft) S-SO 202 1 min 0 mm 2 UV-I 568 W/m 11,5 C 17,7 C 17,7 km/h (3 Bft)
19/08/2017 17:28 20,3 C 25,0 C 25,0 C 20,0 C 18,9 C 19,4 C 57 % 0 lf 11 cb 29 cb 84 cb 43 cb 1020,1 hPa 0,0 l/m 17,7 km/h (3 Bft) S-SO 202 1 min 0 mm 2 UV-I 577 W/m 11,5 C 17,0 C 24,1 km/h (4 Bft)
19/08/2017 17:27 20,2 C 24,4 C 24,4 C 20,0 C 18,9 C 19,4 C 57 % 0 lf 11 cb 29 cb 84 cb 43 cb 1020,1 hPa 0,0 l/m 14,5 km/h (3 Bft) S 180 1 min 0 mm 2 UV-I 568 W/m 11,4 C 17,6 C 20,9 km/h (4 Bft)
19/08/2017 17:26 20,2 C 23,9 C 23,9 C 20,0 C 18,9 C 19,4 C 57 % 0 lf 11 cb 29 cb 84 cb 43 cb 1020,1 hPa 0,0 l/m 14,5 km/h (3 Bft) S-SO 202 1 min 0 mm 2 UV-I 596 W/m 11,4 C 17,6 C 17,7 km/h (3 Bft)
19/08/2017 17:25 20,2 C 23,9 C 23,9 C 20,0 C 18,9 C 19,4 C 57 % 0 lf 11 cb 29 cb 84 cb 43 cb 1020,2 hPa 0,0 l/m 14,5 km/h (3 Bft) S-SO 202 1 min 0 mm 2 UV-I 596 W/m 11,4 C 17,6 C 22,5 km/h (4 Bft)
19/08/2017 17:24 20,2 C 23,3 C 23,3 C 20,0 C 18,9 C 19,4 C 57 % 0 lf 11 cb 29 cb 84 cb 43 cb 1020,0 hPa 0,0 l/m 11,3 km/h (2 Bft) S-SO 202 0 min 0 mm 2 UV-I 167 W/m 11,4 C 18,5 C 14,5 km/h (3 Bft)
19/08/2017 17:23 20,2 C 23,3 C 23,3 C 20,0 C 18,9 C 19,4 C 56 % 0 lf 11 cb 29 cb 84 cb 43 cb 1020,0 hPa 0,0 l/m 11,3 km/h (2 Bft) S 180 0 min 0 mm 1 UV-I 167 W/m 11,1 C 18,5 C 16,1 km/h (3 Bft)
19/08/2017 17:22 20,3 C 23,9 C 23,9 C 20,0 C 18,9 C 19,4 C 56 % 0 lf 11 cb 29 cb 84 cb 43 cb 1020,1 hPa 0,0 l/m 17,7 km/h (3 Bft) S-SO 202 0 min 0 mm 2 UV-I 167 W/m 11,2 C 17,0 C 20,9 km/h (4 Bft)
19/08/2017 17:21 20,3 C 25,0 C 25,0 C 20,0 C 18,9 C 19,4 C 56 % 0 lf 11 cb 29 cb 84 cb 43 cb 1020,1 hPa 0,0 l/m 16,1 km/h (3 Bft) S-SO 202 0 min 0 mm 1 UV-I 130 W/m 11,2 C 17,4 C 22,5 km/h (4 Bft)
19/08/2017 17:20 20,3 C 25,6 C 25,0 C 20,0 C 18,9 C 19,4 C 56 % 0 lf 11 cb 29 cb 84 cb 43 cb 1020,1 hPa 0,0 l/m 17,7 km/h (3 Bft) S-SO 202 1 min 0 mm 1 UV-I 503 W/m 11,2 C 17,0 C 22,5 km/h (4 Bft)
19/08/2017 17:19 20,3 C 25,6 C 25,6 C 20,0 C 18,9 C 19,4 C 57 % 0 lf 12 cb 29 cb 84 cb 43 cb 1020,1 hPa 0,0 l/m 16,1 km/h (3 Bft) S-SO 202 1 min 0 mm 1 UV-I 503 W/m 11,5 C 17,4 C 19,3 km/h (3 Bft)
19/08/2017 17:18 20,2 C 25,6 C 25,6 C 20,0 C 18,9 C 19,4 C 57 % 0 lf 11 cb 29 cb 84 cb 43 cb 1020,0 hPa 0,0 l/m 12,9 km/h (3 Bft) S-SO 202 1 min 0 mm 2 UV-I 503 W/m 11,4 C 18,0 C 17,7 km/h (3 Bft)
19/08/2017 17:17 20,1 C 25,6 C 25,6 C 20,0 C 18,9 C 19,4 C 57 % 0 lf 11 cb 29 cb 84 cb 43 cb 1020,1 hPa 0,0 l/m 12,9 km/h (3 Bft) SO 225 1 min 0 mm 2 UV-I 589 W/m 11,3 C 17,9 C 19,3 km/h (3 Bft)
19/08/2017 17:16 20,1 C 25,6 C 25,6 C 20,0 C 18,9 C 19,4 C 56 % 0 lf 11 cb 29 cb 84 cb 43 cb 1020,1 hPa 0,0 l/m 12,9 km/h (3 Bft) SO 225 1 min 0 mm 2 UV-I 580 W/m 11,0 C 17,9 C 17,7 km/h (3 Bft)
19/08/2017 17:15 20,0 C 25,0 C 25,0 C 20,0 C 18,9 C 19,4 C 56 % 0 lf 11 cb 29 cb 84 cb 43 cb 1020,1 hPa 0,0 l/m 17,7 km/h (3 Bft) S-SO 202 1 min 0 mm 2 UV-I 573 W/m 11,0 C 16,7 C 29,0 km/h (5 Bft)
19/08/2017 17:14 19,9 C 25,0 C 25,0 C 20,0 C 18,9 C 19,4 C 57 % 0 lf 11 cb 29 cb 84 cb 43 cb 1020,1 hPa 0,0 l/m 17,7 km/h (3 Bft) S 180 1 min 0 mm 2 UV-I 577 W/m 11,1 C 16,5 C 25,7 km/h (4 Bft)
19/08/2017 17:13 19,9 C 24,4 C 24,4 C 20,0 C 18,9 C 19,4 C 57 % 0 lf 11 cb 29 cb 84 cb 43 cb 1020,1 hPa 0,0 l/m 14,5 km/h (3 Bft) S-SO 202 1 min 0 mm 2 UV-I 587 W/m 11,1 C 17,3 C 20,9 km/h (4 Bft)
19/08/2017 17:12 19,9 C 23,3 C 23,3 C 20,0 C 18,9 C 19,4 C 57 % 0 lf 11 cb 29 cb 84 cb 43 cb 1020,1 hPa 0,0 l/m 17,7 km/h (3 Bft) S 180 1 min 0 mm 2 UV-I 599 W/m 11,1 C 16,5 C 19,3 km/h (3 Bft)
19/08/2017 17:11 19,9 C 22,8 C 22,8 C 20,0 C 18,9 C 19,4 C 56 % 0 lf 11 cb 29 cb 84 cb 43 cb 1020,1 hPa 0,0 l/m 17,7 km/h (3 Bft) S-SO 202 1 min 0 mm 2 UV-I 635 W/m 10,9 C 16,5 C 24,1 km/h (4 Bft)
19/08/2017 17:10 19,9 C 22,2 C 22,2 C 20,0 C 18,9 C 19,4 C 56 % 0 lf 11 cb 29 cb 84 cb 43 cb 1020,1 hPa 0,0 l/m 19,3 km/h (3 Bft) S-SO 202 0 min 0 mm 2 UV-I 213 W/m 10,9 C 16,2 C 24,1 km/h (4 Bft)
19/08/2017 17:09 19,9 C 22,2 C 22,2 C 20,0 C 18,9 C 19,4 C 56 % 0 lf 11 cb 29 cb 84 cb 43 cb 1020,1 hPa 0,0 l/m 17,7 km/h (3 Bft) S 180 0 min 0 mm 2 UV-I 213 W/m 10,9 C 16,5 C 25,7 km/h (4 Bft)
19/08/2017 17:08 20,0 C 22,8 C 22,8 C 20,0 C 18,9 C 19,4 C 56 % 0 lf 11 cb 29 cb 84 cb 43 cb 1020,1 hPa 0,0 l/m 22,5 km/h (4 Bft) S-SO 202 0 min 0 mm 1 UV-I 160 W/m 11,0 C 15,8 C 30,6 km/h (5 Bft)
19/08/2017 17:07 20,1 C 23,3 C 23,3 C 20,0 C 18,9 C 19,4 C 56 % 0 lf 11 cb 29 cb 84 cb 43 cb 1020,1 hPa 0,0 l/m 14,5 km/h (3 Bft) S 180 0 min 0 mm 1 UV-I 149 W/m 11,0 C 17,5 C 25,7 km/h (4 Bft)
19/08/2017 17:06 20,1 C 23,3 C 23,3 C 20,0 C 18,9 C 19,4 C 56 % 0 lf 11 cb 29 cb 84 cb 43 cb 1020,1 hPa 0,0 l/m 14,5 km/h (3 Bft) S-SO 202 0 min 0 mm 1 UV-I 146 W/m 11,0 C 17,5 C 20,9 km/h (4 Bft)
19/08/2017 17:05 20,1 C 24,4 C 24,4 C 20,0 C 18,9 C 19,4 C 55 % 0 lf 11 cb 29 cb 84 cb 43 cb 1020,1 hPa 0,0 l/m 16,1 km/h (3 Bft) S-SO 202 0 min 0 mm 1 UV-I 211 W/m 10,8 C 17,1 C 25,7 km/h (4 Bft)
19/08/2017 17:04 20,2 C 25,0 C 25,0 C 20,0 C 18,9 C 19,4 C 55 % 0 lf 11 cb 29 cb 84 cb 43 cb 1020,1 hPa 0,0 l/m 17,7 km/h (3 Bft) S 180 1 min 0 mm 1 UV-I 357 W/m 10,9 C 16,9 C 22,5 km/h (4 Bft)
19/08/2017 17:03 20,2 C 25,6 C 25,6 C 20,0 C 18,9 C 19,4 C 55 % 0 lf 11 cb 29 cb 84 cb 43 cb 1020,0 hPa 0,0 l/m 14,5 km/h (3 Bft) S-SO 202 1 min 0 mm 2 UV-I 357 W/m 10,9 C 17,6 C 20,9 km/h (4 Bft)
19/08/2017 17:02 20,2 C 26,1 C 26,1 C 20,0 C 18,9 C 19,4 C 56 % 0 lf 11 cb 29 cb 84 cb 43 cb 1020,1 hPa 0,0 l/m 16,1 km/h (3 Bft) S-SO 202 1 min 0 mm 2 UV-I 357 W/m 11,1 C 17,2 C 22,5 km/h (4 Bft)
19/08/2017 17:01 20,1 C 26,1 C 26,1 C 20,0 C 18,9 C 19,4 C 56 % 0 lf 11 cb 29 cb 84 cb 43 cb 1020,0 hPa 0,0 l/m 16,1 km/h (3 Bft) S-SO 202 1 min 0 mm 1 UV-I 700 W/m 11,0 C 17,1 C 20,9 km/h (4 Bft)
19/08/2017 17:00 20,1 C 25,6 C 25,6 C 20,0 C 18,9 C 19,4 C 56 % 0 lf 11 cb 29 cb 84 cb 43 cb 1020,1 hPa 0,0 l/m 19,3 km/h (3 Bft) S 180 1 min 0 mm 2 UV-I 700 W/m 11,0 C 16,5 C 25,7 km/h (4 Bft)
19/08/2017 16:59 20,1 C 25,6 C 25,6 C 20,0 C 18,9 C 19,4 C 56 % 0 lf 11 cb 29 cb 84 cb 43 cb 1020,0 hPa 0,0 l/m 19,3 km/h (3 Bft) S-SO 202 1 min 0 mm 2 UV-I 728 W/m 11,0 C 16,5 C 30,6 km/h (5 Bft)
19/08/2017 16:58 20,1 C 24,4 C 25,6 C 20,0 C 18,9 C 19,4 C 56 % 0 lf 11 cb 29 cb 84 cb 43 cb 1020,0 hPa 0,0 l/m 17,7 km/h (3 Bft) S 180 1 min 0 mm 2 UV-I 733 W/m 11,0 C 16,8 C 25,7 km/h (4 Bft)
19/08/2017 16:57 20,1 C 23,9 C 24,4 C 20,0 C 18,9 C 19,4 C 56 % 0 lf 11 cb 29 cb 84 cb 43 cb 1020,0 hPa 0,0 l/m 17,7 km/h (3 Bft) S 180 1 min 0 mm 2 UV-I 737 W/m 11,0 C 16,8 C 30,6 km/h (5 Bft)
19/08/2017 16:56 20,1 C 23,9 C 23,9 C 20,0 C 18,9 C 19,4 C 56 % 0 lf 11 cb 29 cb 84 cb 43 cb 1020,0 hPa 0,0 l/m 20,9 km/h (4 Bft) S-SO 202 1 min 0 mm 2 UV-I 707 W/m 11,0 C 16,2 C 30,6 km/h (5 Bft)
19/08/2017 16:55 20,1 C 23,9 C 23,9 C 20,0 C 18,9 C 19,4 C 58 % 0 lf 11 cb 29 cb 84 cb 43 cb 1020,0 hPa 0,0 l/m 19,3 km/h (3 Bft) S-SO 202 0 min 0 mm 2 UV-I 218 W/m 11,6 C 16,5 C 33,8 km/h (5 Bft)
19/08/2017 16:54 20,1 C 23,3 C 23,3 C 20,0 C 18,9 C 19,4 C 57 % 0 lf 11 cb 29 cb 84 cb 43 cb 1020,0 hPa 0,0 l/m 14,5 km/h (3 Bft) S-SO 202 0 min 0 mm 2 UV-I 218 W/m 11,3 C 17,5 C 19,3 km/h (3 Bft)
19/08/2017 16:53 20,1 C 23,9 C 23,9 C 20,0 C 18,9 C 19,4 C 57 % 0 lf 11 cb 29 cb 84 cb 43 cb 1020,0 hPa 0,0 l/m 17,7 km/h (3 Bft) S-SO 202 0 min 0 mm 2 UV-I 218 W/m 11,3 C 16,8 C 22,5 km/h (4 Bft)
19/08/2017 16:52 20,1 C 23,9 C 23,9 C 20,0 C 18,9 C 19,4 C 57 % 0 lf 11 cb 29 cb 84 cb 43 cb 1020,0 hPa 0,0 l/m 8,0 km/h (2 Bft) S 180 0 min 0 mm 1 UV-I 181 W/m 11,3 C 19,5 C 11,3 km/h (2 Bft)
19/08/2017 16:51 20,1 C 25,0 C 25,0 C 20,0 C 18,9 C 19,4 C 57 % 0 lf 11 cb 29 cb 84 cb 43 cb 1020,0 hPa 0,0 l/m 17,7 km/h (3 Bft) S 180 0 min 0 mm 1 UV-I 160 W/m 11,3 C 16,8 C 25,7 km/h (4 Bft)
19/08/2017 16:50 20,1 C 25,6 C 25,6 C 20,0 C 18,9 C 19,4 C 59 % 0 lf 11 cb 29 cb 84 cb 43 cb 1020,0 hPa 0,0 l/m 17,7 km/h (3 Bft) S 180 1 min 0 mm 1 UV-I 745 W/m 11,8 C 16,8 C 25,7 km/h (4 Bft)
19/08/2017 16:49 20,0 C 25,6 C 25,6 C 20,0 C 18,9 C 19,4 C 59 % 0 lf 11 cb 29 cb 84 cb 43 cb 1019,9 hPa 0,0 l/m 12,9 km/h (3 Bft) S-SO 202 1 min 0 mm 2 UV-I 745 W/m 11,7 C 17,8 C 16,1 km/h (3 Bft)
19/08/2017 16:48 19,9 C 24,4 C 24,4 C 20,0 C 18,9 C 19,4 C 59 % 0 lf 11 cb 29 cb 84 cb 43 cb 1020,0 hPa 0,0 l/m 11,3 km/h (2 Bft) SO 225 1 min 0 mm 2 UV-I 745 W/m 11,6 C 18,1 C 16,1 km/h (3 Bft)
19/08/2017 16:47 19,9 C 23,9 C 23,9 C 20,0 C 18,9 C 19,4 C 58 % 0 lf 11 cb 29 cb 84 cb 43 cb 1020,0 hPa 0,0 l/m 8,0 km/h (2 Bft) S-SO 202 1 min 0 mm 2 UV-I 745 W/m 11,4 C 19,2 C 14,5 km/h (3 Bft)
19/08/2017 16:46 19,9 C 23,3 C 23,3 C 20,0 C 18,9 C 19,4 C 57 % 0 lf 11 cb 29 cb 84 cb 43 cb 1019,9 hPa 0,0 l/m 16,1 km/h (3 Bft) S-SO 202 1 min 0 mm 2 UV-I 740 W/m 11,1 C 16,9 C 20,9 km/h (4 Bft)
19/08/2017 16:45 19,9 C 22,8 C 22,8 C 20,0 C 18,9 C 19,4 C 57 % 0 lf 11 cb 29 cb 84 cb 43 cb 1020,0 hPa 0,0 l/m 19,3 km/h (3 Bft) S-SO 202 0 min 0 mm 2 UV-I 232 W/m 11,1 C 16,2 C 25,7 km/h (4 Bft)
19/08/2017 16:44 20,0 C 23,3 C 23,3 C 20,0 C 18,9 C 19,4 C 57 % 0 lf 11 cb 29 cb 84 cb 43 cb 1019,9 hPa 0,0 l/m 14,5 km/h (3 Bft) S-SO 202 0 min 0 mm 2 UV-I 232 W/m 11,2 C 17,4 C 20,9 km/h (4 Bft)
19/08/2017 16:43 20,1 C 23,9 C 23,9 C 20,0 C 18,9 C 19,4 C 56 % 0 lf 11 cb 29 cb 84 cb 43 cb 1020,0 hPa 0,0 l/m 12,9 km/h (3 Bft) S-SO 202 0 min 0 mm 1 UV-I 190 W/m 11,0 C 17,9 C 20,9 km/h (4 Bft)
19/08/2017 16:42 20,2 C 24,4 C 24,4 C 20,0 C 18,9 C 19,4 C 57 % 0 lf 11 cb 29 cb 84 cb 43 cb 1020,0 hPa 0,0 l/m 12,9 km/h (3 Bft) S-SO 202 0 min 0 mm 1 UV-I 186 W/m 11,4 C 18,0 C 19,3 km/h (3 Bft)
19/08/2017 16:41 20,2 C 24,4 C 24,4 C 20,0 C 18,9 C 19,4 C 57 % 0 lf 11 cb 29 cb 84 cb 43 cb 1020,0 hPa 0,0 l/m 14,5 km/h (3 Bft) S 180 1 min 0 mm 1 UV-I 747 W/m 11,4 C 17,6 C 17,7 km/h (3 Bft)
19/08/2017 16:40 20,2 C 25,0 C 25,0 C 20,0 C 18,9 C 19,4 C 57 % 0 lf 11 cb 29 cb 84 cb 43 cb 1020,0 hPa 0,0 l/m 17,7 km/h (3 Bft) S-SO 202 1 min 0 mm 2 UV-I 747 W/m 11,4 C 16,9 C 24,1 km/h (4 Bft)
19/08/2017 16:39 20,2 C 25,0 C 25,0 C 20,0 C 18,9 C 19,4 C 57 % 0 lf 11 cb 29 cb 84 cb 43 cb 1019,9 hPa 0,0 l/m 17,7 km/h (3 Bft) S-SO 202 1 min 0 mm 3 UV-I 747 W/m 11,4 C 16,9 C 22,5 km/h (4 Bft)
19/08/2017 16:38 20,1 C 24,4 C 25,0 C 20,0 C 18,9 C 19,4 C 59 % 0 lf 11 cb 29 cb 84 cb 43 cb 1020,0 hPa 0,0 l/m 14,5 km/h (3 Bft) SO 225 1 min 0 mm 3 UV-I 715 W/m 11,8 C 17,5 C 24,1 km/h (4 Bft)
19/08/2017 16:37 20,1 C 24,4 C 24,4 C 20,0 C 18,9 C 19,4 C 58 % 0 lf 11 cb 29 cb 84 cb 43 cb 1020,0 hPa 0,0 l/m 12,9 km/h (3 Bft) S-SO 202 1 min 0 mm 3 UV-I 729 W/m 11,6 C 17,9 C 20,9 km/h (4 Bft)
19/08/2017 16:36 19,9 C 23,9 C 24,4 C 20,0 C 18,9 C 19,4 C 58 % 0 lf 11 cb 29 cb 84 cb 43 cb 1020,0 hPa 0,0 l/m 20,9 km/h (4 Bft) S 180 1 min 0 mm 3 UV-I 742 W/m 11,4 C 15,9 C 25,7 km/h (4 Bft)
19/08/2017 16:35 19,9 C 23,9 C 23,9 C 20,0 C 18,9 C 19,4 C 59 % 0 lf 11 cb 29 cb 84 cb 43 cb 1020,0 hPa 0,0 l/m 24,1 km/h (4 Bft) S-SO 202 1 min 0 mm 3 UV-I 749 W/m 11,6 C 15,4 C 33,8 km/h (5 Bft)
19/08/2017 16:34 19,8 C 23,3 C 23,3 C 20,0 C 18,9 C 19,4 C 60 % 0 lf 11 cb 29 cb 84 cb 43 cb 1019,9 hPa 0,0 l/m 14,5 km/h (3 Bft) S 180 1 min 0 mm 3 UV-I 761 W/m 11,8 C 17,1 C 29,0 km/h (5 Bft)
19/08/2017 16:33 19,7 C 22,8 C 22,8 C 20,0 C 18,9 C 19,4 C 59 % 0 lf 11 cb 29 cb 84 cb 43 cb 1019,9 hPa 0,0 l/m 11,3 km/h (2 Bft) SO 225 1 min 0 mm 3 UV-I 772 W/m 11,5 C 17,9 C 16,1 km/h (3 Bft)
19/08/2017 16:32 19,6 C 22,2 C 22,2 C 20,0 C 18,9 C 19,4 C 59 % 0 lf 11 cb 29 cb 84 cb 43 cb 1019,8 hPa 0,0 l/m 11,3 km/h (2 Bft) S-SO 202 0 min 0 mm 3 UV-I 274 W/m 11,4 C 17,8 C 16,1 km/h (3 Bft)
19/08/2017 16:31 19,6 C 21,7 C 21,7 C 20,0 C 18,9 C 19,4 C 58 % 0 lf 11 cb 29 cb 84 cb 43 cb 1019,8 hPa 0,0 l/m 16,1 km/h (3 Bft) SO 225 0 min 0 mm 3 UV-I 274 W/m 11,1 C 16,5 C 19,3 km/h (3 Bft)
19/08/2017 16:30 19,6 C 21,7 C 21,7 C 20,0 C 18,9 C 19,4 C 57 % 0 lf 11 cb 29 cb 84 cb 43 cb 1019,9 hPa 0,0 l/m 14,5 km/h (3 Bft) S-SO 202 0 min 0 mm 2 UV-I 327 W/m 10,8 C 16,9 C 17,7 km/h (3 Bft)
19/08/2017 16:29 19,7 C 21,7 C 21,7 C 20,0 C 18,9 C 19,4 C 57 % 0 lf 11 cb 29 cb 84 cb 43 cb 1019,8 hPa 0,0 l/m 19,3 km/h (3 Bft) S-SO 202 0 min 0 mm 1 UV-I 260 W/m 10,9 C 16,0 C 25,7 km/h (4 Bft)
19/08/2017 16:28 19,7 C 21,7 C 21,7 C 20,0 C 18,9 C 19,4 C 57 % 0 lf 11 cb 29 cb 84 cb 43 cb 1019,9 hPa 0,0 l/m 19,3 km/h (3 Bft) S-SO 202 0 min 0 mm 1 UV-I 188 W/m 10,9 C 16,0 C 24,1 km/h (4 Bft)
19/08/2017 16:27 19,8 C 21,7 C 21,7 C 19,4 C 18,9 C 19,4 C 57 % 0 lf 11 cb 29 cb 84 cb 43 cb 1019,9 hPa 0,0 l/m 20,9 km/h (4 Bft) S-SO 202 0 min 0 mm 1 UV-I 188 W/m 11,0 C 15,8 C 25,7 km/h (4 Bft)
19/08/2017 16:26 19,8 C 22,2 C 22,2 C 19,4 C 18,9 C 19,4 C 57 % 0 lf 11 cb 29 cb 84 cb 43 cb 1019,9 hPa 0,0 l/m 12,9 km/h (3 Bft) S-SO 202 0 min 0 mm 1 UV-I 188 W/m 11,0 C 17,5 C 19,3 km/h (3 Bft)
19/08/2017 16:25 19,9 C 22,2 C 22,2 C 19,4 C 18,9 C 19,4 C 57 % 0 lf 11 cb 29 cb 84 cb 43 cb 1019,9 hPa 0,0 l/m 11,3 km/h (2 Bft) S 180 0 min 0 mm 1 UV-I 163 W/m 11,1 C 18,1 C 17,7 km/h (3 Bft)
19/08/2017 16:24 19,9 C 22,8 C 22,8 C 19,4 C 18,9 C 19,4 C 57 % 0 lf 11 cb 29 cb 84 cb 43 cb 1019,9 hPa 0,0 l/m 14,5 km/h (3 Bft) S-SO 202 0 min 0 mm 1 UV-I 148 W/m 11,1 C 17,3 C 20,9 km/h (4 Bft)
19/08/2017 16:23 20,0 C 23,3 C 23,3 C 19,4 C 18,9 C 19,4 C 56 % 0 lf 11 cb 29 cb 84 cb 43 cb 1019,8 hPa 0,0 l/m 9,7 km/h (2 Bft) S 180 0 min 0 mm 2 UV-I 151 W/m 11,0 C 18,7 C 12,9 km/h (3 Bft)
19/08/2017 16:22 20,1 C 23,9 C 23,9 C 19,4 C 18,9 C 19,4 C 56 % 0 lf 11 cb 29 cb 84 cb 43 cb 1020,0 hPa 0,0 l/m 16,1 km/h (3 Bft) S-SO 202 0 min 0 mm 2 UV-I 172 W/m 11,0 C 17,1 C 25,7 km/h (4 Bft)
19/08/2017 16:21 20,1 C 23,3 C 23,3 C 19,4 C 18,9 C 19,4 C 57 % 0 lf 11 cb 29 cb 84 cb 43 cb 1019,9 hPa 0,0 l/m 12,9 km/h (3 Bft) S-SO 202 1 min 0 mm 2 UV-I 754 W/m 11,3 C 17,9 C 19,3 km/h (3 Bft)
19/08/2017 16:20 20,1 C 23,3 C 23,3 C 19,4 C 18,9 C 19,4 C 57 % 0 lf 11 cb 29 cb 84 cb 43 cb 1019,8 hPa 0,0 l/m 11,3 km/h (2 Bft) S-SO 202 1 min 0 mm 3 UV-I 754 W/m 11,3 C 18,3 C 19,3 km/h (3 Bft)
19/08/2017 16:19 20,1 C 22,8 C 22,8 C 19,4 C 18,9 C 19,4 C 56 % 0 lf 11 cb 29 cb 84 cb 43 cb 1019,9 hPa 0,0 l/m 9,7 km/h (2 Bft) S-SO 202 0 min 0 mm 3 UV-I 209 W/m 11,0 C 18,8 C 14,5 km/h (3 Bft)
19/08/2017 16:18 20,1 C 23,3 C 23,3 C 19,4 C 18,9 C 19,4 C 57 % 0 lf 11 cb 29 cb 84 cb 43 cb 1019,9 hPa 0,0 l/m 14,5 km/h (3 Bft) SO 225 0 min 0 mm 2 UV-I 209 W/m 11,3 C 17,5 C 20,9 km/h (4 Bft)
19/08/2017 16:17 20,1 C 23,9 C 23,3 C 19,4 C 18,9 C 19,4 C 57 % 0 lf 11 cb 29 cb 84 cb 43 cb 1019,8 hPa 0,0 l/m 12,9 km/h (3 Bft) SO 225 0 min 0 mm 2 UV-I 209 W/m 11,3 C 17,9 C 19,3 km/h (3 Bft)
19/08/2017 16:16 20,2 C 24,4 C 23,9 C 19,4 C 18,9 C 19,4 C 57 % 0 lf 11 cb 29 cb 84 cb 43 cb 1019,8 hPa 0,0 l/m 12,9 km/h (3 Bft) SO 225 0 min 0 mm 2 UV-I 221 W/m 11,4 C 18,0 C 19,3 km/h (3 Bft)
19/08/2017 16:15 20,2 C 24,4 C 24,4 C 19,4 C 18,9 C 19,4 C 57 % 0 lf 11 cb 29 cb 84 cb 43 cb 1019,9 hPa 0,0 l/m 12,9 km/h (3 Bft) S-SO 202 1 min 0 mm 2 UV-I 814 W/m 11,4 C 18,0 C 17,7 km/h (3 Bft)
19/08/2017 16:14 20,2 C 24,4 C 24,4 C 19,4 C 18,9 C 19,4 C 56 % 0 lf 11 cb 29 cb 84 cb 43 cb 1020,0 hPa 0,0 l/m 14,5 km/h (3 Bft) SO 225 1 min 0 mm 3 UV-I 814 W/m 11,1 C 17,6 C 17,7 km/h (3 Bft)
19/08/2017 16:13 20,2 C 24,4 C 24,4 C 19,4 C 18,9 C 19,4 C 56 % 0 lf 11 cb 29 cb 84 cb 43 cb 1019,8 hPa 0,0 l/m 9,7 km/h (2 Bft) SO 225 0 min 0 mm 2 UV-I 221 W/m 11,1 C 19,0 C 12,9 km/h (3 Bft)
19/08/2017 16:12 20,2 C 25,6 C 25,6 C 19,4 C 18,9 C 19,4 C 56 % 0 lf 11 cb 29 cb 84 cb 43 cb 1020,0 hPa 0,0 l/m 12,9 km/h (3 Bft) SO 225 0 min 0 mm 2 UV-I 223 W/m 11,1 C 18,0 C 19,3 km/h (3 Bft)
19/08/2017 16:11 20,2 C 25,6 C 25,6 C 19,4 C 18,9 C 19,4 C 57 % 0 lf 11 cb 29 cb 84 cb 43 cb 1020,0 hPa 0,0 l/m 12,9 km/h (3 Bft) SO 225 1 min 0 mm 3 UV-I 807 W/m 11,4 C 18,0 C 17,7 km/h (3 Bft)
19/08/2017 16:10 20,2 C 25,6 C 25,6 C 19,4 C 18,9 C 19,4 C 57 % 0 lf 11 cb 29 cb 84 cb 43 cb 1020,0 hPa 0,0 l/m 12,9 km/h (3 Bft) SO 225 1 min 0 mm 3 UV-I 807 W/m 11,4 C 18,0 C 22,5 km/h (4 Bft)
19/08/2017 16:09 20,2 C 25,6 C 25,6 C 19,4 C 18,9 C 19,4 C 58 % 0 lf 11 cb 29 cb 84 cb 43 cb 1019,9 hPa 0,0 l/m 16,1 km/h (3 Bft) S-SO 202 0 min 0 mm 3 UV-I 250 W/m 11,7 C 17,2 C 25,7 km/h (4 Bft)
19/08/2017 16:08 20,1 C 26,7 C 26,7 C 19,4 C 18,9 C 19,4 C 58 % 0 lf 11 cb 29 cb 84 cb 43 cb 1020,0 hPa 0,0 l/m 12,9 km/h (3 Bft) S-SO 202 0 min 0 mm 2 UV-I 250 W/m 11,6 C 17,9 C 17,7 km/h (3 Bft)
19/08/2017 16:07 20,0 C 26,7 C 26,7 C 19,4 C 18,9 C 19,4 C 58 % 0 lf 11 cb 29 cb 84 cb 43 cb 1019,8 hPa 0,0 l/m 12,9 km/h (3 Bft) O-SO 247 1 min 0 mm 3 UV-I 789 W/m 11,5 C 17,8 C 20,9 km/h (4 Bft)
19/08/2017 16:06 19,9 C 26,7 C 26,7 C 19,4 C 18,9 C 19,4 C 58 % 0 lf 11 cb 29 cb 84 cb 43 cb 1019,9 hPa 0,0 l/m 14,5 km/h (3 Bft) O-SO 247 1 min 0 mm 3 UV-I 740 W/m 11,4 C 17,3 C 20,9 km/h (4 Bft)
19/08/2017 16:05 19,8 C 26,1 C 26,1 C 19,4 C 18,9 C 19,4 C 58 % 0 lf 11 cb 29 cb 84 cb 43 cb 1019,9 hPa 0,0 l/m 20,9 km/h (4 Bft) SO 225 1 min 0 mm 3 UV-I 724 W/m 11,3 C 15,8 C 30,6 km/h (5 Bft)
19/08/2017 16:04 19,8 C 26,1 C 26,1 C 19,4 C 18,9 C 19,4 C 58 % 0 lf 11 cb 29 cb 84 cb 43 cb 1020,0 hPa 0,0 l/m 9,7 km/h (2 Bft) SO 225 1 min 0 mm 3 UV-I 698 W/m 11,3 C 18,5 C 16,1 km/h (3 Bft)
19/08/2017 16:03 19,8 C 26,1 C 26,1 C 19,4 C 18,9 C 19,4 C 58 % 0 lf 11 cb 29 cb 84 cb 43 cb 1020,0 hPa 0,0 l/m 16,1 km/h (3 Bft) S-SO 202 1 min 0 mm 3 UV-I 696 W/m 11,3 C 16,7 C 19,3 km/h (3 Bft)
19/08/2017 16:02 19,7 C 25,6 C 25,6 C 19,4 C 18,9 C 19,4 C 58 % 0 lf 11 cb 29 cb 84 cb 43 cb 1020,0 hPa 0,0 l/m 16,1 km/h (3 Bft) S-SO 202 1 min 0 mm 3 UV-I 693 W/m 11,2 C 16,6 C 19,3 km/h (3 Bft)
19/08/2017 16:01 19,7 C 25,0 C 25,0 C 19,4 C 18,9 C 19,4 C 59 % 0 lf 11 cb 29 cb 84 cb 43 cb 1020,0 hPa 0,0 l/m 14,5 km/h (3 Bft) S 180 1 min 0 mm 3 UV-I 701 W/m 11,5 C 17,0 C 20,9 km/h (4 Bft)
19/08/2017 16:00 19,7 C 24,4 C 24,4 C 19,4 C 18,9 C 19,4 C 58 % 0 lf 11 cb 29 cb 84 cb 43 cb 1020,0 hPa 0,0 l/m 12,9 km/h (3 Bft) S 180 1 min 0 mm 3 UV-I 710 W/m 11,2 C 17,4 C 17,7 km/h (3 Bft)
19/08/2017 15:59 19,7 C 23,9 C 23,9 C 19,4 C 18,9 C 19,4 C 57 % 0 lf 11 cb 29 cb 84 cb 43 cb 1020,0 hPa 0,0 l/m 16,1 km/h (3 Bft) S-SO 202 1 min 0 mm 3 UV-I 731 W/m 10,9 C 16,6 C 19,3 km/h (3 Bft)
19/08/2017 15:58 19,7 C 23,3 C 23,3 C 19,4 C 18,9 C 19,4 C 57 % 0 lf 11 cb 29 cb 84 cb 43 cb 1020,1 hPa 0,0 l/m 17,7 km/h (3 Bft) S-SO 202 1 min 0 mm 4 UV-I 763 W/m 10,9 C 16,3 C 24,1 km/h (4 Bft)
19/08/2017 15:57 19,8 C 23,3 C 23,3 C 19,4 C 18,9 C 19,4 C 57 % 0 lf 11 cb 29 cb 84 cb 43 cb 1020,1 hPa 0,0 l/m 14,5 km/h (3 Bft) S-SO 202 0 min 0 mm 4 UV-I 216 W/m 11,0 C 17,1 C 20,9 km/h (4 Bft)
19/08/2017 15:56 19,8 C 23,9 C 23,3 C 19,4 C 18,9 C 19,4 C 57 % 0 lf 11 cb 29 cb 84 cb 43 cb 1020,1 hPa 0,0 l/m 17,7 km/h (3 Bft) S 180 0 min 0 mm 2 UV-I 216 W/m 11,0 C 16,4 C 29,0 km/h (5 Bft)
19/08/2017 15:55 19,8 C 24,4 C 23,9 C 19,4 C 18,9 C 19,4 C 58 % 0 lf 11 cb 29 cb 84 cb 43 cb 1020,1 hPa 0,0 l/m 17,7 km/h (3 Bft) S-SO 202 0 min 0 mm 2 UV-I 241 W/m 11,3 C 16,4 C 25,7 km/h (4 Bft)
19/08/2017 15:54 19,8 C 25,0 C 24,4 C 19,4 C 18,9 C 19,4 C 58 % 0 lf 11 cb 29 cb 84 cb 43 cb 1020,0 hPa 0,0 l/m 16,1 km/h (3 Bft) S-SO 202 0 min 0 mm 2 UV-I 267 W/m 11,3 C 16,7 C 24,1 km/h (4 Bft)
19/08/2017 15:53 19,8 C 25,0 C 25,0 C 19,4 C 18,9 C 19,4 C 58 % 0 lf 11 cb 29 cb 84 cb 43 cb 1020,0 hPa 0,0 l/m 14,5 km/h (3 Bft) S-SO 202 1 min 0 mm 2 UV-I 501 W/m 11,3 C 17,1 C 29,0 km/h (5 Bft)
19/08/2017 15:52 19,8 C 25,0 C 25,0 C 19,4 C 18,9 C 19,4 C 58 % 0 lf 11 cb 29 cb 84 cb 43 cb 1020,0 hPa 0,0 l/m 12,9 km/h (3 Bft) SO 225 1 min 0 mm 2 UV-I 501 W/m 11,3 C 17,5 C 19,3 km/h (3 Bft)
19/08/2017 15:51 19,8 C 25,0 C 25,0 C 19,4 C 18,9 C 19,4 C 58 % 0 lf 11 cb 29 cb 84 cb 43 cb 1020,0 hPa 0,0 l/m 17,7 km/h (3 Bft) S-SO 202 1 min 0 mm 3 UV-I 501 W/m 11,3 C 16,4 C 24,1 km/h (4 Bft)
19/08/2017 15:50 19,8 C 24,4 C 24,4 C 19,4 C 18,9 C 19,4 C 58 % 0 lf 11 cb 29 cb 84 cb 43 cb 1019,9 hPa 0,0 l/m 17,7 km/h (3 Bft) S 180 1 min 0 mm 4 UV-I 501 W/m 11,3 C 16,4 C 30,6 km/h (5 Bft)
19/08/2017 15:49 19,8 C 24,4 C 24,4 C 19,4 C 18,9 C 19,4 C 59 % 0 lf 11 cb 29 cb 84 cb 43 cb 1020,0 hPa 0,0 l/m 16,1 km/h (3 Bft) S-SO 202 0 min 0 mm 2 UV-I 304 W/m 11,6 C 16,7 C 24,1 km/h (4 Bft)
19/08/2017 15:48 19,8 C 25,6 C 25,6 C 19,4 C 18,9 C 19,4 C 59 % 0 lf 11 cb 29 cb 84 cb 43 cb 1020,0 hPa 0,0 l/m 9,7 km/h (2 Bft) S-SO 202 0 min 0 mm 2 UV-I 309 W/m 11,6 C 18,5 C 14,5 km/h (3 Bft)
19/08/2017 15:47 19,8 C 25,6 C 25,6 C 19,4 C 18,9 C 19,4 C 60 % 0 lf 11 cb 29 cb 84 cb 43 cb 1020,0 hPa 0,0 l/m 4,8 km/h (1 Bft) S-SO 202 0 min 0 mm 2 UV-I 316 W/m 11,8 C 19,8 C 11,3 km/h (2 Bft)
19/08/2017 15:46 19,7 C 26,1 C 26,1 C 19,4 C 18,9 C 19,4 C 59 % 0 lf 11 cb 29 cb 84 cb 43 cb 1020,1 hPa 0,0 l/m 8,0 km/h (2 Bft) S 180 0 min 0 mm 2 UV-I 357 W/m 11,5 C 19,0 C 11,3 km/h (2 Bft)
19/08/2017 15:45 19,7 C 26,1 C 26,1 C 19,4 C 18,9 C 19,4 C 59 % 0 lf 11 cb 29 cb 84 cb 43 cb 1020,0 hPa 0,0 l/m 9,7 km/h (2 Bft) S-SO 202 0 min 0 mm 3 UV-I 357 W/m 11,5 C 18,4 C 14,5 km/h (3 Bft)
19/08/2017 15:44 19,7 C 26,7 C 26,7 C 19,4 C 18,9 C 19,4 C 59 % 0 lf 11 cb 29 cb 84 cb 43 cb 1020,1 hPa 0,0 l/m 12,9 km/h (3 Bft) S-SO 202 0 min 0 mm 3 UV-I 357 W/m 11,5 C 17,4 C 16,1 km/h (3 Bft)
19/08/2017 15:43 19,7 C 27,8 C 27,8 C 19,4 C 18,9 C 19,4 C 59 % 0 lf 11 cb 29 cb 84 cb 43 cb 1020,1 hPa 0,0 l/m 11,3 km/h (2 Bft) SO 225 0 min 0 mm 2 UV-I 316 W/m 11,5 C 17,9 C 14,5 km/h (3 Bft)
19/08/2017 15:42 19,7 C 28,3 C 28,3 C 19,4 C 18,9 C 19,4 C 58 % 0 lf 11 cb 29 cb 84 cb 43 cb 1020,0 hPa 0,0 l/m 12,9 km/h (3 Bft) SO 225 1 min 0 mm 3 UV-I 824 W/m 11,2 C 17,4 C 17,7 km/h (3 Bft)
19/08/2017 15:41 19,7 C 28,3 C 28,3 C 19,4 C 18,9 C 19,4 C 59 % 0 lf 11 cb 29 cb 84 cb 43 cb 1020,1 hPa 0,0 l/m 12,9 km/h (3 Bft) S 180 1 min 0 mm 3 UV-I 830 W/m 11,5 C 17,4 C 17,7 km/h (3 Bft)
19/08/2017 15:40 19,7 C 28,3 C 28,3 C 19,4 C 18,9 C 19,4 C 58 % 0 lf 11 cb 29 cb 84 cb 43 cb 1020,1 hPa 0,0 l/m 9,7 km/h (2 Bft) S-SO 202 1 min 0 mm 2 UV-I 831 W/m 11,2 C 18,4 C 14,5 km/h (3 Bft)
19/08/2017 15:39 19,8 C 27,8 C 27,8 C 19,4 C 18,9 C 19,4 C 59 % 0 lf 11 cb 29 cb 84 cb 43 cb 1020,0 hPa 0,0 l/m 16,1 km/h (3 Bft) S 180 1 min 0 mm 4 UV-I 784 W/m 11,6 C 16,7 C 22,5 km/h (4 Bft)
19/08/2017 15:38 19,8 C 27,8 C 27,8 C 19,4 C 18,9 C 19,4 C 58 % 0 lf 11 cb 29 cb 84 cb 43 cb 1020,1 hPa 0,0 l/m 16,1 km/h (3 Bft) S-SO 202 1 min 0 mm 4 UV-I 780 W/m 11,3 C 16,7 C 20,9 km/h (4 Bft)
19/08/2017 15:37 19,8 C 27,2 C 27,2 C 19,4 C 18,9 C 19,4 C 58 % 0 lf 11 cb 29 cb 84 cb 43 cb 1020,0 hPa 0,0 l/m 11,3 km/h (2 Bft) S 180 1 min 0 mm 4 UV-I 773 W/m 11,3 C 18,0 C 16,1 km/h (3 Bft)
19/08/2017 15:36 19,8 C 27,8 C 27,8 C 19,4 C 18,9 C 19,4 C 58 % 0 lf 11 cb 29 cb 84 cb 43 cb 1020,1 hPa 0,0 l/m 14,5 km/h (3 Bft) S-SO 202 1 min 0 mm 4 UV-I 758 W/m 11,3 C 17,1 C 20,9 km/h (4 Bft)
19/08/2017 15:35 19,8 C 27,8 C 27,8 C 19,4 C 18,9 C 19,4 C 58 % 0 lf 11 cb 29 cb 84 cb 43 cb 1020,1 hPa 0,0 l/m 19,3 km/h (3 Bft) S-SO 202 1 min 0 mm 4 UV-I 765 W/m 11,3 C 16,1 C 25,7 km/h (4 Bft)
19/08/2017 15:34 19,8 C 27,8 C 27,8 C 19,4 C 18,9 C 19,4 C 58 % 0 lf 11 cb 29 cb 84 cb 43 cb 1020,1 hPa 0,0 l/m 16,1 km/h (3 Bft) O-SO 247 1 min 0 mm 4 UV-I 759 W/m 11,3 C 16,7 C 29,0 km/h (5 Bft)
19/08/2017 15:33 19,7 C 27,8 C 27,8 C 19,4 C 18,9 C 19,4 C 58 % 0 lf 11 cb 29 cb 84 cb 43 cb 1020,1 hPa 0,0 l/m 16,1 km/h (3 Bft) S-SO 202 1 min 0 mm 4 UV-I 751 W/m 11,2 C 16,6 C 24,1 km/h (4 Bft)
19/08/2017 15:32 19,8 C 27,8 C 27,8 C 19,4 C 18,9 C 19,4 C 58 % 0 lf 11 cb 29 cb 84 cb 43 cb 1020,1 hPa 0,0 l/m 12,9 km/h (3 Bft) S 180 1 min 0 mm 4 UV-I 744 W/m 11,3 C 17,5 C 19,3 km/h (3 Bft)
19/08/2017 15:31 19,8 C 27,8 C 27,8 C 19,4 C 18,9 C 19,4 C 57 % 0 lf 11 cb 29 cb 84 cb 43 cb 1020,1 hPa 0,0 l/m 16,1 km/h (3 Bft) S-SO 202 1 min 0 mm 4 UV-I 737 W/m 11,0 C 16,7 C 22,5 km/h (4 Bft)
19/08/2017 15:30 19,8 C 27,8 C 27,8 C 19,4 C 18,9 C 19,4 C 58 % 0 lf 11 cb 29 cb 84 cb 43 cb 1020,1 hPa 0,0 l/m 20,9 km/h (4 Bft) S-SO 202 1 min 0 mm 4 UV-I 735 W/m 11,3 C 15,8 C 29,0 km/h (5 Bft)
19/08/2017 15:29 19,7 C 27,2 C 27,8 C 19,4 C 18,9 C 19,4 C 59 % 0 lf 11 cb 29 cb 84 cb 43 cb 1020,0 hPa 0,0 l/m 19,3 km/h (3 Bft) S-SO 202 1 min 0 mm 4 UV-I 738 W/m 11,5 C 16,0 C 35,4 km/h (5 Bft)
19/08/2017 15:28 19,7 C 27,2 C 27,2 C 19,4 C 18,9 C 19,4 C 61 % 0 lf 11 cb 29 cb 84 cb 43 cb 1020,0 hPa 0,0 l/m 9,7 km/h (2 Bft) S 180 1 min 0 mm 4 UV-I 751 W/m 12,0 C 18,4 C 16,1 km/h (3 Bft)
19/08/2017 15:27 19,6 C 26,7 C 26,7 C 19,4 C 18,9 C 19,4 C 60 % 0 lf 11 cb 29 cb 84 cb 43 cb 1020,1 hPa 0,0 l/m 8,0 km/h (2 Bft) O-SO 247 1 min 0 mm 4 UV-I 761 W/m 11,6 C 18,9 C 9,7 km/h (2 Bft)
19/08/2017 15:26 19,5 C 26,1 C 26,1 C 19,4 C 18,9 C 19,4 C 60 % 0 lf 11 cb 29 cb 84 cb 43 cb 1020,1 hPa 0,0 l/m 14,5 km/h (3 Bft) S-SO 202 1 min 0 mm 4 UV-I 779 W/m 11,5 C 16,8 C 22,5 km/h (4 Bft)
19/08/2017 15:25 19,4 C 25,6 C 25,6 C 19,4 C 18,9 C 19,4 C 59 % 0 lf 11 cb 29 cb 84 cb 43 cb 1020,1 hPa 0,0 l/m 9,7 km/h (2 Bft) S-SO 202 1 min 0 mm 4 UV-I 814 W/m 11,2 C 18,1 C 12,9 km/h (3 Bft)
19/08/2017 15:24 19,4 C 24,4 C 24,4 C 19,4 C 18,9 C 19,4 C 59 % 0 lf 11 cb 29 cb 84 cb 43 cb 1020,1 hPa 0,0 l/m 11,3 km/h (2 Bft) O-SO 247 1 min 0 mm 4 UV-I 851 W/m 11,2 C 17,6 C 14,5 km/h (3 Bft)
19/08/2017 15:23 19,4 C 23,9 C 23,9 C 19,4 C 18,9 C 19,4 C 60 % 0 lf 11 cb 29 cb 84 cb 43 cb 1020,1 hPa 0,0 l/m 12,9 km/h (3 Bft) S-SO 202 0 min 0 mm 4 UV-I 248 W/m 11,4 C 17,1 C 19,3 km/h (3 Bft)
19/08/2017 15:22 19,4 C 22,8 C 22,8 C 19,4 C 18,9 C 19,4 C 58 % 0 lf 10 cb 29 cb 84 cb 43 cb 1020,1 hPa 0,0 l/m 12,9 km/h (3 Bft) SO 225 0 min 0 mm 4 UV-I 248 W/m 10,9 C 17,1 C 17,7 km/h (3 Bft)
19/08/2017 15:21 19,5 C 23,3 C 23,3 C 19,4 C 18,9 C 19,4 C 58 % 0 lf 11 cb 29 cb 84 cb 43 cb 1020,1 hPa 0,0 l/m 17,7 km/h (3 Bft) S 180 0 min 0 mm 2 UV-I 248 W/m 11,0 C 16,0 C 24,1 km/h (4 Bft)
19/08/2017 15:20 19,6 C 23,9 C 23,9 C 19,4 C 18,9 C 19,4 C 58 % 0 lf 11 cb 29 cb 84 cb 43 cb 1020,2 hPa 0,0 l/m 14,5 km/h (3 Bft) S 180 0 min 0 mm 2 UV-I 264 W/m 11,1 C 16,9 C 19,3 km/h (3 Bft)
19/08/2017 15:19 19,6 C 24,4 C 24,4 C 19,4 C 18,9 C 19,4 C 58 % 0 lf 11 cb 29 cb 84 cb 43 cb 1020,1 hPa 0,0 l/m 16,1 km/h (3 Bft) S-SO 202 0 min 0 mm 2 UV-I 276 W/m 11,1 C 16,5 C 22,5 km/h (4 Bft)
19/08/2017 15:18 19,6 C 25,0 C 25,0 C 19,4 C 18,9 C 19,4 C 58 % 0 lf 11 cb 29 cb 84 cb 43 cb 1020,2 hPa 0,0 l/m 12,9 km/h (3 Bft) S-SO 202 0 min 0 mm 2 UV-I 287 W/m 11,1 C 17,3 C 17,7 km/h (3 Bft)
19/08/2017 15:17 19,6 C 25,6 C 25,6 C 19,4 C 18,9 C 19,4 C 58 % 0 lf 11 cb 29 cb 84 cb 43 cb 1020,3 hPa 0,0 l/m 8,0 km/h (2 Bft) S-SO 202 0 min 0 mm 2 UV-I 297 W/m 11,1 C 18,9 C 11,3 km/h (2 Bft)
19/08/2017 15:16 19,6 C 25,6 C 25,6 C 19,4 C 18,9 C 19,4 C 58 % 0 lf 11 cb 29 cb 84 cb 43 cb 1020,2 hPa 0,0 l/m 12,9 km/h (3 Bft) S 180 1 min 0 mm 2 UV-I 687 W/m 11,1 C 17,3 C 16,1 km/h (3 Bft)
19/08/2017 15:15 19,6 C 26,1 C 26,1 C 19,4 C 18,9 C 19,4 C 58 % 0 lf 11 cb 29 cb 84 cb 43 cb 1020,3 hPa 0,0 l/m 12,9 km/h (3 Bft) S-SO 202 1 min 0 mm 4 UV-I 687 W/m 11,1 C 17,3 C 19,3 km/h (3 Bft)
19/08/2017 15:14 19,7 C 26,7 C 26,1 C 19,4 C 18,9 C 19,4 C 58 % 0 lf 11 cb 29 cb 84 cb 43 cb 1020,2 hPa 0,0 l/m 8,0 km/h (2 Bft) SO 225 0 min 0 mm 3 UV-I 378 W/m 11,2 C 19,0 C 12,9 km/h (3 Bft)
19/08/2017 15:13 19,7 C 26,7 C 26,7 C 19,4 C 18,9 C 19,4 C 57 % 0 lf 11 cb 29 cb 84 cb 43 cb 1020,2 hPa 0,0 l/m 12,9 km/h (3 Bft) S-SO 202 0 min 0 mm 4 UV-I 378 W/m 10,9 C 17,4 C 14,5 km/h (3 Bft)
19/08/2017 15:12 19,7 C 27,8 C 26,7 C 19,4 C 18,9 C 19,4 C 57 % 0 lf 11 cb 29 cb 84 cb 43 cb 1020,1 hPa 0,0 l/m 16,1 km/h (3 Bft) S-SO 202 0 min 0 mm 3 UV-I 378 W/m 10,9 C 16,6 C 22,5 km/h (4 Bft)
19/08/2017 15:11 19,7 C 27,8 C 27,8 C 19,4 C 18,9 C 19,4 C 57 % 0 lf 11 cb 29 cb 84 cb 43 cb 1020,2 hPa 0,0 l/m 14,5 km/h (3 Bft) SO 225 0 min 0 mm 3 UV-I 336 W/m 10,9 C 17,0 C 20,9 km/h (4 Bft)
19/08/2017 15:10 19,7 C 28,3 C 28,3 C 19,4 C 18,9 C 19,4 C 58 % 0 lf 11 cb 29 cb 84 cb 43 cb 1020,2 hPa 0,0 l/m 17,7 km/h (3 Bft) S 180 1 min 0 mm 5 UV-I 884 W/m 11,2 C 16,3 C 25,7 km/h (4 Bft)
19/08/2017 15:09 19,7 C 28,3 C 28,3 C 19,4 C 18,9 C 19,4 C 58 % 0 lf 11 cb 29 cb 84 cb 43 cb 1020,3 hPa 0,0 l/m 16,1 km/h (3 Bft) S 180 1 min 0 mm 5 UV-I 884 W/m 11,2 C 16,6 C 20,9 km/h (4 Bft)
19/08/2017 15:08 19,6 C 27,8 C 27,8 C 19,4 C 18,9 C 19,4 C 58 % 0 lf 11 cb 29 cb 84 cb 42 cb 1020,2 hPa 0,0 l/m 20,9 km/h (4 Bft) S 180 1 min 0 mm 4 UV-I 946 W/m 11,1 C 15,5 C 29,0 km/h (5 Bft)
19/08/2017 15:07 19,6 C 27,2 C 27,2 C 18,9 C 18,9 C 19,4 C 58 % 0 lf 11 cb 28 cb 84 cb 43 cb 1020,2 hPa 0,0 l/m 19,3 km/h (3 Bft) S 180 1 min 0 mm 5 UV-I 930 W/m 11,1 C 15,8 C 24,1 km/h (4 Bft)
19/08/2017 15:06 19,6 C 26,7 C 26,7 C 18,9 C 18,9 C 19,4 C 59 % 0 lf 11 cb 28 cb 84 cb 42 cb 1020,2 hPa 0,0 l/m 14,5 km/h (3 Bft) S-SO 202 1 min 0 mm 4 UV-I 921 W/m 11,4 C 16,9 C 22,5 km/h (4 Bft)
19/08/2017 15:05 19,5 C 25,6 C 25,6 C 18,9 C 18,9 C 19,4 C 60 % 0 lf 11 cb 28 cb 84 cb 42 cb 1020,3 hPa 0,0 l/m 9,7 km/h (2 Bft) SO 225 1 min 0 mm 4 UV-I 865 W/m 11,5 C 18,2 C 12,9 km/h (3 Bft)
19/08/2017 15:04 19,4 C 25,0 C 25,0 C 18,9 C 18,9 C 19,4 C 60 % 0 lf 11 cb 28 cb 84 cb 42 cb 1020,3 hPa 0,0 l/m 12,9 km/h (3 Bft) SO 225 0 min 0 mm 4 UV-I 188 W/m 11,4 C 17,1 C 20,9 km/h (4 Bft)
19/08/2017 15:03 19,4 C 25,0 C 25,0 C 18,9 C 18,9 C 19,4 C 60 % 0 lf 11 cb 28 cb 84 cb 43 cb 1020,3 hPa 0,0 l/m 14,5 km/h (3 Bft) SO 225 0 min 0 mm 4 UV-I 188 W/m 11,4 C 16,6 C 20,9 km/h (4 Bft)
19/08/2017 15:02 19,4 C 25,6 C 25,6 C 18,9 C 18,9 C 19,4 C 61 % 0 lf 11 cb 28 cb 84 cb 43 cb 1020,2 hPa 0,0 l/m 8,0 km/h (2 Bft) SO 225 0 min 0 mm 2 UV-I 188 W/m 11,7 C 18,7 C 14,5 km/h (3 Bft)
19/08/2017 15:01 19,3 C 26,1 C 26,1 C 18,9 C 18,9 C 19,4 C 61 % 0 lf 11 cb 28 cb 84 cb 42 cb 1020,3 hPa 0,0 l/m 9,7 km/h (2 Bft) SO 225 0 min 0 mm 2 UV-I 176 W/m 11,6 C 18,0 C 14,5 km/h (3 Bft)
19/08/2017 15:00 19,2 C 26,1 C 26,1 C 18,9 C 18,9 C 19,4 C 62 % 0 lf 11 cb 28 cb 84 cb 42 cb 1020,2 hPa 0,0 l/m 12,9 km/h (3 Bft) SO 225 1 min 1 mm 2 UV-I 858 W/m 11,7 C 16,8 C 20,9 km/h (4 Bft)
19/08/2017 14:59 19,1 C 25,6 C 25,6 C 18,9 C 18,9 C 19,4 C 61 % 0 lf 11 cb 28 cb 84 cb 42 cb 1020,3 hPa 0,0 l/m 11,3 km/h (2 Bft) S-SO 202 1 min 0 mm 5 UV-I 858 W/m 11,4 C 17,2 C 20,9 km/h (4 Bft)
19/08/2017 14:58 19,1 C 24,4 C 24,4 C 18,9 C 18,9 C 19,4 C 61 % 0 lf 11 cb 28 cb 84 cb 42 cb 1020,3 hPa 0,0 l/m 12,9 km/h (3 Bft) S-SO 202 1 min 0 mm 5 UV-I 872 W/m 11,4 C 16,7 C 19,3 km/h (3 Bft)
19/08/2017 14:57 19,0 C 23,9 C 23,9 C 18,9 C 18,9 C 19,4 C 61 % 0 lf 11 cb 28 cb 84 cb 42 cb 1020,2 hPa 0,0 l/m 16,1 km/h (3 Bft) S-SO 202 1 min 0 mm 5 UV-I 914 W/m 11,3 C 15,8 C 24,1 km/h (4 Bft)
19/08/2017 14:56 19,0 C 23,3 C 23,3 C 18,9 C 18,9 C 19,4 C 61 % 0 lf 11 cb 28 cb 84 cb 42 cb 1020,2 hPa 0,0 l/m 16,1 km/h (3 Bft) S-SO 202 0 min 0 mm 5 UV-I 281 W/m 11,3 C 15,8 C 24,1 km/h (4 Bft)
19/08/2017 14:55 19,1 C 23,9 C 23,9 C 18,9 C 18,9 C 19,4 C 61 % 0 lf 11 cb 28 cb 84 cb 42 cb 1020,3 hPa 0,0 l/m 16,1 km/h (3 Bft) S-SO 202 0 min 0 mm 2 UV-I 281 W/m 11,4 C 15,9 C 20,9 km/h (4 Bft)
19/08/2017 14:54 19,1 C 24,4 C 24,4 C 18,9 C 18,9 C 19,4 C 60 % 0 lf 11 cb 28 cb 84 cb 42 cb 1020,3 hPa 0,0 l/m 17,7 km/h (3 Bft) S 180 0 min 0 mm 2 UV-I 279 W/m 11,1 C 15,5 C 24,1 km/h (4 Bft)
19/08/2017 14:53 19,2 C 25,0 C 24,4 C 18,9 C 18,9 C 19,4 C 60 % 0 lf 11 cb 28 cb 84 cb 43 cb 1020,2 hPa 0,0 l/m 19,3 km/h (3 Bft) S-SO 202 0 min 0 mm 2 UV-I 295 W/m 11,2 C 15,3 C 25,7 km/h (4 Bft)
19/08/2017 14:52 19,2 C 25,6 C 25,0 C 18,9 C 18,9 C 19,4 C 60 % 0 lf 11 cb 28 cb 84 cb 42 cb 1020,2 hPa 0,0 l/m 12,9 km/h (3 Bft) S-SO 202 0 min 0 mm 2 UV-I 297 W/m 11,2 C 16,8 C 16,1 km/h (3 Bft)
19/08/2017 14:51 19,2 C 26,7 C 25,6 C 18,9 C 18,9 C 19,4 C 61 % 0 lf 11 cb 28 cb 84 cb 42 cb 1020,2 hPa 0,0 l/m 12,9 km/h (3 Bft) S-SO 202 0 min 0 mm 2 UV-I 301 W/m 11,5 C 16,8 C 16,1 km/h (3 Bft)
19/08/2017 14:50 19,2 C 26,7 C 26,7 C 18,9 C 18,9 C 19,4 C 61 % 0 lf 11 cb 28 cb 84 cb 42 cb 1020,2 hPa 0,0 l/m 11,3 km/h (2 Bft) S 180 0 min 0 mm 3 UV-I 343 W/m 11,5 C 17,3 C 17,7 km/h (3 Bft)
19/08/2017 14:49 19,2 C 27,2 C 27,2 C 18,9 C 18,9 C 19,4 C 61 % 0 lf 11 cb 28 cb 84 cb 42 cb 1020,3 hPa 0,0 l/m 12,9 km/h (3 Bft) S 180 0 min 0 mm 3 UV-I 311 W/m 11,5 C 16,8 C 19,3 km/h (3 Bft)
19/08/2017 14:48 19,2 C 28,3 C 28,3 C 18,9 C 18,9 C 19,4 C 60 % 0 lf 11 cb 28 cb 84 cb 42 cb 1020,2 hPa 0,0 l/m 11,3 km/h (2 Bft) SO 225 1 min 0 mm 3 UV-I 828 W/m 11,2 C 17,3 C 19,3 km/h (3 Bft)
19/08/2017 14:47 19,2 C 28,3 C 28,3 C 18,9 C 18,9 C 19,4 C 60 % 0 lf 11 cb 28 cb 84 cb 42 cb 1020,2 hPa 0,0 l/m 16,1 km/h (3 Bft) SO 225 1 min 0 mm 5 UV-I 828 W/m 11,2 C 16,0 C 17,7 km/h (3 Bft)
19/08/2017 14:46 19,3 C 28,3 C 28,3 C 18,9 C 18,9 C 19,4 C 59 % 0 lf 11 cb 28 cb 84 cb 42 cb 1020,1 hPa 0,0 l/m 14,5 km/h (3 Bft) S 180 1 min 0 mm 5 UV-I 828 W/m 11,1 C 16,5 C 20,9 km/h (4 Bft)
19/08/2017 14:45 19,3 C 28,3 C 28,3 C 18,9 C 18,9 C 19,4 C 61 % 0 lf 11 cb 28 cb 84 cb 42 cb 1020,1 hPa 0,0 l/m 19,3 km/h (3 Bft) S 180 1 min 0 mm 5 UV-I 828 W/m 11,6 C 15,4 C 24,1 km/h (4 Bft)
19/08/2017 14:44 19,3 C 27,8 C 27,8 C 18,9 C 18,9 C 19,4 C 62 % 0 lf 11 cb 28 cb 84 cb 42 cb 1020,2 hPa 0,0 l/m 14,5 km/h (3 Bft) S 180 1 min 0 mm 5 UV-I 809 W/m 11,8 C 16,5 C 19,3 km/h (3 Bft)
19/08/2017 14:43 19,3 C 28,3 C 28,3 C 18,9 C 18,9 C 19,4 C 62 % 0 lf 11 cb 28 cb 84 cb 42 cb 1020,1 hPa 0,0 l/m 12,9 km/h (3 Bft) S-SO 202 1 min 0 mm 5 UV-I 802 W/m 11,8 C 17,0 C 20,9 km/h (4 Bft)
19/08/2017 14:42 19,3 C 27,8 C 27,8 C 18,9 C 18,9 C 19,4 C 61 % 0 lf 11 cb 28 cb 84 cb 42 cb 1020,2 hPa 0,0 l/m 12,9 km/h (3 Bft) S 180 1 min 0 mm 5 UV-I 809 W/m 11,6 C 17,0 C 17,7 km/h (3 Bft)
19/08/2017 14:41 19,3 C 27,8 C 27,8 C 18,9 C 18,9 C 19,4 C 61 % 0 lf 11 cb 28 cb 84 cb 42 cb 1020,2 hPa 0,0 l/m 16,1 km/h (3 Bft) SO 225 1 min 0 mm 5 UV-I 812 W/m 11,6 C 16,1 C 19,3 km/h (3 Bft)
19/08/2017 14:40 19,3 C 27,8 C 27,8 C 18,9 C 18,9 C 19,4 C 61 % 0 lf 11 cb 28 cb 84 cb 42 cb 1020,2 hPa 0,0 l/m 16,1 km/h (3 Bft) S-SO 202 1 min 0 mm 5 UV-I 821 W/m 11,6 C 16,1 C 22,5 km/h (4 Bft)
19/08/2017 14:39 19,3 C 27,2 C 27,2 C 18,9 C 18,9 C 19,4 C 61 % 0 lf 11 cb 28 cb 84 cb 42 cb 1020,1 hPa 0,0 l/m 11,3 km/h (2 Bft) S 180 1 min 0 mm 5 UV-I 814 W/m 11,6 C 17,4 C 16,1 km/h (3 Bft)
19/08/2017 14:38 19,3 C 27,8 C 27,8 C 18,9 C 18,9 C 19,4 C 60 % 0 lf 11 cb 28 cb 84 cb 42 cb 1020,1 hPa 0,0 l/m 11,3 km/h (2 Bft) S 180 1 min 0 mm 5 UV-I 842 W/m 11,3 C 17,4 C 12,9 km/h (3 Bft)
19/08/2017 14:37 19,3 C 27,8 C 27,8 C 18,9 C 18,9 C 19,4 C 60 % 0 lf 11 cb 28 cb 84 cb 42 cb 1020,1 hPa 0,0 l/m 14,5 km/h (3 Bft) SO 225 1 min 0 mm 5 UV-I 842 W/m 11,3 C 16,5 C 24,1 km/h (4 Bft)
19/08/2017 14:36 19,3 C 27,8 C 27,8 C 18,9 C 18,9 C 19,4 C 61 % 0 lf 11 cb 28 cb 84 cb 42 cb 1020,2 hPa 0,0 l/m 17,7 km/h (3 Bft) SO 225 1 min 0 mm 5 UV-I 838 W/m 11,6 C 15,8 C 24,1 km/h (4 Bft)
19/08/2017 14:35 19,3 C 27,8 C 27,8 C 18,9 C 18,9 C 19,4 C 60 % 0 lf 11 cb 28 cb 84 cb 42 cb 1020,1 hPa 0,0 l/m 16,1 km/h (3 Bft) O-SO 247 1 min 0 mm 5 UV-I 833 W/m 11,3 C 16,1 C 22,5 km/h (4 Bft)
19/08/2017 14:34 19,3 C 27,8 C 27,8 C 18,9 C 18,9 C 19,4 C 60 % 0 lf 11 cb 28 cb 84 cb 42 cb 1020,1 hPa 0,0 l/m 16,1 km/h (3 Bft) S-SO 202 1 min 0 mm 5 UV-I 830 W/m 11,3 C 16,1 C 20,9 km/h (4 Bft)
19/08/2017 14:33 19,3 C 27,8 C 27,8 C 18,9 C 18,9 C 19,4 C 60 % 0 lf 11 cb 28 cb 84 cb 42 cb 1020,2 hPa 0,0 l/m 17,7 km/h (3 Bft) S-SO 202 1 min 0 mm 5 UV-I 837 W/m 11,3 C 15,8 C 25,7 km/h (4 Bft)
19/08/2017 14:32 19,3 C 28,3 C 27,8 C 18,9 C 18,9 C 19,4 C 62 % 0 lf 11 cb 28 cb 84 cb 42 cb 1020,1 hPa 0,0 l/m 14,5 km/h (3 Bft) S-SO 202 1 min 0 mm 5 UV-I 846 W/m 11,8 C 16,5 C 24,1 km/h (4 Bft)
19/08/2017 14:31 19,2 C 27,8 C 28,3 C 18,9 C 18,9 C 19,4 C 63 % 0 lf 12 cb 28 cb 84 cb 42 cb 1020,2 hPa 0,0 l/m 14,5 km/h (3 Bft) SO 225 1 min 0 mm 5 UV-I 860 W/m 12,0 C 16,4 C 17,7 km/h (3 Bft)
19/08/2017 14:30 19,2 C 27,8 C 27,8 C 18,9 C 18,9 C 19,4 C 62 % 0 lf 11 cb 28 cb 84 cb 42 cb 1020,1 hPa 0,0 l/m 14,5 km/h (3 Bft) S 180 1 min 0 mm 5 UV-I 868 W/m 11,7 C 16,4 C 25,7 km/h (4 Bft)
19/08/2017 14:29 19,1 C 27,8 C 27,8 C 18,9 C 18,9 C 19,4 C 61 % 0 lf 11 cb 28 cb 84 cb 42 cb 1020,2 hPa 0,0 l/m 12,9 km/h (3 Bft) S-SO 202 1 min 0 mm 5 UV-I 875 W/m 11,4 C 16,7 C 20,9 km/h (4 Bft)
19/08/2017 14:28 19,1 C 27,2 C 27,2 C 18,9 C 18,9 C 19,4 C 62 % 0 lf 11 cb 28 cb 84 cb 42 cb 1020,2 hPa 0,0 l/m 14,5 km/h (3 Bft) S 180 1 min 0 mm 5 UV-I 877 W/m 11,6 C 16,3 C 20,9 km/h (4 Bft)
19/08/2017 14:27 19,1 C 27,2 C 27,2 C 18,9 C 18,9 C 19,4 C 62 % 0 lf 11 cb 28 cb 84 cb 42 cb 1020,1 hPa 0,0 l/m 16,1 km/h (3 Bft) S-SO 202 1 min 0 mm 5 UV-I 874 W/m 11,6 C 15,9 C 20,9 km/h (4 Bft)
19/08/2017 14:26 19,0 C 27,2 C 27,2 C 18,9 C 18,9 C 19,4 C 62 % 0 lf 11 cb 28 cb 84 cb 42 cb 1020,1 hPa 0,0 l/m 14,5 km/h (3 Bft) S 180 1 min 0 mm 5 UV-I 868 W/m 11,6 C 16,2 C 22,5 km/h (4 Bft)
19/08/2017 14:25 18,9 C 26,7 C 26,7 C 18,9 C 18,9 C 19,4 C 63 % 0 lf 11 cb 28 cb 84 cb 42 cb 1020,2 hPa 0,0 l/m 16,1 km/h (3 Bft) S 180 1 min 0 mm 5 UV-I 872 W/m 11,7 C 15,6 C 29,0 km/h (5 Bft)
19/08/2017 14:24 18,9 C 26,7 C 26,7 C 18,9 C 18,9 C 19,4 C 62 % 0 lf 11 cb 28 cb 84 cb 42 cb 1020,0 hPa 0,0 l/m 16,1 km/h (3 Bft) S-SO 202 1 min 0 mm 5 UV-I 875 W/m 11,5 C 15,6 C 20,9 km/h (4 Bft)
19/08/2017 14:23 18,9 C 26,1 C 26,1 C 18,9 C 18,9 C 19,4 C 62 % 0 lf 11 cb 28 cb 84 cb 42 cb 1020,1 hPa 0,0 l/m 16,1 km/h (3 Bft) S 180 1 min 0 mm 5 UV-I 872 W/m 11,5 C 15,6 C 20,9 km/h (4 Bft)
19/08/2017 14:22 18,9 C 26,1 C 26,1 C 18,9 C 18,9 C 19,4 C 61 % 0 lf 11 cb 28 cb 84 cb 42 cb 1020,1 hPa 0,0 l/m 17,7 km/h (3 Bft) S 180 1 min 0 mm 5 UV-I 872 W/m 11,2 C 15,3 C 24,1 km/h (4 Bft)
19/08/2017 14:21 18,9 C 26,1 C 26,1 C 18,9 C 18,9 C 19,4 C 62 % 0 lf 11 cb 28 cb 84 cb 42 cb 1020,3 hPa 0,0 l/m 19,3 km/h (3 Bft) S-SO 202 1 min 0 mm 4 UV-I 902 W/m 11,5 C 14,9 C 29,0 km/h (5 Bft)
19/08/2017 14:20 18,9 C 26,1 C 26,1 C 18,9 C 18,9 C 19,4 C 62 % 0 lf 11 cb 28 cb 84 cb 42 cb 1020,2 hPa 0,0 l/m 11,3 km/h (2 Bft) SO 225 1 min 0 mm 5 UV-I 902 W/m 11,5 C 17,0 C 16,1 km/h (3 Bft)
19/08/2017 14:19 18,8 C 25,6 C 25,6 C 18,9 C 18,9 C 19,4 C 61 % 0 lf 11 cb 28 cb 84 cb 42 cb 1020,4 hPa 0,0 l/m 11,3 km/h (2 Bft) SO 225 1 min 0 mm 5 UV-I 893 W/m 11,1 C 16,9 C 17,7 km/h (3 Bft)
19/08/2017 14:18 18,8 C 25,6 C 25,6 C 18,9 C 18,9 C 19,4 C 62 % 0 lf 11 cb 28 cb 84 cb 42 cb 1020,4 hPa 0,0 l/m 16,1 km/h (3 Bft) SO 225 1 min 0 mm 5 UV-I 895 W/m 11,4 C 15,5 C 24,1 km/h (4 Bft)
19/08/2017 14:17 18,8 C 25,0 C 25,0 C 18,9 C 18,9 C 19,4 C 62 % 0 lf 11 cb 28 cb 84 cb 42 cb 1020,4 hPa 0,0 l/m 19,3 km/h (3 Bft) SO 225 1 min 0 mm 5 UV-I 923 W/m 11,4 C 14,8 C 24,1 km/h (4 Bft)
19/08/2017 14:16 18,7 C 25,0 C 25,0 C 18,9 C 18,9 C 19,4 C 63 % 0 lf 11 cb 28 cb 84 cb 42 cb 1020,4 hPa 0,0 l/m 16,1 km/h (3 Bft) S 180 1 min 0 mm 5 UV-I 566 W/m 11,5 C 15,4 C 29,0 km/h (5 Bft)
19/08/2017 14:15 18,7 C 24,4 C 24,4 C 18,9 C 18,9 C 19,4 C 62 % 0 lf 11 cb 28 cb 84 cb 42 cb 1020,4 hPa 0,0 l/m 17,7 km/h (3 Bft) SO 225 1 min 0 mm 6 UV-I 566 W/m 11,3 C 15,0 C 29,0 km/h (5 Bft)
19/08/2017 14:14 18,7 C 25,0 C 25,0 C 18,9 C 18,9 C 19,4 C 61 % 0 lf 11 cb 28 cb 84 cb 42 cb 1020,4 hPa 0,0 l/m 22,5 km/h (4 Bft) S-SO 202 1 min 0 mm 4 UV-I 566 W/m 11,0 C 14,0 C 29,0 km/h (5 Bft)
19/08/2017 14:13 18,7 C 25,6 C 25,6 C 18,9 C 18,9 C 19,4 C 62 % 0 lf 11 cb 28 cb 84 cb 42 cb 1020,4 hPa 0,0 l/m 16,1 km/h (3 Bft) S-SO 202 1 min 0 mm 4 UV-I 566 W/m 11,3 C 15,4 C 20,9 km/h (4 Bft)
19/08/2017 14:12 18,7 C 26,1 C 26,1 C 18,9 C 18,9 C 19,4 C 61 % 0 lf 11 cb 28 cb 84 cb 42 cb 1020,4 hPa 0,0 l/m 22,5 km/h (4 Bft) S-SO 202 1 min 0 mm 4 UV-I 566 W/m 11,0 C 14,0 C 29,0 km/h (5 Bft)
19/08/2017 14:11 18,8 C 26,1 C 26,1 C 18,9 C 18,9 C 19,4 C 62 % 0 lf 11 cb 28 cb 84 cb 42 cb 1020,3 hPa 0,0 l/m 24,1 km/h (4 Bft) S-SO 202 1 min 0 mm 5 UV-I 566 W/m 11,4 C 13,9 C 32,2 km/h (5 Bft)
19/08/2017 14:10 18,8 C 26,1 C 26,1 C 18,9 C 18,9 C 19,4 C 62 % 0 lf 11 cb 28 cb 84 cb 42 cb 1020,4 hPa 0,0 l/m 20,9 km/h (4 Bft) S-SO 202 1 min 0 mm 5 UV-I 997 W/m 11,4 C 14,5 C 25,7 km/h (4 Bft)
19/08/2017 14:09 18,7 C 26,1 C 26,1 C 18,9 C 18,9 C 19,4 C 63 % 0 lf 11 cb 28 cb 84 cb 42 cb 1020,4 hPa 0,0 l/m 19,3 km/h (3 Bft) S-SO 202 1 min 0 mm 5 UV-I 997 W/m 11,5 C 14,7 C 24,1 km/h (4 Bft)
19/08/2017 14:08 18,7 C 26,1 C 26,1 C 18,9 C 18,9 C 19,4 C 63 % 0 lf 11 cb 28 cb 84 cb 42 cb 1020,4 hPa 0,0 l/m 16,1 km/h (3 Bft) S-SO 202 1 min 0 mm 5 UV-I 877 W/m 11,5 C 15,4 C 20,9 km/h (4 Bft)
19/08/2017 14:07 18,6 C 26,1 C 26,1 C 18,9 C 18,9 C 19,4 C 63 % 0 lf 11 cb 28 cb 84 cb 42 cb 1020,3 hPa 0,0 l/m 14,5 km/h (3 Bft) S 180 1 min 0 mm 5 UV-I 907 W/m 11,4 C 15,7 C 20,9 km/h (4 Bft)
19/08/2017 14:06 18,6 C 25,6 C 25,6 C 18,9 C 18,9 C 19,4 C 63 % 0 lf 11 cb 28 cb 84 cb 42 cb 1020,3 hPa 0,0 l/m 16,1 km/h (3 Bft) S 180 1 min 0 mm 5 UV-I 900 W/m 11,4 C 15,3 C 22,5 km/h (4 Bft)
19/08/2017 14:05 18,5 C 25,0 C 25,0 C 18,9 C 18,9 C 19,4 C 63 % 0 lf 11 cb 28 cb 84 cb 42 cb 1020,3 hPa 0,0 l/m 17,7 km/h (3 Bft) S 180 1 min 0 mm 5 UV-I 919 W/m 11,3 C 14,8 C 24,1 km/h (4 Bft)
19/08/2017 14:04 18,4 C 25,0 C 25,0 C 18,9 C 18,9 C 19,4 C 63 % 0 lf 11 cb 28 cb 84 cb 42 cb 1020,3 hPa 0,0 l/m 12,9 km/h (3 Bft) S 180 1 min 0 mm 5 UV-I 962 W/m 11,2 C 15,9 C 17,7 km/h (3 Bft)
19/08/2017 14:03 18,4 C 23,9 C 23,9 C 18,9 C 18,9 C 19,4 C 63 % 0 lf 11 cb 28 cb 84 cb 42 cb 1020,3 hPa 0,0 l/m 17,7 km/h (3 Bft) S 180 1 min 0 mm 5 UV-I 962 W/m 11,2 C 14,6 C 20,9 km/h (4 Bft)
19/08/2017 14:02 18,3 C 23,3 C 23,3 C 18,9 C 18,9 C 19,4 C 64 % 0 lf 11 cb 28 cb 84 cb 42 cb 1020,2 hPa 0,0 l/m 11,3 km/h (2 Bft) S 180 1 min 0 mm 5 UV-I 958 W/m 11,4 C 16,3 C 16,1 km/h (3 Bft)
19/08/2017 14:01 18,3 C 22,2 C 22,2 C 18,9 C 18,9 C 19,4 C 64 % 0 lf 11 cb 28 cb 84 cb 42 cb 1020,3 hPa 0,0 l/m 11,3 km/h (2 Bft) O 270 1 min 0 mm 5 UV-I 960 W/m 11,4 C 16,3 C 16,1 km/h (3 Bft)
19/08/2017 14:00 18,2 C 21,1 C 21,1 C 18,9 C 18,9 C 19,4 C 65 % 0 lf 10 cb 28 cb 84 cb 42 cb 1020,3 hPa 0,0 l/m 9,7 km/h (2 Bft) O 270 1 min 0 mm 5 UV-I 969 W/m 11,5 C 16,8 C 16,1 km/h (3 Bft)
19/08/2017 13:59 18,2 C 21,1 C 21,1 C 18,9 C 18,9 C 19,4 C 64 % 0 lf 10 cb 28 cb 84 cb 42 cb 1020,3 hPa 0,0 l/m 11,3 km/h (2 Bft) O-SO 247 0 min 0 mm 5 UV-I 278 W/m 11,3 C 16,2 C 14,5 km/h (3 Bft)
19/08/2017 13:58 18,2 C 21,1 C 21,1 C 18,9 C 18,9 C 19,4 C 64 % 0 lf 10 cb 28 cb 84 cb 42 cb 1020,2 hPa 0,0 l/m 11,3 km/h (2 Bft) SO 225 0 min 0 mm 3 UV-I 278 W/m 11,3 C 16,2 C 14,5 km/h (3 Bft)
19/08/2017 13:57 18,2 C 21,1 C 21,1 C 18,9 C 18,9 C 19,4 C 63 % 0 lf 10 cb 28 cb 84 cb 42 cb 1020,3 hPa 0,0 l/m 11,3 km/h (2 Bft) O 270 0 min 0 mm 3 UV-I 283 W/m 11,0 C 16,2 C 16,1 km/h (3 Bft)
19/08/2017 13:56 18,2 C 21,7 C 21,7 C 18,9 C 18,9 C 19,4 C 63 % 0 lf 11 cb 28 cb 84 cb 42 cb 1020,3 hPa 0,0 l/m 11,3 km/h (2 Bft) SO 225 0 min 0 mm 3 UV-I 302 W/m 11,0 C 16,2 C 16,1 km/h (3 Bft)
19/08/2017 13:55 18,2 C 22,2 C 22,2 C 18,9 C 18,9 C 19,4 C 63 % 0 lf 11 cb 28 cb 84 cb 42 cb 1020,2 hPa 0,0 l/m 14,5 km/h (3 Bft) S-SO 202 0 min 0 mm 3 UV-I 315 W/m 11,0 C 15,2 C 19,3 km/h (3 Bft)
19/08/2017 13:54 18,2 C 22,2 C 22,2 C 18,9 C 18,9 C 19,4 C 62 % 0 lf 11 cb 28 cb 84 cb 42 cb 1020,2 hPa 0,0 l/m 16,1 km/h (3 Bft) S-SO 202 1 min 0 mm 3 UV-I 939 W/m 10,8 C 14,8 C 19,3 km/h (3 Bft)
19/08/2017 13:53 18,3 C 22,8 C 22,8 C 18,9 C 18,9 C 19,4 C 62 % 0 lf 11 cb 28 cb 84 cb 42 cb 1020,3 hPa 0,0 l/m 16,1 km/h (3 Bft) S 180 1 min 0 mm 3 UV-I 939 W/m 10,9 C 14,9 C 19,3 km/h (3 Bft)
19/08/2017 13:52 18,3 C 23,3 C 23,3 C 18,9 C 18,9 C 19,4 C 62 % 0 lf 11 cb 28 cb 84 cb 42 cb 1020,3 hPa 0,0 l/m 16,1 km/h (3 Bft) S-SO 202 1 min 0 mm 3 UV-I 939 W/m 10,9 C 14,9 C 20,9 km/h (4 Bft)
19/08/2017 13:51 18,3 C 23,3 C 23,3 C 18,9 C 18,9 C 19,4 C 62 % 0 lf 11 cb 28 cb 84 cb 42 cb 1020,4 hPa 0,0 l/m 16,1 km/h (3 Bft) S-SO 202 1 min 0 mm 3 UV-I 939 W/m 10,9 C 14,9 C 25,7 km/h (4 Bft)
19/08/2017 13:50 18,3 C 22,8 C 23,3 C 18,9 C 18,9 C 19,4 C 64 % 0 lf 11 cb 28 cb 84 cb 42 cb 1020,4 hPa 0,0 l/m 17,7 km/h (3 Bft) S-SO 202 1 min 0 mm 5 UV-I 939 W/m 11,4 C 14,5 C 24,1 km/h (4 Bft)
19/08/2017 13:49 18,2 C 21,7 C 22,8 C 18,9 C 18,9 C 19,4 C 64 % 0 lf 11 cb 28 cb 84 cb 42 cb 1020,4 hPa 0,0 l/m 11,3 km/h (2 Bft) S-SO 202 1 min 0 mm 6 UV-I 1062 W/m 11,3 C 16,2 C 16,1 km/h (3 Bft)
19/08/2017 13:48 18,1 C 20,6 C 21,7 C 18,9 C 18,9 C 19,4 C 64 % 0 lf 11 cb 28 cb 84 cb 42 cb 1020,4 hPa 0,0 l/m 14,5 km/h (3 Bft) S-SO 202 1 min 0 mm 6 UV-I 1062 W/m 11,2 C 15,1 C 22,5 km/h (4 Bft)
19/08/2017 13:47 18,1 C 20,6 C 20,6 C 18,9 C 18,9 C 19,4 C 64 % 0 lf 10 cb 28 cb 84 cb 42 cb 1020,3 hPa 0,0 l/m 11,3 km/h (2 Bft) SO 225 0 min 0 mm 6 UV-I 373 W/m 11,2 C 16,1 C 14,5 km/h (3 Bft)
19/08/2017 13:46 18,1 C 20,6 C 20,6 C 18,9 C 18,9 C 19,4 C 63 % 0 lf 10 cb 28 cb 84 cb 42 cb 1020,4 hPa 0,0 l/m 11,3 km/h (2 Bft) S-SO 202 0 min 0 mm 3 UV-I 373 W/m 10,9 C 16,1 C 14,5 km/h (3 Bft)
19/08/2017 13:45 18,1 C 20,6 C 20,6 C 18,3 C 18,9 C 19,4 C 63 % 0 lf 10 cb 28 cb 84 cb 42 cb 1020,3 hPa 0,0 l/m 17,7 km/h (3 Bft) SO 225 0 min 0 mm 3 UV-I 355 W/m 10,9 C 14,3 C 24,1 km/h (4 Bft)
19/08/2017 13:44 18,2 C 20,6 C 20,6 C 18,3 C 18,9 C 19,4 C 63 % 0 lf 10 cb 28 cb 84 cb 42 cb 1020,4 hPa 0,0 l/m 19,3 km/h (3 Bft) SO 225 0 min 0 mm 3 UV-I 353 W/m 11,0 C 14,0 C 25,7 km/h (4 Bft)
19/08/2017 13:43 18,2 C 20,6 C 20,6 C 18,3 C 18,9 C 19,4 C 63 % 0 lf 10 cb 28 cb 84 cb 42 cb 1020,3 hPa 0,0 l/m 14,5 km/h (3 Bft) SO 225 0 min 0 mm 3 UV-I 353 W/m 11,0 C 15,2 C 24,1 km/h (4 Bft)
19/08/2017 13:42 18,3 C 20,6 C 20,6 C 18,3 C 18,9 C 19,4 C 63 % 0 lf 10 cb 28 cb 84 cb 42 cb 1020,4 hPa 0,0 l/m 14,5 km/h (3 Bft) S 180 0 min 0 mm 3 UV-I 353 W/m 11,1 C 15,3 C 41,8 km/h (6 Bft)
19/08/2017 13:41 18,3 C 21,1 C 21,1 C 18,3 C 18,9 C 19,4 C 62 % 0 lf 10 cb 28 cb 84 cb 42 cb 1020,3 hPa 0,0 l/m 27,4 km/h (5 Bft) S-SO 202 0 min 0 mm 3 UV-I 350 W/m 10,9 C 12,7 C 37,0 km/h (5 Bft)
19/08/2017 13:40 18,3 C 21,7 C 21,7 C 18,3 C 18,9 C 19,4 C 63 % 0 lf 11 cb 28 cb 84 cb 42 cb 1020,3 hPa 0,0 l/m 27,4 km/h (5 Bft) S-SO 202 0 min 0 mm 3 UV-I 357 W/m 11,1 C 12,7 C 41,8 km/h (6 Bft)
19/08/2017 13:39 18,3 C 21,7 C 21,7 C 18,3 C 18,9 C 19,4 C 64 % 0 lf 11 cb 28 cb 84 cb 42 cb 1020,3 hPa 0,0 l/m 14,5 km/h (3 Bft) SO 225 0 min 0 mm 3 UV-I 376 W/m 11,4 C 15,3 C 22,5 km/h (4 Bft)
19/08/2017 13:38 18,3 C 21,7 C 21,7 C 18,3 C 18,9 C 19,4 C 63 % 0 lf 11 cb 28 cb 84 cb 42 cb 1020,3 hPa 0,0 l/m 9,7 km/h (2 Bft) S-SO 202 0 min 0 mm 3 UV-I 366 W/m 11,1 C 16,9 C 12,9 km/h (3 Bft)
19/08/2017 13:37 18,3 C 22,2 C 22,2 C 18,3 C 18,9 C 19,4 C 63 % 0 lf 11 cb 28 cb 84 cb 42 cb 1020,3 hPa 0,0 l/m 11,3 km/h (2 Bft) SO 225 0 min 0 mm 3 UV-I 369 W/m 11,1 C 16,3 C 14,5 km/h (3 Bft)
19/08/2017 13:36 18,3 C 22,2 C 22,2 C 18,3 C 18,9 C 19,4 C 64 % 0 lf 11 cb 28 cb 84 cb 42 cb 1020,3 hPa 0,0 l/m 12,9 km/h (3 Bft) S-SO 202 0 min 0 mm 3 UV-I 397 W/m 11,4 C 15,8 C 16,1 km/h (3 Bft)
19/08/2017 13:35 18,2 C 21,7 C 21,7 C 18,3 C 18,9 C 19,4 C 65 % 0 lf 11 cb 28 cb 84 cb 42 cb 1020,3 hPa 0,0 l/m 14,5 km/h (3 Bft) S-SO 202 1 min 0 mm 4 UV-I 1072 W/m 11,5 C 15,2 C 19,3 km/h (3 Bft)
19/08/2017 13:34 18,1 C 21,7 C 21,7 C 18,3 C 18,9 C 19,4 C 66 % 0 lf 11 cb 28 cb 84 cb 42 cb 1020,3 hPa 0,0 l/m 11,3 km/h (2 Bft) S 180 1 min 0 mm 6 UV-I 1072 W/m 11,6 C 16,1 C 16,1 km/h (3 Bft)
19/08/2017 13:33 18,0 C 21,1 C 21,1 C 18,3 C 18,9 C 19,4 C 64 % 0 lf 10 cb 28 cb 84 cb 42 cb 1020,4 hPa 0,0 l/m 11,3 km/h (2 Bft) S-SO 202 1 min 0 mm 6 UV-I 821 W/m 11,1 C 16,0 C 16,1 km/h (3 Bft)
19/08/2017 13:32 17,9 C 20,6 C 20,6 C 18,3 C 18,9 C 19,4 C 64 % 0 lf 10 cb 28 cb 84 cb 42 cb 1020,3 hPa 0,0 l/m 12,9 km/h (3 Bft) S-SO 202 1 min 0 mm 6 UV-I 821 W/m 11,0 C 15,3 C 16,1 km/h (3 Bft)
19/08/2017 13:31 17,9 C 20,0 C 20,0 C 18,3 C 18,9 C 19,4 C 65 % 0 lf 10 cb 28 cb 84 cb 42 cb 1020,4 hPa 0,0 l/m 9,7 km/h (2 Bft) S-SO 202 1 min 0 mm 4 UV-I 821 W/m 11,2 C 16,4 C 16,1 km/h (3 Bft)
19/08/2017 13:30 17,9 C 20,0 C 20,0 C 18,3 C 18,9 C 19,4 C 64 % 0 lf 10 cb 28 cb 84 cb 42 cb 1020,3 hPa 0,0 l/m 11,3 km/h (2 Bft) O-SO 247 0 min 0 mm 5 UV-I 357 W/m 11,0 C 15,8 C 14,5 km/h (3 Bft)
19/08/2017 13:29 17,9 C 20,0 C 20,0 C 18,3 C 18,9 C 19,4 C 64 % 0 lf 10 cb 28 cb 84 cb 42 cb 1020,3 hPa 0,0 l/m 12,9 km/h (3 Bft) SO 225 0 min 0 mm 3 UV-I 357 W/m 11,0 C 15,3 C 20,9 km/h (4 Bft)
19/08/2017 13:28 17,9 C 20,6 C 20,0 C 18,3 C 18,9 C 19,4 C 64 % 0 lf 10 cb 28 cb 84 cb 42 cb 1020,4 hPa 0,0 l/m 11,3 km/h (2 Bft) SO 225 0 min 0 mm 3 UV-I 332 W/m 11,0 C 15,8 C 16,1 km/h (3 Bft)
19/08/2017 13:27 17,9 C 20,6 C 20,6 C 18,3 C 18,9 C 19,4 C 64 % 0 lf 10 cb 28 cb 84 cb 42 cb 1020,4 hPa 0,0 l/m 17,7 km/h (3 Bft) SO 225 0 min 0 mm 3 UV-I 304 W/m 11,0 C 14,0 C 24,1 km/h (4 Bft)
19/08/2017 13:26 17,9 C 20,6 C 20,6 C 18,3 C 18,9 C 19,4 C 65 % 0 lf 10 cb 28 cb 84 cb 42 cb 1020,4 hPa 0,0 l/m 16,1 km/h (3 Bft) S-SO 202 0 min 0 mm 3 UV-I 313 W/m 11,2 C 14,4 C 22,5 km/h (4 Bft)
19/08/2017 13:25 17,9 C 20,6 C 20,6 C 18,3 C 18,9 C 19,4 C 64 % 0 lf 10 cb 28 cb 84 cb 42 cb 1020,3 hPa 0,0 l/m 14,5 km/h (3 Bft) O 270 0 min 0 mm 3 UV-I 408 W/m 11,0 C 14,8 C 22,5 km/h (4 Bft)
19/08/2017 13:24 17,9 C 20,6 C 20,6 C 18,3 C 18,9 C 19,4 C 64 % 0 lf 10 cb 28 cb 84 cb 42 cb 1020,3 hPa 0,0 l/m 11,3 km/h (2 Bft) SO 225 0 min 0 mm 3 UV-I 408 W/m 11,0 C 15,8 C 16,1 km/h (3 Bft)
19/08/2017 13:23 18,0 C 20,6 C 20,6 C 18,3 C 18,9 C 19,4 C 64 % 0 lf 10 cb 28 cb 84 cb 42 cb 1020,3 hPa 0,0 l/m 16,1 km/h (3 Bft) S 180 0 min 0 mm 3 UV-I 408 W/m 11,1 C 14,5 C 24,1 km/h (4 Bft)
19/08/2017 13:22 18,1 C 20,6 C 20,6 C 18,3 C 18,9 C 19,4 C 63 % 0 lf 10 cb 28 cb 84 cb 42 cb 1020,3 hPa 0,0 l/m 17,7 km/h (3 Bft) S-SO 202 0 min 0 mm 3 UV-I 376 W/m 10,9 C 14,3 C 20,9 km/h (4 Bft)
19/08/2017 13:21 18,1 C 20,6 C 20,6 C 18,3 C 18,9 C 19,4 C 63 % 0 lf 10 cb 28 cb 84 cb 42 cb 1020,3 hPa 0,0 l/m 19,3 km/h (3 Bft) S-SO 202 0 min 0 mm 3 UV-I 339 W/m 10,9 C 13,9 C 29,0 km/h (5 Bft)
19/08/2017 13:20 18,1 C 21,1 C 21,1 C 18,3 C 18,9 C 19,4 C 64 % 0 lf 10 cb 28 cb 84 cb 42 cb 1020,2 hPa 0,0 l/m 17,7 km/h (3 Bft) O-SO 247 0 min 0 mm 3 UV-I 341 W/m 11,2 C 14,3 C 25,7 km/h (4 Bft)
19/08/2017 13:19 18,1 C 21,1 C 21,1 C 18,3 C 18,9 C 19,4 C 64 % 0 lf 10 cb 28 cb 84 cb 42 cb 1020,3 hPa 0,0 l/m 16,1 km/h (3 Bft) S-SO 202 0 min 0 mm 3 UV-I 367 W/m 11,2 C 14,7 C 19,3 km/h (3 Bft)
19/08/2017 13:18 18,1 C 21,1 C 21,1 C 18,3 C 18,9 C 19,4 C 63 % 0 lf 10 cb 28 cb 84 cb 42 cb 1020,2 hPa 0,0 l/m 9,7 km/h (2 Bft) S-SO 202 0 min 0 mm 2 UV-I 330 W/m 10,9 C 16,7 C 17,7 km/h (3 Bft)
19/08/2017 13:17 18,1 C 21,7 C 21,7 C 18,3 C 18,9 C 19,4 C 64 % 0 lf 11 cb 28 cb 84 cb 42 cb 1020,2 hPa 0,0 l/m 16,1 km/h (3 Bft) S-SO 202 0 min 0 mm 2 UV-I 316 W/m 11,2 C 14,7 C 20,9 km/h (4 Bft)
19/08/2017 13:16 18,1 C 21,7 C 21,7 C 18,3 C 18,9 C 19,4 C 63 % 0 lf 11 cb 28 cb 84 cb 42 cb 1020,2 hPa 0,0 l/m 9,7 km/h (2 Bft) S-SO 202 1 min 0 mm 4 UV-I 531 W/m 10,9 C 16,7 C 12,9 km/h (3 Bft)
19/08/2017 13:15 18,1 C 21,7 C 21,7 C 18,3 C 18,9 C 19,4 C 63 % 0 lf 11 cb 28 cb 84 cb 42 cb 1020,3 hPa 0,0 l/m 12,9 km/h (3 Bft) S-SO 202 1 min 0 mm 3 UV-I 531 W/m 10,9 C 15,6 C 20,9 km/h (4 Bft)
19/08/2017 13:14 18,0 C 21,7 C 21,7 C 18,3 C 18,9 C 19,4 C 64 % 0 lf 11 cb 28 cb 84 cb 42 cb 1020,3 hPa 0,0 l/m 12,9 km/h (3 Bft) S-SO 202 1 min 0 mm 4 UV-I 531 W/m 11,1 C 15,4 C 25,7 km/h (4 Bft)
19/08/2017 13:13 18,0 C 21,1 C 21,1 C 18,3 C 18,9 C 19,4 C 64 % 0 lf 10 cb 28 cb 84 cb 42 cb 1020,2 hPa 0,0 l/m 14,5 km/h (3 Bft) S-SO 202 1 min 0 mm 4 UV-I 1085 W/m 11,1 C 15,0 C 19,3 km/h (3 Bft)
19/08/2017 13:12 18,0 C 20,6 C 20,6 C 18,3 C 18,9 C 19,4 C 63 % 0 lf 10 cb 28 cb 84 cb 42 cb 1020,3 hPa 0,0 l/m 14,5 km/h (3 Bft) S 180 1 min 0 mm 5 UV-I 1085 W/m 10,8 C 15,0 C 19,3 km/h (3 Bft)
19/08/2017 13:11 17,9 C 20,0 C 20,0 C 18,3 C 18,9 C 19,4 C 63 % 0 lf 10 cb 28 cb 84 cb 42 cb 1020,3 hPa 0,0 l/m 14,5 km/h (3 Bft) SO 225 1 min 0 mm 5 UV-I 1055 W/m 10,8 C 14,8 C 24,1 km/h (4 Bft)
19/08/2017 13:10 18,0 C 20,0 C 20,0 C 18,3 C 18,9 C 19,4 C 63 % 0 lf 10 cb 28 cb 84 cb 42 cb 1020,3 hPa 0,0 l/m 14,5 km/h (3 Bft) S 180 0 min 0 mm 3 UV-I 323 W/m 10,8 C 15,0 C 17,7 km/h (3 Bft)
19/08/2017 13:09 18,1 C 20,0 C 20,0 C 18,3 C 18,9 C 19,4 C 63 % 0 lf 10 cb 28 cb 84 cb 42 cb 1020,3 hPa 0,0 l/m 14,5 km/h (3 Bft) S-SO 202 0 min 0 mm 3 UV-I 323 W/m 10,9 C 15,1 C 22,5 km/h (4 Bft)
19/08/2017 13:08 18,1 C 20,0 C 20,0 C 18,3 C 18,9 C 19,4 C 63 % 0 lf 10 cb 28 cb 84 cb 42 cb 1020,2 hPa 0,0 l/m 16,1 km/h (3 Bft) S-SO 202 0 min 0 mm 3 UV-I 299 W/m 10,9 C 14,7 C 20,9 km/h (4 Bft)
19/08/2017 13:07 18,1 C 20,6 C 20,0 C 18,3 C 18,9 C 19,4 C 63 % 0 lf 10 cb 28 cb 84 cb 42 cb 1020,2 hPa 0,0 l/m 16,1 km/h (3 Bft) S-SO 202 0 min 0 mm 2 UV-I 271 W/m 10,9 C 14,7 C 29,0 km/h (5 Bft)
19/08/2017 13:06 18,1 C 21,1 C 20,6 C 18,3 C 18,9 C 19,4 C 62 % 0 lf 10 cb 28 cb 84 cb 42 cb 1020,2 hPa 0,0 l/m 20,9 km/h (4 Bft) S 180 0 min 0 mm 2 UV-I 257 W/m 10,7 C 13,6 C 25,7 km/h (4 Bft)
19/08/2017 13:05 18,2 C 21,1 C 21,1 C 18,3 C 18,9 C 19,4 C 63 % 0 lf 10 cb 28 cb 84 cb 42 cb 1020,1 hPa 0,0 l/m 20,9 km/h (4 Bft) S 180 0 min 0 mm 2 UV-I 248 W/m 11,0 C 13,7 C 29,0 km/h (5 Bft)
19/08/2017 13:04 18,1 C 21,1 C 21,1 C 18,3 C 18,9 C 19,4 C 63 % 0 lf 10 cb 28 cb 84 cb 42 cb 1020,1 hPa 0,0 l/m 9,7 km/h (2 Bft) S 180 0 min 0 mm 2 UV-I 243 W/m 10,9 C 16,7 C 12,9 km/h (3 Bft)
19/08/2017 13:03 18,1 C 21,1 C 21,1 C 18,3 C 18,9 C 19,4 C 62 % 0 lf 10 cb 28 cb 84 cb 42 cb 1020,2 hPa 0,0 l/m 11,3 km/h (2 Bft) SO 225 0 min 0 mm 2 UV-I 380 W/m 10,7 C 16,1 C 16,1 km/h (3 Bft)
19/08/2017 13:02 18,1 C 21,7 C 21,7 C 18,3 C 18,9 C 19,4 C 62 % 0 lf 11 cb 28 cb 84 cb 42 cb 1020,1 hPa 0,0 l/m 14,5 km/h (3 Bft) S-SO 202 0 min 0 mm 2 UV-I 380 W/m 10,7 C 15,1 C 19,3 km/h (3 Bft)
19/08/2017 13:01 18,0 C 21,1 C 21,1 C 18,3 C 18,9 C 19,4 C 62 % 0 lf 10 cb 28 cb 84 cb 42 cb 1020,2 hPa 0,0 l/m 14,5 km/h (3 Bft) S 180 1 min 0 mm 3 UV-I 494 W/m 10,6 C 15,0 C 19,3 km/h (3 Bft)
19/08/2017 13:00 18,0 C 21,1 C 21,1 C 18,3 C 18,9 C 19,4 C 63 % 0 lf 10 cb 28 cb 84 cb 42 cb 1020,3 hPa 0,0 l/m 14,5 km/h (3 Bft) S 180 1 min 0 mm 5 UV-I 494 W/m 10,8 C 15,0 C 20,9 km/h (4 Bft)
19/08/2017 12:59 18,0 C 21,1 C 21,1 C 18,3 C 18,9 C 19,4 C 63 % 0 lf 10 cb 28 cb 84 cb 42 cb 1020,1 hPa 0,0 l/m 16,1 km/h (3 Bft) S-SE 157 1 min 0 mm 4 UV-I 494 W/m 10,8 C 14,5 C 22,5 km/h (4 Bft)
19/08/2017 12:58 18,0 C 20,6 C 20,6 C 18,3 C 18,9 C 19,4 C 63 % 0 lf 10 cb 28 cb 84 cb 42 cb 1020,1 hPa 0,0 l/m 11,3 km/h (2 Bft) S-SO 202 1 min 0 mm 4 UV-I 494 W/m 10,8 C 16,0 C 16,1 km/h (3 Bft)
19/08/2017 12:57 18,0 C 20,6 C 20,6 C 18,3 C 18,9 C 19,4 C 62 % 0 lf 10 cb 28 cb 84 cb 42 cb 1020,2 hPa 0,0 l/m 14,5 km/h (3 Bft) S 180 0 min 0 mm 3 UV-I 313 W/m 10,6 C 15,0 C 22,5 km/h (4 Bft)
19/08/2017 12:56 18,1 C 21,1 C 21,1 C 18,3 C 18,9 C 19,4 C 62 % 0 lf 10 cb 28 cb 84 cb 42 cb 1020,2 hPa 0,0 l/m 20,9 km/h (4 Bft) S 180 0 min 0 mm 3 UV-I 313 W/m 10,7 C 13,6 C 30,6 km/h (5 Bft)
19/08/2017 12:55 18,1 C 21,1 C 21,1 C 18,3 C 18,9 C 19,4 C 63 % 0 lf 10 cb 28 cb 84 cb 42 cb 1020,1 hPa 0,0 l/m 22,5 km/h (4 Bft) S 180 0 min 0 mm 3 UV-I 313 W/m 10,9 C 13,3 C 33,8 km/h (5 Bft)
19/08/2017 12:54 18,1 C 21,7 C 21,7 C 18,3 C 18,9 C 19,4 C 63 % 0 lf 11 cb 28 cb 84 cb 42 cb 1020,2 hPa 0,0 l/m 16,1 km/h (3 Bft) SO 225 0 min 0 mm 3 UV-I 313 W/m 10,9 C 14,7 C 20,9 km/h (4 Bft)
19/08/2017 12:53 17,9 C 21,1 C 21,1 C 18,3 C 18,9 C 19,4 C 64 % 0 lf 10 cb 28 cb 84 cb 42 cb 1020,3 hPa 0,0 l/m 19,3 km/h (3 Bft) S-SO 202 1 min 0 mm 3 UV-I 979 W/m 11,0 C 13,6 C 24,1 km/h (4 Bft)
19/08/2017 12:52 17,9 C 21,1 C 21,1 C 18,3 C 18,9 C 19,4 C 63 % 0 lf 10 cb 28 cb 84 cb 42 cb 1020,1 hPa 0,0 l/m 14,5 km/h (3 Bft) SO 225 1 min 0 mm 5 UV-I 979 W/m 10,8 C 14,8 C 20,9 km/h (4 Bft)
19/08/2017 12:51 17,8 C 20,6 C 20,6 C 18,3 C 18,9 C 19,4 C 63 % 0 lf 10 cb 28 cb 84 cb 42 cb 1020,1 hPa 0,0 l/m 17,7 km/h (3 Bft) S-SO 202 1 min 0 mm 5 UV-I 969 W/m 10,7 C 13,9 C 20,9 km/h (4 Bft)
19/08/2017 12:50 17,8 C 20,0 C 20,0 C 18,3 C 18,9 C 19,4 C 63 % 0 lf 10 cb 28 cb 84 cb 42 cb 1020,1 hPa 0,0 l/m 12,9 km/h (3 Bft) S-SO 202 1 min 0 mm 5 UV-I 986 W/m 10,7 C 15,2 C 19,3 km/h (3 Bft)
19/08/2017 12:49 17,8 C 19,4 C 19,4 C 18,3 C 18,9 C 19,4 C 64 % 0 lf 10 cb 28 cb 84 cb 42 cb 1020,2 hPa 0,0 l/m 17,7 km/h (3 Bft) SO 225 0 min 0 mm 5 UV-I 330 W/m 10,9 C 13,9 C 22,5 km/h (4 Bft)
19/08/2017 12:48 17,8 C 19,4 C 19,4 C 18,3 C 18,9 C 19,4 C 65 % 0 lf 10 cb 28 cb 84 cb 42 cb 1020,1 hPa 0,0 l/m 9,7 km/h (2 Bft) S-SO 202 0 min 0 mm 3 UV-I 330 W/m 11,1 C 16,3 C 14,5 km/h (3 Bft)
19/08/2017 12:47 17,8 C 19,4 C 19,4 C 18,3 C 18,9 C 19,4 C 64 % 0 lf 10 cb 28 cb 84 cb 42 cb 1020,2 hPa 0,0 l/m 4,8 km/h (1 Bft) S-SO 202 0 min 0 mm 3 UV-I 330 W/m 10,9 C 17,8 C 12,9 km/h (3 Bft)
19/08/2017 12:46 17,8 C 19,4 C 19,4 C 18,3 C 18,9 C 19,4 C 64 % 0 lf 10 cb 28 cb 84 cb 42 cb 1020,2 hPa 0,0 l/m 11,3 km/h (2 Bft) SO 225 0 min 0 mm 3 UV-I 327 W/m 10,9 C 15,7 C 19,3 km/h (3 Bft)
19/08/2017 12:45 17,8 C 19,4 C 19,4 C 18,3 C 18,9 C 19,4 C 64 % 0 lf 10 cb 28 cb 84 cb 42 cb 1020,2 hPa 0,0 l/m 8,0 km/h (2 Bft) SO 225 0 min 0 mm 3 UV-I 297 W/m 10,9 C 17,0 C 11,3 km/h (2 Bft)
19/08/2017 12:44 17,8 C 19,4 C 19,4 C 18,3 C 18,9 C 19,4 C 65 % 0 lf 10 cb 28 cb 84 cb 42 cb 1020,2 hPa 0,0 l/m 17,7 km/h (3 Bft) SO 225 0 min 0 mm 2 UV-I 274 W/m 11,1 C 13,9 C 20,9 km/h (4 Bft)
19/08/2017 12:43 17,8 C 19,4 C 19,4 C 18,3 C 18,9 C 19,4 C 65 % 0 lf 10 cb 28 cb 84 cb 42 cb 1020,1 hPa 0,0 l/m 12,9 km/h (3 Bft) S-SO 202 0 min 0 mm 3 UV-I 276 W/m 11,1 C 15,2 C 16,1 km/h (3 Bft)
19/08/2017 12:42 17,8 C 19,4 C 19,4 C 18,3 C 18,9 C 19,4 C 64 % 0 lf 10 cb 28 cb 84 cb 42 cb 1020,1 hPa 0,0 l/m 12,9 km/h (3 Bft) SO 225 0 min 0 mm 3 UV-I 292 W/m 10,9 C 15,2 C 16,1 km/h (3 Bft)
19/08/2017 12:41 17,8 C 20,0 C 20,0 C 18,3 C 18,9 C 19,4 C 64 % 0 lf 10 cb 28 cb 84 cb 42 cb 1020,0 hPa 0,0 l/m 16,1 km/h (3 Bft) SO 225 0 min 0 mm 3 UV-I 279 W/m 10,9 C 14,3 C 19,3 km/h (3 Bft)
19/08/2017 12:40 17,8 C 20,0 C 20,0 C 18,3 C 18,9 C 19,4 C 63 % 0 lf 10 cb 28 cb 84 cb 42 cb 1020,0 hPa 0,0 l/m 16,1 km/h (3 Bft) S-SO 202 0 min 0 mm 3 UV-I 309 W/m 10,7 C 14,3 C 20,9 km/h (4 Bft)
19/08/2017 12:39 17,8 C 20,0 C 20,0 C 18,3 C 18,9 C 19,4 C 63 % 0 lf 10 cb 28 cb 84 cb 42 cb 1020,1 hPa 0,0 l/m 12,9 km/h (3 Bft) S 180 0 min 0 mm 3 UV-I 309 W/m 10,7 C 15,2 C 16,1 km/h (3 Bft)
19/08/2017 12:38 17,8 C 20,0 C 20,0 C 18,3 C 18,9 C 19,4 C 63 % 0 lf 10 cb 28 cb 84 cb 42 cb 1020,1 hPa 0,0 l/m 11,3 km/h (2 Bft) S-SO 202 0 min 0 mm 3 UV-I 309 W/m 10,7 C 15,7 C 17,7 km/h (3 Bft)
19/08/2017 12:37 17,8 C 20,6 C 20,6 C 18,3 C 18,9 C 19,4 C 63 % 0 lf 10 cb 28 cb 84 cb 42 cb 1020,1 hPa 0,0 l/m 8,0 km/h (2 Bft) S-SO 202 0 min 0 mm 3 UV-I 285 W/m 10,7 C 17,0 C 14,5 km/h (3 Bft)
19/08/2017 12:36 17,8 C 20,6 C 20,6 C 18,3 C 18,9 C 19,4 C 63 % 0 lf 10 cb 28 cb 84 cb 42 cb 1020,1 hPa 0,0 l/m 8,0 km/h (2 Bft) O-SO 247 0 min 0 mm 2 UV-I 272 W/m 10,7 C 17,0 C 12,9 km/h (3 Bft)
19/08/2017 12:35 17,9 C 21,1 C 21,1 C 18,3 C 18,9 C 19,4 C 62 % 0 lf 10 cb 28 cb 84 cb 42 cb 1020,1 hPa 0,0 l/m 14,5 km/h (3 Bft) S-SO 202 0 min 0 mm 2 UV-I 276 W/m 10,5 C 14,8 C 24,1 km/h (4 Bft)
19/08/2017 12:34 17,9 C 21,7 C 21,7 C 18,3 C 18,9 C 19,4 C 62 % 0 lf 11 cb 28 cb 84 cb 42 cb 1020,2 hPa 0,0 l/m 22,5 km/h (4 Bft) S-SO 202 0 min 0 mm 2 UV-I 308 W/m 10,5 C 13,0 C 29,0 km/h (5 Bft)
19/08/2017 12:33 17,9 C 22,2 C 22,2 C 18,3 C 18,9 C 19,4 C 62 % 0 lf 11 cb 28 cb 84 cb 42 cb 1020,1 hPa 0,0 l/m 16,1 km/h (3 Bft) S 180 0 min 0 mm 3 UV-I 371 W/m 10,5 C 14,4 C 20,9 km/h (4 Bft)
19/08/2017 12:32 17,9 C 22,2 C 22,2 C 18,3 C 18,9 C 19,4 C 63 % 0 lf 11 cb 28 cb 84 cb 42 cb 1020,1 hPa 0,0 l/m 20,9 km/h (4 Bft) S-SO 202 0 min 0 mm 4 UV-I 406 W/m 10,8 C 13,3 C 30,6 km/h (5 Bft)
19/08/2017 12:31 17,9 C 22,2 C 22,2 C 18,3 C 18,9 C 19,4 C 63 % 0 lf 11 cb 28 cb 84 cb 42 cb 1020,0 hPa 0,0 l/m 22,5 km/h (4 Bft) S-SO 202 1 min 0 mm 4 UV-I 954 W/m 10,8 C 13,0 C 25,7 km/h (4 Bft)
19/08/2017 12:30 17,8 C 21,7 C 21,7 C 18,3 C 18,9 C 19,4 C 63 % 0 lf 11 cb 28 cb 84 cb 42 cb 1020,0 hPa 0,0 l/m 16,1 km/h (3 Bft) S 180 1 min 0 mm 5 UV-I 965 W/m 10,7 C 14,3 C 25,7 km/h (4 Bft)
19/08/2017 12:29 17,7 C 21,7 C 21,7 C 18,3 C 18,9 C 19,4 C 62 % 0 lf 11 cb 28 cb 84 cb 42 cb 1020,1 hPa 0,0 l/m 11,3 km/h (2 Bft) SO 225 1 min 0 mm 3 UV-I 877 W/m 10,3 C 15,6 C 19,3 km/h (3 Bft)
19/08/2017 12:28 17,7 C 21,1 C 21,1 C 18,3 C 18,9 C 19,4 C 64 % 0 lf 10 cb 28 cb 84 cb 42 cb 1020,1 hPa 0,0 l/m 16,1 km/h (3 Bft) S 180 1 min 0 mm 5 UV-I 970 W/m 10,8 C 14,2 C 22,5 km/h (4 Bft)
19/08/2017 12:27 17,6 C 20,0 C 20,0 C 18,3 C 18,9 C 19,4 C 63 % 0 lf 10 cb 28 cb 84 cb 42 cb 1020,1 hPa 0,0 l/m 8,0 km/h (2 Bft) S-SO 202 1 min 0 mm 5 UV-I 925 W/m 10,5 C 16,8 C 11,3 km/h (2 Bft)
19/08/2017 12:26 17,6 C 19,4 C 20,0 C 18,3 C 18,9 C 19,4 C 62 % 0 lf 10 cb 28 cb 84 cb 42 cb 1020,1 hPa 0,0 l/m 11,3 km/h (2 Bft) SO 225 1 min 0 mm 5 UV-I 896 W/m 10,2 C 15,5 C 16,1 km/h (3 Bft)
19/08/2017 12:25 17,6 C 19,4 C 19,4 C 18,3 C 18,9 C 19,4 C 61 % 0 lf 10 cb 28 cb 84 cb 42 cb 1020,2 hPa 0,0 l/m 14,5 km/h (3 Bft) S-SO 202 1 min 0 mm 5 UV-I 879 W/m 10,0 C 14,5 C 19,3 km/h (3 Bft)
19/08/2017 12:24 17,7 C 19,4 C 19,4 C 18,3 C 18,9 C 19,4 C 61 % 0 lf 10 cb 28 cb 84 cb 42 cb 1020,1 hPa 0,0 l/m 17,7 km/h (3 Bft) S-SO 202 0 min 0 mm 3 UV-I 232 W/m 10,1 C 13,8 C 25,7 km/h (4 Bft)
19/08/2017 12:23 17,7 C 19,4 C 19,4 C 18,3 C 18,9 C 19,4 C 62 % 0 lf 10 cb 28 cb 84 cb 42 cb 1020,1 hPa 0,0 l/m 17,7 km/h (3 Bft) S-SO 202 0 min 0 mm 2 UV-I 234 W/m 10,3 C 13,8 C 29,0 km/h (5 Bft)
19/08/2017 12:22 17,8 C 20,0 C 20,0 C 18,3 C 18,9 C 19,4 C 62 % 0 lf 10 cb 28 cb 84 cb 42 cb 1020,1 hPa 0,0 l/m 16,1 km/h (3 Bft) S-SO 202 0 min 0 mm 2 UV-I 272 W/m 10,4 C 14,3 C 20,9 km/h (4 Bft)
19/08/2017 12:21 17,8 C 20,6 C 20,6 C 18,3 C 18,9 C 19,4 C 62 % 0 lf 10 cb 28 cb 84 cb 42 cb 1020,1 hPa 0,0 l/m 17,7 km/h (3 Bft) S-SO 202 0 min 0 mm 3 UV-I 272 W/m 10,4 C 13,9 C 25,7 km/h (4 Bft)
19/08/2017 12:20 17,8 C 21,1 C 21,1 C 18,3 C 18,9 C 19,4 C 62 % 0 lf 11 cb 28 cb 84 cb 42 cb 1020,1 hPa 0,0 l/m 16,1 km/h (3 Bft) S-SO 202 0 min 0 mm 3 UV-I 267 W/m 10,4 C 14,3 C 25,7 km/h (4 Bft)
19/08/2017 12:19 17,8 C 21,1 C 21,1 C 18,3 C 18,9 C 19,4 C 63 % 0 lf 10 cb 28 cb 84 cb 42 cb 1020,1 hPa 0,0 l/m 16,1 km/h (3 Bft) S-SO 202 0 min 0 mm 5 UV-I 274 W/m 10,7 C 14,3 C 20,9 km/h (4 Bft)
19/08/2017 12:18 17,8 C 21,1 C 21,1 C 18,3 C 18,9 C 19,4 C 63 % 0 lf 11 cb 28 cb 84 cb 42 cb 1020,0 hPa 0,0 l/m 12,9 km/h (3 Bft) S-SO 202 0 min 0 mm 3 UV-I 274 W/m 10,7 C 15,2 C 17,7 km/h (3 Bft)
19/08/2017 12:17 17,9 C 21,1 C 21,1 C 18,3 C 18,9 C 19,4 C 64 % 0 lf 11 cb 28 cb 84 cb 42 cb 1020,0 hPa 0,0 l/m 12,9 km/h (3 Bft) S-SO 202 1 min 0 mm 3 UV-I 788 W/m 11,0 C 15,3 C 17,7 km/h (3 Bft)
19/08/2017 12:16 17,9 C 21,7 C 21,7 C 18,3 C 18,9 C 19,4 C 64 % 0 lf 11 cb 28 cb 84 cb 42 cb 1020,0 hPa 0,0 l/m 16,1 km/h (3 Bft) S 180 1 min 0 mm 3 UV-I 788 W/m 11,0 C 14,4 C 22,5 km/h (4 Bft)
19/08/2017 12:15 17,9 C 21,7 C 21,7 C 18,3 C 18,9 C 19,4 C 62 % 0 lf 11 cb 28 cb 84 cb 42 cb 1020,0 hPa 0,0 l/m 12,9 km/h (3 Bft) S 180 1 min 0 mm 5 UV-I 858 W/m 10,5 C 15,3 C 20,9 km/h (4 Bft)
19/08/2017 12:14 17,9 C 21,7 C 21,7 C 18,3 C 18,9 C 19,4 C 62 % 0 lf 11 cb 28 cb 84 cb 42 cb 1020,0 hPa 0,0 l/m 12,9 km/h (3 Bft) S-SO 202 1 min 0 mm 5 UV-I 895 W/m 10,5 C 15,3 C 16,1 km/h (3 Bft)
19/08/2017 12:13 17,9 C 22,2 C 22,2 C 18,3 C 18,9 C 19,4 C 63 % 0 lf 11 cb 28 cb 84 cb 42 cb 1020,0 hPa 0,0 l/m 20,9 km/h (4 Bft) S-SO 202 1 min 0 mm 4 UV-I 895 W/m 10,8 C 13,3 C 25,7 km/h (4 Bft)
19/08/2017 12:12 17,9 C 22,2 C 22,2 C 18,3 C 18,9 C 19,4 C 64 % 0 lf 11 cb 28 cb 84 cb 42 cb 1020,0 hPa 0,0 l/m 12,9 km/h (3 Bft) S-SO 202 1 min 0 mm 5 UV-I 895 W/m 11,0 C 15,3 C 20,9 km/h (4 Bft)
19/08/2017 12:11 17,9 C 22,2 C 22,2 C 18,3 C 18,9 C 19,4 C 63 % 0 lf 11 cb 28 cb 84 cb 42 cb 1019,9 hPa 0,0 l/m 16,1 km/h (3 Bft) SO 225 1 min 0 mm 4 UV-I 870 W/m 10,8 C 14,4 C 22,5 km/h (4 Bft)
19/08/2017 12:10 17,9 C 22,2 C 22,2 C 18,3 C 18,9 C 19,4 C 63 % 0 lf 11 cb 28 cb 84 cb 42 cb 1019,9 hPa 0,0 l/m 17,7 km/h (3 Bft) S 180 1 min 0 mm 4 UV-I 860 W/m 10,8 C 14,0 C 29,0 km/h (5 Bft)
19/08/2017 12:09 17,9 C 22,2 C 22,2 C 18,3 C 18,9 C 19,4 C 63 % 0 lf 11 cb 28 cb 84 cb 42 cb 1019,9 hPa 0,0 l/m 20,9 km/h (4 Bft) S 180 1 min 0 mm 4 UV-I 860 W/m 10,8 C 13,3 C 29,0 km/h (5 Bft)
19/08/2017 12:08 17,9 C 22,2 C 22,2 C 18,3 C 18,9 C 19,4 C 64 % 0 lf 11 cb 28 cb 84 cb 42 cb 1019,9 hPa 0,0 l/m 20,9 km/h (4 Bft) S 180 1 min 0 mm 4 UV-I 779 W/m 11,0 C 13,3 C 25,7 km/h (4 Bft)
19/08/2017 12:07 17,9 C 21,7 C 21,7 C 18,3 C 18,9 C 19,4 C 65 % 0 lf 11 cb 28 cb 84 cb 42 cb 1019,9 hPa 0,0 l/m 17,7 km/h (3 Bft) S 180 1 min 0 mm 4 UV-I 737 W/m 11,2 C 14,0 C 22,5 km/h (4 Bft)
19/08/2017 12:06 17,9 C 21,7 C 21,7 C 18,3 C 18,9 C 19,4 C 65 % 0 lf 11 cb 28 cb 84 cb 42 cb 1019,9 hPa 0,0 l/m 11,3 km/h (2 Bft) S-SO 202 1 min 0 mm 4 UV-I 816 W/m 11,2 C 15,8 C 17,7 km/h (3 Bft)
19/08/2017 12:05 17,9 C 21,7 C 21,7 C 18,3 C 18,9 C 19,4 C 63 % 0 lf 11 cb 28 cb 84 cb 42 cb 1019,9 hPa 0,0 l/m 11,3 km/h (2 Bft) SO 225 1 min 0 mm 4 UV-I 817 W/m 10,8 C 15,8 C 17,7 km/h (3 Bft)
19/08/2017 12:04 17,9 C 21,7 C 21,7 C 18,3 C 18,9 C 19,4 C 63 % 0 lf 11 cb 28 cb 84 cb 42 cb 1019,9 hPa 0,0 l/m 11,3 km/h (2 Bft) SO 225 1 min 0 mm 4 UV-I 819 W/m 10,8 C